<?xml version='1.0' encoding='UTF-8'?><gpx version="1.1" creator="JPX - https://github.com/jenetics/jpx" xmlns="http://www.topografix.com/GPX/1/1"><trk><trkseg><trkpt lat="52.903939764271215" lon="12.727939092737373"><ele>42.0</ele><time>2026-04-17T12:44:52.997Z</time></trkpt><trkpt lat="52.9040301014988" lon="12.727896198512768"><ele>42.0</ele><time>2026-04-17T12:45:38Z</time></trkpt><trkpt lat="52.90409112929478" lon="12.727858393301599"><ele>42.0</ele><time>2026-04-17T12:45:39Z</time></trkpt><trkpt lat="52.9041602913723" lon="12.72780129355924"><ele>42.0</ele><time>2026-04-17T12:45:40.999Z</time></trkpt><trkpt lat="52.904220777896036" lon="12.727749102780255"><ele>42.0</ele><time>2026-04-17T12:45:45.999Z</time></trkpt><trkpt lat="52.904294637508166" lon="12.727798943196497"><ele>42.0</ele><time>2026-04-17T12:45:47.999Z</time></trkpt><trkpt lat="52.90431753812469" lon="12.727920139153447"><ele>41.8</ele><time>2026-04-17T12:45:48.999Z</time></trkpt><trkpt lat="52.90435396739377" lon="12.728050878520918"><ele>41.6</ele><time>2026-04-17T12:45:49.999Z</time></trkpt><trkpt lat="52.9044023194603" lon="12.728165841340426"><ele>41.4</ele><time>2026-04-17T12:45:50.999Z</time></trkpt><trkpt lat="52.904469475047705" lon="12.728313518776037"><ele>41.199999999999996</ele><time>2026-04-17T12:45:51.999Z</time></trkpt><trkpt lat="52.90453159457774" lon="12.728509066407858"><ele>41.0</ele><time>2026-04-17T12:45:52.999Z</time></trkpt><trkpt lat="52.90458933387355" lon="12.728693575652695"><ele>41.0</ele><time>2026-04-17T12:45:53.999Z</time></trkpt><trkpt lat="52.90465735501016" lon="12.728886461469848"><ele>41.0</ele><time>2026-04-17T12:45:54.999Z</time></trkpt><trkpt lat="52.90473658144314" lon="12.72909237630968"><ele>41.0</ele><time>2026-04-17T12:45:55.999Z</time></trkpt><trkpt lat="52.90481857197894" lon="12.729311160183794"><ele>41.0</ele><time>2026-04-17T12:45:56.999Z</time></trkpt><trkpt lat="52.904900945378444" lon="12.729522516181893"><ele>41.0</ele><time>2026-04-17T12:45:57.999Z</time></trkpt><trkpt lat="52.9049855310165" lon="12.729722848905611"><ele>41.0</ele><time>2026-04-17T12:45:58.999Z</time></trkpt><trkpt lat="52.90506514761103" lon="12.729941065538737"><ele>41.0</ele><time>2026-04-17T12:45:59.999Z</time></trkpt><trkpt lat="52.90513611361229" lon="12.730160821096673"><ele>40.75</ele><time>2026-04-17T12:46:00.999Z</time></trkpt><trkpt lat="52.905197133772084" lon="12.730371982456562"><ele>40.5</ele><time>2026-04-17T12:46:01.999Z</time></trkpt><trkpt lat="52.9052533866928" lon="12.730578220716886"><ele>40.25</ele><time>2026-04-17T12:46:02.999Z</time></trkpt><trkpt lat="52.90530289508165" lon="12.730790154897411"><ele>40.0</ele><time>2026-04-17T12:46:03.999Z</time></trkpt><trkpt lat="52.90535178384043" lon="12.731006407198468"><ele>40.0</ele><time>2026-04-17T12:46:04.999Z</time></trkpt><trkpt lat="52.905382959327305" lon="12.731241140935898"><ele>40.0</ele><time>2026-04-17T12:46:05.999Z</time></trkpt><trkpt lat="52.90541599856516" lon="12.731466745978777"><ele>40.0</ele><time>2026-04-17T12:46:06.999Z</time></trkpt><trkpt lat="52.905446541193605" lon="12.731696034286205"><ele>40.0</ele><time>2026-04-17T12:46:07.999Z</time></trkpt><trkpt lat="52.90546596545299" lon="12.731923155165184"><ele>40.0</ele><time>2026-04-17T12:46:08.999Z</time></trkpt><trkpt lat="52.90548170605463" lon="12.732150766841317"><ele>40.0</ele><time>2026-04-17T12:46:09.999Z</time></trkpt><trkpt lat="52.90549330933762" lon="12.73237955372456"><ele>40.0</ele><time>2026-04-17T12:46:10.999Z</time></trkpt><trkpt lat="52.90549855753181" lon="12.732606904163843"><ele>40.0</ele><time>2026-04-17T12:46:11.999Z</time></trkpt><trkpt lat="52.905499916976765" lon="12.732832374015388"><ele>40.0</ele><time>2026-04-17T12:46:12.999Z</time></trkpt><trkpt lat="52.905496356219025" lon="12.733059267319712"><ele>40.0</ele><time>2026-04-17T12:46:13.999Z</time></trkpt><trkpt lat="52.90549435600821" lon="12.733285374038555"><ele>40.0</ele><time>2026-04-17T12:46:14.999Z</time></trkpt><trkpt lat="52.905481914937425" lon="12.733507181902516"><ele>40.0</ele><time>2026-04-17T12:46:15.999Z</time></trkpt><trkpt lat="52.905477306489374" lon="12.733724067183731"><ele>40.0</ele><time>2026-04-17T12:46:16.999Z</time></trkpt><trkpt lat="52.90547185417065" lon="12.733965983619912"><ele>40.0</ele><time>2026-04-17T12:46:17.999Z</time></trkpt><trkpt lat="52.90546614141828" lon="12.734199983296385"><ele>40.0</ele><time>2026-04-17T12:46:18.999Z</time></trkpt><trkpt lat="52.90545609953007" lon="12.734433468633945"><ele>40.0</ele><time>2026-04-17T12:46:19.999Z</time></trkpt><trkpt lat="52.90545273417057" lon="12.73467417479969"><ele>40.0</ele><time>2026-04-17T12:46:20.999Z</time></trkpt><trkpt lat="52.90545197795242" lon="12.734916140023737"><ele>40.0</ele><time>2026-04-17T12:46:21.999Z</time></trkpt><trkpt lat="52.905457551551386" lon="12.73516576343239"><ele>40.0</ele><time>2026-04-17T12:46:22.999Z</time></trkpt><trkpt lat="52.90546818122731" lon="12.735420309836702"><ele>40.0</ele><time>2026-04-17T12:46:23.999Z</time></trkpt><trkpt lat="52.9054809811602" lon="12.735677726862024"><ele>40.0</ele><time>2026-04-17T12:46:24.998Z</time></trkpt><trkpt lat="52.905502991402265" lon="12.73593577700254"><ele>40.0</ele><time>2026-04-17T12:46:25.998Z</time></trkpt><trkpt lat="52.90553606316977" lon="12.736191188900984"><ele>40.0</ele><time>2026-04-17T12:46:26.998Z</time></trkpt><trkpt lat="52.905571929238235" lon="12.736446328721136"><ele>40.0</ele><time>2026-04-17T12:46:27.998Z</time></trkpt><trkpt lat="52.90559582123479" lon="12.736694486729418"><ele>40.0</ele><time>2026-04-17T12:46:28.998Z</time></trkpt><trkpt lat="52.905620803867706" lon="12.736938253960309"><ele>40.0</ele><time>2026-04-17T12:46:29.998Z</time></trkpt><trkpt lat="52.905641702536236" lon="12.737162698924354"><ele>40.0</ele><time>2026-04-17T12:46:30.998Z</time></trkpt><trkpt lat="52.905662239069876" lon="12.737378167998108"><ele>40.0</ele><time>2026-04-17T12:46:31.998Z</time></trkpt><trkpt lat="52.905682669959155" lon="12.737589503063328"><ele>40.0</ele><time>2026-04-17T12:46:32.998Z</time></trkpt><trkpt lat="52.9057042982775" lon="12.73780196489547"><ele>40.75</ele><time>2026-04-17T12:46:33.998Z</time></trkpt><trkpt lat="52.90573043657748" lon="12.738026342827428"><ele>41.5</ele><time>2026-04-17T12:46:34.998Z</time></trkpt><trkpt lat="52.905755695641155" lon="12.738244254445519"><ele>42.25</ele><time>2026-04-17T12:46:35.998Z</time></trkpt><trkpt lat="52.90578016764499" lon="12.738464697873237"><ele>43.0</ele><time>2026-04-17T12:46:36.998Z</time></trkpt><trkpt lat="52.90580620218137" lon="12.738696283785595"><ele>43.25</ele><time>2026-04-17T12:46:37.998Z</time></trkpt><trkpt lat="52.90583045444279" lon="12.738918142203373"><ele>43.5</ele><time>2026-04-17T12:46:38.998Z</time></trkpt><trkpt lat="52.90584871450816" lon="12.739131713151652"><ele>43.75</ele><time>2026-04-17T12:46:39.998Z</time></trkpt><trkpt lat="52.905868839596984" lon="12.739348312499258"><ele>44.0</ele><time>2026-04-17T12:46:40.998Z</time></trkpt><trkpt lat="52.90589177027724" lon="12.739568894851836"><ele>43.5</ele><time>2026-04-17T12:46:41.998Z</time></trkpt><trkpt lat="52.90591172490915" lon="12.73978619529148"><ele>43.0</ele><time>2026-04-17T12:46:42.998Z</time></trkpt><trkpt lat="52.905933494168124" lon="12.739996188974905"><ele>42.5</ele><time>2026-04-17T12:46:43.998Z</time></trkpt><trkpt lat="52.90593605288655" lon="12.740206812197448"><ele>42.0</ele><time>2026-04-17T12:46:44.998Z</time></trkpt><trkpt lat="52.905939715965104" lon="12.740407376114568"><ele>41.4</ele><time>2026-04-17T12:46:45.998Z</time></trkpt><trkpt lat="52.905944614437914" lon="12.740591835531635"><ele>40.800000000000004</ele><time>2026-04-17T12:46:46.998Z</time></trkpt><trkpt lat="52.90594702044728" lon="12.740766155578129"><ele>40.2</ele><time>2026-04-17T12:46:47.998Z</time></trkpt><trkpt lat="52.90595010068146" lon="12.740942830699593"><ele>39.6</ele><time>2026-04-17T12:46:48.998Z</time></trkpt><trkpt lat="52.905953543274485" lon="12.741126225543931"><ele>39.0</ele><time>2026-04-17T12:46:49.998Z</time></trkpt><trkpt lat="52.90595520782489" lon="12.741316361178145"><ele>39.0</ele><time>2026-04-17T12:46:50.998Z</time></trkpt><trkpt lat="52.90595479212816" lon="12.741511977937344"><ele>39.0</ele><time>2026-04-17T12:46:51.998Z</time></trkpt><trkpt lat="52.90594776478861" lon="12.741709889884472"><ele>39.0</ele><time>2026-04-17T12:46:52.998Z</time></trkpt><trkpt lat="52.905936859852694" lon="12.741915297004876"><ele>39.0</ele><time>2026-04-17T12:46:53.998Z</time></trkpt><trkpt lat="52.905919876560745" lon="12.742123633332017"><ele>39.0</ele><time>2026-04-17T12:46:54.998Z</time></trkpt><trkpt lat="52.905898475427385" lon="12.742332955562475"><ele>39.0</ele><time>2026-04-17T12:46:55.998Z</time></trkpt><trkpt lat="52.90587341465429" lon="12.74254609551319"><ele>39.0</ele><time>2026-04-17T12:46:56.998Z</time></trkpt><trkpt lat="52.9058519640463" lon="12.742761101166634"><ele>39.0</ele><time>2026-04-17T12:46:57.998Z</time></trkpt><trkpt lat="52.905834951460314" lon="12.742971486250992"><ele>39.0</ele><time>2026-04-17T12:46:58.998Z</time></trkpt><trkpt lat="52.90580617960155" lon="12.743193872663806"><ele>39.0</ele><time>2026-04-17T12:46:59.998Z</time></trkpt><trkpt lat="52.90577141042302" lon="12.743423626234904"><ele>39.0</ele><time>2026-04-17T12:47:00.998Z</time></trkpt><trkpt lat="52.90573552166711" lon="12.74365411006161"><ele>39.0</ele><time>2026-04-17T12:47:01.998Z</time></trkpt><trkpt lat="52.90569670803631" lon="12.743898201820222"><ele>39.333333333333336</ele><time>2026-04-17T12:47:02.998Z</time></trkpt><trkpt lat="52.90565514829437" lon="12.744151355502186"><ele>39.66666666666667</ele><time>2026-04-17T12:47:03.998Z</time></trkpt><trkpt lat="52.90561126377265" lon="12.744417937584627"><ele>40.0</ele><time>2026-04-17T12:47:04.998Z</time></trkpt><trkpt lat="52.905566537029664" lon="12.74469442533656"><ele>40.333333333333336</ele><time>2026-04-17T12:47:05.998Z</time></trkpt><trkpt lat="52.905520836929895" lon="12.744975037606073"><ele>40.666666666666664</ele><time>2026-04-17T12:47:06.997Z</time></trkpt><trkpt lat="52.90547422257664" lon="12.745264499760912"><ele>41.0</ele><time>2026-04-17T12:47:07.997Z</time></trkpt><trkpt lat="52.90543242670855" lon="12.745538866061022"><ele>41.0</ele><time>2026-04-17T12:47:08.997Z</time></trkpt><trkpt lat="52.90539008190259" lon="12.745809405144502"><ele>41.0</ele><time>2026-04-17T12:47:09.997Z</time></trkpt><trkpt lat="52.90535477171154" lon="12.746074648442416"><ele>41.0</ele><time>2026-04-17T12:47:10.997Z</time></trkpt><trkpt lat="52.905325099869096" lon="12.746341640140491"><ele>41.0</ele><time>2026-04-17T12:47:11.997Z</time></trkpt><trkpt lat="52.905299998185455" lon="12.746611263921634"><ele>41.0</ele><time>2026-04-17T12:47:12.997Z</time></trkpt><trkpt lat="52.905279686754476" lon="12.746881123249882"><ele>41.0</ele><time>2026-04-17T12:47:13.997Z</time></trkpt><trkpt lat="52.90526459495147" lon="12.747152231583344"><ele>40.666666666666664</ele><time>2026-04-17T12:47:14.997Z</time></trkpt><trkpt lat="52.90525431682998" lon="12.74742205872653"><ele>40.333333333333336</ele><time>2026-04-17T12:47:15.997Z</time></trkpt><trkpt lat="52.90524980537593" lon="12.74768855008401"><ele>40.0</ele><time>2026-04-17T12:47:17Z</time></trkpt><trkpt lat="52.90524961691849" lon="12.747950469990139"><ele>40.0</ele><time>2026-04-17T12:47:18Z</time></trkpt><trkpt lat="52.905254772424136" lon="12.748207868417927"><ele>40.0</ele><time>2026-04-17T12:47:19Z</time></trkpt><trkpt lat="52.90526257539409" lon="12.748464433181196"><ele>40.0</ele><time>2026-04-17T12:47:20Z</time></trkpt><trkpt lat="52.905278293716044" lon="12.748716586493794"><ele>40.0</ele><time>2026-04-17T12:47:21Z</time></trkpt><trkpt lat="52.90529530882781" lon="12.748962885989807"><ele>40.0</ele><time>2026-04-17T12:47:22Z</time></trkpt><trkpt lat="52.9053162495368" lon="12.749210366206249"><ele>40.0</ele><time>2026-04-17T12:47:23Z</time></trkpt><trkpt lat="52.90534233450801" lon="12.74946565058627"><ele>40.0</ele><time>2026-04-17T12:47:24Z</time></trkpt><trkpt lat="52.90536723165582" lon="12.749723501562187"><ele>40.0</ele><time>2026-04-17T12:47:25Z</time></trkpt><trkpt lat="52.905393756821" lon="12.749981379158488"><ele>40.0</ele><time>2026-04-17T12:47:26Z</time></trkpt><trkpt lat="52.905421189351685" lon="12.750234961228239"><ele>40.0</ele><time>2026-04-17T12:47:27Z</time></trkpt><trkpt lat="52.90544854840281" lon="12.750480352775032"><ele>40.0</ele><time>2026-04-17T12:47:28Z</time></trkpt><trkpt lat="52.90547694920029" lon="12.750714926738013"><ele>40.0</ele><time>2026-04-17T12:47:29Z</time></trkpt><trkpt lat="52.90550602893128" lon="12.75095017555615"><ele>40.0</ele><time>2026-04-17T12:47:30Z</time></trkpt><trkpt lat="52.90553707840493" lon="12.751188425584632"><ele>40.0</ele><time>2026-04-17T12:47:31Z</time></trkpt><trkpt lat="52.905567108107235" lon="12.751432812808371"><ele>40.0</ele><time>2026-04-17T12:47:32Z</time></trkpt><trkpt lat="52.90565197417735" lon="12.752149491232748"><ele>40.0</ele><time>2026-04-17T12:47:35Z</time></trkpt><trkpt lat="52.9056750686236" lon="12.752391813991478"><ele>40.0</ele><time>2026-04-17T12:47:36Z</time></trkpt><trkpt lat="52.905695957528245" lon="12.752638788485477"><ele>40.0</ele><time>2026-04-17T12:47:37Z</time></trkpt><trkpt lat="52.905715397504785" lon="12.752888321855997"><ele>40.0</ele><time>2026-04-17T12:47:38Z</time></trkpt><trkpt lat="52.90573014979728" lon="12.753145810174077"><ele>40.0</ele><time>2026-04-17T12:47:39Z</time></trkpt><trkpt lat="52.90574315220173" lon="12.753405283596344"><ele>40.0</ele><time>2026-04-17T12:47:40Z</time></trkpt><trkpt lat="52.905751962084175" lon="12.753669312138749"><ele>40.0</ele><time>2026-04-17T12:47:41Z</time></trkpt><trkpt lat="52.90576313678261" lon="12.753925688376505"><ele>40.0</ele><time>2026-04-17T12:47:42Z</time></trkpt><trkpt lat="52.90577751820896" lon="12.754170726365071"><ele>40.0</ele><time>2026-04-17T12:47:43Z</time></trkpt><trkpt lat="52.905797220263395" lon="12.75440721764981"><ele>40.0</ele><time>2026-04-17T12:47:43.999Z</time></trkpt><trkpt lat="52.90582315695848" lon="12.754650608057098"><ele>40.0</ele><time>2026-04-17T12:47:44.999Z</time></trkpt><trkpt lat="52.905858242065264" lon="12.754897582694866"><ele>40.0</ele><time>2026-04-17T12:47:45.999Z</time></trkpt><trkpt lat="52.90590106339744" lon="12.755142816975754"><ele>40.0</ele><time>2026-04-17T12:47:46.999Z</time></trkpt><trkpt lat="52.90595151818528" lon="12.755379203859988"><ele>39.75</ele><time>2026-04-17T12:47:47.999Z</time></trkpt><trkpt lat="52.90600583045195" lon="12.755606857417753"><ele>39.5</ele><time>2026-04-17T12:47:48.999Z</time></trkpt><trkpt lat="52.90606992578534" lon="12.755831613419579"><ele>39.25</ele><time>2026-04-17T12:47:49.999Z</time></trkpt><trkpt lat="52.90614080898499" lon="12.756049383420455"><ele>39.0</ele><time>2026-04-17T12:47:50.999Z</time></trkpt><trkpt lat="52.90621984413268" lon="12.756262269721407"><ele>39.0</ele><time>2026-04-17T12:47:51.999Z</time></trkpt><trkpt lat="52.906306820937104" lon="12.75647065294768"><ele>39.0</ele><time>2026-04-17T12:47:52.999Z</time></trkpt><trkpt lat="52.90640038230346" lon="12.75666870812739"><ele>39.0</ele><time>2026-04-17T12:47:53.999Z</time></trkpt><trkpt lat="52.90649511500314" lon="12.756871623378716"><ele>39.333333333333336</ele><time>2026-04-17T12:47:54.999Z</time></trkpt><trkpt lat="52.90659097034225" lon="12.757077693497482"><ele>39.66666666666667</ele><time>2026-04-17T12:47:55.999Z</time></trkpt><trkpt lat="52.90668420579059" lon="12.757277328583427"><ele>40.0</ele><time>2026-04-17T12:47:56.999Z</time></trkpt><trkpt lat="52.90678176909983" lon="12.757483449275098"><ele>40.0</ele><time>2026-04-17T12:47:57.999Z</time></trkpt><trkpt lat="52.90687904092119" lon="12.757689524809662"><ele>40.0</ele><time>2026-04-17T12:47:58.999Z</time></trkpt><trkpt lat="52.90697851479368" lon="12.757896290439449"><ele>40.0</ele><time>2026-04-17T12:47:59.999Z</time></trkpt><trkpt lat="52.90707415605583" lon="12.758101351373432"><ele>40.25</ele><time>2026-04-17T12:48:00.999Z</time></trkpt><trkpt lat="52.90716862334412" lon="12.758305990364954"><ele>40.5</ele><time>2026-04-17T12:48:01.999Z</time></trkpt><trkpt lat="52.90725939234615" lon="12.758498752744064"><ele>40.75</ele><time>2026-04-17T12:48:02.999Z</time></trkpt><trkpt lat="52.90734886442835" lon="12.758688153152784"><ele>41.0</ele><time>2026-04-17T12:48:03.999Z</time></trkpt><trkpt lat="52.90743651669792" lon="12.75887210826718"><ele>41.25</ele><time>2026-04-17T12:48:04.999Z</time></trkpt><trkpt lat="52.90752238079598" lon="12.7590591149976"><ele>41.5</ele><time>2026-04-17T12:48:05.999Z</time></trkpt><trkpt lat="52.90761133727962" lon="12.759247904965845"><ele>41.75</ele><time>2026-04-17T12:48:06.999Z</time></trkpt><trkpt lat="52.907702966198414" lon="12.759444429036495"><ele>42.0</ele><time>2026-04-17T12:48:07.999Z</time></trkpt><trkpt lat="52.90779309329271" lon="12.759643023706243"><ele>42.0</ele><time>2026-04-17T12:48:08.999Z</time></trkpt><trkpt lat="52.907886166530496" lon="12.759841087458835"><ele>42.0</ele><time>2026-04-17T12:48:09.999Z</time></trkpt><trkpt lat="52.90797715384458" lon="12.760038064670036"><ele>42.0</ele><time>2026-04-17T12:48:10.999Z</time></trkpt><trkpt lat="52.90806998444177" lon="12.760241970407685"><ele>41.5</ele><time>2026-04-17T12:48:11.999Z</time></trkpt><trkpt lat="52.908162365655514" lon="12.760442189742905"><ele>41.0</ele><time>2026-04-17T12:48:12.999Z</time></trkpt><trkpt lat="52.90825040027038" lon="12.76064088956139"><ele>40.5</ele><time>2026-04-17T12:48:13.999Z</time></trkpt><trkpt lat="52.90833744645216" lon="12.76084091465287"><ele>40.0</ele><time>2026-04-17T12:48:14.999Z</time></trkpt><trkpt lat="52.90842419955351" lon="12.761041573294023"><ele>39.75</ele><time>2026-04-17T12:48:15.999Z</time></trkpt><trkpt lat="52.90851125558757" lon="12.761236968233518"><ele>39.5</ele><time>2026-04-17T12:48:16.999Z</time></trkpt><trkpt lat="52.908597232567246" lon="12.761434227114387"><ele>39.25</ele><time>2026-04-17T12:48:17.999Z</time></trkpt><trkpt lat="52.90868599085672" lon="12.761632170847271"><ele>39.0</ele><time>2026-04-17T12:48:18.999Z</time></trkpt><trkpt lat="52.90877452665921" lon="12.761829879977565"><ele>39.0</ele><time>2026-04-17T12:48:19.999Z</time></trkpt><trkpt lat="52.908863122204046" lon="12.762027539507935"><ele>39.0</ele><time>2026-04-17T12:48:20.999Z</time></trkpt><trkpt lat="52.90895201739892" lon="12.762220469710021"><ele>39.0</ele><time>2026-04-17T12:48:21.999Z</time></trkpt><trkpt lat="52.90903910371743" lon="12.762412651625981"><ele>39.0</ele><time>2026-04-17T12:48:22.999Z</time></trkpt><trkpt lat="52.90912510497107" lon="12.762606593349805"><ele>39.0</ele><time>2026-04-17T12:48:23.999Z</time></trkpt><trkpt lat="52.90921079941655" lon="12.76279496931326"><ele>39.0</ele><time>2026-04-17T12:48:24.999Z</time></trkpt><trkpt lat="52.90929653287431" lon="12.762982977819664"><ele>39.0</ele><time>2026-04-17T12:48:25.999Z</time></trkpt><trkpt lat="52.90937917919039" lon="12.763167195682794"><ele>39.0</ele><time>2026-04-17T12:48:26.999Z</time></trkpt><trkpt lat="52.909463946497766" lon="12.763350530373806"><ele>39.5</ele><time>2026-04-17T12:48:27.999Z</time></trkpt><trkpt lat="52.90954791830086" lon="12.763532290570838"><ele>40.0</ele><time>2026-04-17T12:48:28.999Z</time></trkpt><trkpt lat="52.90963049308538" lon="12.763713547909642"><ele>40.5</ele><time>2026-04-17T12:48:29.999Z</time></trkpt><trkpt lat="52.90971386628974" lon="12.76389292447887"><ele>41.0</ele><time>2026-04-17T12:48:30.999Z</time></trkpt><trkpt lat="52.909797521738646" lon="12.764070946330433"><ele>41.0</ele><time>2026-04-17T12:48:31.998Z</time></trkpt><trkpt lat="52.909884031995766" lon="12.764251930290698"><ele>41.0</ele><time>2026-04-17T12:48:32.998Z</time></trkpt><trkpt lat="52.90997025328315" lon="12.764435395692805"><ele>41.0</ele><time>2026-04-17T12:48:33.998Z</time></trkpt><trkpt lat="52.910053179957934" lon="12.764621055691721"><ele>41.0</ele><time>2026-04-17T12:48:34.998Z</time></trkpt><trkpt lat="52.910129020051436" lon="12.764805911985786"><ele>41.75</ele><time>2026-04-17T12:48:35.998Z</time></trkpt><trkpt lat="52.91020530656294" lon="12.764987662807046"><ele>42.5</ele><time>2026-04-17T12:48:36.998Z</time></trkpt><trkpt lat="52.91029005778684" lon="12.765166980457478"><ele>43.25</ele><time>2026-04-17T12:48:37.998Z</time></trkpt><trkpt lat="52.91037602923948" lon="12.765340676828052"><ele>44.0</ele><time>2026-04-17T12:48:38.998Z</time></trkpt><trkpt lat="52.910461404497894" lon="12.765512910721549"><ele>44.0</ele><time>2026-04-17T12:48:39.998Z</time></trkpt><trkpt lat="52.910545025597656" lon="12.765686621942395"><ele>44.0</ele><time>2026-04-17T12:48:40.998Z</time></trkpt><trkpt lat="52.91062851672838" lon="12.765858921794772"><ele>44.0</ele><time>2026-04-17T12:48:41.998Z</time></trkpt><trkpt lat="52.91070503718756" lon="12.76601724483731"><ele>44.0</ele><time>2026-04-17T12:48:42.998Z</time></trkpt><trkpt lat="52.9107741534138" lon="12.766172767714373"><ele>43.75</ele><time>2026-04-17T12:48:43.998Z</time></trkpt><trkpt lat="52.910841676391655" lon="12.766320427203889"><ele>43.5</ele><time>2026-04-17T12:48:44.998Z</time></trkpt><trkpt lat="52.910908050284576" lon="12.766468299705682"><ele>43.25</ele><time>2026-04-17T12:48:45.998Z</time></trkpt><trkpt lat="52.9109790877217" lon="12.766621707824543"><ele>43.0</ele><time>2026-04-17T12:48:46.998Z</time></trkpt><trkpt lat="52.91105133150693" lon="12.766791976544223"><ele>42.66666666666667</ele><time>2026-04-17T12:48:47.998Z</time></trkpt><trkpt lat="52.911106310305335" lon="12.766934097779416"><ele>42.333333333333336</ele><time>2026-04-17T12:48:48.998Z</time></trkpt><trkpt lat="52.911287697186324" lon="12.76728658787758"><ele>42.0</ele><time>2026-04-17T12:48:49.998Z</time></trkpt><trkpt lat="52.911367805915894" lon="12.7674592641261"><ele>42.0</ele><time>2026-04-17T12:48:50.998Z</time></trkpt><trkpt lat="52.91144686737063" lon="12.767626770493782"><ele>42.0</ele><time>2026-04-17T12:48:51.998Z</time></trkpt><trkpt lat="52.911523734019624" lon="12.767796972445618"><ele>42.0</ele><time>2026-04-17T12:48:52.998Z</time></trkpt><trkpt lat="52.911594706542814" lon="12.767968023048057"><ele>42.0</ele><time>2026-04-17T12:48:53.998Z</time></trkpt><trkpt lat="52.91166996393482" lon="12.768144130250787"><ele>42.25</ele><time>2026-04-17T12:48:54.998Z</time></trkpt><trkpt lat="52.91174590546443" lon="12.768311112613873"><ele>42.5</ele><time>2026-04-17T12:48:55.998Z</time></trkpt><trkpt lat="52.91182174387927" lon="12.768472931705446"><ele>42.75</ele><time>2026-04-17T12:48:56.998Z</time></trkpt><trkpt lat="52.91189377877679" lon="12.768636713906295"><ele>43.0</ele><time>2026-04-17T12:48:57.998Z</time></trkpt><trkpt lat="52.91196058883445" lon="12.768800250976708"><ele>43.0</ele><time>2026-04-17T12:48:58.998Z</time></trkpt><trkpt lat="52.9120272663402" lon="12.768964952868847"><ele>43.0</ele><time>2026-04-17T12:48:59.998Z</time></trkpt><trkpt lat="52.912094761935656" lon="12.769125331405837"><ele>43.0</ele><time>2026-04-17T12:49:00.998Z</time></trkpt><trkpt lat="52.912161881990514" lon="12.769282714529366"><ele>43.0</ele><time>2026-04-17T12:49:01.998Z</time></trkpt><trkpt lat="52.912230935173405" lon="12.769438479059424"><ele>43.0</ele><time>2026-04-17T12:49:02.998Z</time></trkpt><trkpt lat="52.91230497181403" lon="12.769591712891296"><ele>43.0</ele><time>2026-04-17T12:49:03.998Z</time></trkpt><trkpt lat="52.912379957743696" lon="12.76975152247523"><ele>43.0</ele><time>2026-04-17T12:49:04.998Z</time></trkpt><trkpt lat="52.91245079031625" lon="12.769917260826134"><ele>43.0</ele><time>2026-04-17T12:49:05.998Z</time></trkpt><trkpt lat="52.91252191125292" lon="12.770067501105876"><ele>43.0</ele><time>2026-04-17T12:49:06.998Z</time></trkpt><trkpt lat="52.91258608252122" lon="12.77020708291244"><ele>43.0</ele><time>2026-04-17T12:49:07.998Z</time></trkpt><trkpt lat="52.91264934831553" lon="12.770343496756217"><ele>43.0</ele><time>2026-04-17T12:49:08.998Z</time></trkpt><trkpt lat="52.91272059241322" lon="12.77049909958008"><ele>43.0</ele><time>2026-04-17T12:49:09.998Z</time></trkpt><trkpt lat="52.91279508153521" lon="12.770661018470593"><ele>43.0</ele><time>2026-04-17T12:49:10.998Z</time></trkpt><trkpt lat="52.912870483680805" lon="12.77082821402491"><ele>43.0</ele><time>2026-04-17T12:49:11.998Z</time></trkpt><trkpt lat="52.912948073573986" lon="12.770981857936567"><ele>43.0</ele><time>2026-04-17T12:49:12.998Z</time></trkpt><trkpt lat="52.91301925672122" lon="12.771137498059021"><ele>43.0</ele><time>2026-04-17T12:49:13.998Z</time></trkpt><trkpt lat="52.91308663635146" lon="12.771284521242933"><ele>43.0</ele><time>2026-04-17T12:49:14.998Z</time></trkpt><trkpt lat="52.91315737285956" lon="12.771419523026406"><ele>43.0</ele><time>2026-04-17T12:49:15.998Z</time></trkpt><trkpt lat="52.91323254616851" lon="12.771558230661466"><ele>43.0</ele><time>2026-04-17T12:49:16.997Z</time></trkpt><trkpt lat="52.91330125224359" lon="12.771701867558845"><ele>43.0</ele><time>2026-04-17T12:49:17.997Z</time></trkpt><trkpt lat="52.91336518898402" lon="12.771860141301325"><ele>43.0</ele><time>2026-04-17T12:49:18.997Z</time></trkpt><trkpt lat="52.91341467974608" lon="12.772029199831625"><ele>42.599999999999994</ele><time>2026-04-17T12:49:19.997Z</time></trkpt><trkpt lat="52.913449899967844" lon="12.772208470968593"><ele>42.199999999999996</ele><time>2026-04-17T12:49:20.997Z</time></trkpt><trkpt lat="52.91347898959361" lon="12.772380112469182"><ele>41.8</ele><time>2026-04-17T12:49:21.997Z</time></trkpt><trkpt lat="52.91350192501534" lon="12.772548245033203"><ele>41.4</ele><time>2026-04-17T12:49:23Z</time></trkpt><trkpt lat="52.91352783967571" lon="12.772710691584164"><ele>41.0</ele><time>2026-04-17T12:49:24Z</time></trkpt><trkpt lat="52.91355578074363" lon="12.772873055478222"><ele>41.0</ele><time>2026-04-17T12:49:25Z</time></trkpt><trkpt lat="52.913582445673505" lon="12.773037767981803"><ele>41.0</ele><time>2026-04-17T12:49:26Z</time></trkpt><trkpt lat="52.913610333711794" lon="12.773203218811096"><ele>41.0</ele><time>2026-04-17T12:49:27Z</time></trkpt><trkpt lat="52.9136383942549" lon="12.773367202645556"><ele>41.0</ele><time>2026-04-17T12:49:28Z</time></trkpt><trkpt lat="52.913667275649125" lon="12.77353452527937"><ele>41.0</ele><time>2026-04-17T12:49:29Z</time></trkpt><trkpt lat="52.91369471566156" lon="12.77369760797903"><ele>41.0</ele><time>2026-04-17T12:49:30Z</time></trkpt><trkpt lat="52.91372147312387" lon="12.773863055303817"><ele>41.0</ele><time>2026-04-17T12:49:31Z</time></trkpt><trkpt lat="52.91375165549253" lon="12.77403209830463"><ele>41.0</ele><time>2026-04-17T12:49:32Z</time></trkpt><trkpt lat="52.91378517842916" lon="12.774210885548952"><ele>41.0</ele><time>2026-04-17T12:49:33Z</time></trkpt><trkpt lat="52.913820510493046" lon="12.7743993158003"><ele>41.0</ele><time>2026-04-17T12:49:34Z</time></trkpt><trkpt lat="52.913852076137175" lon="12.774587015068324"><ele>41.0</ele><time>2026-04-17T12:49:35Z</time></trkpt><trkpt lat="52.91387952376266" lon="12.774766525274229"><ele>41.0</ele><time>2026-04-17T12:49:36Z</time></trkpt><trkpt lat="52.91390514024721" lon="12.77494324705459"><ele>41.0</ele><time>2026-04-17T12:49:37Z</time></trkpt><trkpt lat="52.91393560420299" lon="12.7751180115718"><ele>41.0</ele><time>2026-04-17T12:49:38Z</time></trkpt><trkpt lat="52.91396674934521" lon="12.77529389587151"><ele>41.0</ele><time>2026-04-17T12:49:39Z</time></trkpt><trkpt lat="52.91399614757795" lon="12.775458369123625"><ele>41.0</ele><time>2026-04-17T12:49:40Z</time></trkpt><trkpt lat="52.914022187576876" lon="12.775627887921907"><ele>41.0</ele><time>2026-04-17T12:49:41Z</time></trkpt><trkpt lat="52.914055694144515" lon="12.775829386399112"><ele>41.0</ele><time>2026-04-17T12:49:42Z</time></trkpt><trkpt lat="52.914095577669386" lon="12.776045550671475"><ele>41.0</ele><time>2026-04-17T12:49:43Z</time></trkpt><trkpt lat="52.91412004439813" lon="12.776179710691187"><ele>41.199999999999996</ele><time>2026-04-17T12:49:44Z</time></trkpt><trkpt lat="52.914148766145075" lon="12.776340656490552"><ele>41.4</ele><time>2026-04-17T12:49:45Z</time></trkpt><trkpt lat="52.914180473177424" lon="12.776516598363477"><ele>41.6</ele><time>2026-04-17T12:49:46Z</time></trkpt><trkpt lat="52.914212109250485" lon="12.776698043527729"><ele>41.8</ele><time>2026-04-17T12:49:47Z</time></trkpt><trkpt lat="52.91424314131586" lon="12.776886851657727"><ele>42.0</ele><time>2026-04-17T12:49:48Z</time></trkpt><trkpt lat="52.91427328720955" lon="12.777074482238206"><ele>42.0</ele><time>2026-04-17T12:49:49Z</time></trkpt><trkpt lat="52.91430729769997" lon="12.777260749711278"><ele>42.0</ele><time>2026-04-17T12:49:50Z</time></trkpt><trkpt lat="52.914337962198694" lon="12.777448889245179"><ele>42.0</ele><time>2026-04-17T12:49:51Z</time></trkpt><trkpt lat="52.91436689651717" lon="12.777634563624359"><ele>42.0</ele><time>2026-04-17T12:49:52Z</time></trkpt><trkpt lat="52.91440011130259" lon="12.77782124662278"><ele>42.0</ele><time>2026-04-17T12:49:52.999Z</time></trkpt><trkpt lat="52.91443557381989" lon="12.778002091171736"><ele>42.0</ele><time>2026-04-17T12:49:53.999Z</time></trkpt><trkpt lat="52.91447385710294" lon="12.778181819087704"><ele>42.0</ele><time>2026-04-17T12:49:54.999Z</time></trkpt><trkpt lat="52.91451665342301" lon="12.778355889676064"><ele>42.0</ele><time>2026-04-17T12:49:55.999Z</time></trkpt><trkpt lat="52.91456257714435" lon="12.778526851468142"><ele>42.2</ele><time>2026-04-17T12:49:56.999Z</time></trkpt><trkpt lat="52.91461808403407" lon="12.778691999006046"><ele>42.400000000000006</ele><time>2026-04-17T12:49:57.999Z</time></trkpt><trkpt lat="52.91467451776095" lon="12.778852022888053"><ele>42.599999999999994</ele><time>2026-04-17T12:49:58.999Z</time></trkpt><trkpt lat="52.91474662483558" lon="12.778988239436345"><ele>42.8</ele><time>2026-04-17T12:49:59.999Z</time></trkpt><trkpt lat="52.91482611924368" lon="12.779120525488372"><ele>43.0</ele><time>2026-04-17T12:50:00.999Z</time></trkpt><trkpt lat="52.91490853288999" lon="12.779236492320317"><ele>43.0</ele><time>2026-04-17T12:50:01.999Z</time></trkpt><trkpt lat="52.91499335412731" lon="12.779351564830927"><ele>43.0</ele><time>2026-04-17T12:50:02.999Z</time></trkpt><trkpt lat="52.91506054871488" lon="12.779444326284793"><ele>43.0</ele><time>2026-04-17T12:50:03.999Z</time></trkpt><trkpt lat="52.91511173975822" lon="12.779522397902126"><ele>43.0</ele><time>2026-04-17T12:50:04.999Z</time></trkpt><trkpt lat="52.91516011040828" lon="12.77959749451878"><ele>43.0</ele><time>2026-04-17T12:50:06.999Z</time></trkpt><trkpt lat="52.91521498822403" lon="12.779678362464125"><ele>43.0</ele><time>2026-04-17T12:50:17.999Z</time></trkpt><trkpt lat="52.91530245962597" lon="12.77980294093546"><ele>43.16666666666667</ele><time>2026-04-17T12:50:19.999Z</time></trkpt><trkpt lat="52.91535189452037" lon="12.779869900614859"><ele>43.333333333333336</ele><time>2026-04-17T12:50:20.999Z</time></trkpt><trkpt lat="52.91542347059543" lon="12.779972805988592"><ele>43.5</ele><time>2026-04-17T12:50:22.999Z</time></trkpt><trkpt lat="52.91552601692408" lon="12.780117479008378"><ele>43.666666666666664</ele><time>2026-04-17T12:50:24.999Z</time></trkpt><trkpt lat="52.91557616666826" lon="12.780192906525741"><ele>43.83333333333333</ele><time>2026-04-17T12:50:25.999Z</time></trkpt><trkpt lat="52.915633990341185" lon="12.780273961212561"><ele>44.0</ele><time>2026-04-17T12:50:26.999Z</time></trkpt><trkpt lat="52.9157023535522" lon="12.780369455611817"><ele>44.0</ele><time>2026-04-17T12:50:27.999Z</time></trkpt><trkpt lat="52.91577602597793" lon="12.780473716277028"><ele>44.0</ele><time>2026-04-17T12:50:28.999Z</time></trkpt><trkpt lat="52.915844982757" lon="12.78056808925909"><ele>44.0</ele><time>2026-04-17T12:50:29.999Z</time></trkpt><trkpt lat="52.91590875578607" lon="12.780662876310775"><ele>44.0</ele><time>2026-04-17T12:50:30.999Z</time></trkpt><trkpt lat="52.91597061070621" lon="12.780759101928869"><ele>44.0</ele><time>2026-04-17T12:50:31.999Z</time></trkpt><trkpt lat="52.91602966632323" lon="12.780846196563735"><ele>44.0</ele><time>2026-04-17T12:50:32.999Z</time></trkpt><trkpt lat="52.916093026444116" lon="12.780941103441743"><ele>44.2</ele><time>2026-04-17T12:50:33.999Z</time></trkpt><trkpt lat="52.91616605689252" lon="12.781041386671692"><ele>44.400000000000006</ele><time>2026-04-17T12:50:34.999Z</time></trkpt><trkpt lat="52.91624812617722" lon="12.781145984039345"><ele>44.6</ele><time>2026-04-17T12:50:35.999Z</time></trkpt><trkpt lat="52.916327608182854" lon="12.78126703817836"><ele>44.8</ele><time>2026-04-17T12:50:36.999Z</time></trkpt><trkpt lat="52.9164022266708" lon="12.781373590741405"><ele>45.0</ele><time>2026-04-17T12:50:37.999Z</time></trkpt><trkpt lat="52.91647161456948" lon="12.781476987829226"><ele>45.0</ele><time>2026-04-17T12:50:38.999Z</time></trkpt><trkpt lat="52.916542842395906" lon="12.781576780318511"><ele>45.0</ele><time>2026-04-17T12:50:39.999Z</time></trkpt><trkpt lat="52.91661450942801" lon="12.78168286360831"><ele>45.0</ele><time>2026-04-17T12:50:40.999Z</time></trkpt><trkpt lat="52.91669192904614" lon="12.781793774370398"><ele>45.0</ele><time>2026-04-17T12:50:41.999Z</time></trkpt><trkpt lat="52.91676974386985" lon="12.78190176142679"><ele>45.0</ele><time>2026-04-17T12:50:42.998Z</time></trkpt><trkpt lat="52.91684115593237" lon="12.782006824859927"><ele>44.4</ele><time>2026-04-17T12:50:43.998Z</time></trkpt><trkpt lat="52.916913712770835" lon="12.782108010058774"><ele>43.8</ele><time>2026-04-17T12:50:44.998Z</time></trkpt><trkpt lat="52.91698338936689" lon="12.782207429758458"><ele>43.2</ele><time>2026-04-17T12:50:45.998Z</time></trkpt><trkpt lat="52.917052466111286" lon="12.782307531360233"><ele>42.6</ele><time>2026-04-17T12:50:46.998Z</time></trkpt><trkpt lat="52.917117498396344" lon="12.78240380021852"><ele>42.0</ele><time>2026-04-17T12:50:47.998Z</time></trkpt><trkpt lat="52.91718032694408" lon="12.782502789251927"><ele>42.0</ele><time>2026-04-17T12:50:48.998Z</time></trkpt><trkpt lat="52.91724577961608" lon="12.782597482673028"><ele>42.0</ele><time>2026-04-17T12:50:49.998Z</time></trkpt><trkpt lat="52.91730516219234" lon="12.782682088616966"><ele>42.0</ele><time>2026-04-17T12:50:50.998Z</time></trkpt><trkpt lat="52.91736884713459" lon="12.782772881953758"><ele>42.0</ele><time>2026-04-17T12:50:51.998Z</time></trkpt><trkpt lat="52.91743031590296" lon="12.782856813215806"><ele>42.0</ele><time>2026-04-17T12:50:52.998Z</time></trkpt><trkpt lat="52.917512230498744" lon="12.782967621716562"><ele>42.0</ele><time>2026-04-17T12:50:54.998Z</time></trkpt><trkpt lat="52.91756157827703" lon="12.783041438291665"><ele>42.0</ele><time>2026-04-17T12:50:58.998Z</time></trkpt><trkpt lat="52.917607797899564" lon="12.783121824966022"><ele>42.0</ele><time>2026-04-17T12:51:30Z</time></trkpt><trkpt lat="52.9176813577427" lon="12.783249633835643"><ele>42.0</ele><time>2026-04-17T12:51:32Z</time></trkpt><trkpt lat="52.91776015477144" lon="12.78339566232646"><ele>42.0</ele><time>2026-04-17T12:51:34Z</time></trkpt><trkpt lat="52.91780399506722" lon="12.783482018323621"><ele>42.0</ele><time>2026-04-17T12:51:35Z</time></trkpt><trkpt lat="52.917848537888176" lon="12.783571314363538"><ele>42.0</ele><time>2026-04-17T12:51:36Z</time></trkpt><trkpt lat="52.917908277284184" lon="12.783683676456905"><ele>42.400000000000006</ele><time>2026-04-17T12:51:37Z</time></trkpt><trkpt lat="52.91796880093013" lon="12.783805870076483"><ele>42.800000000000004</ele><time>2026-04-17T12:51:38Z</time></trkpt><trkpt lat="52.91802950614035" lon="12.78392064203897"><ele>43.2</ele><time>2026-04-17T12:51:39Z</time></trkpt><trkpt lat="52.91810011331123" lon="12.78407277886639"><ele>43.6</ele><time>2026-04-17T12:51:40Z</time></trkpt><trkpt lat="52.91817813659992" lon="12.784258355348722"><ele>44.0</ele><time>2026-04-17T12:51:41Z</time></trkpt><trkpt lat="52.91826622595352" lon="12.784447455171254"><ele>44.0</ele><time>2026-04-17T12:51:42Z</time></trkpt><trkpt lat="52.918351204682345" lon="12.784607698410595"><ele>44.0</ele><time>2026-04-17T12:51:43Z</time></trkpt><trkpt lat="52.91842959201608" lon="12.784738026368432"><ele>44.0</ele><time>2026-04-17T12:51:44Z</time></trkpt><trkpt lat="52.918497847329235" lon="12.784861681276517"><ele>44.0</ele><time>2026-04-17T12:51:45Z</time></trkpt><trkpt lat="52.91855660745933" lon="12.78497804291656"><ele>44.0</ele><time>2026-04-17T12:51:46Z</time></trkpt><trkpt lat="52.91861126526513" lon="12.785092265726323"><ele>43.83333333333333</ele><time>2026-04-17T12:51:47Z</time></trkpt><trkpt lat="52.91865962685801" lon="12.785187297358378"><ele>43.666666666666664</ele><time>2026-04-17T12:51:48Z</time></trkpt><trkpt lat="52.91872106814717" lon="12.78531304037"><ele>43.5</ele><time>2026-04-17T12:51:50Z</time></trkpt><trkpt lat="52.91877530732427" lon="12.785425008108737"><ele>43.333333333333336</ele><time>2026-04-17T12:51:52Z</time></trkpt><trkpt lat="52.918824001432824" lon="12.78552489818084"><ele>43.16666666666667</ele><time>2026-04-17T12:51:54Z</time></trkpt><trkpt lat="52.91887186561025" lon="12.785625578123502"><ele>43.0</ele><time>2026-04-17T12:51:57Z</time></trkpt><trkpt lat="52.91891555562841" lon="12.78571891749883"><ele>43.0</ele><time>2026-04-17T12:52:03.999Z</time></trkpt><trkpt lat="52.918958373119466" lon="12.7858047413239"><ele>43.0</ele><time>2026-04-17T12:52:05.999Z</time></trkpt><trkpt lat="52.91901566352474" lon="12.785906660957385"><ele>43.0</ele><time>2026-04-17T12:52:08.999Z</time></trkpt><trkpt lat="52.91907035032683" lon="12.786019081984621"><ele>43.0</ele><time>2026-04-17T12:52:12.999Z</time></trkpt><trkpt lat="52.919115426900156" lon="12.786124731479918"><ele>43.0</ele><time>2026-04-17T12:52:16.999Z</time></trkpt><trkpt lat="52.919150992196855" lon="12.786221386412201"><ele>43.0</ele><time>2026-04-17T12:52:21.999Z</time></trkpt><trkpt lat="52.91918691827409" lon="12.786318478070886"><ele>43.16666666666667</ele><time>2026-04-17T12:52:25.999Z</time></trkpt><trkpt lat="52.919230109110444" lon="12.786415174864597"><ele>43.333333333333336</ele><time>2026-04-17T12:52:28.999Z</time></trkpt><trkpt lat="52.91927215767046" lon="12.786494585573097"><ele>43.5</ele><time>2026-04-17T12:52:30.999Z</time></trkpt><trkpt lat="52.91932937019562" lon="12.786619021729297"><ele>43.666666666666664</ele><time>2026-04-17T12:52:33.999Z</time></trkpt><trkpt lat="52.919386765474606" lon="12.78673492563532"><ele>43.83333333333333</ele><time>2026-04-17T12:52:36.999Z</time></trkpt><trkpt lat="52.919436669402856" lon="12.786844972927025"><ele>44.0</ele><time>2026-04-17T12:52:39.999Z</time></trkpt><trkpt lat="52.91950838559962" lon="12.786984966807195"><ele>44.166666666666664</ele><time>2026-04-17T12:52:41.999Z</time></trkpt><trkpt lat="52.919565900935815" lon="12.78709950838777"><ele>44.33333333333333</ele><time>2026-04-17T12:52:42.999Z</time></trkpt><trkpt lat="52.9196132337685" lon="12.78719400931688"><ele>44.5</ele><time>2026-04-17T12:52:43.999Z</time></trkpt><trkpt lat="52.919656557588446" lon="12.787282939717095"><ele>44.666666666666664</ele><time>2026-04-17T12:52:44.999Z</time></trkpt><trkpt lat="52.91969754035309" lon="12.787368070262378"><ele>44.833333333333336</ele><time>2026-04-17T12:52:45.999Z</time></trkpt><trkpt lat="52.91975516600804" lon="12.787489197701445"><ele>45.0</ele><time>2026-04-17T12:52:47.999Z</time></trkpt><trkpt lat="52.919796470217726" lon="12.787583151801773"><ele>45.4</ele><time>2026-04-17T12:52:50.999Z</time></trkpt><trkpt lat="52.91982055685615" lon="12.78774664868609"><ele>45.8</ele><time>2026-04-17T12:52:52.998Z</time></trkpt><trkpt lat="52.919823076756096" lon="12.787896468208789"><ele>46.2</ele><time>2026-04-17T12:52:54.998Z</time></trkpt><trkpt lat="52.91987972895972" lon="12.78800339102348"><ele>46.6</ele><time>2026-04-17T12:52:56.998Z</time></trkpt><trkpt lat="52.91995006252189" lon="12.78804188197872"><ele>47.0</ele><time>2026-04-17T12:52:58.998Z</time></trkpt><trkpt lat="52.92004474126085" lon="12.787997834123372"><ele>47.0</ele><time>2026-04-17T12:53:00.998Z</time></trkpt><trkpt lat="52.92008969517622" lon="12.78792215633814"><ele>47.0</ele><time>2026-04-17T12:53:01.998Z</time></trkpt><trkpt lat="52.920145828147476" lon="12.787761799702093"><ele>47.0</ele><time>2026-04-17T12:53:03.998Z</time></trkpt><trkpt lat="52.9202475327364" lon="12.78765057899436"><ele>47.0</ele><time>2026-04-17T12:53:05.998Z</time></trkpt><trkpt lat="52.920327005285685" lon="12.78758861534179"><ele>47.0</ele><time>2026-04-17T12:53:06.998Z</time></trkpt><trkpt lat="52.92041283929538" lon="12.787528517501867"><ele>47.0</ele><time>2026-04-17T12:53:07.998Z</time></trkpt><trkpt lat="52.92050937052551" lon="12.787458846095555"><ele>47.0</ele><time>2026-04-17T12:53:08.998Z</time></trkpt><trkpt lat="52.92060059148324" lon="12.78739392502975"><ele>47.0</ele><time>2026-04-17T12:53:09.998Z</time></trkpt><trkpt lat="52.9206919417883" lon="12.787326863948502"><ele>47.0</ele><time>2026-04-17T12:53:10.998Z</time></trkpt><trkpt lat="52.920793967125206" lon="12.7872636276238"><ele>47.0</ele><time>2026-04-17T12:53:11.998Z</time></trkpt><trkpt lat="52.92089847576838" lon="12.78721043825041"><ele>46.0</ele><time>2026-04-17T12:53:12.998Z</time></trkpt><trkpt lat="52.921002796531006" lon="12.787185613675945"><ele>45.0</ele><time>2026-04-17T12:53:13.998Z</time></trkpt><trkpt lat="52.921106359177585" lon="12.787181911933189"><ele>44.0</ele><time>2026-04-17T12:53:14.998Z</time></trkpt><trkpt lat="52.92120671539402" lon="12.787200992542047"><ele>43.0</ele><time>2026-04-17T12:53:15.998Z</time></trkpt><trkpt lat="52.92130149252128" lon="12.787240866437152"><ele>42.0</ele><time>2026-04-17T12:53:16.998Z</time></trkpt><trkpt lat="52.92139033662028" lon="12.787293800696933"><ele>42.0</ele><time>2026-04-17T12:53:17.998Z</time></trkpt><trkpt lat="52.92147612801152" lon="12.787359138327401"><ele>42.0</ele><time>2026-04-17T12:53:18.998Z</time></trkpt><trkpt lat="52.92156078220915" lon="12.787440975894013"><ele>42.0</ele><time>2026-04-17T12:53:19.998Z</time></trkpt><trkpt lat="52.92163956016885" lon="12.787537693033748"><ele>42.0</ele><time>2026-04-17T12:53:20.998Z</time></trkpt><trkpt lat="52.92171237705481" lon="12.787647714895485"><ele>42.0</ele><time>2026-04-17T12:53:21.998Z</time></trkpt><trkpt lat="52.92178007029312" lon="12.787772555127333"><ele>42.2</ele><time>2026-04-17T12:53:22.998Z</time></trkpt><trkpt lat="52.92183349244296" lon="12.787913396320684"><ele>42.400000000000006</ele><time>2026-04-17T12:53:23.998Z</time></trkpt><trkpt lat="52.921877936462884" lon="12.788065307697952"><ele>42.599999999999994</ele><time>2026-04-17T12:53:24.998Z</time></trkpt><trkpt lat="52.921919891567974" lon="12.788218919677073"><ele>42.8</ele><time>2026-04-17T12:53:25.998Z</time></trkpt><trkpt lat="52.92195811023712" lon="12.78837773564691"><ele>43.0</ele><time>2026-04-17T12:53:26.998Z</time></trkpt><trkpt lat="52.92199823400302" lon="12.788540139748894"><ele>43.0</ele><time>2026-04-17T12:53:27.998Z</time></trkpt><trkpt lat="52.92204104850356" lon="12.788707050992848"><ele>43.0</ele><time>2026-04-17T12:53:28.998Z</time></trkpt><trkpt lat="52.922088973926684" lon="12.78888576540133"><ele>43.0</ele><time>2026-04-17T12:53:29.998Z</time></trkpt><trkpt lat="52.9221354505408" lon="12.789058466924086"><ele>43.0</ele><time>2026-04-17T12:53:30.998Z</time></trkpt><trkpt lat="52.922186068022725" lon="12.78924646036287"><ele>43.0</ele><time>2026-04-17T12:53:31.998Z</time></trkpt><trkpt lat="52.92223711782987" lon="12.789439077081425"><ele>43.0</ele><time>2026-04-17T12:53:32.998Z</time></trkpt><trkpt lat="52.92229241655995" lon="12.789638483845293"><ele>43.0</ele><time>2026-04-17T12:53:33.998Z</time></trkpt><trkpt lat="52.92234920921189" lon="12.789836633455643"><ele>43.0</ele><time>2026-04-17T12:53:35Z</time></trkpt><trkpt lat="52.922402450442256" lon="12.790025761339276"><ele>43.0</ele><time>2026-04-17T12:53:36Z</time></trkpt><trkpt lat="52.9224661047918" lon="12.790196293097809"><ele>43.0</ele><time>2026-04-17T12:53:37Z</time></trkpt><trkpt lat="52.922540273729425" lon="12.790354878581825"><ele>43.0</ele><time>2026-04-17T12:53:38Z</time></trkpt><trkpt lat="52.92262186623274" lon="12.790492279202072"><ele>43.0</ele><time>2026-04-17T12:53:39Z</time></trkpt><trkpt lat="52.92270972183895" lon="12.790621304766946"><ele>43.0</ele><time>2026-04-17T12:53:40Z</time></trkpt><trkpt lat="52.92279935203111" lon="12.79074428483217"><ele>43.0</ele><time>2026-04-17T12:53:41Z</time></trkpt><trkpt lat="52.92289396068211" lon="12.790855173809767"><ele>43.0</ele><time>2026-04-17T12:53:42Z</time></trkpt><trkpt lat="52.92299210356308" lon="12.790954298668986"><ele>43.0</ele><time>2026-04-17T12:53:43Z</time></trkpt><trkpt lat="52.9230949470446" lon="12.791035415745002"><ele>43.25</ele><time>2026-04-17T12:53:44Z</time></trkpt><trkpt lat="52.92320233143181" lon="12.79111003829744"><ele>43.5</ele><time>2026-04-17T12:53:45Z</time></trkpt><trkpt lat="52.92331350827816" lon="12.791167586395208"><ele>43.75</ele><time>2026-04-17T12:53:46Z</time></trkpt><trkpt lat="52.92342995671433" lon="12.791210577728162"><ele>44.0</ele><time>2026-04-17T12:53:47Z</time></trkpt><trkpt lat="52.92355257232136" lon="12.791242122179407"><ele>43.5</ele><time>2026-04-17T12:53:48Z</time></trkpt><trkpt lat="52.9236786067161" lon="12.791256832495908"><ele>43.0</ele><time>2026-04-17T12:53:49Z</time></trkpt><trkpt lat="52.923803344091354" lon="12.791263880749495"><ele>42.5</ele><time>2026-04-17T12:53:50Z</time></trkpt><trkpt lat="52.92392549879689" lon="12.791263980164679"><ele>42.0</ele><time>2026-04-17T12:53:51Z</time></trkpt><trkpt lat="52.92404413943646" lon="12.79127082746606"><ele>42.0</ele><time>2026-04-17T12:53:52Z</time></trkpt><trkpt lat="52.92416784982969" lon="12.791271177803317"><ele>42.0</ele><time>2026-04-17T12:53:53Z</time></trkpt><trkpt lat="52.92428245712598" lon="12.791264376285804"><ele>42.0</ele><time>2026-04-17T12:53:54Z</time></trkpt><trkpt lat="52.92443950854973" lon="12.791230920745367"><ele>42.0</ele><time>2026-04-17T12:53:55Z</time></trkpt><trkpt lat="52.92461256718792" lon="12.791153679020676"><ele>42.0</ele><time>2026-04-17T12:53:56Z</time></trkpt><trkpt lat="52.92473937751525" lon="12.791127908974405"><ele>42.0</ele><time>2026-04-17T12:53:57Z</time></trkpt><trkpt lat="52.924838629355925" lon="12.791110400602358"><ele>42.0</ele><time>2026-04-17T12:53:58Z</time></trkpt><trkpt lat="52.92493712977136" lon="12.791092771046719"><ele>42.0</ele><time>2026-04-17T12:53:59Z</time></trkpt><trkpt lat="52.92505486943167" lon="12.791076023571975"><ele>42.0</ele><time>2026-04-17T12:54:00Z</time></trkpt><trkpt lat="52.92517491210324" lon="12.791060024611115"><ele>42.25</ele><time>2026-04-17T12:54:01Z</time></trkpt><trkpt lat="52.92529018815364" lon="12.791051382712165"><ele>42.5</ele><time>2026-04-17T12:54:02Z</time></trkpt><trkpt lat="52.92540442480496" lon="12.791087059732519"><ele>42.75</ele><time>2026-04-17T12:54:03Z</time></trkpt><trkpt lat="52.925517471958024" lon="12.791103650112444"><ele>43.0</ele><time>2026-04-17T12:54:04Z</time></trkpt><trkpt lat="52.92562969541069" lon="12.791135607463879"><ele>43.0</ele><time>2026-04-17T12:54:05Z</time></trkpt><trkpt lat="52.925743000829826" lon="12.791180562563914"><ele>43.0</ele><time>2026-04-17T12:54:06Z</time></trkpt><trkpt lat="52.92586278153568" lon="12.791218655427548"><ele>43.0</ele><time>2026-04-17T12:54:07Z</time></trkpt><trkpt lat="52.92597881205688" lon="12.791293154570594"><ele>43.0</ele><time>2026-04-17T12:54:08Z</time></trkpt><trkpt lat="52.92609536802166" lon="12.791384481694802"><ele>43.0</ele><time>2026-04-17T12:54:08.999Z</time></trkpt><trkpt lat="52.92620925603691" lon="12.791486220371029"><ele>43.0</ele><time>2026-04-17T12:54:09.999Z</time></trkpt><trkpt lat="52.92631758224782" lon="12.791594031505449"><ele>43.0</ele><time>2026-04-17T12:54:10.999Z</time></trkpt><trkpt lat="52.926424259810595" lon="12.79169894362839"><ele>43.0</ele><time>2026-04-17T12:54:11.999Z</time></trkpt><trkpt lat="52.92652753386093" lon="12.79179916933234"><ele>43.0</ele><time>2026-04-17T12:54:12.999Z</time></trkpt><trkpt lat="52.92662838574014" lon="12.79190094131188"><ele>43.0</ele><time>2026-04-17T12:54:13.999Z</time></trkpt><trkpt lat="52.9267280605138" lon="12.79199668142941"><ele>43.0</ele><time>2026-04-17T12:54:14.999Z</time></trkpt><trkpt lat="52.926827151526616" lon="12.79209123169122"><ele>43.0</ele><time>2026-04-17T12:54:15.999Z</time></trkpt><trkpt lat="52.92691978465399" lon="12.792179542095202"><ele>43.2</ele><time>2026-04-17T12:54:16.999Z</time></trkpt><trkpt lat="52.927011488786846" lon="12.792272523485849"><ele>43.4</ele><time>2026-04-17T12:54:17.999Z</time></trkpt><trkpt lat="52.92709602079762" lon="12.792359232678661"><ele>43.6</ele><time>2026-04-17T12:54:18.999Z</time></trkpt><trkpt lat="52.927178840917094" lon="12.792452892338384"><ele>43.800000000000004</ele><time>2026-04-17T12:54:19.999Z</time></trkpt><trkpt lat="52.927256042625764" lon="12.79254025223044"><ele>44.0</ele><time>2026-04-17T12:54:20.999Z</time></trkpt><trkpt lat="52.9273187986218" lon="12.792615575244048"><ele>44.0</ele><time>2026-04-17T12:54:21.999Z</time></trkpt><trkpt lat="52.927376575364185" lon="12.79270036112854"><ele>44.0</ele><time>2026-04-17T12:54:24.999Z</time></trkpt><trkpt lat="52.92744352622189" lon="12.792790307140361"><ele>44.0</ele><time>2026-04-17T12:54:26.999Z</time></trkpt><trkpt lat="52.92749164944615" lon="12.792908737550126"><ele>44.0</ele><time>2026-04-17T12:54:28.999Z</time></trkpt><trkpt lat="52.927582772688474" lon="12.793022359193865"><ele>44.0</ele><time>2026-04-17T12:54:30.999Z</time></trkpt><trkpt lat="52.927646469989256" lon="12.793039407602985"><ele>44.0</ele><time>2026-04-17T12:54:31.999Z</time></trkpt><trkpt lat="52.92771975823573" lon="12.793056199283653"><ele>44.0</ele><time>2026-04-17T12:54:32.999Z</time></trkpt><trkpt lat="52.92779687374647" lon="12.793098696004042"><ele>44.0</ele><time>2026-04-17T12:54:33.999Z</time></trkpt><trkpt lat="52.92787860810081" lon="12.793168949119654"><ele>44.0</ele><time>2026-04-17T12:54:34.999Z</time></trkpt><trkpt lat="52.92797045078978" lon="12.793265532451493"><ele>44.0</ele><time>2026-04-17T12:54:35.999Z</time></trkpt><trkpt lat="52.92806328787807" lon="12.793371285615569"><ele>44.0</ele><time>2026-04-17T12:54:36.999Z</time></trkpt><trkpt lat="52.92816666125626" lon="12.79346820744697"><ele>43.75</ele><time>2026-04-17T12:54:37.999Z</time></trkpt><trkpt lat="52.92826906704749" lon="12.793567773008558"><ele>43.5</ele><time>2026-04-17T12:54:38.999Z</time></trkpt><trkpt lat="52.928372066816564" lon="12.79367794603874"><ele>43.25</ele><time>2026-04-17T12:54:39.999Z</time></trkpt><trkpt lat="52.92847845751906" lon="12.793802324886117"><ele>43.0</ele><time>2026-04-17T12:54:40.999Z</time></trkpt><trkpt lat="52.92857569694568" lon="12.79392460320713"><ele>42.75</ele><time>2026-04-17T12:54:41.999Z</time></trkpt><trkpt lat="52.928670010079045" lon="12.79404223725993"><ele>42.5</ele><time>2026-04-17T12:54:42.999Z</time></trkpt><trkpt lat="52.92875948917902" lon="12.79415622357122"><ele>42.25</ele><time>2026-04-17T12:54:43.999Z</time></trkpt><trkpt lat="52.92885171392855" lon="12.794272173640385"><ele>42.0</ele><time>2026-04-17T12:54:44.999Z</time></trkpt><trkpt lat="52.92893396519457" lon="12.794387013290782"><ele>42.0</ele><time>2026-04-17T12:54:45.999Z</time></trkpt><trkpt lat="52.929020462236195" lon="12.794499114210389"><ele>42.0</ele><time>2026-04-17T12:54:46.999Z</time></trkpt><trkpt lat="52.92910922777132" lon="12.794609393808068"><ele>42.0</ele><time>2026-04-17T12:54:47.999Z</time></trkpt><trkpt lat="52.92919986710861" lon="12.794732842344477"><ele>42.0</ele><time>2026-04-17T12:54:48.999Z</time></trkpt><trkpt lat="52.929289356985834" lon="12.794862964579112"><ele>42.25</ele><time>2026-04-17T12:54:49.999Z</time></trkpt><trkpt lat="52.92938444901821" lon="12.795005612178144"><ele>42.5</ele><time>2026-04-17T12:54:50.999Z</time></trkpt><trkpt lat="52.92947364248295" lon="12.795149680040621"><ele>42.75</ele><time>2026-04-17T12:54:51.999Z</time></trkpt><trkpt lat="52.92955642808372" lon="12.795293564476438"><ele>43.0</ele><time>2026-04-17T12:54:52.999Z</time></trkpt><trkpt lat="52.92963643140604" lon="12.795444122239225"><ele>43.0</ele><time>2026-04-17T12:54:53.999Z</time></trkpt><trkpt lat="52.92971827606545" lon="12.795590179252416"><ele>43.0</ele><time>2026-04-17T12:54:54.999Z</time></trkpt><trkpt lat="52.92980052929696" lon="12.795746593609495"><ele>43.0</ele><time>2026-04-17T12:54:55.999Z</time></trkpt><trkpt lat="52.92988135011171" lon="12.795906442921623"><ele>43.0</ele><time>2026-04-17T12:54:56.999Z</time></trkpt><trkpt lat="52.92996471951204" lon="12.79607260629473"><ele>43.0</ele><time>2026-04-17T12:54:57.999Z</time></trkpt><trkpt lat="52.93005781420064" lon="12.796245675818074"><ele>43.0</ele><time>2026-04-17T12:54:58.998Z</time></trkpt><trkpt lat="52.930164160097014" lon="12.796420550951163"><ele>43.0</ele><time>2026-04-17T12:54:59.998Z</time></trkpt><trkpt lat="52.93028255262321" lon="12.796585390284266"><ele>43.0</ele><time>2026-04-17T12:55:00.998Z</time></trkpt><trkpt lat="52.930386330009334" lon="12.796715488490864"><ele>42.75</ele><time>2026-04-17T12:55:01.998Z</time></trkpt><trkpt lat="52.930502173313045" lon="12.796822984002803"><ele>42.5</ele><time>2026-04-17T12:55:02.998Z</time></trkpt><trkpt lat="52.9306100696717" lon="12.796921948451805"><ele>42.25</ele><time>2026-04-17T12:55:03.998Z</time></trkpt><trkpt lat="52.9307474613312" lon="12.797037631008697"><ele>42.0</ele><time>2026-04-17T12:55:04.998Z</time></trkpt><trkpt lat="52.93087358822025" lon="12.797105218018565"><ele>41.75</ele><time>2026-04-17T12:55:05.998Z</time></trkpt><trkpt lat="52.931000785066516" lon="12.797159746775648"><ele>41.5</ele><time>2026-04-17T12:55:06.998Z</time></trkpt><trkpt lat="52.93113722681796" lon="12.797190564369362"><ele>41.25</ele><time>2026-04-17T12:55:07.998Z</time></trkpt><trkpt lat="52.93127291296807" lon="12.797201889762714"><ele>41.0</ele><time>2026-04-17T12:55:08.998Z</time></trkpt><trkpt lat="52.93141046648048" lon="12.797192650609237"><ele>41.0</ele><time>2026-04-17T12:55:09.998Z</time></trkpt><trkpt lat="52.93154753014674" lon="12.797170110914697"><ele>41.0</ele><time>2026-04-17T12:55:10.998Z</time></trkpt><trkpt lat="52.931687278058355" lon="12.797127994768802"><ele>41.0</ele><time>2026-04-17T12:55:11.998Z</time></trkpt><trkpt lat="52.93182840245078" lon="12.797065724648295"><ele>41.0</ele><time>2026-04-17T12:55:12.998Z</time></trkpt><trkpt lat="52.93196609899495" lon="12.796988017911572"><ele>40.75</ele><time>2026-04-17T12:55:13.998Z</time></trkpt><trkpt lat="52.93210052580227" lon="12.796894553583156"><ele>40.5</ele><time>2026-04-17T12:55:14.998Z</time></trkpt><trkpt lat="52.932224625224784" lon="12.796786353463004"><ele>40.25</ele><time>2026-04-17T12:55:15.998Z</time></trkpt><trkpt lat="52.93234635018048" lon="12.796662487618843"><ele>40.0</ele><time>2026-04-17T12:55:16.998Z</time></trkpt><trkpt lat="52.9324704133199" lon="12.796537240123902"><ele>40.5</ele><time>2026-04-17T12:55:17.998Z</time></trkpt><trkpt lat="52.93259570056281" lon="12.796413429308185"><ele>41.0</ele><time>2026-04-17T12:55:18.998Z</time></trkpt><trkpt lat="52.93271820960383" lon="12.796291157678182"><ele>41.5</ele><time>2026-04-17T12:55:19.998Z</time></trkpt><trkpt lat="52.93283323310285" lon="12.796173320226465"><ele>42.0</ele><time>2026-04-17T12:55:20.998Z</time></trkpt><trkpt lat="52.932946958306914" lon="12.796061011076924"><ele>42.0</ele><time>2026-04-17T12:55:21.998Z</time></trkpt><trkpt lat="52.933064346927985" lon="12.795945229149757"><ele>42.0</ele><time>2026-04-17T12:55:22.998Z</time></trkpt><trkpt lat="52.93318369300166" lon="12.795841434401288"><ele>42.0</ele><time>2026-04-17T12:55:23.998Z</time></trkpt><trkpt lat="52.93330249215573" lon="12.795739408777692"><ele>42.0</ele><time>2026-04-17T12:55:24.998Z</time></trkpt><trkpt lat="52.93342129050339" lon="12.795637095131829"><ele>41.75</ele><time>2026-04-17T12:55:25.998Z</time></trkpt><trkpt lat="52.933547897093575" lon="12.795572082327363"><ele>41.5</ele><time>2026-04-17T12:55:26.998Z</time></trkpt><trkpt lat="52.9336642202407" lon="12.79547232006235"><ele>41.25</ele><time>2026-04-17T12:55:27.998Z</time></trkpt><trkpt lat="52.93379431648591" lon="12.795419649830864"><ele>41.0</ele><time>2026-04-17T12:55:28.998Z</time></trkpt><trkpt lat="52.93392365064946" lon="12.795360737264089"><ele>41.0</ele><time>2026-04-17T12:55:29.998Z</time></trkpt><trkpt lat="52.9340535047845" lon="12.795304178057549"><ele>41.0</ele><time>2026-04-17T12:55:30.998Z</time></trkpt><trkpt lat="52.934186074531496" lon="12.795261046683187"><ele>41.0</ele><time>2026-04-17T12:55:31.998Z</time></trkpt><trkpt lat="52.93432013717342" lon="12.795224276415867"><ele>41.0</ele><time>2026-04-17T12:55:32.998Z</time></trkpt><trkpt lat="52.93444814971955" lon="12.795197191996472"><ele>41.0</ele><time>2026-04-17T12:55:33.998Z</time></trkpt><trkpt lat="52.93457782100714" lon="12.79517572662333"><ele>41.0</ele><time>2026-04-17T12:55:34.998Z</time></trkpt><trkpt lat="52.934705547153214" lon="12.795156983479627"><ele>41.0</ele><time>2026-04-17T12:55:35.998Z</time></trkpt><trkpt lat="52.934833991740156" lon="12.795137044706852"><ele>41.0</ele><time>2026-04-17T12:55:36.998Z</time></trkpt><trkpt lat="52.93495863103042" lon="12.795116168766402"><ele>41.0</ele><time>2026-04-17T12:55:37.998Z</time></trkpt><trkpt lat="52.93508237957242" lon="12.795092325597503"><ele>41.0</ele><time>2026-04-17T12:55:38.998Z</time></trkpt><trkpt lat="52.93520559565008" lon="12.795069800649665"><ele>41.0</ele><time>2026-04-17T12:55:39.998Z</time></trkpt><trkpt lat="52.93532984538044" lon="12.795043593834254"><ele>41.0</ele><time>2026-04-17T12:55:41Z</time></trkpt><trkpt lat="52.93545644870948" lon="12.795025204031809"><ele>41.0</ele><time>2026-04-17T12:55:42Z</time></trkpt><trkpt lat="52.935594954026286" lon="12.794998319299948"><ele>41.0</ele><time>2026-04-17T12:55:43Z</time></trkpt><trkpt lat="52.93574373865488" lon="12.794974458624688"><ele>41.0</ele><time>2026-04-17T12:55:44Z</time></trkpt><trkpt lat="52.93589746328931" lon="12.794949928014255"><ele>41.0</ele><time>2026-04-17T12:55:45Z</time></trkpt><trkpt lat="52.93606752796668" lon="12.794926691048826"><ele>41.0</ele><time>2026-04-17T12:55:46Z</time></trkpt><trkpt lat="52.936235467088686" lon="12.794896658065904"><ele>41.0</ele><time>2026-04-17T12:55:47Z</time></trkpt><trkpt lat="52.93641605454197" lon="12.79485688422559"><ele>41.0</ele><time>2026-04-17T12:55:48Z</time></trkpt><trkpt lat="52.93660161613479" lon="12.794823592258584"><ele>41.666666666666664</ele><time>2026-04-17T12:55:49Z</time></trkpt><trkpt lat="52.93678054916766" lon="12.79479267361587"><ele>42.333333333333336</ele><time>2026-04-17T12:55:50Z</time></trkpt><trkpt lat="52.9369518250334" lon="12.794771373089226"><ele>43.0</ele><time>2026-04-17T12:55:51Z</time></trkpt><trkpt lat="52.937107824014916" lon="12.794779681051173"><ele>43.0</ele><time>2026-04-17T12:55:52Z</time></trkpt><trkpt lat="52.937260691756244" lon="12.79477576206429"><ele>43.0</ele><time>2026-04-17T12:55:53Z</time></trkpt><trkpt lat="52.937409236638864" lon="12.794784851745945"><ele>43.0</ele><time>2026-04-17T12:55:54Z</time></trkpt><trkpt lat="52.937559778760594" lon="12.794784061594536"><ele>42.333333333333336</ele><time>2026-04-17T12:55:55Z</time></trkpt><trkpt lat="52.937713829909185" lon="12.794823796087831"><ele>41.666666666666664</ele><time>2026-04-17T12:55:56Z</time></trkpt><trkpt lat="52.937864292125134" lon="12.794907408919507"><ele>41.0</ele><time>2026-04-17T12:55:57Z</time></trkpt><trkpt lat="52.93802091143262" lon="12.794983030547096"><ele>41.0</ele><time>2026-04-17T12:55:58Z</time></trkpt><trkpt lat="52.938175932319645" lon="12.795077621363955"><ele>41.0</ele><time>2026-04-17T12:55:59Z</time></trkpt><trkpt lat="52.938323242493524" lon="12.79518734165033"><ele>41.0</ele><time>2026-04-17T12:56:00Z</time></trkpt><trkpt lat="52.93846154933873" lon="12.795304961042971"><ele>41.33333333333333</ele><time>2026-04-17T12:56:01Z</time></trkpt><trkpt lat="52.93859158998395" lon="12.795436806673926"><ele>41.666666666666664</ele><time>2026-04-17T12:56:02Z</time></trkpt><trkpt lat="52.93871661554001" lon="12.795576777479772"><ele>42.0</ele><time>2026-04-17T12:56:03Z</time></trkpt><trkpt lat="52.93883862223742" lon="12.795731676113213"><ele>42.0</ele><time>2026-04-17T12:56:04Z</time></trkpt><trkpt lat="52.93895473451615" lon="12.795906577028612"><ele>42.0</ele><time>2026-04-17T12:56:05Z</time></trkpt><trkpt lat="52.93906394249992" lon="12.796089536513357"><ele>42.0</ele><time>2026-04-17T12:56:06Z</time></trkpt><trkpt lat="52.9391758496708" lon="12.796276585519223"><ele>42.0</ele><time>2026-04-17T12:56:07Z</time></trkpt><trkpt lat="52.93927183431735" lon="12.796487760652075"><ele>42.0</ele><time>2026-04-17T12:56:08Z</time></trkpt><trkpt lat="52.939360304608705" lon="12.796708042649595"><ele>42.0</ele><time>2026-04-17T12:56:09Z</time></trkpt><trkpt lat="52.939442298412025" lon="12.796938462974047"><ele>42.0</ele><time>2026-04-17T12:56:10Z</time></trkpt><trkpt lat="52.93951428889475" lon="12.797180825789964"><ele>42.0</ele><time>2026-04-17T12:56:11Z</time></trkpt><trkpt lat="52.93957778957654" lon="12.797428672643418"><ele>42.0</ele><time>2026-04-17T12:56:12Z</time></trkpt><trkpt lat="52.93963169285007" lon="12.797681145368498"><ele>42.333333333333336</ele><time>2026-04-17T12:56:13Z</time></trkpt><trkpt lat="52.93967155156332" lon="12.797939097390726"><ele>42.66666666666667</ele><time>2026-04-17T12:56:14Z</time></trkpt><trkpt lat="52.939702533885644" lon="12.798197740796622"><ele>43.0</ele><time>2026-04-17T12:56:14.999Z</time></trkpt><trkpt lat="52.93971882341003" lon="12.798458740894981"><ele>43.0</ele><time>2026-04-17T12:56:15.999Z</time></trkpt><trkpt lat="52.939727290794885" lon="12.798719754803773"><ele>43.0</ele><time>2026-04-17T12:56:16.999Z</time></trkpt><trkpt lat="52.93972616673667" lon="12.798974421567522"><ele>43.0</ele><time>2026-04-17T12:56:17.999Z</time></trkpt><trkpt lat="52.939719313366595" lon="12.799232572998724"><ele>43.333333333333336</ele><time>2026-04-17T12:56:18.999Z</time></trkpt><trkpt lat="52.93970684970011" lon="12.799490491061587"><ele>43.666666666666664</ele><time>2026-04-17T12:56:19.999Z</time></trkpt><trkpt lat="52.93968690029378" lon="12.79974850752957"><ele>44.0</ele><time>2026-04-17T12:56:20.999Z</time></trkpt><trkpt lat="52.939662714235695" lon="12.800007203347667"><ele>44.0</ele><time>2026-04-17T12:56:21.999Z</time></trkpt><trkpt lat="52.93963734529453" lon="12.800258288053474"><ele>44.0</ele><time>2026-04-17T12:56:22.999Z</time></trkpt><trkpt lat="52.939612260249675" lon="12.800519293090861"><ele>44.0</ele><time>2026-04-17T12:56:23.999Z</time></trkpt><trkpt lat="52.93958826909582" lon="12.800781084480489"><ele>44.0</ele><time>2026-04-17T12:56:24.999Z</time></trkpt><trkpt lat="52.93956545220734" lon="12.801053205903937"><ele>44.0</ele><time>2026-04-17T12:56:25.999Z</time></trkpt><trkpt lat="52.93953865985967" lon="12.80132702378982"><ele>44.0</ele><time>2026-04-17T12:56:26.999Z</time></trkpt><trkpt lat="52.93950924458975" lon="12.801610138593968"><ele>43.33333333333333</ele><time>2026-04-17T12:56:27.999Z</time></trkpt><trkpt lat="52.939485897489114" lon="12.801889748552588"><ele>42.666666666666664</ele><time>2026-04-17T12:56:28.999Z</time></trkpt><trkpt lat="52.939463308612986" lon="12.802166664072347"><ele>42.0</ele><time>2026-04-17T12:56:29.999Z</time></trkpt><trkpt lat="52.939437787607126" lon="12.80244045341791"><ele>42.0</ele><time>2026-04-17T12:56:30.999Z</time></trkpt><trkpt lat="52.93941222150699" lon="12.802718812311612"><ele>42.0</ele><time>2026-04-17T12:56:31.999Z</time></trkpt><trkpt lat="52.939386535631165" lon="12.80300079791625"><ele>42.0</ele><time>2026-04-17T12:56:32.999Z</time></trkpt><trkpt lat="52.93935987763139" lon="12.803289543157067"><ele>42.0</ele><time>2026-04-17T12:56:33.999Z</time></trkpt><trkpt lat="52.939332478151" lon="12.803572418941727"><ele>42.0</ele><time>2026-04-17T12:56:34.999Z</time></trkpt><trkpt lat="52.939306675138425" lon="12.803860724112544"><ele>42.0</ele><time>2026-04-17T12:56:35.999Z</time></trkpt><trkpt lat="52.939282712853924" lon="12.804146907462366"><ele>42.666666666666664</ele><time>2026-04-17T12:56:36.999Z</time></trkpt><trkpt lat="52.93926423634561" lon="12.804427182194535"><ele>43.33333333333333</ele><time>2026-04-17T12:56:37.999Z</time></trkpt><trkpt lat="52.93925317718974" lon="12.804701227441067"><ele>44.0</ele><time>2026-04-17T12:56:38.999Z</time></trkpt><trkpt lat="52.939249577000524" lon="12.804968076209189"><ele>43.75</ele><time>2026-04-17T12:56:39.999Z</time></trkpt><trkpt lat="52.93925503862034" lon="12.805219001922278"><ele>43.5</ele><time>2026-04-17T12:56:40.999Z</time></trkpt><trkpt lat="52.93926765220389" lon="12.805460489425004"><ele>43.25</ele><time>2026-04-17T12:56:41.999Z</time></trkpt><trkpt lat="52.9392840185251" lon="12.805686883379545"><ele>43.0</ele><time>2026-04-17T12:56:42.999Z</time></trkpt><trkpt lat="52.93930278565995" lon="12.805899326354982"><ele>43.0</ele><time>2026-04-17T12:56:43.999Z</time></trkpt><trkpt lat="52.93932512297763" lon="12.806114989539507"><ele>43.0</ele><time>2026-04-17T12:56:44.999Z</time></trkpt><trkpt lat="52.939353372017976" lon="12.80631463351993"><ele>43.0</ele><time>2026-04-17T12:56:45.999Z</time></trkpt><trkpt lat="52.939385826173826" lon="12.806532478531715"><ele>43.0</ele><time>2026-04-17T12:56:46.999Z</time></trkpt><trkpt lat="52.93942317962989" lon="12.806748667214704"><ele>43.5</ele><time>2026-04-17T12:56:47.999Z</time></trkpt><trkpt lat="52.93946126636286" lon="12.806951421226717"><ele>44.0</ele><time>2026-04-17T12:56:48.999Z</time></trkpt><trkpt lat="52.939499495688466" lon="12.807146976877826"><ele>44.5</ele><time>2026-04-17T12:56:49.999Z</time></trkpt><trkpt lat="52.93953169926882" lon="12.807330041189061"><ele>45.0</ele><time>2026-04-17T12:56:50.999Z</time></trkpt><trkpt lat="52.939557628440305" lon="12.807485533171926"><ele>45.0</ele><time>2026-04-17T12:56:51.999Z</time></trkpt><trkpt lat="52.9395829266246" lon="12.807621566025082"><ele>45.0</ele><time>2026-04-17T12:56:52.999Z</time></trkpt><trkpt lat="52.939602844802565" lon="12.807735966820706"><ele>45.0</ele><time>2026-04-17T12:56:53.999Z</time></trkpt><trkpt lat="52.9396325846009" lon="12.807921738586609"><ele>45.0</ele><time>2026-04-17T12:56:55.999Z</time></trkpt><trkpt lat="52.939653302583864" lon="12.808090906036256"><ele>45.0</ele><time>2026-04-17T12:56:57.999Z</time></trkpt><trkpt lat="52.939661229688085" lon="12.808243048638356"><ele>45.0</ele><time>2026-04-17T12:57:04.999Z</time></trkpt><trkpt lat="52.93963592202123" lon="12.808444563856204"><ele>45.0</ele><time>2026-04-17T12:57:06.998Z</time></trkpt><trkpt lat="52.93961442103566" lon="12.808553519726237"><ele>45.0</ele><time>2026-04-17T12:57:07.998Z</time></trkpt><trkpt lat="52.93963814635205" lon="12.808718963117215"><ele>45.0</ele><time>2026-04-17T12:57:09.998Z</time></trkpt><trkpt lat="52.939725609979476" lon="12.808802000005112"><ele>45.0</ele><time>2026-04-17T12:57:11.998Z</time></trkpt><trkpt lat="52.939796688752864" lon="12.808933776603817"><ele>45.0</ele><time>2026-04-17T12:57:13.998Z</time></trkpt><trkpt lat="52.939844203004625" lon="12.809168276703215"><ele>45.0</ele><time>2026-04-17T12:57:15.998Z</time></trkpt><trkpt lat="52.93987146148727" lon="12.809305429080874"><ele>45.0</ele><time>2026-04-17T12:57:16.998Z</time></trkpt><trkpt lat="52.93990059705877" lon="12.809450297702108"><ele>45.0</ele><time>2026-04-17T12:57:17.998Z</time></trkpt><trkpt lat="52.93993454047585" lon="12.809611545582348"><ele>45.0</ele><time>2026-04-17T12:57:18.998Z</time></trkpt><trkpt lat="52.939970625541214" lon="12.809779230242022"><ele>45.0</ele><time>2026-04-17T12:57:19.998Z</time></trkpt><trkpt lat="52.93999886759006" lon="12.80994341169424"><ele>45.0</ele><time>2026-04-17T12:57:20.998Z</time></trkpt><trkpt lat="52.94002150599589" lon="12.810093439662815"><ele>45.0</ele><time>2026-04-17T12:57:21.998Z</time></trkpt><trkpt lat="52.940040027379624" lon="12.810256339227674"><ele>45.0</ele><time>2026-04-17T12:57:22.998Z</time></trkpt><trkpt lat="52.940053785177994" lon="12.810422012372667"><ele>45.0</ele><time>2026-04-17T12:57:23.998Z</time></trkpt><trkpt lat="52.94006272998761" lon="12.810594738051988"><ele>45.0</ele><time>2026-04-17T12:57:24.998Z</time></trkpt><trkpt lat="52.940065969425014" lon="12.810765911346055"><ele>45.0</ele><time>2026-04-17T12:57:25.998Z</time></trkpt><trkpt lat="52.94006744011585" lon="12.810943097504477"><ele>45.0</ele><time>2026-04-17T12:57:26.998Z</time></trkpt><trkpt lat="52.940066248118654" lon="12.811121466955361"><ele>45.0</ele><time>2026-04-17T12:57:27.998Z</time></trkpt><trkpt lat="52.94006173063971" lon="12.81130010202036"><ele>45.0</ele><time>2026-04-17T12:57:28.998Z</time></trkpt><trkpt lat="52.94004459942034" lon="12.811490862983264"><ele>44.75</ele><time>2026-04-17T12:57:29.998Z</time></trkpt><trkpt lat="52.94002084627814" lon="12.811678092787174"><ele>44.5</ele><time>2026-04-17T12:57:30.998Z</time></trkpt><trkpt lat="52.939987142145895" lon="12.811860825558828"><ele>44.25</ele><time>2026-04-17T12:57:31.998Z</time></trkpt><trkpt lat="52.939948880002376" lon="12.812042747217903"><ele>44.0</ele><time>2026-04-17T12:57:32.998Z</time></trkpt><trkpt lat="52.93990568713492" lon="12.812222279425201"><ele>43.75</ele><time>2026-04-17T12:57:33.998Z</time></trkpt><trkpt lat="52.93986269628187" lon="12.812402163105565"><ele>43.5</ele><time>2026-04-17T12:57:34.998Z</time></trkpt><trkpt lat="52.93981669225027" lon="12.812575857909321"><ele>43.25</ele><time>2026-04-17T12:57:35.998Z</time></trkpt><trkpt lat="52.93976965206909" lon="12.812747672371492"><ele>43.0</ele><time>2026-04-17T12:57:36.998Z</time></trkpt><trkpt lat="52.939720126234235" lon="12.812916981656294"><ele>43.0</ele><time>2026-04-17T12:57:37.998Z</time></trkpt><trkpt lat="52.93966793930286" lon="12.813082967538078"><ele>43.0</ele><time>2026-04-17T12:57:38.998Z</time></trkpt><trkpt lat="52.93961574123364" lon="12.81325133576492"><ele>43.0</ele><time>2026-04-17T12:57:39.998Z</time></trkpt><trkpt lat="52.93956061945314" lon="12.813414802736288"><ele>43.0</ele><time>2026-04-17T12:57:40.998Z</time></trkpt><trkpt lat="52.939505606063655" lon="12.813578993772948"><ele>43.25</ele><time>2026-04-17T12:57:41.998Z</time></trkpt><trkpt lat="52.93944984627726" lon="12.813742886337652"><ele>43.5</ele><time>2026-04-17T12:57:42.998Z</time></trkpt><trkpt lat="52.93938985922446" lon="12.813919657666862"><ele>43.75</ele><time>2026-04-17T12:57:43.998Z</time></trkpt><trkpt lat="52.93933045622558" lon="12.81410049108"><ele>44.0</ele><time>2026-04-17T12:57:44.998Z</time></trkpt><trkpt lat="52.93926170108471" lon="12.814279755314395"><ele>43.75</ele><time>2026-04-17T12:57:45.998Z</time></trkpt><trkpt lat="52.93918418707774" lon="12.814460139345055"><ele>43.5</ele><time>2026-04-17T12:57:47Z</time></trkpt><trkpt lat="52.939104275111895" lon="12.814635699207132"><ele>43.25</ele><time>2026-04-17T12:57:48Z</time></trkpt><trkpt lat="52.93902522741681" lon="12.814808026786192"><ele>43.0</ele><time>2026-04-17T12:57:49Z</time></trkpt><trkpt lat="52.93894618143623" lon="12.814981460802192"><ele>43.0</ele><time>2026-04-17T12:57:50Z</time></trkpt><trkpt lat="52.938864264943035" lon="12.815152234223632"><ele>43.0</ele><time>2026-04-17T12:57:51Z</time></trkpt><trkpt lat="52.93878601501897" lon="12.815320375248552"><ele>43.0</ele><time>2026-04-17T12:57:52Z</time></trkpt><trkpt lat="52.93871453287968" lon="12.815487273947745"><ele>43.0</ele><time>2026-04-17T12:57:53Z</time></trkpt><trkpt lat="52.93865037283097" lon="12.8156471730233"><ele>43.0</ele><time>2026-04-17T12:57:54Z</time></trkpt><trkpt lat="52.938594461755244" lon="12.815805783117447"><ele>43.0</ele><time>2026-04-17T12:57:55Z</time></trkpt><trkpt lat="52.93855194141779" lon="12.815952609312859"><ele>43.0</ele><time>2026-04-17T12:57:56Z</time></trkpt><trkpt lat="52.93851502350078" lon="12.81610669443853"><ele>43.0</ele><time>2026-04-17T12:57:57Z</time></trkpt><trkpt lat="52.93848270499934" lon="12.81625536026734"><ele>43.0</ele><time>2026-04-17T12:57:58Z</time></trkpt><trkpt lat="52.93844731562243" lon="12.816388582575092"><ele>43.16666666666667</ele><time>2026-04-17T12:57:59Z</time></trkpt><trkpt lat="52.93841145187855" lon="12.816491844002892"><ele>43.333333333333336</ele><time>2026-04-17T12:58:00Z</time></trkpt><trkpt lat="52.938371458476" lon="12.816597434245269"><ele>43.5</ele><time>2026-04-17T12:58:02Z</time></trkpt><trkpt lat="52.93834482356557" lon="12.816695286257428"><ele>43.666666666666664</ele><time>2026-04-17T12:58:04Z</time></trkpt><trkpt lat="52.93830423677452" lon="12.816829104618419"><ele>43.83333333333333</ele><time>2026-04-17T12:58:08Z</time></trkpt><trkpt lat="52.93826969601005" lon="12.816944627099328"><ele>44.0</ele><time>2026-04-17T12:58:10Z</time></trkpt><trkpt lat="52.93823732860826" lon="12.817078694774919"><ele>44.2</ele><time>2026-04-17T12:58:20Z</time></trkpt><trkpt lat="52.938196214960755" lon="12.817219014453654"><ele>44.400000000000006</ele><time>2026-04-17T12:58:22Z</time></trkpt><trkpt lat="52.93811092544863" lon="12.81731219145961"><ele>44.6</ele><time>2026-04-17T12:58:23.999Z</time></trkpt><trkpt lat="52.93802936165635" lon="12.817393173897106"><ele>44.8</ele><time>2026-04-17T12:58:25.999Z</time></trkpt><trkpt lat="52.938004700974496" lon="12.817519369929272"><ele>45.0</ele><time>2026-04-17T12:58:27.999Z</time></trkpt><trkpt lat="52.938017458290844" lon="12.81768672091389"><ele>45.0</ele><time>2026-04-17T12:58:29.999Z</time></trkpt><trkpt lat="52.93806106531145" lon="12.817821107893344"><ele>45.0</ele><time>2026-04-17T12:58:31.999Z</time></trkpt><trkpt lat="52.93814446541442" lon="12.817859906560145"><ele>45.0</ele><time>2026-04-17T12:58:33.999Z</time></trkpt><trkpt lat="52.93825738213889" lon="12.817779361194932"><ele>45.0</ele><time>2026-04-17T12:58:35.999Z</time></trkpt><trkpt lat="52.93833481406024" lon="12.817764297759629"><ele>45.0</ele><time>2026-04-17T12:58:36.999Z</time></trkpt><trkpt lat="52.93841534603112" lon="12.817792632813264"><ele>45.8</ele><time>2026-04-17T12:58:37.999Z</time></trkpt><trkpt lat="52.93849792924447" lon="12.81783891757716"><ele>46.6</ele><time>2026-04-17T12:58:38.999Z</time></trkpt><trkpt lat="52.938587452659135" lon="12.817894547156028"><ele>47.400000000000006</ele><time>2026-04-17T12:58:39.999Z</time></trkpt><trkpt lat="52.93868535256237" lon="12.817957706365204"><ele>48.2</ele><time>2026-04-17T12:58:40.999Z</time></trkpt><trkpt lat="52.9387928841744" lon="12.818026707947059"><ele>49.0</ele><time>2026-04-17T12:58:41.999Z</time></trkpt><trkpt lat="52.93889446168308" lon="12.818094336391615"><ele>49.0</ele><time>2026-04-17T12:58:42.999Z</time></trkpt><trkpt lat="52.93899743901015" lon="12.818158639633948"><ele>49.0</ele><time>2026-04-17T12:58:43.999Z</time></trkpt><trkpt lat="52.939098190476926" lon="12.818219419420558"><ele>49.0</ele><time>2026-04-17T12:58:44.999Z</time></trkpt><trkpt lat="52.93921674659476" lon="12.818295716598687"><ele>49.0</ele><time>2026-04-17T12:58:45.999Z</time></trkpt><trkpt lat="52.93934508473968" lon="12.818370436835297"><ele>50.25</ele><time>2026-04-17T12:58:46.999Z</time></trkpt><trkpt lat="52.939471649143925" lon="12.818457710474311"><ele>51.5</ele><time>2026-04-17T12:58:47.999Z</time></trkpt><trkpt lat="52.93960187682658" lon="12.818548568728868"><ele>52.75</ele><time>2026-04-17T12:58:48.999Z</time></trkpt><trkpt lat="52.939726415526636" lon="12.818634536456985"><ele>54.0</ele><time>2026-04-17T12:58:49.999Z</time></trkpt><trkpt lat="52.93984594962609" lon="12.81871204411076"><ele>54.75</ele><time>2026-04-17T12:58:50.999Z</time></trkpt><trkpt lat="52.93997070687105" lon="12.818790454514039"><ele>55.5</ele><time>2026-04-17T12:58:51.999Z</time></trkpt><trkpt lat="52.94009527067223" lon="12.818867982152293"><ele>56.25</ele><time>2026-04-17T12:58:52.999Z</time></trkpt><trkpt lat="52.94021990420756" lon="12.818947778788266"><ele>57.0</ele><time>2026-04-17T12:58:53.999Z</time></trkpt><trkpt lat="52.94034601969517" lon="12.819031496314414"><ele>57.0</ele><time>2026-04-17T12:58:54.999Z</time></trkpt><trkpt lat="52.94047141478122" lon="12.819115099362676"><ele>57.0</ele><time>2026-04-17T12:58:55.999Z</time></trkpt><trkpt lat="52.94060170906534" lon="12.81919568454026"><ele>57.0</ele><time>2026-04-17T12:58:56.999Z</time></trkpt><trkpt lat="52.940730857916705" lon="12.819276018070322"><ele>57.0</ele><time>2026-04-17T12:58:57.999Z</time></trkpt><trkpt lat="52.940888084975995" lon="12.819361408174048"><ele>56.5</ele><time>2026-04-17T12:58:58.999Z</time></trkpt><trkpt lat="52.94103040472839" lon="12.81945723259545"><ele>56.0</ele><time>2026-04-17T12:58:59.999Z</time></trkpt><trkpt lat="52.94116661272662" lon="12.819555166415759"><ele>55.5</ele><time>2026-04-17T12:59:00.999Z</time></trkpt><trkpt lat="52.94130245326579" lon="12.819640780733671"><ele>55.0</ele><time>2026-04-17T12:59:01.999Z</time></trkpt><trkpt lat="52.941435226665746" lon="12.819724913472859"><ele>55.0</ele><time>2026-04-17T12:59:02.999Z</time></trkpt><trkpt lat="52.94156592437737" lon="12.819805726516805"><ele>55.0</ele><time>2026-04-17T12:59:03.999Z</time></trkpt><trkpt lat="52.94170690675452" lon="12.819893608548096"><ele>55.0</ele><time>2026-04-17T12:59:04.999Z</time></trkpt><trkpt lat="52.941848600532275" lon="12.819990410287751"><ele>55.0</ele><time>2026-04-17T12:59:05.999Z</time></trkpt><trkpt lat="52.94199167416871" lon="12.820088760592846"><ele>55.33333333333333</ele><time>2026-04-17T12:59:06.999Z</time></trkpt><trkpt lat="52.94213930521094" lon="12.820186072401022"><ele>55.66666666666667</ele><time>2026-04-17T12:59:07.999Z</time></trkpt><trkpt lat="52.94228436622092" lon="12.820283681038761"><ele>56.0</ele><time>2026-04-17T12:59:08.999Z</time></trkpt><trkpt lat="52.94242351568658" lon="12.820378461906865"><ele>56.333333333333336</ele><time>2026-04-17T12:59:09.999Z</time></trkpt><trkpt lat="52.94256510463519" lon="12.820469297883855"><ele>56.66666666666667</ele><time>2026-04-17T12:59:10.999Z</time></trkpt><trkpt lat="52.94270410555115" lon="12.820564059361832"><ele>57.0</ele><time>2026-04-17T12:59:11.999Z</time></trkpt><trkpt lat="52.94284341708637" lon="12.820660084589012"><ele>57.0</ele><time>2026-04-17T12:59:12.999Z</time></trkpt><trkpt lat="52.94298459074968" lon="12.820751027062641"><ele>57.0</ele><time>2026-04-17T12:59:13.998Z</time></trkpt><trkpt lat="52.943127209350614" lon="12.820841090100105"><ele>57.0</ele><time>2026-04-17T12:59:14.998Z</time></trkpt><trkpt lat="52.94326592782188" lon="12.820944093597523"><ele>57.33333333333333</ele><time>2026-04-17T12:59:15.998Z</time></trkpt><trkpt lat="52.943401935830224" lon="12.821053600092428"><ele>57.666666666666664</ele><time>2026-04-17T12:59:16.998Z</time></trkpt><trkpt lat="52.94353707348706" lon="12.821152050238702"><ele>58.0</ele><time>2026-04-17T12:59:17.998Z</time></trkpt><trkpt lat="52.943683019361" lon="12.82123336158326"><ele>58.0</ele><time>2026-04-17T12:59:18.998Z</time></trkpt><trkpt lat="52.94383284184994" lon="12.821327306939379"><ele>58.0</ele><time>2026-04-17T12:59:19.998Z</time></trkpt><trkpt lat="52.94398191733731" lon="12.821428717116442"><ele>58.0</ele><time>2026-04-17T12:59:20.998Z</time></trkpt><trkpt lat="52.94413262386332" lon="12.821531637146812"><ele>58.666666666666664</ele><time>2026-04-17T12:59:21.998Z</time></trkpt><trkpt lat="52.94428245902256" lon="12.821632565816287"><ele>59.33333333333333</ele><time>2026-04-17T12:59:22.998Z</time></trkpt><trkpt lat="52.94443352933057" lon="12.821732207540366"><ele>60.0</ele><time>2026-04-17T12:59:23.998Z</time></trkpt><trkpt lat="52.944584507846415" lon="12.821835338461181"><ele>60.0</ele><time>2026-04-17T12:59:24.998Z</time></trkpt><trkpt lat="52.94473771779637" lon="12.821942350884196"><ele>60.0</ele><time>2026-04-17T12:59:25.998Z</time></trkpt><trkpt lat="52.94489297891168" lon="12.822048455140047"><ele>60.0</ele><time>2026-04-17T12:59:26.998Z</time></trkpt><trkpt lat="52.945050863939024" lon="12.822156104385261"><ele>58.0</ele><time>2026-04-17T12:59:27.998Z</time></trkpt><trkpt lat="52.945208812504575" lon="12.822259614678469"><ele>56.0</ele><time>2026-04-17T12:59:28.998Z</time></trkpt><trkpt lat="52.94536782342765" lon="12.822368480010594"><ele>54.0</ele><time>2026-04-17T12:59:29.998Z</time></trkpt><trkpt lat="52.94552698056264" lon="12.822479908698783"><ele>54.0</ele><time>2026-04-17T12:59:30.998Z</time></trkpt><trkpt lat="52.94568857363399" lon="12.822596407319102"><ele>54.0</ele><time>2026-04-17T12:59:31.998Z</time></trkpt><trkpt lat="52.945852666725635" lon="12.822742517772918"><ele>54.0</ele><time>2026-04-17T12:59:32.998Z</time></trkpt><trkpt lat="52.946020310267215" lon="12.822935874522923"><ele>54.66666666666667</ele><time>2026-04-17T12:59:33.998Z</time></trkpt><trkpt lat="52.946182425409226" lon="12.823168880525634"><ele>55.333333333333336</ele><time>2026-04-17T12:59:34.998Z</time></trkpt><trkpt lat="52.9463334650791" lon="12.823435111364253"><ele>56.0</ele><time>2026-04-17T12:59:35.998Z</time></trkpt><trkpt lat="52.9464732347291" lon="12.823716923887924"><ele>56.333333333333336</ele><time>2026-04-17T12:59:36.998Z</time></trkpt><trkpt lat="52.9465852942833" lon="12.82396521445818"><ele>56.66666666666667</ele><time>2026-04-17T12:59:37.998Z</time></trkpt><trkpt lat="52.94669985402634" lon="12.824220208571091"><ele>57.0</ele><time>2026-04-17T12:59:38.998Z</time></trkpt><trkpt lat="52.94682179704613" lon="12.82448023418912"><ele>57.0</ele><time>2026-04-17T12:59:39.998Z</time></trkpt><trkpt lat="52.94693259146398" lon="12.824707668790733"><ele>57.0</ele><time>2026-04-17T12:59:40.998Z</time></trkpt><trkpt lat="52.94703809356505" lon="12.824911739294352"><ele>57.0</ele><time>2026-04-17T12:59:41.998Z</time></trkpt><trkpt lat="52.94713775305789" lon="12.82511336051457"><ele>56.33333333333333</ele><time>2026-04-17T12:59:42.998Z</time></trkpt><trkpt lat="52.947244569448124" lon="12.825356983444102"><ele>55.666666666666664</ele><time>2026-04-17T12:59:43.998Z</time></trkpt><trkpt lat="52.94735175414684" lon="12.825593932393188"><ele>55.0</ele><time>2026-04-17T12:59:44.998Z</time></trkpt><trkpt lat="52.947452193685955" lon="12.82583255176417"><ele>53.33333333333333</ele><time>2026-04-17T12:59:45.998Z</time></trkpt><trkpt lat="52.94754777680586" lon="12.826069189089221"><ele>51.66666666666667</ele><time>2026-04-17T12:59:46.998Z</time></trkpt><trkpt lat="52.947646949274905" lon="12.826324311496352"><ele>50.0</ele><time>2026-04-17T12:59:47.998Z</time></trkpt><trkpt lat="52.94775582653524" lon="12.826588611222128"><ele>50.333333333333336</ele><time>2026-04-17T12:59:48.998Z</time></trkpt><trkpt lat="52.94787612414219" lon="12.826870280096829"><ele>50.66666666666667</ele><time>2026-04-17T12:59:49.998Z</time></trkpt><trkpt lat="52.948003612795524" lon="12.82715094138695"><ele>51.0</ele><time>2026-04-17T12:59:50.998Z</time></trkpt><trkpt lat="52.94813068126753" lon="12.827439001965928"><ele>51.0</ele><time>2026-04-17T12:59:51.998Z</time></trkpt><trkpt lat="52.94824997883113" lon="12.827609489288184"><ele>51.0</ele><time>2026-04-17T12:59:54Z</time></trkpt><trkpt lat="52.948333655676315" lon="12.827792883837466"><ele>51.0</ele><time>2026-04-17T12:59:55Z</time></trkpt><trkpt lat="52.94841927328855" lon="12.827968810314337"><ele>51.0</ele><time>2026-04-17T12:59:56Z</time></trkpt><trkpt lat="52.948515317204304" lon="12.82813268069372"><ele>50.66666666666667</ele><time>2026-04-17T12:59:57Z</time></trkpt><trkpt lat="52.94861759666044" lon="12.828319974512938"><ele>50.333333333333336</ele><time>2026-04-17T12:59:58Z</time></trkpt><trkpt lat="52.948713897091125" lon="12.828538085996646"><ele>50.0</ele><time>2026-04-17T12:59:59Z</time></trkpt><trkpt lat="52.94882395016726" lon="12.82877886427207"><ele>50.0</ele><time>2026-04-17T13:00:00Z</time></trkpt><trkpt lat="52.94895190999161" lon="12.829048597809555"><ele>50.0</ele><time>2026-04-17T13:00:01Z</time></trkpt><trkpt lat="52.94907641049497" lon="12.829299116773653"><ele>50.0</ele><time>2026-04-17T13:00:02Z</time></trkpt><trkpt lat="52.949184498077884" lon="12.829533365968512"><ele>50.66666666666667</ele><time>2026-04-17T13:00:03Z</time></trkpt><trkpt lat="52.94928473603475" lon="12.829750336978929"><ele>51.33333333333333</ele><time>2026-04-17T13:00:04Z</time></trkpt><trkpt lat="52.94938172217374" lon="12.829954879622846"><ele>52.0</ele><time>2026-04-17T13:00:05Z</time></trkpt><trkpt lat="52.94948313980688" lon="12.830169812069526"><ele>52.0</ele><time>2026-04-17T13:00:06Z</time></trkpt><trkpt lat="52.94958773411575" lon="12.83039380593217"><ele>52.0</ele><time>2026-04-17T13:00:07Z</time></trkpt><trkpt lat="52.949695239638785" lon="12.830619291570862"><ele>52.0</ele><time>2026-04-17T13:00:08Z</time></trkpt><trkpt lat="52.94980312410271" lon="12.830848438286218"><ele>52.0</ele><time>2026-04-17T13:00:09Z</time></trkpt><trkpt lat="52.94991201541063" lon="12.831079947171261"><ele>52.0</ele><time>2026-04-17T13:00:10Z</time></trkpt><trkpt lat="52.950018593744865" lon="12.831312042340413"><ele>52.0</ele><time>2026-04-17T13:00:11Z</time></trkpt><trkpt lat="52.95012305563801" lon="12.83153521652434"><ele>50.666666666666664</ele><time>2026-04-17T13:00:12Z</time></trkpt><trkpt lat="52.95022461279104" lon="12.831752449297811"><ele>49.33333333333333</ele><time>2026-04-17T13:00:13Z</time></trkpt><trkpt lat="52.950326977598536" lon="12.83196358068268"><ele>48.0</ele><time>2026-04-17T13:00:14Z</time></trkpt><trkpt lat="52.95042286794775" lon="12.832169639356875"><ele>48.0</ele><time>2026-04-17T13:00:15Z</time></trkpt><trkpt lat="52.95051170112751" lon="12.832359419321612"><ele>48.0</ele><time>2026-04-17T13:00:16Z</time></trkpt><trkpt lat="52.950601521886036" lon="12.832547838623324"><ele>48.0</ele><time>2026-04-17T13:00:17Z</time></trkpt><trkpt lat="52.95069177351117" lon="12.832733566065619"><ele>48.0</ele><time>2026-04-17T13:00:18Z</time></trkpt><trkpt lat="52.95077524330921" lon="12.832911553041354"><ele>48.5</ele><time>2026-04-17T13:00:19Z</time></trkpt><trkpt lat="52.95085741284066" lon="12.833087693998078"><ele>49.0</ele><time>2026-04-17T13:00:20Z</time></trkpt><trkpt lat="52.950936553059044" lon="12.83325787597314"><ele>49.5</ele><time>2026-04-17T13:00:21Z</time></trkpt><trkpt lat="52.95100983544291" lon="12.833419894493066"><ele>50.0</ele><time>2026-04-17T13:00:22Z</time></trkpt><trkpt lat="52.951073383198256" lon="12.833582625092063"><ele>50.4</ele><time>2026-04-17T13:00:23Z</time></trkpt><trkpt lat="52.95111717927051" lon="12.833725473184833"><ele>50.8</ele><time>2026-04-17T13:00:24Z</time></trkpt><trkpt lat="52.95116298723146" lon="12.833858751099172"><ele>51.2</ele><time>2026-04-17T13:00:25Z</time></trkpt><trkpt lat="52.951215963685534" lon="12.83399147667643"><ele>51.6</ele><time>2026-04-17T13:00:26Z</time></trkpt><trkpt lat="52.95127820688544" lon="12.834108778310323"><ele>52.0</ele><time>2026-04-17T13:00:27Z</time></trkpt><trkpt lat="52.951330456535366" lon="12.834242477584398"><ele>51.400000000000006</ele><time>2026-04-17T13:00:28Z</time></trkpt><trkpt lat="52.95136870872458" lon="12.834394238929638"><ele>50.800000000000004</ele><time>2026-04-17T13:00:29Z</time></trkpt><trkpt lat="52.951406655491546" lon="12.834523191840084"><ele>50.2</ele><time>2026-04-17T13:00:30Z</time></trkpt><trkpt lat="52.95141623309823" lon="12.834636642987236"><ele>49.6</ele><time>2026-04-17T13:00:31Z</time></trkpt><trkpt lat="52.951559593888916" lon="12.834719470472889"><ele>49.0</ele><time>2026-04-17T13:00:32.999Z</time></trkpt><trkpt lat="52.951623613969744" lon="12.8346961997104"><ele>49.0</ele><time>2026-04-17T13:00:33.999Z</time></trkpt><trkpt lat="52.9516918529525" lon="12.834626906099022"><ele>49.0</ele><time>2026-04-17T13:00:34.999Z</time></trkpt><trkpt lat="52.95176866326035" lon="12.834579684240481"><ele>49.0</ele><time>2026-04-17T13:00:35.999Z</time></trkpt><trkpt lat="52.95182905913807" lon="12.834471647624866"><ele>49.0</ele><time>2026-04-17T13:00:36.999Z</time></trkpt><trkpt lat="52.95186376900494" lon="12.834313266305143"><ele>49.0</ele><time>2026-04-17T13:00:37.999Z</time></trkpt><trkpt lat="52.951912042471406" lon="12.834165397360724"><ele>48.800000000000004</ele><time>2026-04-17T13:00:38.999Z</time></trkpt><trkpt lat="52.95196724174907" lon="12.834006635599023"><ele>48.6</ele><time>2026-04-17T13:00:39.999Z</time></trkpt><trkpt lat="52.952018542726314" lon="12.833911463608016"><ele>48.4</ele><time>2026-04-17T13:00:40.999Z</time></trkpt><trkpt lat="52.9521025061542" lon="12.833883661183908"><ele>48.2</ele><time>2026-04-17T13:00:41.999Z</time></trkpt><trkpt lat="52.9521915454412" lon="12.833820614218826"><ele>48.0</ele><time>2026-04-17T13:00:42.999Z</time></trkpt><trkpt lat="52.95228824299734" lon="12.83375913260235"><ele>48.0</ele><time>2026-04-17T13:00:43.999Z</time></trkpt><trkpt lat="52.952384976980426" lon="12.833702836748493"><ele>48.0</ele><time>2026-04-17T13:00:44.999Z</time></trkpt><trkpt lat="52.95247951552127" lon="12.83367600193982"><ele>48.0</ele><time>2026-04-17T13:00:45.999Z</time></trkpt><trkpt lat="52.95256830664845" lon="12.833664460013397"><ele>48.0</ele><time>2026-04-17T13:00:46.999Z</time></trkpt><trkpt lat="52.95265185342705" lon="12.833653272137452"><ele>48.0</ele><time>2026-04-17T13:00:47.999Z</time></trkpt><trkpt lat="52.952715388584934" lon="12.833634121883138"><ele>48.0</ele><time>2026-04-17T13:00:48.999Z</time></trkpt><trkpt lat="52.95279598975459" lon="12.833807573180877"><ele>48.0</ele><time>2026-04-17T13:00:50.999Z</time></trkpt><trkpt lat="52.95279689751523" lon="12.833937086491062"><ele>48.0</ele><time>2026-04-17T13:00:51.999Z</time></trkpt><trkpt lat="52.9527916757572" lon="12.834073233285718"><ele>48.0</ele><time>2026-04-17T13:00:52.999Z</time></trkpt><trkpt lat="52.95279550787009" lon="12.834187502507358"><ele>48.0</ele><time>2026-04-17T13:00:53.999Z</time></trkpt><trkpt lat="52.9528172178298" lon="12.834347566065432"><ele>48.0</ele><time>2026-04-17T13:00:55.999Z</time></trkpt><trkpt lat="52.952947145775795" lon="12.834381139459083"><ele>48.0</ele><time>2026-04-17T13:00:58.999Z</time></trkpt><trkpt lat="52.95302147786204" lon="12.834370157644672"><ele>48.0</ele><time>2026-04-17T13:00:59.999Z</time></trkpt><trkpt lat="52.9531028801495" lon="12.834358131294913"><ele>48.0</ele><time>2026-04-17T13:01:00.999Z</time></trkpt><trkpt lat="52.95318617320618" lon="12.834345825597103"><ele>48.0</ele><time>2026-04-17T13:01:01.999Z</time></trkpt><trkpt lat="52.953277981512215" lon="12.8343357381918"><ele>48.0</ele><time>2026-04-17T13:01:02.999Z</time></trkpt><trkpt lat="52.9533786440201" lon="12.834307385456647"><ele>48.0</ele><time>2026-04-17T13:01:03.999Z</time></trkpt><trkpt lat="52.95345238203276" lon="12.834248330882208"><ele>48.4</ele><time>2026-04-17T13:01:04.999Z</time></trkpt><trkpt lat="52.95352853317548" lon="12.834192009745546"><ele>48.8</ele><time>2026-04-17T13:01:05.999Z</time></trkpt><trkpt lat="52.95359797058965" lon="12.834154778501686"><ele>49.2</ele><time>2026-04-17T13:01:06.999Z</time></trkpt><trkpt lat="52.9536656896138" lon="12.834152324924613"><ele>49.6</ele><time>2026-04-17T13:01:07.999Z</time></trkpt><trkpt lat="52.95381923945954" lon="12.834140734713595"><ele>50.0</ele><time>2026-04-17T13:01:09.999Z</time></trkpt><trkpt lat="52.95389420268756" lon="12.834138926565007"><ele>50.00000000000001</ele><time>2026-04-17T13:01:10.999Z</time></trkpt><trkpt lat="52.95396700522776" lon="12.834111757546351"><ele>50.0</ele><time>2026-04-17T13:01:11.999Z</time></trkpt><trkpt lat="52.95403813567111" lon="12.834137691846994"><ele>50.0</ele><time>2026-04-17T13:01:13.999Z</time></trkpt><trkpt lat="52.95404710588442" lon="12.833895196309419"><ele>50.0</ele><time>2026-04-17T13:01:17.999Z</time></trkpt><trkpt lat="52.95399019987069" lon="12.833822983079"><ele>50.00000000000001</ele><time>2026-04-17T13:01:19.999Z</time></trkpt><trkpt lat="52.95392167699773" lon="12.833834932320267"><ele>50.0</ele><time>2026-04-17T13:01:21.999Z</time></trkpt><trkpt lat="52.95384964233226" lon="12.833831182968455"><ele>50.00000000000001</ele><time>2026-04-17T13:01:23.998Z</time></trkpt><trkpt lat="52.95377552543398" lon="12.83383588915692"><ele>50.0</ele><time>2026-04-17T13:01:25.998Z</time></trkpt><trkpt lat="52.95369788199337" lon="12.833857528246094"><ele>50.0</ele><time>2026-04-17T13:01:27.998Z</time></trkpt><trkpt lat="52.95363539717052" lon="12.83383556587473"><ele>50.0</ele><time>2026-04-17T13:01:30.998Z</time></trkpt><trkpt lat="52.95363647233679" lon="12.833680146679397"><ele>50.00000000000001</ele><time>2026-04-17T13:01:31.998Z</time></trkpt><trkpt lat="52.953703418202885" lon="12.833635620028987"><ele>50.0</ele><time>2026-04-17T13:01:33.998Z</time></trkpt><trkpt lat="52.95382927945093" lon="12.833636532968969"><ele>50.00000000000001</ele><time>2026-04-17T13:01:35.998Z</time></trkpt><trkpt lat="52.9539002938807" lon="12.833605133889565"><ele>50.0</ele><time>2026-04-17T13:01:36.998Z</time></trkpt><trkpt lat="52.95396897843355" lon="12.83355758421668"><ele>50.0</ele><time>2026-04-17T13:01:37.998Z</time></trkpt><trkpt lat="52.95402969504094" lon="12.833507147442711"><ele>50.0</ele><time>2026-04-17T13:01:38.998Z</time></trkpt><trkpt lat="52.9540916240678" lon="12.83344531259949"><ele>50.0</ele><time>2026-04-17T13:01:39.998Z</time></trkpt><trkpt lat="52.95415851601863" lon="12.83342254399957"><ele>50.00000000000001</ele><time>2026-04-17T13:01:40.998Z</time></trkpt><trkpt lat="52.95422194388865" lon="12.833401247134821"><ele>50.0</ele><time>2026-04-17T13:01:41.998Z</time></trkpt><trkpt lat="52.95428764838829" lon="12.833392477417055"><ele>50.00000000000001</ele><time>2026-04-17T13:01:42.998Z</time></trkpt><trkpt lat="52.95435394380122" lon="12.833382897466128"><ele>50.0</ele><time>2026-04-17T13:01:43.998Z</time></trkpt><trkpt lat="52.954422454058104" lon="12.833374797574715"><ele>50.0</ele><time>2026-04-17T13:01:44.998Z</time></trkpt><trkpt lat="52.954494816647745" lon="12.833370790846736"><ele>50.0</ele><time>2026-04-17T13:01:45.998Z</time></trkpt><trkpt lat="52.95459330525251" lon="12.833383638935217"><ele>50.00000000000001</ele><time>2026-04-17T13:01:47.998Z</time></trkpt><trkpt lat="52.954659851756645" lon="12.83345538801911"><ele>50.0</ele><time>2026-04-17T13:01:52.998Z</time></trkpt><trkpt lat="52.9546559448922" lon="12.83367511865814"><ele>50.0</ele><time>2026-04-17T13:01:54.998Z</time></trkpt><trkpt lat="52.95465991139304" lon="12.833791881075829"><ele>50.0</ele><time>2026-04-17T13:01:55.998Z</time></trkpt><trkpt lat="52.9546658902762" lon="12.83395115994693"><ele>50.0</ele><time>2026-04-17T13:01:57.998Z</time></trkpt><trkpt lat="52.9546453597788" lon="12.834109034700669"><ele>50.0</ele><time>2026-04-17T13:02:01Z</time></trkpt><trkpt lat="52.95477422202584" lon="12.834310779082386"><ele>50.0</ele><time>2026-04-17T13:02:03Z</time></trkpt><trkpt lat="52.95479746388168" lon="12.834473448895864"><ele>50.0</ele><time>2026-04-17T13:02:04Z</time></trkpt><trkpt lat="52.95481074077349" lon="12.834664572822085"><ele>50.0</ele><time>2026-04-17T13:02:06Z</time></trkpt><trkpt lat="52.95483494955685" lon="12.834813427612103"><ele>50.0</ele><time>2026-04-17T13:02:08Z</time></trkpt><trkpt lat="52.954854423456126" lon="12.834946152867325"><ele>50.0</ele><time>2026-04-17T13:02:10Z</time></trkpt><trkpt lat="52.95489101540046" lon="12.835131911293846"><ele>50.0</ele><time>2026-04-17T13:02:12Z</time></trkpt><trkpt lat="52.954918053089536" lon="12.835338140956951"><ele>49.2</ele><time>2026-04-17T13:02:14Z</time></trkpt><trkpt lat="52.95488399637016" lon="12.835492555438123"><ele>48.4</ele><time>2026-04-17T13:02:16Z</time></trkpt><trkpt lat="52.95490129981766" lon="12.83565514321606"><ele>47.599999999999994</ele><time>2026-04-17T13:02:18Z</time></trkpt><trkpt lat="52.954915691281975" lon="12.835783285677197"><ele>46.8</ele><time>2026-04-17T13:02:20Z</time></trkpt><trkpt lat="52.9549511857797" lon="12.835881432512029"><ele>46.0</ele><time>2026-04-17T13:02:24Z</time></trkpt><trkpt lat="52.95505763685777" lon="12.83587070162147"><ele>45.599999999999994</ele><time>2026-04-17T13:02:26Z</time></trkpt><trkpt lat="52.955142112664845" lon="12.835840211279008"><ele>45.2</ele><time>2026-04-17T13:02:27Z</time></trkpt><trkpt lat="52.95523553021444" lon="12.835828478289555"><ele>44.8</ele><time>2026-04-17T13:02:28Z</time></trkpt><trkpt lat="52.95532913492144" lon="12.835827876646487"><ele>44.400000000000006</ele><time>2026-04-17T13:02:29Z</time></trkpt><trkpt lat="52.955436995775045" lon="12.835813367945686"><ele>44.0</ele><time>2026-04-17T13:02:30Z</time></trkpt><trkpt lat="52.9555664725714" lon="12.835789851910071"><ele>44.0</ele><time>2026-04-17T13:02:31Z</time></trkpt><trkpt lat="52.955706478573475" lon="12.83577050476678"><ele>44.0</ele><time>2026-04-17T13:02:32Z</time></trkpt><trkpt lat="52.95584216848349" lon="12.835753622522056"><ele>44.0</ele><time>2026-04-17T13:02:33Z</time></trkpt><trkpt lat="52.95600456170522" lon="12.835728695023832"><ele>44.0</ele><time>2026-04-17T13:02:34Z</time></trkpt><trkpt lat="52.95616774126037" lon="12.835700478241847"><ele>44.33333333333333</ele><time>2026-04-17T13:02:35Z</time></trkpt><trkpt lat="52.95633566336778" lon="12.835677162202563"><ele>44.666666666666664</ele><time>2026-04-17T13:02:36Z</time></trkpt><trkpt lat="52.956499853449834" lon="12.835651222249348"><ele>45.0</ele><time>2026-04-17T13:02:37Z</time></trkpt><trkpt lat="52.95667094280997" lon="12.835641531384834"><ele>44.666666666666664</ele><time>2026-04-17T13:02:37.999Z</time></trkpt><trkpt lat="52.95684609199837" lon="12.835609018503316"><ele>44.33333333333333</ele><time>2026-04-17T13:02:38.999Z</time></trkpt><trkpt lat="52.957020511377976" lon="12.835584856290748"><ele>44.0</ele><time>2026-04-17T13:02:39.999Z</time></trkpt><trkpt lat="52.95719311917967" lon="12.835558636241045"><ele>44.0</ele><time>2026-04-17T13:02:40.999Z</time></trkpt><trkpt lat="52.9573554721301" lon="12.83553866722174"><ele>44.0</ele><time>2026-04-17T13:02:41.999Z</time></trkpt><trkpt lat="52.95751932020675" lon="12.835508566038907"><ele>44.0</ele><time>2026-04-17T13:02:42.999Z</time></trkpt><trkpt lat="52.95767777785369" lon="12.835477711886494"><ele>43.0</ele><time>2026-04-17T13:02:43.999Z</time></trkpt><trkpt lat="52.9578388499999" lon="12.835456114960076"><ele>42.0</ele><time>2026-04-17T13:02:44.999Z</time></trkpt><trkpt lat="52.95800329815106" lon="12.8353904907367"><ele>41.0</ele><time>2026-04-17T13:02:45.999Z</time></trkpt><trkpt lat="52.958153507545056" lon="12.835319934216605"><ele>41.0</ele><time>2026-04-17T13:02:46.999Z</time></trkpt><trkpt lat="52.95829725944182" lon="12.835248031154668"><ele>41.0</ele><time>2026-04-17T13:02:47.999Z</time></trkpt><trkpt lat="52.958426326105986" lon="12.835175209668547"><ele>41.0</ele><time>2026-04-17T13:02:48.999Z</time></trkpt><trkpt lat="52.95855192732183" lon="12.835104334832188"><ele>41.0</ele><time>2026-04-17T13:02:49.999Z</time></trkpt><trkpt lat="52.95865206824244" lon="12.835051899387473"><ele>40.5</ele><time>2026-04-17T13:02:50.999Z</time></trkpt><trkpt lat="52.958729056948776" lon="12.83500897381862"><ele>40.0</ele><time>2026-04-17T13:02:51.999Z</time></trkpt><trkpt lat="52.958796702921504" lon="12.835020287545442"><ele>39.5</ele><time>2026-04-17T13:02:52.999Z</time></trkpt><trkpt lat="52.95887247107601" lon="12.83502683041462"><ele>39.0</ele><time>2026-04-17T13:02:53.999Z</time></trkpt><trkpt lat="52.95893713904851" lon="12.835127194159984"><ele>38.5</ele><time>2026-04-17T13:02:54.999Z</time></trkpt><trkpt lat="52.95896037665677" lon="12.835236981057358"><ele>38.0</ele><time>2026-04-17T13:02:55.999Z</time></trkpt><trkpt lat="52.95897787812409" lon="12.835362355123676"><ele>38.0</ele><time>2026-04-17T13:02:56.999Z</time></trkpt><trkpt lat="52.95899349116289" lon="12.835497472570554"><ele>38.0</ele><time>2026-04-17T13:02:57.999Z</time></trkpt><trkpt lat="52.95902085518791" lon="12.835640436196828"><ele>38.0</ele><time>2026-04-17T13:02:58.999Z</time></trkpt><trkpt lat="52.959060975197204" lon="12.835811311352469"><ele>38.0</ele><time>2026-04-17T13:02:59.999Z</time></trkpt><trkpt lat="52.95910797384283" lon="12.835997225764219"><ele>38.0</ele><time>2026-04-17T13:03:00.999Z</time></trkpt><trkpt lat="52.95915537066851" lon="12.836174105698996"><ele>39.166666666666664</ele><time>2026-04-17T13:03:01.999Z</time></trkpt><trkpt lat="52.9592091352462" lon="12.836328732805438"><ele>40.33333333333333</ele><time>2026-04-17T13:03:02.999Z</time></trkpt><trkpt lat="52.95926849503679" lon="12.836424109246574"><ele>41.5</ele><time>2026-04-17T13:03:03.999Z</time></trkpt><trkpt lat="52.95934089174272" lon="12.836471188491407"><ele>42.666666666666664</ele><time>2026-04-17T13:03:04.999Z</time></trkpt><trkpt lat="52.959419641067406" lon="12.83648210750772"><ele>43.833333333333336</ele><time>2026-04-17T13:03:05.999Z</time></trkpt><trkpt lat="52.95949582458142" lon="12.836467443781263"><ele>45.0</ele><time>2026-04-17T13:03:06.999Z</time></trkpt><trkpt lat="52.95956882274093" lon="12.836438543701133"><ele>45.0</ele><time>2026-04-17T13:03:07.999Z</time></trkpt><trkpt lat="52.95965362331859" lon="12.836424014163294"><ele>45.0</ele><time>2026-04-17T13:03:08.999Z</time></trkpt><trkpt lat="52.95974519823675" lon="12.83639026192673"><ele>45.0</ele><time>2026-04-17T13:03:09.999Z</time></trkpt><trkpt lat="52.959860896155796" lon="12.836350302292768"><ele>45.0</ele><time>2026-04-17T13:03:10.999Z</time></trkpt><trkpt lat="52.9599777840645" lon="12.836318367630565"><ele>45.0</ele><time>2026-04-17T13:03:11.999Z</time></trkpt><trkpt lat="52.960099356771465" lon="12.836290125003801"><ele>46.25</ele><time>2026-04-17T13:03:12.999Z</time></trkpt><trkpt lat="52.96021947584366" lon="12.836262872596382"><ele>47.5</ele><time>2026-04-17T13:03:13.999Z</time></trkpt><trkpt lat="52.96033644893308" lon="12.836274281456745"><ele>48.75</ele><time>2026-04-17T13:03:14.999Z</time></trkpt><trkpt lat="52.96046160460798" lon="12.836284281174576"><ele>50.0</ele><time>2026-04-17T13:03:15.999Z</time></trkpt><trkpt lat="52.96059967428995" lon="12.83631725559865"><ele>50.0</ele><time>2026-04-17T13:03:16.999Z</time></trkpt><trkpt lat="52.96073947819596" lon="12.836379882226783"><ele>50.0</ele><time>2026-04-17T13:03:17.999Z</time></trkpt><trkpt lat="52.96088569089045" lon="12.836444819847964"><ele>50.0</ele><time>2026-04-17T13:03:18.999Z</time></trkpt><trkpt lat="52.96103967228138" lon="12.836509654246504"><ele>50.333333333333336</ele><time>2026-04-17T13:03:19.999Z</time></trkpt><trkpt lat="52.961209589991235" lon="12.83657330311958"><ele>50.66666666666667</ele><time>2026-04-17T13:03:20.999Z</time></trkpt><trkpt lat="52.96138395444247" lon="12.836626336281027"><ele>51.0</ele><time>2026-04-17T13:03:21.999Z</time></trkpt><trkpt lat="52.96155643007631" lon="12.836686563821813"><ele>51.66666666666667</ele><time>2026-04-17T13:03:22.999Z</time></trkpt><trkpt lat="52.96173617384785" lon="12.836759013990285"><ele>52.333333333333336</ele><time>2026-04-17T13:03:23.999Z</time></trkpt><trkpt lat="52.96191541728744" lon="12.836832091946714"><ele>53.0</ele><time>2026-04-17T13:03:24.999Z</time></trkpt><trkpt lat="52.96210288996917" lon="12.836897021147363"><ele>52.0</ele><time>2026-04-17T13:03:25.999Z</time></trkpt><trkpt lat="52.962296137417106" lon="12.836975665672423"><ele>51.0</ele><time>2026-04-17T13:03:26.999Z</time></trkpt><trkpt lat="52.9624934325015" lon="12.837049267263781"><ele>50.0</ele><time>2026-04-17T13:03:27.999Z</time></trkpt><trkpt lat="52.96269466737261" lon="12.837125719604103"><ele>50.0</ele><time>2026-04-17T13:03:28.998Z</time></trkpt><trkpt lat="52.96289741572273" lon="12.837203837397217"><ele>50.0</ele><time>2026-04-17T13:03:29.998Z</time></trkpt><trkpt lat="52.96309795622966" lon="12.837281478590421"><ele>50.0</ele><time>2026-04-17T13:03:30.998Z</time></trkpt><trkpt lat="52.9633022629655" lon="12.837354232551299"><ele>51.333333333333336</ele><time>2026-04-17T13:03:31.998Z</time></trkpt><trkpt lat="52.96350303072028" lon="12.837432227845033"><ele>52.66666666666667</ele><time>2026-04-17T13:03:32.998Z</time></trkpt><trkpt lat="52.9637008316565" lon="12.837508212269007"><ele>54.0</ele><time>2026-04-17T13:03:33.998Z</time></trkpt><trkpt lat="52.96388988587661" lon="12.837582989422819"><ele>55.0</ele><time>2026-04-17T13:03:34.998Z</time></trkpt><trkpt lat="52.96408951087864" lon="12.83767538182248"><ele>56.0</ele><time>2026-04-17T13:03:35.998Z</time></trkpt><trkpt lat="52.96428676568712" lon="12.837807696540631"><ele>57.0</ele><time>2026-04-17T13:03:36.998Z</time></trkpt><trkpt lat="52.96448570257455" lon="12.83794619527224"><ele>57.33333333333333</ele><time>2026-04-17T13:03:37.998Z</time></trkpt><trkpt lat="52.96467443342726" lon="12.838096490782016"><ele>57.666666666666664</ele><time>2026-04-17T13:03:38.998Z</time></trkpt><trkpt lat="52.96485897186599" lon="12.83824746874011"><ele>58.0</ele><time>2026-04-17T13:03:39.998Z</time></trkpt><trkpt lat="52.96504800496808" lon="12.838406977459249"><ele>58.33333333333333</ele><time>2026-04-17T13:03:40.998Z</time></trkpt><trkpt lat="52.96522802002166" lon="12.838552589105126"><ele>58.66666666666667</ele><time>2026-04-17T13:03:41.998Z</time></trkpt><trkpt lat="52.96540343846784" lon="12.838692899228407"><ele>59.0</ele><time>2026-04-17T13:03:42.998Z</time></trkpt><trkpt lat="52.96558516419296" lon="12.838832673459684"><ele>59.0</ele><time>2026-04-17T13:03:43.998Z</time></trkpt><trkpt lat="52.96576098605985" lon="12.838962013920462"><ele>59.0</ele><time>2026-04-17T13:03:44.998Z</time></trkpt><trkpt lat="52.965955126960054" lon="12.839114895205835"><ele>59.0</ele><time>2026-04-17T13:03:45.998Z</time></trkpt><trkpt lat="52.96612820611722" lon="12.83927370613736"><ele>58.333333333333336</ele><time>2026-04-17T13:03:46.998Z</time></trkpt><trkpt lat="52.96630610988378" lon="12.839420342773408"><ele>57.66666666666667</ele><time>2026-04-17T13:03:47.998Z</time></trkpt><trkpt lat="52.9664712689633" lon="12.839559042195008"><ele>57.0</ele><time>2026-04-17T13:03:48.998Z</time></trkpt><trkpt lat="52.96662634485387" lon="12.839692997807637"><ele>57.0</ele><time>2026-04-17T13:03:49.998Z</time></trkpt><trkpt lat="52.966762421750175" lon="12.83981713362778"><ele>57.0</ele><time>2026-04-17T13:03:50.998Z</time></trkpt><trkpt lat="52.96689062205678" lon="12.83992613969953"><ele>57.0</ele><time>2026-04-17T13:03:51.998Z</time></trkpt><trkpt lat="52.96699357625566" lon="12.840052013608881"><ele>57.0</ele><time>2026-04-17T13:03:52.998Z</time></trkpt><trkpt lat="52.96707051562693" lon="12.840176604676063"><ele>57.0</ele><time>2026-04-17T13:03:53.998Z</time></trkpt><trkpt lat="52.96714388207819" lon="12.840288099207857"><ele>57.0</ele><time>2026-04-17T13:03:54.998Z</time></trkpt><trkpt lat="52.96721464128402" lon="12.84039563178553"><ele>57.0</ele><time>2026-04-17T13:03:55.998Z</time></trkpt><trkpt lat="52.967210636548316" lon="12.840668610113253"><ele>57.0</ele><time>2026-04-17T13:03:57.998Z</time></trkpt><trkpt lat="52.96720575088387" lon="12.840780573422554"><ele>57.0</ele><time>2026-04-17T13:03:58.998Z</time></trkpt><trkpt lat="52.96777250454768" lon="12.840803520863943"><ele>56.75</ele><time>2026-04-17T13:04:00.998Z</time></trkpt><trkpt lat="52.967885319330534" lon="12.84092051909656"><ele>56.5</ele><time>2026-04-17T13:04:01.998Z</time></trkpt><trkpt lat="52.96799420320393" lon="12.841041072982136"><ele>56.25</ele><time>2026-04-17T13:04:02.998Z</time></trkpt><trkpt lat="52.96809912797125" lon="12.8411425812617"><ele>56.0</ele><time>2026-04-17T13:04:03.998Z</time></trkpt><trkpt lat="52.9682040290211" lon="12.841247615333154"><ele>55.8</ele><time>2026-04-17T13:04:05Z</time></trkpt><trkpt lat="52.96830682474203" lon="12.84134160275074"><ele>55.599999999999994</ele><time>2026-04-17T13:04:06Z</time></trkpt><trkpt lat="52.968394864948756" lon="12.84141847129147"><ele>55.4</ele><time>2026-04-17T13:04:07Z</time></trkpt><trkpt lat="52.96846386696547" lon="12.841509001413234"><ele>55.2</ele><time>2026-04-17T13:04:08Z</time></trkpt><trkpt lat="52.96853356675491" lon="12.841599232053099"><ele>55.0</ele><time>2026-04-17T13:04:09Z</time></trkpt><trkpt lat="52.96862282606734" lon="12.84170526218232"><ele>55.5</ele><time>2026-04-17T13:04:10Z</time></trkpt><trkpt lat="52.96872253458636" lon="12.841804771208345"><ele>56.0</ele><time>2026-04-17T13:04:11Z</time></trkpt><trkpt lat="52.968827885731166" lon="12.841907187513412"><ele>56.5</ele><time>2026-04-17T13:04:12Z</time></trkpt><trkpt lat="52.96893953405955" lon="12.842003691570476"><ele>57.0</ele><time>2026-04-17T13:04:13Z</time></trkpt><trkpt lat="52.96904814686473" lon="12.84211313907473"><ele>57.0</ele><time>2026-04-17T13:04:14Z</time></trkpt><trkpt lat="52.96915449737979" lon="12.842228124087205"><ele>57.0</ele><time>2026-04-17T13:04:15Z</time></trkpt><trkpt lat="52.96925765487229" lon="12.84233814506454"><ele>57.0</ele><time>2026-04-17T13:04:16Z</time></trkpt><trkpt lat="52.969366679960395" lon="12.842438738111069"><ele>57.0</ele><time>2026-04-17T13:04:17Z</time></trkpt><trkpt lat="52.9694661338241" lon="12.842563914401438"><ele>58.0</ele><time>2026-04-17T13:04:18Z</time></trkpt><trkpt lat="52.96955880967978" lon="12.84267684774035"><ele>59.0</ele><time>2026-04-17T13:04:19Z</time></trkpt><trkpt lat="52.96965396487993" lon="12.842766245092418"><ele>60.0</ele><time>2026-04-17T13:04:20Z</time></trkpt><trkpt lat="52.969741509942864" lon="12.842846062397529"><ele>61.0</ele><time>2026-04-17T13:04:21Z</time></trkpt><trkpt lat="52.969831316673066" lon="12.842910444941733"><ele>62.0</ele><time>2026-04-17T13:04:22Z</time></trkpt><trkpt lat="52.969921314942106" lon="12.842979021088922"><ele>62.0</ele><time>2026-04-17T13:04:23Z</time></trkpt><trkpt lat="52.9700148446512" lon="12.84307404174263"><ele>62.0</ele><time>2026-04-17T13:04:24Z</time></trkpt><trkpt lat="52.97008639537492" lon="12.843189559600463"><ele>62.0</ele><time>2026-04-17T13:04:25Z</time></trkpt><trkpt lat="52.97017867486088" lon="12.843313719903527"><ele>62.0</ele><time>2026-04-17T13:04:26Z</time></trkpt><trkpt lat="52.97027328956789" lon="12.843407663197143"><ele>62.0</ele><time>2026-04-17T13:04:27Z</time></trkpt><trkpt lat="52.97037362632794" lon="12.843519703980455"><ele>61.75</ele><time>2026-04-17T13:04:28Z</time></trkpt><trkpt lat="52.970491202561696" lon="12.843630992608533"><ele>61.5</ele><time>2026-04-17T13:04:29Z</time></trkpt><trkpt lat="52.9705903124772" lon="12.843743678053492"><ele>61.25</ele><time>2026-04-17T13:04:30Z</time></trkpt><trkpt lat="52.97070188179275" lon="12.843849152626385"><ele>61.0</ele><time>2026-04-17T13:04:31Z</time></trkpt><trkpt lat="52.970805786789114" lon="12.84394988979475"><ele>59.599999999999994</ele><time>2026-04-17T13:04:32Z</time></trkpt><trkpt lat="52.9709109565819" lon="12.844041156580184"><ele>58.199999999999996</ele><time>2026-04-17T13:04:33Z</time></trkpt><trkpt lat="52.97101108515607" lon="12.84414442410247"><ele>56.800000000000004</ele><time>2026-04-17T13:04:34Z</time></trkpt><trkpt lat="52.971105566123214" lon="12.844254227959851"><ele>55.400000000000006</ele><time>2026-04-17T13:04:35Z</time></trkpt><trkpt lat="52.97118354647627" lon="12.844339671053842"><ele>54.0</ele><time>2026-04-17T13:04:36Z</time></trkpt><trkpt lat="52.971256204770825" lon="12.844412124408828"><ele>54.0</ele><time>2026-04-17T13:04:37Z</time></trkpt><trkpt lat="52.97132545231409" lon="12.844470689476282"><ele>54.0</ele><time>2026-04-17T13:04:38Z</time></trkpt><trkpt lat="52.97139456351846" lon="12.844577320570822"><ele>54.0</ele><time>2026-04-17T13:04:39.999Z</time></trkpt><trkpt lat="52.97141363812871" lon="12.844744647513242"><ele>54.0</ele><time>2026-04-17T13:04:41.999Z</time></trkpt><trkpt lat="52.97141750325621" lon="12.844863822217231"><ele>54.0</ele><time>2026-04-17T13:04:42.999Z</time></trkpt><trkpt lat="52.97143025220757" lon="12.84500018367785"><ele>54.0</ele><time>2026-04-17T13:04:43.999Z</time></trkpt><trkpt lat="52.97143431570528" lon="12.845142189715412"><ele>54.2</ele><time>2026-04-17T13:04:44.999Z</time></trkpt><trkpt lat="52.971427188747725" lon="12.845300815028423"><ele>54.400000000000006</ele><time>2026-04-17T13:04:45.999Z</time></trkpt><trkpt lat="52.971416736340636" lon="12.845469651996526"><ele>54.6</ele><time>2026-04-17T13:04:46.999Z</time></trkpt><trkpt lat="52.97140581732" lon="12.845648802192574"><ele>54.8</ele><time>2026-04-17T13:04:47.999Z</time></trkpt><trkpt lat="52.97139005806911" lon="12.845826235796439"><ele>55.0</ele><time>2026-04-17T13:04:48.999Z</time></trkpt><trkpt lat="52.9713699131382" lon="12.84600769234472"><ele>55.2</ele><time>2026-04-17T13:04:49.999Z</time></trkpt><trkpt lat="52.97135053284218" lon="12.846184122633245"><ele>55.4</ele><time>2026-04-17T13:04:50.999Z</time></trkpt><trkpt lat="52.97133622528278" lon="12.846359217471882"><ele>55.599999999999994</ele><time>2026-04-17T13:04:51.999Z</time></trkpt><trkpt lat="52.97133206876983" lon="12.846515041223839"><ele>55.8</ele><time>2026-04-17T13:04:52.999Z</time></trkpt><trkpt lat="52.97132061090583" lon="12.846669880818341"><ele>56.0</ele><time>2026-04-17T13:04:53.999Z</time></trkpt><trkpt lat="52.97133138711766" lon="12.846826607483987"><ele>56.833333333333336</ele><time>2026-04-17T13:04:54.999Z</time></trkpt><trkpt lat="52.97133146037475" lon="12.846983819265008"><ele>57.66666666666667</ele><time>2026-04-17T13:04:55.999Z</time></trkpt><trkpt lat="52.97132511601654" lon="12.847132219403797"><ele>58.5</ele><time>2026-04-17T13:04:56.999Z</time></trkpt><trkpt lat="52.97131652876732" lon="12.84726593972085"><ele>59.33333333333333</ele><time>2026-04-17T13:04:57.999Z</time></trkpt><trkpt lat="52.971305492507966" lon="12.847404216925547"><ele>60.166666666666664</ele><time>2026-04-17T13:04:58.999Z</time></trkpt><trkpt lat="52.971295701857116" lon="12.847519810361595"><ele>61.0</ele><time>2026-04-17T13:04:59.999Z</time></trkpt><trkpt lat="52.97129612057158" lon="12.847640318871793"><ele>60.99999999999999</ele><time>2026-04-17T13:05:00.999Z</time></trkpt><trkpt lat="52.97130278861888" lon="12.847766778533138"><ele>61.0</ele><time>2026-04-17T13:05:01.999Z</time></trkpt><trkpt lat="52.97129937458719" lon="12.847898008471022"><ele>61.0</ele><time>2026-04-17T13:05:02.999Z</time></trkpt><trkpt lat="52.97130453688464" lon="12.848037183837997"><ele>61.0</ele><time>2026-04-17T13:05:03.999Z</time></trkpt><trkpt lat="52.97129675138112" lon="12.848180440835232"><ele>60.99999999999999</ele><time>2026-04-17T13:05:04.999Z</time></trkpt><trkpt lat="52.97129788263026" lon="12.848339259147837"><ele>61.0</ele><time>2026-04-17T13:05:05.999Z</time></trkpt><trkpt lat="52.97129519613512" lon="12.848473887783316"><ele>60.4</ele><time>2026-04-17T13:05:06.999Z</time></trkpt><trkpt lat="52.971300168999626" lon="12.848636927519976"><ele>59.8</ele><time>2026-04-17T13:05:07.999Z</time></trkpt><trkpt lat="52.97129419674659" lon="12.848794074626683"><ele>59.199999999999996</ele><time>2026-04-17T13:05:08.999Z</time></trkpt><trkpt lat="52.97128452112623" lon="12.848943685989179"><ele>58.599999999999994</ele><time>2026-04-17T13:05:09.999Z</time></trkpt><trkpt lat="52.971273487002044" lon="12.849081221577238"><ele>58.0</ele><time>2026-04-17T13:05:10.999Z</time></trkpt><trkpt lat="52.97125602369779" lon="12.849217761200457"><ele>57.99999999999999</ele><time>2026-04-17T13:05:11.999Z</time></trkpt><trkpt lat="52.97124039617881" lon="12.849365032775781"><ele>58.0</ele><time>2026-04-17T13:05:12.999Z</time></trkpt><trkpt lat="52.97123221673119" lon="12.849509972886278"><ele>58.0</ele><time>2026-04-17T13:05:13.999Z</time></trkpt><trkpt lat="52.97122443956225" lon="12.849646864149744"><ele>58.0</ele><time>2026-04-17T13:05:14.999Z</time></trkpt><trkpt lat="52.97122892477027" lon="12.849791659551352"><ele>57.99999999999999</ele><time>2026-04-17T13:05:15.999Z</time></trkpt><trkpt lat="52.971225627840724" lon="12.84993585427917"><ele>58.0</ele><time>2026-04-17T13:05:16.999Z</time></trkpt><trkpt lat="52.97121742017094" lon="12.850092977138573"><ele>58.0</ele><time>2026-04-17T13:05:17.999Z</time></trkpt><trkpt lat="52.97119845019466" lon="12.85024779280076"><ele>58.0</ele><time>2026-04-17T13:05:18.999Z</time></trkpt><trkpt lat="52.97118957389053" lon="12.85042038134038"><ele>58.0</ele><time>2026-04-17T13:05:19.999Z</time></trkpt><trkpt lat="52.97118454859647" lon="12.85057764596087"><ele>58.0</ele><time>2026-04-17T13:05:20.999Z</time></trkpt><trkpt lat="52.97119037284981" lon="12.850749564912002"><ele>58.0</ele><time>2026-04-17T13:05:21.999Z</time></trkpt><trkpt lat="52.97119358565302" lon="12.850913863266873"><ele>58.0</ele><time>2026-04-17T13:05:22.999Z</time></trkpt><trkpt lat="52.97120221608005" lon="12.851086237938771"><ele>58.0</ele><time>2026-04-17T13:05:23.999Z</time></trkpt><trkpt lat="52.97120150943417" lon="12.851235849640581"><ele>58.0</ele><time>2026-04-17T13:05:24.999Z</time></trkpt><trkpt lat="52.97121704304937" lon="12.851376550947656"><ele>58.0</ele><time>2026-04-17T13:05:25.999Z</time></trkpt><trkpt lat="52.97122130051166" lon="12.851529748433379"><ele>58.0</ele><time>2026-04-17T13:05:26.999Z</time></trkpt><trkpt lat="52.97122083029649" lon="12.851692100065463"><ele>58.4</ele><time>2026-04-17T13:05:27.999Z</time></trkpt><trkpt lat="52.97122520667313" lon="12.85185594295514"><ele>58.8</ele><time>2026-04-17T13:05:28.999Z</time></trkpt><trkpt lat="52.97123734278094" lon="12.85202683250612"><ele>59.2</ele><time>2026-04-17T13:05:29.999Z</time></trkpt><trkpt lat="52.97125048115997" lon="12.852188522320928"><ele>59.6</ele><time>2026-04-17T13:05:30.999Z</time></trkpt><trkpt lat="52.97124740567181" lon="12.852349014689787"><ele>60.0</ele><time>2026-04-17T13:05:31.998Z</time></trkpt><trkpt lat="52.97124865873512" lon="12.852501988060105"><ele>60.0</ele><time>2026-04-17T13:05:32.998Z</time></trkpt><trkpt lat="52.97126104182068" lon="12.852654521203554"><ele>60.0</ele><time>2026-04-17T13:05:33.998Z</time></trkpt><trkpt lat="52.97127700160695" lon="12.852810834656212"><ele>60.0</ele><time>2026-04-17T13:05:34.998Z</time></trkpt><trkpt lat="52.971298642577075" lon="12.852970986608298"><ele>60.0</ele><time>2026-04-17T13:05:35.998Z</time></trkpt><trkpt lat="52.9713152962353" lon="12.853118464980898"><ele>60.0</ele><time>2026-04-17T13:05:36.998Z</time></trkpt><trkpt lat="52.97134415363789" lon="12.853276323344408"><ele>60.0</ele><time>2026-04-17T13:05:37.998Z</time></trkpt><trkpt lat="52.971381527682404" lon="12.853412983391259"><ele>60.0</ele><time>2026-04-17T13:05:38.998Z</time></trkpt><trkpt lat="52.9714209703459" lon="12.853536015371047"><ele>60.0</ele><time>2026-04-17T13:05:39.998Z</time></trkpt><trkpt lat="52.971451330919" lon="12.853664974141372"><ele>60.0</ele><time>2026-04-17T13:05:40.998Z</time></trkpt><trkpt lat="52.97146123743557" lon="12.853798113612688"><ele>60.0</ele><time>2026-04-17T13:05:41.998Z</time></trkpt><trkpt lat="52.97146022123272" lon="12.853939803167803"><ele>60.0</ele><time>2026-04-17T13:05:42.998Z</time></trkpt><trkpt lat="52.97145321146536" lon="12.854052798976442"><ele>60.0</ele><time>2026-04-17T13:05:43.998Z</time></trkpt><trkpt lat="52.97144785162753" lon="12.854168483551785"><ele>60.0</ele><time>2026-04-17T13:05:45.998Z</time></trkpt><trkpt lat="52.9713642120327" lon="12.854280599915889"><ele>60.0</ele><time>2026-04-17T13:05:53.998Z</time></trkpt><trkpt lat="52.97131692684827" lon="12.85439560247021"><ele>60.0</ele><time>2026-04-17T13:05:55.998Z</time></trkpt><trkpt lat="52.97134186419666" lon="12.854536951594422"><ele>60.0</ele><time>2026-04-17T13:05:57.998Z</time></trkpt><trkpt lat="52.97136093685403" lon="12.854698079206402"><ele>60.0</ele><time>2026-04-17T13:05:59.998Z</time></trkpt><trkpt lat="52.9714056412122" lon="12.854846298043467"><ele>60.42857142857143</ele><time>2026-04-17T13:06:01.998Z</time></trkpt><trkpt lat="52.971461684957816" lon="12.854960261481496"><ele>60.857142857142854</ele><time>2026-04-17T13:06:03.998Z</time></trkpt><trkpt lat="52.97150298456814" lon="12.855039505545685"><ele>61.285714285714285</ele><time>2026-04-17T13:06:04.998Z</time></trkpt><trkpt lat="52.97154335696858" lon="12.855131293096278"><ele>61.714285714285715</ele><time>2026-04-17T13:06:05.998Z</time></trkpt><trkpt lat="52.971570297627025" lon="12.855234495419841"><ele>62.14285714285714</ele><time>2026-04-17T13:06:06.998Z</time></trkpt><trkpt lat="52.97160224228443" lon="12.855335158043603"><ele>62.57142857142857</ele><time>2026-04-17T13:06:07.998Z</time></trkpt><trkpt lat="52.97164576948134" lon="12.855424975990907"><ele>63.0</ele><time>2026-04-17T13:06:08.998Z</time></trkpt><trkpt lat="52.971691179398725" lon="12.855525968646115"><ele>62.0</ele><time>2026-04-17T13:06:09.998Z</time></trkpt><trkpt lat="52.97174025003943" lon="12.855626842524437"><ele>61.0</ele><time>2026-04-17T13:06:11Z</time></trkpt><trkpt lat="52.97179452601776" lon="12.855722982743604"><ele>60.0</ele><time>2026-04-17T13:06:12Z</time></trkpt><trkpt lat="52.97183820371581" lon="12.85582202796565"><ele>59.0</ele><time>2026-04-17T13:06:13Z</time></trkpt><trkpt lat="52.971884879220084" lon="12.855925985088925"><ele>58.0</ele><time>2026-04-17T13:06:14Z</time></trkpt><trkpt lat="52.97193535476126" lon="12.85603168173149"><ele>57.0</ele><time>2026-04-17T13:06:15Z</time></trkpt><trkpt lat="52.9719865922978" lon="12.856150163505257"><ele>57.0</ele><time>2026-04-17T13:06:16Z</time></trkpt><trkpt lat="52.972045472945275" lon="12.856275525075297"><ele>57.0</ele><time>2026-04-17T13:06:17Z</time></trkpt><trkpt lat="52.97209064329785" lon="12.856408557265652"><ele>57.0</ele><time>2026-04-17T13:06:18Z</time></trkpt><trkpt lat="52.972144678030006" lon="12.856506266397249"><ele>57.0</ele><time>2026-04-17T13:06:19Z</time></trkpt><trkpt lat="52.97219444090709" lon="12.856608021634406"><ele>57.0</ele><time>2026-04-17T13:06:20Z</time></trkpt><trkpt lat="52.972237031048074" lon="12.856706003272413"><ele>57.0</ele><time>2026-04-17T13:06:21Z</time></trkpt><trkpt lat="52.972285874829886" lon="12.856797394256857"><ele>57.333333333333336</ele><time>2026-04-17T13:06:22Z</time></trkpt><trkpt lat="52.97234047292711" lon="12.856881417485448"><ele>57.66666666666667</ele><time>2026-04-17T13:06:23Z</time></trkpt><trkpt lat="52.972426589900934" lon="12.856972352957062"><ele>58.0</ele><time>2026-04-17T13:06:24Z</time></trkpt><trkpt lat="52.97247160128078" lon="12.857058887352096"><ele>58.333333333333336</ele><time>2026-04-17T13:06:25Z</time></trkpt><trkpt lat="52.97254671746339" lon="12.857230459907175"><ele>58.66666666666667</ele><time>2026-04-17T13:06:27Z</time></trkpt><trkpt lat="52.97258618097341" lon="12.85732885816036"><ele>59.0</ele><time>2026-04-17T13:06:28Z</time></trkpt><trkpt lat="52.972633600163014" lon="12.857419715802147"><ele>58.66666666666667</ele><time>2026-04-17T13:06:29Z</time></trkpt><trkpt lat="52.97268110899808" lon="12.857521821068158"><ele>58.333333333333336</ele><time>2026-04-17T13:06:30Z</time></trkpt><trkpt lat="52.972736726168016" lon="12.857621220287749"><ele>58.0</ele><time>2026-04-17T13:06:31Z</time></trkpt><trkpt lat="52.9727882870259" lon="12.857730999373235"><ele>57.66666666666667</ele><time>2026-04-17T13:06:32Z</time></trkpt><trkpt lat="52.97283391553686" lon="12.857849183582873"><ele>57.333333333333336</ele><time>2026-04-17T13:06:33Z</time></trkpt><trkpt lat="52.97288531338924" lon="12.857956887247793"><ele>57.0</ele><time>2026-04-17T13:06:34Z</time></trkpt><trkpt lat="52.97293707840394" lon="12.858060997550217"><ele>57.0</ele><time>2026-04-17T13:06:35Z</time></trkpt><trkpt lat="52.97299619441574" lon="12.858168962254034"><ele>56.99999999999999</ele><time>2026-04-17T13:06:36Z</time></trkpt><trkpt lat="52.97303083436497" lon="12.858264959380461"><ele>57.0</ele><time>2026-04-17T13:06:37Z</time></trkpt><trkpt lat="52.97307757977233" lon="12.858345682372372"><ele>57.0</ele><time>2026-04-17T13:06:38Z</time></trkpt><trkpt lat="52.97313390196692" lon="12.858418275187372"><ele>56.99999999999999</ele><time>2026-04-17T13:06:39Z</time></trkpt><trkpt lat="52.97318521740118" lon="12.858495209574928"><ele>57.0</ele><time>2026-04-17T13:06:40Z</time></trkpt><trkpt lat="52.97323733723784" lon="12.85858183134237"><ele>57.0</ele><time>2026-04-17T13:06:41Z</time></trkpt><trkpt lat="52.97328756790608" lon="12.858653626845816"><ele>56.5</ele><time>2026-04-17T13:06:42Z</time></trkpt><trkpt lat="52.97336694679458" lon="12.85872625439653"><ele>56.0</ele><time>2026-04-17T13:06:44Z</time></trkpt><trkpt lat="52.97343170141191" lon="12.858740836726305"><ele>55.5</ele><time>2026-04-17T13:06:46Z</time></trkpt><trkpt lat="52.97350363092387" lon="12.858751821912476"><ele>55.0</ele><time>2026-04-17T13:06:48Z</time></trkpt><trkpt lat="52.97357414531385" lon="12.858792830346498"><ele>54.5</ele><time>2026-04-17T13:06:51Z</time></trkpt><trkpt lat="52.97367321237231" lon="12.858867797016568"><ele>54.0</ele><time>2026-04-17T13:06:53Z</time></trkpt><trkpt lat="52.97373205698589" lon="12.858936065795255"><ele>54.0</ele><time>2026-04-17T13:06:54Z</time></trkpt><trkpt lat="52.973779045143075" lon="12.859022014990014"><ele>54.0</ele><time>2026-04-17T13:06:54.999Z</time></trkpt><trkpt lat="52.97381866413028" lon="12.859115803295536"><ele>54.0</ele><time>2026-04-17T13:06:55.999Z</time></trkpt><trkpt lat="52.97386310158706" lon="12.859202530713388"><ele>54.0</ele><time>2026-04-17T13:06:56.999Z</time></trkpt><trkpt lat="52.973906719925246" lon="12.85929086902078"><ele>54.0</ele><time>2026-04-17T13:06:57.999Z</time></trkpt><trkpt lat="52.973989629316925" lon="12.859420247066778"><ele>54.0</ele><time>2026-04-17T13:06:59.999Z</time></trkpt><trkpt lat="52.97409342205159" lon="12.859497504980768"><ele>53.857142857142854</ele><time>2026-04-17T13:07:01.999Z</time></trkpt><trkpt lat="52.97416055870026" lon="12.859528768149003"><ele>53.71428571428571</ele><time>2026-04-17T13:07:02.999Z</time></trkpt><trkpt lat="52.974226327816005" lon="12.859562491432586"><ele>53.57142857142857</ele><time>2026-04-17T13:07:03.999Z</time></trkpt><trkpt lat="52.974292293488965" lon="12.859591972570657"><ele>53.42857142857143</ele><time>2026-04-17T13:07:04.999Z</time></trkpt><trkpt lat="52.97435658491555" lon="12.85962605870084"><ele>53.285714285714285</ele><time>2026-04-17T13:07:05.999Z</time></trkpt><trkpt lat="52.97442338819478" lon="12.85966433628529"><ele>53.142857142857146</ele><time>2026-04-17T13:07:06.999Z</time></trkpt><trkpt lat="52.97448244533539" lon="12.859702733004875"><ele>53.0</ele><time>2026-04-17T13:07:07.999Z</time></trkpt><trkpt lat="52.974574792050966" lon="12.859858380572367"><ele>53.0</ele><time>2026-04-17T13:07:09.999Z</time></trkpt><trkpt lat="52.97461603567623" lon="12.859947966581956"><ele>53.0</ele><time>2026-04-17T13:07:10.999Z</time></trkpt><trkpt lat="52.97465837327868" lon="12.860029735769999"><ele>53.0</ele><time>2026-04-17T13:07:11.999Z</time></trkpt><trkpt lat="52.974700955706474" lon="12.860110952678156"><ele>53.0</ele><time>2026-04-17T13:07:12.999Z</time></trkpt><trkpt lat="52.97474484118054" lon="12.860197375304963"><ele>53.0</ele><time>2026-04-17T13:07:13.999Z</time></trkpt><trkpt lat="52.9747858206427" lon="12.860282133744036"><ele>53.0</ele><time>2026-04-17T13:07:14.999Z</time></trkpt><trkpt lat="52.97483561445926" lon="12.860366071233276"><ele>53.0</ele><time>2026-04-17T13:07:15.999Z</time></trkpt><trkpt lat="52.97488307067443" lon="12.860450373672906"><ele>53.285714285714285</ele><time>2026-04-17T13:07:16.999Z</time></trkpt><trkpt lat="52.974934272552645" lon="12.860537839385973"><ele>53.57142857142857</ele><time>2026-04-17T13:07:17.999Z</time></trkpt><trkpt lat="52.97498940811934" lon="12.860614164962906"><ele>53.857142857142854</ele><time>2026-04-17T13:07:18.999Z</time></trkpt><trkpt lat="52.97504993070676" lon="12.860674051681677"><ele>54.14285714285714</ele><time>2026-04-17T13:07:19.999Z</time></trkpt><trkpt lat="52.97510816938497" lon="12.86072558234836"><ele>54.42857142857143</ele><time>2026-04-17T13:07:20.999Z</time></trkpt><trkpt lat="52.97517462983996" lon="12.860759873059719"><ele>54.71428571428571</ele><time>2026-04-17T13:07:21.999Z</time></trkpt><trkpt lat="52.97523981798695" lon="12.860780632474022"><ele>55.0</ele><time>2026-04-17T13:07:22.999Z</time></trkpt><trkpt lat="52.9753156386668" lon="12.86080725098746"><ele>54.99999999999999</ele><time>2026-04-17T13:07:23.999Z</time></trkpt><trkpt lat="52.97538400696833" lon="12.86083759951624"><ele>55.0</ele><time>2026-04-17T13:07:24.999Z</time></trkpt><trkpt lat="52.97544301438967" lon="12.860876877515315"><ele>55.0</ele><time>2026-04-17T13:07:25.999Z</time></trkpt><trkpt lat="52.975512497903274" lon="12.861019063478867"><ele>55.0</ele><time>2026-04-17T13:07:27.999Z</time></trkpt><trkpt lat="52.97556395769339" lon="12.861167616123614"><ele>54.99999999999999</ele><time>2026-04-17T13:07:29.999Z</time></trkpt><trkpt lat="52.975651415045014" lon="12.86124976651216"><ele>55.0</ele><time>2026-04-17T13:07:31.999Z</time></trkpt><trkpt lat="52.975748094606175" lon="12.861314187361161"><ele>55.166666666666664</ele><time>2026-04-17T13:07:33.999Z</time></trkpt><trkpt lat="52.9758485816798" lon="12.8613104647532"><ele>55.33333333333333</ele><time>2026-04-17T13:07:35.999Z</time></trkpt><trkpt lat="52.975957175938625" lon="12.861275909722906"><ele>55.5</ele><time>2026-04-17T13:07:37.999Z</time></trkpt><trkpt lat="52.97601982212116" lon="12.861261709144383"><ele>55.66666666666667</ele><time>2026-04-17T13:07:38.999Z</time></trkpt><trkpt lat="52.97609109215459" lon="12.861231219069904"><ele>55.833333333333336</ele><time>2026-04-17T13:07:39.999Z</time></trkpt><trkpt lat="52.97615508500783" lon="12.861203367603755"><ele>56.0</ele><time>2026-04-17T13:07:40.999Z</time></trkpt><trkpt lat="52.9762435400159" lon="12.861192449379786"><ele>56.00000000000001</ele><time>2026-04-17T13:07:42.999Z</time></trkpt><trkpt lat="52.976300494103704" lon="12.861263676857513"><ele>56.0</ele><time>2026-04-17T13:07:44.998Z</time></trkpt><trkpt lat="52.97635751362406" lon="12.861413764715312"><ele>56.0</ele><time>2026-04-17T13:07:46.998Z</time></trkpt><trkpt lat="52.9764032608686" lon="12.861521002792559"><ele>56.0</ele><time>2026-04-17T13:07:47.998Z</time></trkpt><trkpt lat="52.976453951171884" lon="12.861624128922278"><ele>56.00000000000001</ele><time>2026-04-17T13:07:48.998Z</time></trkpt><trkpt lat="52.97651143946354" lon="12.861734310750565"><ele>56.0</ele><time>2026-04-17T13:07:49.998Z</time></trkpt><trkpt lat="52.97655649307389" lon="12.861826580344683"><ele>55.833333333333336</ele><time>2026-04-17T13:07:50.998Z</time></trkpt><trkpt lat="52.97660435943089" lon="12.86191793050869"><ele>55.66666666666667</ele><time>2026-04-17T13:07:51.998Z</time></trkpt><trkpt lat="52.97665331916579" lon="12.862002876790969"><ele>55.5</ele><time>2026-04-17T13:07:52.998Z</time></trkpt><trkpt lat="52.97670082758766" lon="12.86209323585143"><ele>55.33333333333333</ele><time>2026-04-17T13:07:53.998Z</time></trkpt><trkpt lat="52.97674870943618" lon="12.86217316436911"><ele>55.166666666666664</ele><time>2026-04-17T13:07:54.998Z</time></trkpt><trkpt lat="52.97679847224842" lon="12.862240472734172"><ele>55.0</ele><time>2026-04-17T13:07:55.998Z</time></trkpt><trkpt lat="52.97688574641594" lon="12.862388886598335"><ele>55.0</ele><time>2026-04-17T13:07:57.998Z</time></trkpt><trkpt lat="52.97696888082614" lon="12.862531258525612"><ele>55.0</ele><time>2026-04-17T13:07:59.998Z</time></trkpt><trkpt lat="52.97706569928436" lon="12.862590918265331"><ele>55.0</ele><time>2026-04-17T13:08:01.998Z</time></trkpt><trkpt lat="52.97717780685543" lon="12.862591990258311"><ele>55.0</ele><time>2026-04-17T13:08:03.998Z</time></trkpt><trkpt lat="52.97727348771646" lon="12.86256300434124"><ele>55.0</ele><time>2026-04-17T13:08:05.998Z</time></trkpt><trkpt lat="52.97733346005177" lon="12.862640516850718"><ele>54.49999999999999</ele><time>2026-04-17T13:08:07.998Z</time></trkpt><trkpt lat="52.97737545675576" lon="12.86272027106829"><ele>54.0</ele><time>2026-04-17T13:08:08.998Z</time></trkpt><trkpt lat="52.977422323768444" lon="12.862812465693699"><ele>53.5</ele><time>2026-04-17T13:08:09.998Z</time></trkpt><trkpt lat="52.97747422766361" lon="12.862904944370293"><ele>53.0</ele><time>2026-04-17T13:08:10.998Z</time></trkpt><trkpt lat="52.97751808272586" lon="12.862998784520224"><ele>52.49999999999999</ele><time>2026-04-17T13:08:11.998Z</time></trkpt><trkpt lat="52.977567279310556" lon="12.863072014668253"><ele>52.0</ele><time>2026-04-17T13:08:12.998Z</time></trkpt><trkpt lat="52.977663199984356" lon="12.863184519377912"><ele>52.0</ele><time>2026-04-17T13:08:14.998Z</time></trkpt><trkpt lat="52.977752708168794" lon="12.86334010030605"><ele>52.0</ele><time>2026-04-17T13:08:17Z</time></trkpt><trkpt lat="52.97784856158052" lon="12.863393032156825"><ele>52.0</ele><time>2026-04-17T13:08:19Z</time></trkpt><trkpt lat="52.9779620015278" lon="12.863365561650303"><ele>52.0</ele><time>2026-04-17T13:08:21Z</time></trkpt><trkpt lat="52.97803916099752" lon="12.863417518826035"><ele>52.0</ele><time>2026-04-17T13:08:23Z</time></trkpt><trkpt lat="52.97806882858373" lon="12.863588960240017"><ele>52.666666666666664</ele><time>2026-04-17T13:08:25Z</time></trkpt><trkpt lat="52.97808354934325" lon="12.863699813732458"><ele>53.33333333333333</ele><time>2026-04-17T13:08:26Z</time></trkpt><trkpt lat="52.97810728130218" lon="12.863820317289141"><ele>54.0</ele><time>2026-04-17T13:08:27Z</time></trkpt><trkpt lat="52.978135899058515" lon="12.863946306672542"><ele>54.66666666666667</ele><time>2026-04-17T13:08:28Z</time></trkpt><trkpt lat="52.9781690040092" lon="12.864069242129679"><ele>55.333333333333336</ele><time>2026-04-17T13:08:29Z</time></trkpt><trkpt lat="52.97820630607608" lon="12.864201764998086"><ele>56.0</ele><time>2026-04-17T13:08:30Z</time></trkpt><trkpt lat="52.97824166232853" lon="12.864328616733278"><ele>56.50000000000001</ele><time>2026-04-17T13:08:31Z</time></trkpt><trkpt lat="52.97827736869699" lon="12.864461950701518"><ele>57.0</ele><time>2026-04-17T13:08:32Z</time></trkpt><trkpt lat="52.97831475433836" lon="12.86457887280046"><ele>57.5</ele><time>2026-04-17T13:08:33Z</time></trkpt><trkpt lat="52.97835156891139" lon="12.864680455905885"><ele>58.0</ele><time>2026-04-17T13:08:34Z</time></trkpt><trkpt lat="52.97839061228161" lon="12.864777720106341"><ele>58.50000000000001</ele><time>2026-04-17T13:08:35Z</time></trkpt><trkpt lat="52.97843443701518" lon="12.86488511445024"><ele>59.0</ele><time>2026-04-17T13:08:37Z</time></trkpt><trkpt lat="52.978489736611216" lon="12.865010222542134"><ele>59.0</ele><time>2026-04-17T13:08:43Z</time></trkpt><trkpt lat="52.97859120860532" lon="12.8651737726709"><ele>59.00000000000001</ele><time>2026-04-17T13:08:45Z</time></trkpt><trkpt lat="52.9786580668135" lon="12.86526324992476"><ele>59.00000000000001</ele><time>2026-04-17T13:08:47Z</time></trkpt><trkpt lat="52.97872766822231" lon="12.865222907850093"><ele>59.0</ele><time>2026-04-17T13:08:49Z</time></trkpt><trkpt lat="52.97883064858665" lon="12.865108992790468"><ele>59.0</ele><time>2026-04-17T13:08:51Z</time></trkpt><trkpt lat="52.97892397949226" lon="12.864964464702279"><ele>59.00000000000001</ele><time>2026-04-17T13:08:53Z</time></trkpt><trkpt lat="52.978986509546345" lon="12.86488148769387"><ele>59.0</ele><time>2026-04-17T13:08:54Z</time></trkpt><trkpt lat="52.97904924669711" lon="12.864812355637124"><ele>59.0</ele><time>2026-04-17T13:08:55Z</time></trkpt><trkpt lat="52.9791143272808" lon="12.86474044841646"><ele>59.0</ele><time>2026-04-17T13:08:56Z</time></trkpt><trkpt lat="52.97917758891929" lon="12.864669734748949"><ele>59.00000000000001</ele><time>2026-04-17T13:08:57Z</time></trkpt><trkpt lat="52.97923987809628" lon="12.864586535888737"><ele>59.0</ele><time>2026-04-17T13:08:58Z</time></trkpt><trkpt lat="52.97930315398881" lon="12.864519037801943"><ele>59.00000000000001</ele><time>2026-04-17T13:08:59Z</time></trkpt><trkpt lat="52.979362029905744" lon="12.864443262625912"><ele>59.0</ele><time>2026-04-17T13:09:00Z</time></trkpt><trkpt lat="52.97942209571273" lon="12.86437713181908"><ele>59.0</ele><time>2026-04-17T13:09:00.999Z</time></trkpt><trkpt lat="52.97948000291416" lon="12.864310589335544"><ele>59.0</ele><time>2026-04-17T13:09:01.999Z</time></trkpt><trkpt lat="52.979587264094604" lon="12.864251618188463"><ele>59.00000000000001</ele><time>2026-04-17T13:09:03.999Z</time></trkpt><trkpt lat="52.97969136467068" lon="12.864270467615436"><ele>59.0</ele><time>2026-04-17T13:09:05.999Z</time></trkpt><trkpt lat="52.97979049245389" lon="12.864393004476325"><ele>59.00000000000001</ele><time>2026-04-17T13:09:07.999Z</time></trkpt><trkpt lat="52.97985144543884" lon="12.86446861114093"><ele>59.0</ele><time>2026-04-17T13:09:08.999Z</time></trkpt><trkpt lat="52.97992140678873" lon="12.864540232860895"><ele>59.0</ele><time>2026-04-17T13:09:09.999Z</time></trkpt><trkpt lat="52.97998920995253" lon="12.86461736575887"><ele>59.0</ele><time>2026-04-17T13:09:10.999Z</time></trkpt><trkpt lat="52.9800515172275" lon="12.864704420666635"><ele>59.00000000000001</ele><time>2026-04-17T13:09:11.999Z</time></trkpt><trkpt lat="52.98012480891012" lon="12.864784884801967"><ele>59.0</ele><time>2026-04-17T13:09:12.999Z</time></trkpt><trkpt lat="52.98018782535258" lon="12.864852785790928"><ele>58.857142857142854</ele><time>2026-04-17T13:09:13.999Z</time></trkpt><trkpt lat="52.980253263828885" lon="12.864925452894827"><ele>58.71428571428572</ele><time>2026-04-17T13:09:14.999Z</time></trkpt><trkpt lat="52.98031528672428" lon="12.864988005825712"><ele>58.57142857142858</ele><time>2026-04-17T13:09:15.999Z</time></trkpt><trkpt lat="52.98037648563705" lon="12.865052676335752"><ele>58.42857142857143</ele><time>2026-04-17T13:09:16.999Z</time></trkpt><trkpt lat="52.98043367983615" lon="12.865114518700363"><ele>58.28571428571429</ele><time>2026-04-17T13:09:17.999Z</time></trkpt><trkpt lat="52.98049842829102" lon="12.865171479875018"><ele>58.14285714285715</ele><time>2026-04-17T13:09:18.999Z</time></trkpt><trkpt lat="52.980565795011856" lon="12.865232250216524"><ele>58.00000000000001</ele><time>2026-04-17T13:09:19.999Z</time></trkpt><trkpt lat="52.98063495843475" lon="12.865286725440155"><ele>58.4</ele><time>2026-04-17T13:09:20.999Z</time></trkpt><trkpt lat="52.9807455878267" lon="12.865345098666287"><ele>58.8</ele><time>2026-04-17T13:09:22.999Z</time></trkpt><trkpt lat="52.980842154540994" lon="12.865405299400255"><ele>59.2</ele><time>2026-04-17T13:09:24.999Z</time></trkpt><trkpt lat="52.980935816107056" lon="12.865543073171134"><ele>59.6</ele><time>2026-04-17T13:09:26.999Z</time></trkpt><trkpt lat="52.98098444777801" lon="12.865640386816475"><ele>60.0</ele><time>2026-04-17T13:09:27.999Z</time></trkpt><trkpt lat="52.98104290489763" lon="12.865741757982518"><ele>60.6</ele><time>2026-04-17T13:09:28.999Z</time></trkpt><trkpt lat="52.98110690812802" lon="12.865830604711997"><ele>61.2</ele><time>2026-04-17T13:09:29.999Z</time></trkpt><trkpt lat="52.981167020136134" lon="12.865913224867697"><ele>61.8</ele><time>2026-04-17T13:09:30.999Z</time></trkpt><trkpt lat="52.98121309709428" lon="12.865987012601169"><ele>62.4</ele><time>2026-04-17T13:09:31.999Z</time></trkpt><trkpt lat="52.98131572371624" lon="12.866120690806119"><ele>63.0</ele><time>2026-04-17T13:09:33.999Z</time></trkpt><trkpt lat="52.98138528949545" lon="12.866237026725496"><ele>63.0</ele><time>2026-04-17T13:09:35.999Z</time></trkpt><trkpt lat="52.981470744295" lon="12.866405748096161"><ele>63.0</ele><time>2026-04-17T13:09:37.999Z</time></trkpt><trkpt lat="52.98152874797596" lon="12.8664984441435"><ele>63.0</ele><time>2026-04-17T13:09:38.999Z</time></trkpt><trkpt lat="52.98158863416913" lon="12.86659939680987"><ele>63.0</ele><time>2026-04-17T13:09:39.999Z</time></trkpt><trkpt lat="52.98164198463659" lon="12.866695840451245"><ele>63.0</ele><time>2026-04-17T13:09:40.999Z</time></trkpt><trkpt lat="52.981699714748416" lon="12.866781288400635"><ele>63.14285714285714</ele><time>2026-04-17T13:09:41.999Z</time></trkpt><trkpt lat="52.9817589516627" lon="12.86686211520413"><ele>63.285714285714285</ele><time>2026-04-17T13:09:42.999Z</time></trkpt><trkpt lat="52.98181876215296" lon="12.86693946516784"><ele>63.42857142857143</ele><time>2026-04-17T13:09:43.999Z</time></trkpt><trkpt lat="52.98187238892173" lon="12.867012136251793"><ele>63.57142857142857</ele><time>2026-04-17T13:09:44.999Z</time></trkpt><trkpt lat="52.98192459393765" lon="12.867092504098105"><ele>63.71428571428571</ele><time>2026-04-17T13:09:45.999Z</time></trkpt><trkpt lat="52.98197625961512" lon="12.867181949981065"><ele>63.857142857142854</ele><time>2026-04-17T13:09:46.999Z</time></trkpt><trkpt lat="52.98202570914191" lon="12.867255560790898"><ele>64.0</ele><time>2026-04-17T13:09:47.999Z</time></trkpt><trkpt lat="52.98211489461473" lon="12.86731380723597"><ele>64.0</ele><time>2026-04-17T13:09:49.998Z</time></trkpt><trkpt lat="52.9822329146604" lon="12.867321086062548"><ele>64.0</ele><time>2026-04-17T13:09:51.998Z</time></trkpt><trkpt lat="52.982307293003714" lon="12.867332044027028"><ele>64.0</ele><time>2026-04-17T13:09:52.998Z</time></trkpt><trkpt lat="52.9824406969633" lon="12.86740887689407"><ele>64.0</ele><time>2026-04-17T13:09:54.998Z</time></trkpt><trkpt lat="52.98252320798359" lon="12.867450730193907"><ele>64.0</ele><time>2026-04-17T13:09:55.998Z</time></trkpt><trkpt lat="52.98260861765496" lon="12.86749591571948"><ele>64.0</ele><time>2026-04-17T13:09:56.998Z</time></trkpt><trkpt lat="52.98267340097519" lon="12.867547017572974"><ele>64.0</ele><time>2026-04-17T13:09:57.998Z</time></trkpt><trkpt lat="52.98278057237885" lon="12.867607072928145"><ele>64.0</ele><time>2026-04-17T13:09:59.998Z</time></trkpt><trkpt lat="52.98288869125795" lon="12.867646263693027"><ele>64.0</ele><time>2026-04-17T13:10:01.998Z</time></trkpt><trkpt lat="52.98300203489822" lon="12.867696925785301"><ele>64.0</ele><time>2026-04-17T13:10:03.998Z</time></trkpt><trkpt lat="52.98309302791953" lon="12.867700701440535"><ele>63.99999999999999</ele><time>2026-04-17T13:10:05.998Z</time></trkpt><trkpt lat="52.983196247015506" lon="12.867634422245807"><ele>64.0</ele><time>2026-04-17T13:10:07.998Z</time></trkpt><trkpt lat="52.9832627045395" lon="12.867592960915584"><ele>64.0</ele><time>2026-04-17T13:10:08.998Z</time></trkpt><trkpt lat="52.98334067793078" lon="12.867572530112831"><ele>64.0</ele><time>2026-04-17T13:10:09.998Z</time></trkpt><trkpt lat="52.983424275157304" lon="12.867542647368536"><ele>63.99999999999999</ele><time>2026-04-17T13:10:10.998Z</time></trkpt><trkpt lat="52.98349466066687" lon="12.86750636267307"><ele>64.0</ele><time>2026-04-17T13:10:11.998Z</time></trkpt><trkpt lat="52.98356314368647" lon="12.867480762235616"><ele>63.33333333333333</ele><time>2026-04-17T13:10:12.998Z</time></trkpt><trkpt lat="52.98362361071645" lon="12.86744328821811"><ele>62.666666666666664</ele><time>2026-04-17T13:10:13.998Z</time></trkpt><trkpt lat="52.98372656356792" lon="12.867386108461258"><ele>62.0</ele><time>2026-04-17T13:10:15.998Z</time></trkpt><trkpt lat="52.983807038136916" lon="12.867412415622116"><ele>61.33333333333333</ele><time>2026-04-17T13:10:17.998Z</time></trkpt><trkpt lat="52.983879250036324" lon="12.86743792861388"><ele>60.666666666666664</ele><time>2026-04-17T13:10:20.998Z</time></trkpt><trkpt lat="52.98392884683739" lon="12.867557036903642"><ele>60.0</ele><time>2026-04-17T13:10:23Z</time></trkpt><trkpt lat="52.983937717572026" lon="12.86766854881433"><ele>60.0</ele><time>2026-04-17T13:10:24Z</time></trkpt><trkpt lat="52.98395628028935" lon="12.867795509327856"><ele>60.0</ele><time>2026-04-17T13:10:25Z</time></trkpt><trkpt lat="52.98398604854189" lon="12.867934272307803"><ele>60.0</ele><time>2026-04-17T13:10:26Z</time></trkpt><trkpt lat="52.98402641320314" lon="12.868080553035178"><ele>60.0</ele><time>2026-04-17T13:10:27Z</time></trkpt><trkpt lat="52.98405868398065" lon="12.8682114056612"><ele>60.0</ele><time>2026-04-17T13:10:28Z</time></trkpt><trkpt lat="52.984074911489" lon="12.86832477849873"><ele>60.0</ele><time>2026-04-17T13:10:29Z</time></trkpt><trkpt lat="52.98405213403506" lon="12.868504593257327"><ele>59.666666666666664</ele><time>2026-04-17T13:10:31Z</time></trkpt><trkpt lat="52.98404930101491" lon="12.868668326786068"><ele>59.33333333333333</ele><time>2026-04-17T13:10:33Z</time></trkpt><trkpt lat="52.98410173905831" lon="12.868874579590672"><ele>59.0</ele><time>2026-04-17T13:10:35Z</time></trkpt><trkpt lat="52.984131006904065" lon="12.868979565339314"><ele>58.666666666666664</ele><time>2026-04-17T13:10:36Z</time></trkpt><trkpt lat="52.98414795543765" lon="12.869095240675794"><ele>58.33333333333333</ele><time>2026-04-17T13:10:37Z</time></trkpt><trkpt lat="52.9841659314713" lon="12.869204696971195"><ele>58.0</ele><time>2026-04-17T13:10:38Z</time></trkpt><trkpt lat="52.98418747135676" lon="12.869318086215246"><ele>57.99999999999999</ele><time>2026-04-17T13:10:39Z</time></trkpt><trkpt lat="52.98421642715322" lon="12.869418600983758"><ele>58.0</ele><time>2026-04-17T13:10:40Z</time></trkpt><trkpt lat="52.98425054101247" lon="12.869542233996526"><ele>58.0</ele><time>2026-04-17T13:10:41Z</time></trkpt><trkpt lat="52.984286127837365" lon="12.869677698161887"><ele>58.0</ele><time>2026-04-17T13:10:42Z</time></trkpt><trkpt lat="52.984297899555195" lon="12.86979561351217"><ele>57.99999999999999</ele><time>2026-04-17T13:10:43Z</time></trkpt><trkpt lat="52.98432695807596" lon="12.86992592177689"><ele>58.0</ele><time>2026-04-17T13:10:44Z</time></trkpt><trkpt lat="52.984349614636585" lon="12.87003563347182"><ele>58.42857142857144</ele><time>2026-04-17T13:10:45Z</time></trkpt><trkpt lat="52.98437467349385" lon="12.87016181657493"><ele>58.85714285714286</ele><time>2026-04-17T13:10:46Z</time></trkpt><trkpt lat="52.98439699118294" lon="12.870279646025809"><ele>59.285714285714285</ele><time>2026-04-17T13:10:47Z</time></trkpt><trkpt lat="52.98440990373338" lon="12.870401240378028"><ele>59.714285714285715</ele><time>2026-04-17T13:10:48Z</time></trkpt><trkpt lat="52.98443030683489" lon="12.87051309783582"><ele>60.14285714285714</ele><time>2026-04-17T13:10:49Z</time></trkpt><trkpt lat="52.98445246058481" lon="12.870616625418537"><ele>60.57142857142856</ele><time>2026-04-17T13:10:50Z</time></trkpt><trkpt lat="52.984483624629554" lon="12.870731586419426"><ele>60.99999999999999</ele><time>2026-04-17T13:10:51Z</time></trkpt><trkpt lat="52.98451612443257" lon="12.870862322894043"><ele>61.166666666666664</ele><time>2026-04-17T13:10:52Z</time></trkpt><trkpt lat="52.98455289121549" lon="12.871000418576312"><ele>61.33333333333333</ele><time>2026-04-17T13:10:53Z</time></trkpt><trkpt lat="52.984581336701055" lon="12.871137678215447"><ele>61.5</ele><time>2026-04-17T13:10:54Z</time></trkpt><trkpt lat="52.984608417929984" lon="12.871266814798128"><ele>61.66666666666667</ele><time>2026-04-17T13:10:55Z</time></trkpt><trkpt lat="52.984629218223866" lon="12.871387637509782"><ele>61.833333333333336</ele><time>2026-04-17T13:10:56Z</time></trkpt><trkpt lat="52.98465072952627" lon="12.871512094480588"><ele>62.0</ele><time>2026-04-17T13:10:57Z</time></trkpt><trkpt lat="52.98467284555889" lon="12.871624335072099"><ele>62.00000000000001</ele><time>2026-04-17T13:10:58Z</time></trkpt><trkpt lat="52.984696374111856" lon="12.871753137067742"><ele>62.0</ele><time>2026-04-17T13:10:59Z</time></trkpt><trkpt lat="52.984712349840116" lon="12.871871738395514"><ele>62.0</ele><time>2026-04-17T13:11:00Z</time></trkpt><trkpt lat="52.984738015191354" lon="12.871990640823466"><ele>62.0</ele><time>2026-04-17T13:11:01Z</time></trkpt><trkpt lat="52.984762513602476" lon="12.872115408312373"><ele>62.00000000000001</ele><time>2026-04-17T13:11:02Z</time></trkpt><trkpt lat="52.9847890256074" lon="12.872252917387422"><ele>62.0</ele><time>2026-04-17T13:11:02.999Z</time></trkpt><trkpt lat="52.984812235455884" lon="12.872380030920475"><ele>61.833333333333336</ele><time>2026-04-17T13:11:03.999Z</time></trkpt><trkpt lat="52.98483214734278" lon="12.872500287942414"><ele>61.66666666666667</ele><time>2026-04-17T13:11:04.999Z</time></trkpt><trkpt lat="52.98486093253125" lon="12.872635354699293"><ele>61.5</ele><time>2026-04-17T13:11:05.999Z</time></trkpt><trkpt lat="52.98488692897335" lon="12.872769904441718"><ele>61.33333333333333</ele><time>2026-04-17T13:11:06.999Z</time></trkpt><trkpt lat="52.98491208698921" lon="12.872908151750906"><ele>61.166666666666664</ele><time>2026-04-17T13:11:07.999Z</time></trkpt><trkpt lat="52.98493538710805" lon="12.873022959075433"><ele>61.0</ele><time>2026-04-17T13:11:08.999Z</time></trkpt><trkpt lat="52.9849558087119" lon="12.873153199667826"><ele>60.99999999999999</ele><time>2026-04-17T13:11:09.999Z</time></trkpt><trkpt lat="52.984966642277946" lon="12.873305378451985"><ele>61.0</ele><time>2026-04-17T13:11:10.999Z</time></trkpt><trkpt lat="52.984982477897695" lon="12.87345515331501"><ele>61.0</ele><time>2026-04-17T13:11:11.999Z</time></trkpt><trkpt lat="52.98500410526155" lon="12.873594231558307"><ele>61.0</ele><time>2026-04-17T13:11:12.999Z</time></trkpt><trkpt lat="52.9850360352387" lon="12.873729116007395"><ele>60.99999999999999</ele><time>2026-04-17T13:11:13.999Z</time></trkpt><trkpt lat="52.985067217881145" lon="12.87385891276791"><ele>61.0</ele><time>2026-04-17T13:11:14.999Z</time></trkpt><trkpt lat="52.98509443680881" lon="12.87399817221079"><ele>61.0</ele><time>2026-04-17T13:11:15.999Z</time></trkpt><trkpt lat="52.98512771964686" lon="12.874143524618663"><ele>60.99999999999999</ele><time>2026-04-17T13:11:16.999Z</time></trkpt><trkpt lat="52.985165899025155" lon="12.874295210771018"><ele>60.99999999999999</ele><time>2026-04-17T13:11:17.999Z</time></trkpt><trkpt lat="52.98521154620406" lon="12.874450462557526"><ele>61.0</ele><time>2026-04-17T13:11:18.999Z</time></trkpt><trkpt lat="52.985256096723454" lon="12.874608684799238"><ele>61.0</ele><time>2026-04-17T13:11:19.999Z</time></trkpt><trkpt lat="52.98529696111898" lon="12.87476972571949"><ele>60.599999999999994</ele><time>2026-04-17T13:11:20.999Z</time></trkpt><trkpt lat="52.98533355236151" lon="12.874926573769905"><ele>60.199999999999996</ele><time>2026-04-17T13:11:21.999Z</time></trkpt><trkpt lat="52.98537698471138" lon="12.875096988858918"><ele>59.800000000000004</ele><time>2026-04-17T13:11:22.999Z</time></trkpt><trkpt lat="52.985415842496636" lon="12.875265460206627"><ele>59.400000000000006</ele><time>2026-04-17T13:11:23.999Z</time></trkpt><trkpt lat="52.98545145522307" lon="12.87542819984063"><ele>59.0</ele><time>2026-04-17T13:11:24.999Z</time></trkpt><trkpt lat="52.985490710252414" lon="12.875594903454404"><ele>59.0</ele><time>2026-04-17T13:11:25.999Z</time></trkpt><trkpt lat="52.985533415335816" lon="12.87574357409892"><ele>59.00000000000001</ele><time>2026-04-17T13:11:26.999Z</time></trkpt><trkpt lat="52.98556784621429" lon="12.875892482442936"><ele>59.00000000000001</ele><time>2026-04-17T13:11:27.999Z</time></trkpt><trkpt lat="52.985596297910924" lon="12.876029004934656"><ele>59.0</ele><time>2026-04-17T13:11:28.999Z</time></trkpt><trkpt lat="52.98563619308454" lon="12.876168745223792"><ele>59.0</ele><time>2026-04-17T13:11:29.999Z</time></trkpt><trkpt lat="52.985675321700015" lon="12.87631272972065"><ele>59.2</ele><time>2026-04-17T13:11:30.999Z</time></trkpt><trkpt lat="52.98571182702629" lon="12.876459337248088"><ele>59.400000000000006</ele><time>2026-04-17T13:11:31.999Z</time></trkpt><trkpt lat="52.98575454516346" lon="12.876614645985194"><ele>59.6</ele><time>2026-04-17T13:11:32.999Z</time></trkpt><trkpt lat="52.98579202278513" lon="12.87676922464389"><ele>59.8</ele><time>2026-04-17T13:11:33.999Z</time></trkpt><trkpt lat="52.98582782998104" lon="12.87691899230128"><ele>60.0</ele><time>2026-04-17T13:11:34.999Z</time></trkpt><trkpt lat="52.98586359418765" lon="12.877064754332602"><ele>60.333333333333336</ele><time>2026-04-17T13:11:35.999Z</time></trkpt><trkpt lat="52.98589773157345" lon="12.87719419938745"><ele>60.66666666666667</ele><time>2026-04-17T13:11:36.999Z</time></trkpt><trkpt lat="52.98592341499162" lon="12.877320556987254"><ele>61.0</ele><time>2026-04-17T13:11:37.999Z</time></trkpt><trkpt lat="52.985949715106116" lon="12.87743130676098"><ele>61.333333333333336</ele><time>2026-04-17T13:11:38.999Z</time></trkpt><trkpt lat="52.98597838262337" lon="12.877546694061705"><ele>61.66666666666667</ele><time>2026-04-17T13:11:39.999Z</time></trkpt><trkpt lat="52.98600318288676" lon="12.877673393524592"><ele>62.0</ele><time>2026-04-17T13:11:40.999Z</time></trkpt><trkpt lat="52.98603264114872" lon="12.877814206798405"><ele>62.0</ele><time>2026-04-17T13:11:41.999Z</time></trkpt><trkpt lat="52.986068395046004" lon="12.877959671882909"><ele>62.0</ele><time>2026-04-17T13:11:42.999Z</time></trkpt><trkpt lat="52.98609732653598" lon="12.878103350856648"><ele>62.0</ele><time>2026-04-17T13:11:43.999Z</time></trkpt><trkpt lat="52.98613201640555" lon="12.878248339112028"><ele>62.0</ele><time>2026-04-17T13:11:44.999Z</time></trkpt><trkpt lat="52.986166663752435" lon="12.878394511646373"><ele>62.0</ele><time>2026-04-17T13:11:45.999Z</time></trkpt><trkpt lat="52.98619852350887" lon="12.878542109306947"><ele>62.0</ele><time>2026-04-17T13:11:46.999Z</time></trkpt><trkpt lat="52.9862262086381" lon="12.878686657690023"><ele>62.0</ele><time>2026-04-17T13:11:47.998Z</time></trkpt><trkpt lat="52.98626191835989" lon="12.87884068060019"><ele>62.0</ele><time>2026-04-17T13:11:48.998Z</time></trkpt><trkpt lat="52.986289251195295" lon="12.878996818699099"><ele>62.0</ele><time>2026-04-17T13:11:49.998Z</time></trkpt><trkpt lat="52.98631741105166" lon="12.879149287960884"><ele>62.0</ele><time>2026-04-17T13:11:50.998Z</time></trkpt><trkpt lat="52.986346590627306" lon="12.87929313915655"><ele>62.0</ele><time>2026-04-17T13:11:51.998Z</time></trkpt><trkpt lat="52.98637551343202" lon="12.879439168669705"><ele>62.0</ele><time>2026-04-17T13:11:52.998Z</time></trkpt><trkpt lat="52.986403064400825" lon="12.879578108684864"><ele>62.0</ele><time>2026-04-17T13:11:53.998Z</time></trkpt><trkpt lat="52.9864319547273" lon="12.87972116397845"><ele>62.0</ele><time>2026-04-17T13:11:54.998Z</time></trkpt><trkpt lat="52.98645372182651" lon="12.879868572759552"><ele>62.0</ele><time>2026-04-17T13:11:55.998Z</time></trkpt><trkpt lat="52.98649017424772" lon="12.880018730729374"><ele>62.00000000000001</ele><time>2026-04-17T13:11:56.998Z</time></trkpt><trkpt lat="52.986521120765964" lon="12.880154483070747"><ele>62.0</ele><time>2026-04-17T13:11:57.998Z</time></trkpt><trkpt lat="52.98654165981156" lon="12.880296223623501"><ele>62.0</ele><time>2026-04-17T13:11:58.998Z</time></trkpt><trkpt lat="52.98656927743088" lon="12.880443274016965"><ele>62.0</ele><time>2026-04-17T13:11:59.998Z</time></trkpt><trkpt lat="52.986596024676494" lon="12.880584937291111"><ele>62.00000000000001</ele><time>2026-04-17T13:12:00.998Z</time></trkpt><trkpt lat="52.98663582455209" lon="12.880719936276819"><ele>62.0</ele><time>2026-04-17T13:12:01.998Z</time></trkpt><trkpt lat="52.9866610274051" lon="12.880847295324962"><ele>61.66666666666667</ele><time>2026-04-17T13:12:02.998Z</time></trkpt><trkpt lat="52.98667484274072" lon="12.880985238822719"><ele>61.333333333333336</ele><time>2026-04-17T13:12:03.998Z</time></trkpt><trkpt lat="52.9867081835911" lon="12.881137986797"><ele>61.0</ele><time>2026-04-17T13:12:04.998Z</time></trkpt><trkpt lat="52.98670888310446" lon="12.881265530053977"><ele>60.66666666666667</ele><time>2026-04-17T13:12:05.998Z</time></trkpt><trkpt lat="52.9867232302424" lon="12.881382752784035"><ele>60.333333333333336</ele><time>2026-04-17T13:12:06.998Z</time></trkpt><trkpt lat="52.98676842977793" lon="12.881494649289149"><ele>60.0</ele><time>2026-04-17T13:12:07.998Z</time></trkpt><trkpt lat="52.986808971927445" lon="12.881627231892546"><ele>59.6</ele><time>2026-04-17T13:12:08.998Z</time></trkpt><trkpt lat="52.986859921331266" lon="12.881773514530066"><ele>59.2</ele><time>2026-04-17T13:12:09.998Z</time></trkpt><trkpt lat="52.98688497815973" lon="12.881935164726452"><ele>58.8</ele><time>2026-04-17T13:12:10.998Z</time></trkpt><trkpt lat="52.98690650993721" lon="12.88210422338662"><ele>58.4</ele><time>2026-04-17T13:12:11.998Z</time></trkpt><trkpt lat="52.986945299828456" lon="12.882275316985023"><ele>58.0</ele><time>2026-04-17T13:12:12.998Z</time></trkpt><trkpt lat="52.98697262116867" lon="12.882441313531867"><ele>58.0</ele><time>2026-04-17T13:12:13.998Z</time></trkpt><trkpt lat="52.98699864272356" lon="12.88259697170979"><ele>58.0</ele><time>2026-04-17T13:12:14.998Z</time></trkpt><trkpt lat="52.987030161560796" lon="12.8827515648144"><ele>58.0</ele><time>2026-04-17T13:12:15.998Z</time></trkpt><trkpt lat="52.98705366217895" lon="12.882905523874305"><ele>58.0</ele><time>2026-04-17T13:12:16.998Z</time></trkpt><trkpt lat="52.98708176164633" lon="12.883048973752143"><ele>58.0</ele><time>2026-04-17T13:12:17.998Z</time></trkpt><trkpt lat="52.98711163735269" lon="12.883193763231946"><ele>58.0</ele><time>2026-04-17T13:12:18.998Z</time></trkpt><trkpt lat="52.98713704151306" lon="12.883344587752855"><ele>58.0</ele><time>2026-04-17T13:12:19.998Z</time></trkpt><trkpt lat="52.98716329316222" lon="12.883498673975712"><ele>58.0</ele><time>2026-04-17T13:12:20.998Z</time></trkpt><trkpt lat="52.98719225132898" lon="12.883657620005934"><ele>58.0</ele><time>2026-04-17T13:12:21.998Z</time></trkpt><trkpt lat="52.987224052248955" lon="12.883823400803715"><ele>58.0</ele><time>2026-04-17T13:12:22.998Z</time></trkpt><trkpt lat="52.98725477286266" lon="12.883989358608813"><ele>57.8</ele><time>2026-04-17T13:12:23.998Z</time></trkpt><trkpt lat="52.9872864511643" lon="12.884147277112088"><ele>57.599999999999994</ele><time>2026-04-17T13:12:24.998Z</time></trkpt><trkpt lat="52.98731404672496" lon="12.8842894305093"><ele>57.400000000000006</ele><time>2026-04-17T13:12:25.998Z</time></trkpt><trkpt lat="52.987338532327975" lon="12.884438167843854"><ele>57.2</ele><time>2026-04-17T13:12:26.998Z</time></trkpt><trkpt lat="52.98735702091889" lon="12.884575196650951"><ele>57.0</ele><time>2026-04-17T13:12:27.998Z</time></trkpt><trkpt lat="52.98737465582816" lon="12.884712440330643"><ele>57.0</ele><time>2026-04-17T13:12:29Z</time></trkpt><trkpt lat="52.98739033589804" lon="12.88485383669613"><ele>57.0</ele><time>2026-04-17T13:12:30Z</time></trkpt><trkpt lat="52.98739552771763" lon="12.884989615516636"><ele>57.0</ele><time>2026-04-17T13:12:31Z</time></trkpt><trkpt lat="52.98740213265319" lon="12.885134740959998"><ele>57.0</ele><time>2026-04-17T13:12:32Z</time></trkpt><trkpt lat="52.98742235511503" lon="12.885281703023395"><ele>57.0</ele><time>2026-04-17T13:12:33Z</time></trkpt><trkpt lat="52.98745003924692" lon="12.885424902149609"><ele>57.0</ele><time>2026-04-17T13:12:34Z</time></trkpt><trkpt lat="52.98748437240093" lon="12.885580704380587"><ele>57.0</ele><time>2026-04-17T13:12:35Z</time></trkpt><trkpt lat="52.98751618960549" lon="12.885742258889792"><ele>57.0</ele><time>2026-04-17T13:12:36Z</time></trkpt><trkpt lat="52.9875398929922" lon="12.885892373118825"><ele>57.0</ele><time>2026-04-17T13:12:37Z</time></trkpt><trkpt lat="52.98755055316282" lon="12.886035972693614"><ele>57.0</ele><time>2026-04-17T13:12:38Z</time></trkpt><trkpt lat="52.98757289137137" lon="12.886179840958802"><ele>57.0</ele><time>2026-04-17T13:12:39Z</time></trkpt><trkpt lat="52.98760640491915" lon="12.886327934945106"><ele>57.2</ele><time>2026-04-17T13:12:40Z</time></trkpt><trkpt lat="52.98764769316513" lon="12.886490624845854"><ele>57.400000000000006</ele><time>2026-04-17T13:12:41Z</time></trkpt><trkpt lat="52.98768656343909" lon="12.886661441376015"><ele>57.599999999999994</ele><time>2026-04-17T13:12:42Z</time></trkpt><trkpt lat="52.98772823904917" lon="12.88682581549946"><ele>57.8</ele><time>2026-04-17T13:12:43Z</time></trkpt><trkpt lat="52.987779724494764" lon="12.886973159325924"><ele>58.0</ele><time>2026-04-17T13:12:44Z</time></trkpt><trkpt lat="52.9878198802773" lon="12.887111792909563"><ele>58.0</ele><time>2026-04-17T13:12:45Z</time></trkpt><trkpt lat="52.987855703426476" lon="12.887251942079144"><ele>58.0</ele><time>2026-04-17T13:12:46Z</time></trkpt><trkpt lat="52.98788018577336" lon="12.887401251879162"><ele>58.0</ele><time>2026-04-17T13:12:47Z</time></trkpt><trkpt lat="52.98789255822446" lon="12.887548772669266"><ele>58.0</ele><time>2026-04-17T13:12:48Z</time></trkpt><trkpt lat="52.987910283164716" lon="12.887705570487364"><ele>58.0</ele><time>2026-04-17T13:12:49Z</time></trkpt><trkpt lat="52.98792840527625" lon="12.887872157702894"><ele>58.0</ele><time>2026-04-17T13:12:50Z</time></trkpt><trkpt lat="52.9879523759946" lon="12.888041027793578"><ele>58.0</ele><time>2026-04-17T13:12:51Z</time></trkpt><trkpt lat="52.98797547683919" lon="12.888206787424886"><ele>58.0</ele><time>2026-04-17T13:12:52Z</time></trkpt><trkpt lat="52.9879810920518" lon="12.888353662995996"><ele>58.0</ele><time>2026-04-17T13:12:53Z</time></trkpt><trkpt lat="52.987994904520086" lon="12.888504341587018"><ele>58.0</ele><time>2026-04-17T13:12:54Z</time></trkpt><trkpt lat="52.98801287197686" lon="12.888665368303002"><ele>58.0</ele><time>2026-04-17T13:12:55Z</time></trkpt><trkpt lat="52.98803396875715" lon="12.888830191242043"><ele>58.0</ele><time>2026-04-17T13:12:56Z</time></trkpt><trkpt lat="52.988055877802765" lon="12.888990616760857"><ele>58.0</ele><time>2026-04-17T13:12:57Z</time></trkpt><trkpt lat="52.98808285761307" lon="12.889159413566658"><ele>58.0</ele><time>2026-04-17T13:12:58Z</time></trkpt><trkpt lat="52.98810715645541" lon="12.889324468031996"><ele>58.0</ele><time>2026-04-17T13:12:59Z</time></trkpt><trkpt lat="52.98812926785076" lon="12.889500329066601"><ele>58.0</ele><time>2026-04-17T13:13:00Z</time></trkpt><trkpt lat="52.988157537263675" lon="12.889663964554419"><ele>58.0</ele><time>2026-04-17T13:13:01Z</time></trkpt><trkpt lat="52.98818797250781" lon="12.889830516761194"><ele>58.0</ele><time>2026-04-17T13:13:02Z</time></trkpt><trkpt lat="52.98821386516104" lon="12.88999636597006"><ele>58.0</ele><time>2026-04-17T13:13:03Z</time></trkpt><trkpt lat="52.9882465435694" lon="12.890176760930055"><ele>58.0</ele><time>2026-04-17T13:13:04Z</time></trkpt><trkpt lat="52.988258876500595" lon="12.890330946478537"><ele>58.0</ele><time>2026-04-17T13:13:05Z</time></trkpt><trkpt lat="52.98828256183907" lon="12.890489520490906"><ele>58.0</ele><time>2026-04-17T13:13:06Z</time></trkpt><trkpt lat="52.988311049635406" lon="12.890657385430151"><ele>58.0</ele><time>2026-04-17T13:13:07Z</time></trkpt><trkpt lat="52.98834951637499" lon="12.890815430483096"><ele>58.0</ele><time>2026-04-17T13:13:08Z</time></trkpt><trkpt lat="52.98837479362471" lon="12.890975647945055"><ele>58.0</ele><time>2026-04-17T13:13:08.999Z</time></trkpt><trkpt lat="52.98839408531435" lon="12.891138241520066"><ele>58.4</ele><time>2026-04-17T13:13:09.999Z</time></trkpt><trkpt lat="52.98841167047493" lon="12.891312796670757"><ele>58.8</ele><time>2026-04-17T13:13:10.999Z</time></trkpt><trkpt lat="52.9884331275572" lon="12.89147211162334"><ele>59.2</ele><time>2026-04-17T13:13:11.999Z</time></trkpt><trkpt lat="52.98845546151417" lon="12.891636802097917"><ele>59.6</ele><time>2026-04-17T13:13:12.999Z</time></trkpt><trkpt lat="52.98847919443418" lon="12.891794910505327"><ele>60.0</ele><time>2026-04-17T13:13:13.999Z</time></trkpt><trkpt lat="52.98850626674686" lon="12.891965991800896"><ele>59.8</ele><time>2026-04-17T13:13:14.999Z</time></trkpt><trkpt lat="52.988534567098604" lon="12.89212870674696"><ele>59.6</ele><time>2026-04-17T13:13:15.999Z</time></trkpt><trkpt lat="52.98856051685083" lon="12.892298036366618"><ele>59.400000000000006</ele><time>2026-04-17T13:13:16.999Z</time></trkpt><trkpt lat="52.9885856984368" lon="12.8924687381703"><ele>59.2</ele><time>2026-04-17T13:13:17.999Z</time></trkpt><trkpt lat="52.98861059226193" lon="12.892634337436391"><ele>59.0</ele><time>2026-04-17T13:13:18.999Z</time></trkpt><trkpt lat="52.988646944642696" lon="12.892798034132902"><ele>59.0</ele><time>2026-04-17T13:13:19.999Z</time></trkpt><trkpt lat="52.988682049646435" lon="12.892947651153012"><ele>59.00000000000001</ele><time>2026-04-17T13:13:20.999Z</time></trkpt><trkpt lat="52.988714137508644" lon="12.893107379954225"><ele>59.00000000000001</ele><time>2026-04-17T13:13:21.999Z</time></trkpt><trkpt lat="52.98874110487747" lon="12.893268116530276"><ele>59.0</ele><time>2026-04-17T13:13:22.999Z</time></trkpt><trkpt lat="52.98875373222288" lon="12.893437799416143"><ele>59.0</ele><time>2026-04-17T13:13:23.999Z</time></trkpt><trkpt lat="52.9887834852421" lon="12.893610615028217"><ele>57.25</ele><time>2026-04-17T13:13:24.999Z</time></trkpt><trkpt lat="52.98881735566558" lon="12.893778282163897"><ele>55.5</ele><time>2026-04-17T13:13:25.999Z</time></trkpt><trkpt lat="52.98885312309605" lon="12.89396737193609"><ele>53.75</ele><time>2026-04-17T13:13:26.999Z</time></trkpt><trkpt lat="52.98888947005259" lon="12.894162547588381"><ele>52.0</ele><time>2026-04-17T13:13:27.999Z</time></trkpt><trkpt lat="52.988919534946525" lon="12.8943527209025"><ele>51.25</ele><time>2026-04-17T13:13:28.999Z</time></trkpt><trkpt lat="52.98894307672617" lon="12.894540594234496"><ele>50.5</ele><time>2026-04-17T13:13:29.999Z</time></trkpt><trkpt lat="52.98897414955607" lon="12.89473473994416"><ele>49.75</ele><time>2026-04-17T13:13:30.999Z</time></trkpt><trkpt lat="52.98899470392072" lon="12.894919335317393"><ele>49.0</ele><time>2026-04-17T13:13:31.999Z</time></trkpt><trkpt lat="52.989018459803596" lon="12.895097183167435"><ele>49.0</ele><time>2026-04-17T13:13:32.999Z</time></trkpt><trkpt lat="52.98904251700633" lon="12.895261411906958"><ele>49.0</ele><time>2026-04-17T13:13:33.999Z</time></trkpt><trkpt lat="52.98907962098415" lon="12.895397496907043"><ele>49.0</ele><time>2026-04-17T13:13:34.999Z</time></trkpt><trkpt lat="52.98911872345527" lon="12.895542786354593"><ele>49.0</ele><time>2026-04-17T13:13:35.999Z</time></trkpt><trkpt lat="52.98915344385039" lon="12.895700706466238"><ele>49.0</ele><time>2026-04-17T13:13:36.999Z</time></trkpt><trkpt lat="52.98919057300876" lon="12.89585888214966"><ele>47.400000000000006</ele><time>2026-04-17T13:13:37.999Z</time></trkpt><trkpt lat="52.98922946862597" lon="12.896017778879711"><ele>45.8</ele><time>2026-04-17T13:13:38.999Z</time></trkpt><trkpt lat="52.989266245612214" lon="12.89617941292357"><ele>44.2</ele><time>2026-04-17T13:13:39.999Z</time></trkpt><trkpt lat="52.98929619708726" lon="12.896364330080825"><ele>42.599999999999994</ele><time>2026-04-17T13:13:40.999Z</time></trkpt><trkpt lat="52.98934335205706" lon="12.89651719587337"><ele>41.0</ele><time>2026-04-17T13:13:41.999Z</time></trkpt><trkpt lat="52.98938229674183" lon="12.896671336117114"><ele>40.83333333333333</ele><time>2026-04-17T13:13:42.999Z</time></trkpt><trkpt lat="52.989413113766666" lon="12.896817230529871"><ele>40.666666666666664</ele><time>2026-04-17T13:13:43.999Z</time></trkpt><trkpt lat="52.98943401265282" lon="12.89695182635074"><ele>40.5</ele><time>2026-04-17T13:13:44.999Z</time></trkpt><trkpt lat="52.98944250223378" lon="12.897065949383503"><ele>40.333333333333336</ele><time>2026-04-17T13:13:45.999Z</time></trkpt><trkpt lat="52.98941723084652" lon="12.897196761115445"><ele>40.16666666666667</ele><time>2026-04-17T13:13:47.999Z</time></trkpt><trkpt lat="52.989366176275915" lon="12.897284456780357"><ele>40.0</ele><time>2026-04-17T13:13:49.999Z</time></trkpt><trkpt lat="52.98939109290489" lon="12.897431011095522"><ele>40.0</ele><time>2026-04-17T13:13:53.999Z</time></trkpt><trkpt lat="52.98945613675609" lon="12.897516551795961"><ele>40.0</ele><time>2026-04-17T13:13:54.998Z</time></trkpt><trkpt lat="52.98954603256768" lon="12.897585519575127"><ele>40.0</ele><time>2026-04-17T13:13:55.998Z</time></trkpt><trkpt lat="52.98962965374719" lon="12.897640127873869"><ele>40.0</ele><time>2026-04-17T13:13:56.998Z</time></trkpt><trkpt lat="52.98972278401314" lon="12.89770726354851"><ele>40.0</ele><time>2026-04-17T13:13:57.998Z</time></trkpt><trkpt lat="52.989822642153406" lon="12.897795384926203"><ele>40.0</ele><time>2026-04-17T13:13:58.998Z</time></trkpt><trkpt lat="52.989935819827124" lon="12.897892605106966"><ele>40.0</ele><time>2026-04-17T13:13:59.998Z</time></trkpt><trkpt lat="52.99003937896587" lon="12.897985335167897"><ele>40.0</ele><time>2026-04-17T13:14:00.998Z</time></trkpt><trkpt lat="52.99014707356711" lon="12.898077778218845"><ele>40.0</ele><time>2026-04-17T13:14:01.998Z</time></trkpt><trkpt lat="52.990266170332795" lon="12.898180408770795"><ele>40.0</ele><time>2026-04-17T13:14:02.998Z</time></trkpt><trkpt lat="52.990396644064774" lon="12.898286237807362"><ele>40.0</ele><time>2026-04-17T13:14:03.998Z</time></trkpt><trkpt lat="52.99053620935531" lon="12.898395011515824"><ele>40.0</ele><time>2026-04-17T13:14:04.998Z</time></trkpt><trkpt lat="52.99068369030771" lon="12.898519025831572"><ele>40.0</ele><time>2026-04-17T13:14:05.998Z</time></trkpt><trkpt lat="52.990830491913876" lon="12.898644897620535"><ele>40.0</ele><time>2026-04-17T13:14:06.998Z</time></trkpt><trkpt lat="52.99097778255886" lon="12.898770992691375"><ele>40.0</ele><time>2026-04-17T13:14:07.998Z</time></trkpt><trkpt lat="52.99113835392538" lon="12.89889178705705"><ele>40.0</ele><time>2026-04-17T13:14:08.998Z</time></trkpt><trkpt lat="52.99129920104905" lon="12.899019276726811"><ele>40.0</ele><time>2026-04-17T13:14:09.998Z</time></trkpt><trkpt lat="52.99145664042331" lon="12.899139701598317"><ele>40.0</ele><time>2026-04-17T13:14:10.998Z</time></trkpt><trkpt lat="52.9916266138069" lon="12.899259430808462"><ele>41.333333333333336</ele><time>2026-04-17T13:14:11.998Z</time></trkpt><trkpt lat="52.991789323590524" lon="12.899367460642281"><ele>42.666666666666664</ele><time>2026-04-17T13:14:12.998Z</time></trkpt><trkpt lat="52.99194537567307" lon="12.899458444866449"><ele>44.0</ele><time>2026-04-17T13:14:13.998Z</time></trkpt><trkpt lat="52.99210059912068" lon="12.899556024920027"><ele>44.0</ele><time>2026-04-17T13:14:14.998Z</time></trkpt><trkpt lat="52.99224509384781" lon="12.899642826324092"><ele>44.0</ele><time>2026-04-17T13:14:15.998Z</time></trkpt><trkpt lat="52.99242285881031" lon="12.89975618770357"><ele>44.0</ele><time>2026-04-17T13:14:16.998Z</time></trkpt><trkpt lat="52.992562431644004" lon="12.899841374474011"><ele>44.5</ele><time>2026-04-17T13:14:17.998Z</time></trkpt><trkpt lat="52.992695409230784" lon="12.899920037197141"><ele>45.0</ele><time>2026-04-17T13:14:18.998Z</time></trkpt><trkpt lat="52.99281683653021" lon="12.90000595860339"><ele>45.5</ele><time>2026-04-17T13:14:19.998Z</time></trkpt><trkpt lat="52.99292502364474" lon="12.900110979636233"><ele>46.0</ele><time>2026-04-17T13:14:20.998Z</time></trkpt><trkpt lat="52.99300507812326" lon="12.900270529031328"><ele>46.0</ele><time>2026-04-17T13:14:21.998Z</time></trkpt><trkpt lat="52.99309505366621" lon="12.900433587906912"><ele>46.0</ele><time>2026-04-17T13:14:22.998Z</time></trkpt><trkpt lat="52.9931279490087" lon="12.900639678454125"><ele>46.0</ele><time>2026-04-17T13:14:23.998Z</time></trkpt><trkpt lat="52.993174183600175" lon="12.900863145891691"><ele>46.0</ele><time>2026-04-17T13:14:24.998Z</time></trkpt><trkpt lat="52.99320943852112" lon="12.901085584186813"><ele>46.0</ele><time>2026-04-17T13:14:25.998Z</time></trkpt><trkpt lat="52.99324487622593" lon="12.901322455547783"><ele>46.0</ele><time>2026-04-17T13:14:26.998Z</time></trkpt><trkpt lat="52.99328163959824" lon="12.901557867349835"><ele>46.0</ele><time>2026-04-17T13:14:27.998Z</time></trkpt><trkpt lat="52.99333430085723" lon="12.901769816033024"><ele>46.0</ele><time>2026-04-17T13:14:28.998Z</time></trkpt><trkpt lat="52.99336763032172" lon="12.901979271970426"><ele>45.5</ele><time>2026-04-17T13:14:29.998Z</time></trkpt><trkpt lat="52.99341713869241" lon="12.902160765115328"><ele>45.0</ele><time>2026-04-17T13:14:30.998Z</time></trkpt><trkpt lat="52.99349023305005" lon="12.90231262925165"><ele>44.5</ele><time>2026-04-17T13:14:31.998Z</time></trkpt><trkpt lat="52.99357481521723" lon="12.902453115743427"><ele>44.0</ele><time>2026-04-17T13:14:32.998Z</time></trkpt><trkpt lat="52.99366604658127" lon="12.902584228746681"><ele>45.5</ele><time>2026-04-17T13:14:33.998Z</time></trkpt><trkpt lat="52.993772498271206" lon="12.902700170801964"><ele>47.0</ele><time>2026-04-17T13:14:35Z</time></trkpt><trkpt lat="52.993868852499304" lon="12.902821663423842"><ele>48.5</ele><time>2026-04-17T13:14:36Z</time></trkpt><trkpt lat="52.993973457195175" lon="12.902937075458714"><ele>50.0</ele><time>2026-04-17T13:14:37Z</time></trkpt><trkpt lat="52.994075936649345" lon="12.903046522093879"><ele>49.75</ele><time>2026-04-17T13:14:38Z</time></trkpt><trkpt lat="52.99418056635343" lon="12.903166231546866"><ele>49.5</ele><time>2026-04-17T13:14:39Z</time></trkpt><trkpt lat="52.99428413694634" lon="12.903292306140123"><ele>49.25</ele><time>2026-04-17T13:14:40Z</time></trkpt><trkpt lat="52.994390947860666" lon="12.90340652770029"><ele>49.0</ele><time>2026-04-17T13:14:41Z</time></trkpt><trkpt lat="52.994494120710904" lon="12.903513269577696"><ele>49.666666666666664</ele><time>2026-04-17T13:14:42Z</time></trkpt><trkpt lat="52.994583388321935" lon="12.903614481518535"><ele>50.33333333333333</ele><time>2026-04-17T13:14:43Z</time></trkpt><trkpt lat="52.99465809819602" lon="12.903715717987783"><ele>51.0</ele><time>2026-04-17T13:14:44Z</time></trkpt><trkpt lat="52.99471995587162" lon="12.90378902483465"><ele>51.66666666666667</ele><time>2026-04-17T13:14:45Z</time></trkpt><trkpt lat="52.99477021057484" lon="12.90385467210651"><ele>52.333333333333336</ele><time>2026-04-17T13:14:47Z</time></trkpt><trkpt lat="52.99471097766728" lon="12.90378146015879"><ele>53.0</ele><time>2026-04-17T13:14:51Z</time></trkpt><trkpt lat="52.994600632596516" lon="12.9036450735609"><ele>53.0</ele><time>2026-04-17T13:14:53Z</time></trkpt><trkpt lat="52.99452278311684" lon="12.903570734723738"><ele>53.0</ele><time>2026-04-17T13:14:54Z</time></trkpt><trkpt lat="52.994443929606376" lon="12.90347555756113"><ele>53.0</ele><time>2026-04-17T13:14:55Z</time></trkpt><trkpt lat="52.99434817414828" lon="12.90337070810607"><ele>53.0</ele><time>2026-04-17T13:14:56Z</time></trkpt><trkpt lat="52.99424183285801" lon="12.903251346831633"><ele>53.0</ele><time>2026-04-17T13:14:57Z</time></trkpt><trkpt lat="52.994133724816095" lon="12.903130002400747"><ele>52.25</ele><time>2026-04-17T13:14:58Z</time></trkpt><trkpt lat="52.99402268174015" lon="12.90300536356625"><ele>51.5</ele><time>2026-04-17T13:14:59Z</time></trkpt><trkpt lat="52.99390672101162" lon="12.902875205046605"><ele>50.75</ele><time>2026-04-17T13:15:00Z</time></trkpt><trkpt lat="52.993804058495805" lon="12.902752859177802"><ele>50.0</ele><time>2026-04-17T13:15:01Z</time></trkpt><trkpt lat="52.99370469947204" lon="12.902638820085752"><ele>48.8</ele><time>2026-04-17T13:15:02Z</time></trkpt><trkpt lat="52.99361512532132" lon="12.902526204159235"><ele>47.6</ele><time>2026-04-17T13:15:03Z</time></trkpt><trkpt lat="52.99353659999297" lon="12.902432969063799"><ele>46.400000000000006</ele><time>2026-04-17T13:15:04Z</time></trkpt><trkpt lat="52.99348911157381" lon="12.902348021646734"><ele>45.2</ele><time>2026-04-17T13:15:05Z</time></trkpt><trkpt lat="52.99342744940817" lon="12.902233463968669"><ele>44.0</ele><time>2026-04-17T13:15:07Z</time></trkpt><trkpt lat="52.993360652558344" lon="12.902331103053285"><ele>44.6</ele><time>2026-04-17T13:15:08.999Z</time></trkpt><trkpt lat="52.99333722127772" lon="12.902536171577516"><ele>45.2</ele><time>2026-04-17T13:15:10.999Z</time></trkpt><trkpt lat="52.99334113075988" lon="12.902667388995411"><ele>45.800000000000004</ele><time>2026-04-17T13:15:11.999Z</time></trkpt><trkpt lat="52.99334049147659" lon="12.902808279072126"><ele>46.400000000000006</ele><time>2026-04-17T13:15:12.999Z</time></trkpt><trkpt lat="52.99333668747499" lon="12.902955460196978"><ele>47.0</ele><time>2026-04-17T13:15:13.999Z</time></trkpt><trkpt lat="52.99333176283931" lon="12.903107342353634"><ele>47.0</ele><time>2026-04-17T13:15:14.999Z</time></trkpt><trkpt lat="52.993327448454885" lon="12.903264173583217"><ele>47.0</ele><time>2026-04-17T13:15:15.999Z</time></trkpt><trkpt lat="52.99331895737516" lon="12.90342341402029"><ele>47.0</ele><time>2026-04-17T13:15:16.999Z</time></trkpt><trkpt lat="52.993310410131265" lon="12.903583621339953"><ele>47.0</ele><time>2026-04-17T13:15:17.999Z</time></trkpt><trkpt lat="52.99329808027386" lon="12.903892887073042"><ele>47.0</ele><time>2026-04-17T13:15:19.999Z</time></trkpt><trkpt lat="52.99329443556676" lon="12.904045734624017"><ele>47.0</ele><time>2026-04-17T13:15:20.999Z</time></trkpt><trkpt lat="52.99329156197126" lon="12.904193280908691"><ele>47.0</ele><time>2026-04-17T13:15:21.999Z</time></trkpt><trkpt lat="52.99328689670334" lon="12.904343474011114"><ele>47.0</ele><time>2026-04-17T13:15:22.999Z</time></trkpt><trkpt lat="52.99328255039134" lon="12.904492853484559"><ele>47.0</ele><time>2026-04-17T13:15:23.999Z</time></trkpt><trkpt lat="52.99327854086858" lon="12.904648947215694"><ele>46.8</ele><time>2026-04-17T13:15:24.999Z</time></trkpt><trkpt lat="52.993274376379354" lon="12.904811489962169"><ele>46.6</ele><time>2026-04-17T13:15:25.999Z</time></trkpt><trkpt lat="52.99326884457184" lon="12.90497468229306"><ele>46.4</ele><time>2026-04-17T13:15:26.999Z</time></trkpt><trkpt lat="52.9932620401428" lon="12.905145986472997"><ele>46.199999999999996</ele><time>2026-04-17T13:15:27.999Z</time></trkpt><trkpt lat="52.993255349521775" lon="12.905339182680192"><ele>46.0</ele><time>2026-04-17T13:15:28.999Z</time></trkpt><trkpt lat="52.99324562468625" lon="12.905532487098228"><ele>46.75</ele><time>2026-04-17T13:15:29.999Z</time></trkpt><trkpt lat="52.99322312514004" lon="12.905730686176069"><ele>47.5</ele><time>2026-04-17T13:15:30.999Z</time></trkpt><trkpt lat="52.99322957331509" lon="12.905927962007311"><ele>48.25</ele><time>2026-04-17T13:15:31.999Z</time></trkpt><trkpt lat="52.9932036392317" lon="12.906115035144634"><ele>49.0</ele><time>2026-04-17T13:15:32.999Z</time></trkpt><trkpt lat="52.993207960999676" lon="12.906300620430583"><ele>49.5</ele><time>2026-04-17T13:15:33.999Z</time></trkpt><trkpt lat="52.99318666867522" lon="12.906484066308474"><ele>50.0</ele><time>2026-04-17T13:15:34.999Z</time></trkpt><trkpt lat="52.99319421488183" lon="12.906680738803074"><ele>50.5</ele><time>2026-04-17T13:15:35.999Z</time></trkpt><trkpt lat="52.99318611757259" lon="12.906877046321894"><ele>51.0</ele><time>2026-04-17T13:15:36.999Z</time></trkpt><trkpt lat="52.99317843647994" lon="12.907056235294446"><ele>51.166666666666664</ele><time>2026-04-17T13:15:37.999Z</time></trkpt><trkpt lat="52.99317063737093" lon="12.907222967142278"><ele>51.33333333333333</ele><time>2026-04-17T13:15:38.999Z</time></trkpt><trkpt lat="52.99316495609261" lon="12.907366726375125"><ele>51.5</ele><time>2026-04-17T13:15:39.999Z</time></trkpt><trkpt lat="52.99316219997777" lon="12.907493613393665"><ele>51.666666666666664</ele><time>2026-04-17T13:15:40.999Z</time></trkpt><trkpt lat="52.99314500991781" lon="12.907607437119717"><ele>51.83333333333333</ele><time>2026-04-17T13:15:41.999Z</time></trkpt><trkpt lat="52.993135344867845" lon="12.907716121065867"><ele>52.0</ele><time>2026-04-17T13:15:42.999Z</time></trkpt><trkpt lat="52.99313522072302" lon="12.907851796062577"><ele>51.99999999999999</ele><time>2026-04-17T13:15:43.999Z</time></trkpt><trkpt lat="52.9931307533657" lon="12.907999904984049"><ele>52.0</ele><time>2026-04-17T13:15:44.999Z</time></trkpt><trkpt lat="52.99312292572197" lon="12.908162101605614"><ele>52.0</ele><time>2026-04-17T13:15:45.999Z</time></trkpt><trkpt lat="52.99312231917846" lon="12.908297572722237"><ele>52.0</ele><time>2026-04-17T13:15:46.999Z</time></trkpt><trkpt lat="52.993117243888086" lon="12.9084357596521"><ele>51.99999999999999</ele><time>2026-04-17T13:15:47.999Z</time></trkpt><trkpt lat="52.99310946185914" lon="12.908573563091364"><ele>52.0</ele><time>2026-04-17T13:15:48.999Z</time></trkpt><trkpt lat="52.99310383853471" lon="12.908715990314061"><ele>52.400000000000006</ele><time>2026-04-17T13:15:49.999Z</time></trkpt><trkpt lat="52.99308540939392" lon="12.90886476819105"><ele>52.800000000000004</ele><time>2026-04-17T13:15:50.999Z</time></trkpt><trkpt lat="52.99307702045097" lon="12.909025495566095"><ele>53.2</ele><time>2026-04-17T13:15:51.999Z</time></trkpt><trkpt lat="52.99308334486506" lon="12.909188204283565"><ele>53.6</ele><time>2026-04-17T13:15:52.999Z</time></trkpt><trkpt lat="52.99305621420622" lon="12.909345106308338"><ele>54.0</ele><time>2026-04-17T13:15:53.998Z</time></trkpt><trkpt lat="52.993045424819876" lon="12.909501233286791"><ele>54.0</ele><time>2026-04-17T13:15:54.998Z</time></trkpt><trkpt lat="52.99305340717995" lon="12.909625164759275"><ele>54.0</ele><time>2026-04-17T13:15:55.998Z</time></trkpt><trkpt lat="52.99304541575525" lon="12.909729907228218"><ele>54.0</ele><time>2026-04-17T13:15:57.998Z</time></trkpt><trkpt lat="52.9930339210091" lon="12.909862046789543"><ele>54.0</ele><time>2026-04-17T13:16:00.998Z</time></trkpt><trkpt lat="52.99301238247417" lon="12.910034029438975"><ele>54.0</ele><time>2026-04-17T13:16:02.998Z</time></trkpt><trkpt lat="52.99302102318856" lon="12.910154050425955"><ele>54.0</ele><time>2026-04-17T13:16:03.998Z</time></trkpt><trkpt lat="52.99299906280958" lon="12.910274944255285"><ele>53.333333333333336</ele><time>2026-04-17T13:16:04.998Z</time></trkpt><trkpt lat="52.99299310452277" lon="12.910382712692504"><ele>52.66666666666667</ele><time>2026-04-17T13:16:05.998Z</time></trkpt><trkpt lat="52.99299692488963" lon="12.910544340692397"><ele>52.0</ele><time>2026-04-17T13:16:07.998Z</time></trkpt><trkpt lat="52.99299250768907" lon="12.910745178228872"><ele>51.333333333333336</ele><time>2026-04-17T13:16:09.998Z</time></trkpt><trkpt lat="52.99299203005977" lon="12.910865079833247"><ele>50.66666666666667</ele><time>2026-04-17T13:16:10.998Z</time></trkpt><trkpt lat="52.99298275821564" lon="12.910988136541073"><ele>50.0</ele><time>2026-04-17T13:16:11.998Z</time></trkpt><trkpt lat="52.992978958561174" lon="12.911113016014351"><ele>50.00000000000001</ele><time>2026-04-17T13:16:12.998Z</time></trkpt><trkpt lat="52.99298785665796" lon="12.911226351358899"><ele>50.0</ele><time>2026-04-17T13:16:13.998Z</time></trkpt><trkpt lat="52.992966279979704" lon="12.911336086300174"><ele>50.0</ele><time>2026-04-17T13:16:14.998Z</time></trkpt><trkpt lat="52.99296881204511" lon="12.911493777575966"><ele>50.0</ele><time>2026-04-17T13:16:16.998Z</time></trkpt><trkpt lat="52.99295273681385" lon="12.91159534873956"><ele>50.00000000000001</ele><time>2026-04-17T13:16:17.998Z</time></trkpt><trkpt lat="52.99295846784948" lon="12.911705682284918"><ele>50.0</ele><time>2026-04-17T13:16:18.998Z</time></trkpt><trkpt lat="52.9929534184895" lon="12.91193030632834"><ele>50.00000000000001</ele><time>2026-04-17T13:16:20.998Z</time></trkpt><trkpt lat="52.99295104839345" lon="12.912052544262476"><ele>50.0</ele><time>2026-04-17T13:16:21.998Z</time></trkpt><trkpt lat="52.992947400511575" lon="12.912183642466385"><ele>50.0</ele><time>2026-04-17T13:16:22.998Z</time></trkpt><trkpt lat="52.9929446188329" lon="12.912317075035864"><ele>50.0</ele><time>2026-04-17T13:16:23.998Z</time></trkpt><trkpt lat="52.99293860660027" lon="12.912435025245241"><ele>50.00000000000001</ele><time>2026-04-17T13:16:24.998Z</time></trkpt><trkpt lat="52.99293429650756" lon="12.912564814091423"><ele>50.0</ele><time>2026-04-17T13:16:25.998Z</time></trkpt><trkpt lat="52.992929452045516" lon="12.912697246225347"><ele>50.42857142857143</ele><time>2026-04-17T13:16:26.998Z</time></trkpt><trkpt lat="52.99292604483317" lon="12.91280236801894"><ele>50.85714285714286</ele><time>2026-04-17T13:16:27.998Z</time></trkpt><trkpt lat="52.992923749904364" lon="12.912912075900634"><ele>51.28571428571429</ele><time>2026-04-17T13:16:28.998Z</time></trkpt><trkpt lat="52.99291577747336" lon="12.913025126799672"><ele>51.714285714285715</ele><time>2026-04-17T13:16:29.998Z</time></trkpt><trkpt lat="52.9929081001566" lon="12.913160861184013"><ele>52.14285714285714</ele><time>2026-04-17T13:16:30.998Z</time></trkpt><trkpt lat="52.99290084789731" lon="12.913297089615964"><ele>52.57142857142858</ele><time>2026-04-17T13:16:31.998Z</time></trkpt><trkpt lat="52.992894187833684" lon="12.913417489226775"><ele>53.0</ele><time>2026-04-17T13:16:32.998Z</time></trkpt><trkpt lat="52.99288881228837" lon="12.91352565387137"><ele>53.599999999999994</ele><time>2026-04-17T13:16:33.998Z</time></trkpt><trkpt lat="52.99288642783253" lon="12.913637493979506"><ele>54.199999999999996</ele><time>2026-04-17T13:16:34.998Z</time></trkpt><trkpt lat="52.99289520059908" lon="12.91375027962812"><ele>54.8</ele><time>2026-04-17T13:16:35.998Z</time></trkpt><trkpt lat="52.992875062078504" lon="12.913943722509"><ele>55.4</ele><time>2026-04-17T13:16:37.998Z</time></trkpt><trkpt lat="52.99288117095179" lon="12.914109618033539"><ele>56.0</ele><time>2026-04-17T13:16:39.997Z</time></trkpt><trkpt lat="52.992864558171775" lon="12.914339139229249"><ele>56.333333333333336</ele><time>2026-04-17T13:16:42Z</time></trkpt><trkpt lat="52.99285911007839" lon="12.914463264415392"><ele>56.66666666666667</ele><time>2026-04-17T13:16:43Z</time></trkpt><trkpt lat="52.992855446537355" lon="12.914593668249799"><ele>57.0</ele><time>2026-04-17T13:16:44Z</time></trkpt><trkpt lat="52.992850474693505" lon="12.914728880304578"><ele>57.33333333333333</ele><time>2026-04-17T13:16:45Z</time></trkpt><trkpt lat="52.992848403372605" lon="12.914868822177661"><ele>57.666666666666664</ele><time>2026-04-17T13:16:46Z</time></trkpt><trkpt lat="52.99282796752286" lon="12.915006250656186"><ele>58.0</ele><time>2026-04-17T13:16:47Z</time></trkpt><trkpt lat="52.992840301251675" lon="12.915146945389518"><ele>58.14285714285715</ele><time>2026-04-17T13:16:48Z</time></trkpt><trkpt lat="52.99284028665025" lon="12.915277654045687"><ele>58.28571428571429</ele><time>2026-04-17T13:16:49Z</time></trkpt><trkpt lat="52.99285081946118" lon="12.915398946960035"><ele>58.42857142857143</ele><time>2026-04-17T13:16:50Z</time></trkpt><trkpt lat="52.99287204918825" lon="12.915515417487853"><ele>58.57142857142858</ele><time>2026-04-17T13:16:51Z</time></trkpt><trkpt lat="52.992886023137594" lon="12.915631393908772"><ele>58.71428571428572</ele><time>2026-04-17T13:16:52Z</time></trkpt><trkpt lat="52.992896805850705" lon="12.915740783351122"><ele>58.857142857142854</ele><time>2026-04-17T13:16:53Z</time></trkpt><trkpt lat="52.99291153639469" lon="12.915852656814268"><ele>59.0</ele><time>2026-04-17T13:16:54Z</time></trkpt><trkpt lat="52.99292466367842" lon="12.91596065012013"><ele>59.400000000000006</ele><time>2026-04-17T13:16:55Z</time></trkpt><trkpt lat="52.99294390762853" lon="12.91611159971654"><ele>59.800000000000004</ele><time>2026-04-17T13:16:57Z</time></trkpt><trkpt lat="52.992960275896245" lon="12.916269651909586"><ele>60.199999999999996</ele><time>2026-04-17T13:17:00Z</time></trkpt><trkpt lat="52.99298188999674" lon="12.916453066864012"><ele>60.599999999999994</ele><time>2026-04-17T13:17:02Z</time></trkpt><trkpt lat="52.99298157316892" lon="12.916566311862491"><ele>61.0</ele><time>2026-04-17T13:17:03Z</time></trkpt><trkpt lat="52.99300063601464" lon="12.916738003994768"><ele>61.0</ele><time>2026-04-17T13:17:05Z</time></trkpt><trkpt lat="52.993130602470515" lon="12.916767472210681"><ele>60.99999999999999</ele><time>2026-04-17T13:17:09Z</time></trkpt><trkpt lat="52.99320796189573" lon="12.91665160499255"><ele>60.99999999999999</ele><time>2026-04-17T13:17:11Z</time></trkpt><trkpt lat="52.99324749762971" lon="12.916555372894168"><ele>61.0</ele><time>2026-04-17T13:17:12Z</time></trkpt><trkpt lat="52.99331225146757" lon="12.9164709113164"><ele>61.0</ele><time>2026-04-17T13:17:13Z</time></trkpt><trkpt lat="52.99338434738872" lon="12.916364935847207"><ele>61.199999999999996</ele><time>2026-04-17T13:17:14Z</time></trkpt><trkpt lat="52.9934617795017" lon="12.916250735159936"><ele>61.39999999999999</ele><time>2026-04-17T13:17:15Z</time></trkpt><trkpt lat="52.993540177543295" lon="12.916132847260302"><ele>61.6</ele><time>2026-04-17T13:17:16Z</time></trkpt><trkpt lat="52.9936265456238" lon="12.916014922489177"><ele>61.8</ele><time>2026-04-17T13:17:17Z</time></trkpt><trkpt lat="52.99369310845683" lon="12.91589160986661"><ele>62.0</ele><time>2026-04-17T13:17:17.999Z</time></trkpt><trkpt lat="52.993783894110315" lon="12.915747827262493"><ele>62.0</ele><time>2026-04-17T13:17:18.999Z</time></trkpt><trkpt lat="52.99388000820211" lon="12.915610332842187"><ele>62.0</ele><time>2026-04-17T13:17:19.999Z</time></trkpt><trkpt lat="52.99397629137394" lon="12.915471447083435"><ele>62.0</ele><time>2026-04-17T13:17:20.999Z</time></trkpt><trkpt lat="52.99407151864801" lon="12.915333453198599"><ele>62.0</ele><time>2026-04-17T13:17:21.999Z</time></trkpt><trkpt lat="52.99415827891925" lon="12.915197618664"><ele>62.2</ele><time>2026-04-17T13:17:22.999Z</time></trkpt><trkpt lat="52.994244416317024" lon="12.915072533254904"><ele>62.400000000000006</ele><time>2026-04-17T13:17:23.999Z</time></trkpt><trkpt lat="52.99432572449172" lon="12.914950253760624"><ele>62.599999999999994</ele><time>2026-04-17T13:17:24.999Z</time></trkpt><trkpt lat="52.994407503314115" lon="12.914831849307676"><ele>62.8</ele><time>2026-04-17T13:17:25.999Z</time></trkpt><trkpt lat="52.994489614912816" lon="12.914705320920692"><ele>63.0</ele><time>2026-04-17T13:17:26.999Z</time></trkpt><trkpt lat="52.994569700390485" lon="12.914575791173172"><ele>63.0</ele><time>2026-04-17T13:17:27.999Z</time></trkpt><trkpt lat="52.99465605990463" lon="12.914452568602435"><ele>63.0</ele><time>2026-04-17T13:17:28.999Z</time></trkpt><trkpt lat="52.994742023348024" lon="12.914334721806734"><ele>63.0</ele><time>2026-04-17T13:17:29.999Z</time></trkpt><trkpt lat="52.99482491926417" lon="12.914222896906276"><ele>63.0</ele><time>2026-04-17T13:17:30.999Z</time></trkpt><trkpt lat="52.994895114512495" lon="12.914108051693535"><ele>63.0</ele><time>2026-04-17T13:17:31.999Z</time></trkpt><trkpt lat="52.994965559116" lon="12.914000184131384"><ele>63.0</ele><time>2026-04-17T13:17:32.999Z</time></trkpt><trkpt lat="52.99504313019636" lon="12.913886038161115"><ele>63.0</ele><time>2026-04-17T13:17:33.999Z</time></trkpt><trkpt lat="52.99512326062089" lon="12.913770328617026"><ele>63.0</ele><time>2026-04-17T13:17:34.999Z</time></trkpt><trkpt lat="52.995213102629215" lon="12.913638349751459"><ele>63.0</ele><time>2026-04-17T13:17:35.999Z</time></trkpt><trkpt lat="52.99529722218223" lon="12.913516774138731"><ele>63.0</ele><time>2026-04-17T13:17:36.999Z</time></trkpt><trkpt lat="52.99536333219673" lon="12.91341171080837"><ele>62.599999999999994</ele><time>2026-04-17T13:17:37.999Z</time></trkpt><trkpt lat="52.99543322632557" lon="12.913319046165682"><ele>62.199999999999996</ele><time>2026-04-17T13:17:38.999Z</time></trkpt><trkpt lat="52.99549713475163" lon="12.913227614595876"><ele>61.8</ele><time>2026-04-17T13:17:39.999Z</time></trkpt><trkpt lat="52.9955511381254" lon="12.913145077270649"><ele>61.4</ele><time>2026-04-17T13:17:40.999Z</time></trkpt><trkpt lat="52.99565567216383" lon="12.913025142108342"><ele>61.0</ele><time>2026-04-17T13:17:42.999Z</time></trkpt><trkpt lat="52.99573171067941" lon="12.913001295693977"><ele>60.99999999999999</ele><time>2026-04-17T13:17:44.999Z</time></trkpt><trkpt lat="52.99579235305806" lon="12.913112580852978"><ele>61.0</ele><time>2026-04-17T13:17:46.999Z</time></trkpt><trkpt lat="52.995823445100754" lon="12.913229864858444"><ele>61.0</ele><time>2026-04-17T13:17:47.999Z</time></trkpt><trkpt lat="52.99584332051804" lon="12.9133608232867"><ele>61.0</ele><time>2026-04-17T13:17:48.999Z</time></trkpt><trkpt lat="52.99586556384266" lon="12.91350895204438"><ele>60.99999999999999</ele><time>2026-04-17T13:17:49.999Z</time></trkpt><trkpt lat="52.995896098994976" lon="12.913669370863964"><ele>61.0</ele><time>2026-04-17T13:17:50.999Z</time></trkpt><trkpt lat="52.995941072634174" lon="12.91385069298596"><ele>62.25</ele><time>2026-04-17T13:17:51.999Z</time></trkpt><trkpt lat="52.99599087463176" lon="12.914054319298138"><ele>63.5</ele><time>2026-04-17T13:17:52.999Z</time></trkpt><trkpt lat="52.99603596915888" lon="12.914256634975379"><ele>64.75</ele><time>2026-04-17T13:17:53.999Z</time></trkpt><trkpt lat="52.99608179366137" lon="12.914459250891102"><ele>66.0</ele><time>2026-04-17T13:17:54.999Z</time></trkpt><trkpt lat="52.99612135884384" lon="12.91465434077799"><ele>66.0</ele><time>2026-04-17T13:17:55.999Z</time></trkpt><trkpt lat="52.99616282260172" lon="12.914850590325225"><ele>66.0</ele><time>2026-04-17T13:17:56.999Z</time></trkpt><trkpt lat="52.99619954766628" lon="12.91504181120329"><ele>66.0</ele><time>2026-04-17T13:17:57.999Z</time></trkpt><trkpt lat="52.99624383810818" lon="12.915235711383955"><ele>66.0</ele><time>2026-04-17T13:17:58.999Z</time></trkpt><trkpt lat="52.996285982643606" lon="12.915427743060668"><ele>65.75</ele><time>2026-04-17T13:17:59.999Z</time></trkpt><trkpt lat="52.996330629712034" lon="12.915621490878426"><ele>65.5</ele><time>2026-04-17T13:18:00.999Z</time></trkpt><trkpt lat="52.99637625589257" lon="12.915818227517775"><ele>65.25</ele><time>2026-04-17T13:18:01.999Z</time></trkpt><trkpt lat="52.9964219136519" lon="12.916022631897931"><ele>65.0</ele><time>2026-04-17T13:18:02.999Z</time></trkpt><trkpt lat="52.996474981225866" lon="12.916224013872027"><ele>64.5</ele><time>2026-04-17T13:18:03.999Z</time></trkpt><trkpt lat="52.99652679898694" lon="12.916431800073935"><ele>64.0</ele><time>2026-04-17T13:18:04.998Z</time></trkpt><trkpt lat="52.9965701491396" lon="12.916642616469519"><ele>63.5</ele><time>2026-04-17T13:18:05.998Z</time></trkpt><trkpt lat="52.99661322241384" lon="12.91684256036387"><ele>63.0</ele><time>2026-04-17T13:18:06.998Z</time></trkpt><trkpt lat="52.996651259500986" lon="12.917030661459131"><ele>63.0</ele><time>2026-04-17T13:18:07.998Z</time></trkpt><trkpt lat="52.99669190690059" lon="12.917221919759847"><ele>63.0</ele><time>2026-04-17T13:18:08.998Z</time></trkpt><trkpt lat="52.996735470194245" lon="12.91742319702208"><ele>63.0</ele><time>2026-04-17T13:18:09.998Z</time></trkpt><trkpt lat="52.99678051139345" lon="12.917629773432083"><ele>63.0</ele><time>2026-04-17T13:18:10.998Z</time></trkpt><trkpt lat="52.996828702598194" lon="12.91783951353177"><ele>62.75</ele><time>2026-04-17T13:18:11.998Z</time></trkpt><trkpt lat="52.996887559866515" lon="12.91804617102881"><ele>62.5</ele><time>2026-04-17T13:18:12.998Z</time></trkpt><trkpt lat="52.99693178424991" lon="12.918255444505846"><ele>62.25</ele><time>2026-04-17T13:18:13.998Z</time></trkpt><trkpt lat="52.99698219980189" lon="12.918451204334792"><ele>62.0</ele><time>2026-04-17T13:18:14.998Z</time></trkpt><trkpt lat="52.99701932623441" lon="12.918646242588117"><ele>62.0</ele><time>2026-04-17T13:18:15.998Z</time></trkpt><trkpt lat="52.997065225450854" lon="12.918848708040544"><ele>62.0</ele><time>2026-04-17T13:18:16.998Z</time></trkpt><trkpt lat="52.99710938260565" lon="12.9190569245576"><ele>62.0</ele><time>2026-04-17T13:18:17.998Z</time></trkpt><trkpt lat="52.9971589635715" lon="12.919268839788723"><ele>62.0</ele><time>2026-04-17T13:18:18.998Z</time></trkpt><trkpt lat="52.99720759029455" lon="12.91949048568079"><ele>62.0</ele><time>2026-04-17T13:18:19.998Z</time></trkpt><trkpt lat="52.99725760734853" lon="12.919712752256723"><ele>62.0</ele><time>2026-04-17T13:18:20.998Z</time></trkpt><trkpt lat="52.997307534740486" lon="12.919938020741249"><ele>62.0</ele><time>2026-04-17T13:18:21.998Z</time></trkpt><trkpt lat="52.997355678425656" lon="12.920179096049763"><ele>62.0</ele><time>2026-04-17T13:18:22.998Z</time></trkpt><trkpt lat="52.997406214882204" lon="12.920411833679646"><ele>61.75</ele><time>2026-04-17T13:18:23.998Z</time></trkpt><trkpt lat="52.997454766081404" lon="12.920643216962636"><ele>61.5</ele><time>2026-04-17T13:18:24.998Z</time></trkpt><trkpt lat="52.99750292188035" lon="12.920850056951343"><ele>61.25</ele><time>2026-04-17T13:18:25.998Z</time></trkpt><trkpt lat="52.997550475312586" lon="12.921066968198687"><ele>61.0</ele><time>2026-04-17T13:18:26.998Z</time></trkpt><trkpt lat="52.99759932465912" lon="12.92128088194702"><ele>61.25</ele><time>2026-04-17T13:18:27.998Z</time></trkpt><trkpt lat="52.99764796706344" lon="12.921490655126782"><ele>61.5</ele><time>2026-04-17T13:18:28.998Z</time></trkpt><trkpt lat="52.997694616699846" lon="12.92170889401015"><ele>61.75</ele><time>2026-04-17T13:18:29.998Z</time></trkpt><trkpt lat="52.997743884624086" lon="12.921922420220293"><ele>62.0</ele><time>2026-04-17T13:18:30.998Z</time></trkpt><trkpt lat="52.997794364482374" lon="12.922143898919835"><ele>62.0</ele><time>2026-04-17T13:18:31.998Z</time></trkpt><trkpt lat="52.99784110021501" lon="12.922366560038595"><ele>62.0</ele><time>2026-04-17T13:18:32.998Z</time></trkpt><trkpt lat="52.99788804139905" lon="12.922597147471905"><ele>62.0</ele><time>2026-04-17T13:18:33.998Z</time></trkpt><trkpt lat="52.99793772706854" lon="12.92282641942307"><ele>62.0</ele><time>2026-04-17T13:18:34.998Z</time></trkpt><trkpt lat="52.997987496921965" lon="12.923054263192194"><ele>62.0</ele><time>2026-04-17T13:18:35.998Z</time></trkpt><trkpt lat="52.998031930748205" lon="12.923268768266473"><ele>62.0</ele><time>2026-04-17T13:18:36.998Z</time></trkpt><trkpt lat="52.9980753951742" lon="12.923463201855503"><ele>62.0</ele><time>2026-04-17T13:18:37.998Z</time></trkpt><trkpt lat="52.9981155515497" lon="12.923648397287714"><ele>62.0</ele><time>2026-04-17T13:18:38.998Z</time></trkpt><trkpt lat="52.99815671003533" lon="12.923815770049"><ele>62.6</ele><time>2026-04-17T13:18:39.998Z</time></trkpt><trkpt lat="52.998193593049706" lon="12.923970757517669"><ele>63.2</ele><time>2026-04-17T13:18:40.998Z</time></trkpt><trkpt lat="52.99822478901382" lon="12.92411605134761"><ele>63.8</ele><time>2026-04-17T13:18:41.998Z</time></trkpt><trkpt lat="52.99825700192589" lon="12.92428168093246"><ele>64.4</ele><time>2026-04-17T13:18:42.998Z</time></trkpt><trkpt lat="52.99829695197758" lon="12.92446276679596"><ele>65.0</ele><time>2026-04-17T13:18:43.998Z</time></trkpt><trkpt lat="52.99833801802158" lon="12.924656414558795"><ele>66.0</ele><time>2026-04-17T13:18:44.998Z</time></trkpt><trkpt lat="52.99837972664374" lon="12.924861375698447"><ele>67.0</ele><time>2026-04-17T13:18:45.998Z</time></trkpt><trkpt lat="52.99842933322873" lon="12.925073953808642"><ele>68.0</ele><time>2026-04-17T13:18:47Z</time></trkpt><trkpt lat="52.998476712938" lon="12.925302992729415"><ele>69.0</ele><time>2026-04-17T13:18:48Z</time></trkpt><trkpt lat="52.99852984614379" lon="12.92554672289748"><ele>69.0</ele><time>2026-04-17T13:18:49Z</time></trkpt><trkpt lat="52.99857684438525" lon="12.925787412678575"><ele>69.0</ele><time>2026-04-17T13:18:50Z</time></trkpt><trkpt lat="52.998631175210335" lon="12.92602915262856"><ele>69.0</ele><time>2026-04-17T13:18:51Z</time></trkpt><trkpt lat="52.99868240691693" lon="12.926259629575949"><ele>68.75</ele><time>2026-04-17T13:18:52Z</time></trkpt><trkpt lat="52.998728193341584" lon="12.926476115040805"><ele>68.5</ele><time>2026-04-17T13:18:53Z</time></trkpt><trkpt lat="52.99877920265205" lon="12.926681908898852"><ele>68.25</ele><time>2026-04-17T13:18:54Z</time></trkpt><trkpt lat="52.99881765908031" lon="12.926892455973421"><ele>68.0</ele><time>2026-04-17T13:18:55Z</time></trkpt><trkpt lat="52.99886241886961" lon="12.927103438232868"><ele>68.0</ele><time>2026-04-17T13:18:56Z</time></trkpt><trkpt lat="52.99890594878174" lon="12.92730787848815"><ele>68.0</ele><time>2026-04-17T13:18:57Z</time></trkpt><trkpt lat="52.99895502793106" lon="12.927518884543206"><ele>68.0</ele><time>2026-04-17T13:18:58Z</time></trkpt><trkpt lat="52.9990043357582" lon="12.92772993584883"><ele>68.0</ele><time>2026-04-17T13:18:59Z</time></trkpt><trkpt lat="52.999047638834405" lon="12.92794380673959"><ele>67.5</ele><time>2026-04-17T13:19:00Z</time></trkpt><trkpt lat="52.9990983165776" lon="12.928168719440702"><ele>67.0</ele><time>2026-04-17T13:19:01Z</time></trkpt><trkpt lat="52.999149453111585" lon="12.928403220587725"><ele>66.5</ele><time>2026-04-17T13:19:02Z</time></trkpt><trkpt lat="52.9991992742414" lon="12.928638387285472"><ele>66.0</ele><time>2026-04-17T13:19:03Z</time></trkpt><trkpt lat="52.99924925107959" lon="12.928853632858047"><ele>66.5</ele><time>2026-04-17T13:19:04Z</time></trkpt><trkpt lat="52.99929385754698" lon="12.929047695751185"><ele>67.0</ele><time>2026-04-17T13:19:05Z</time></trkpt><trkpt lat="52.99933864891586" lon="12.929252357683144"><ele>67.5</ele><time>2026-04-17T13:19:06Z</time></trkpt><trkpt lat="52.9993806785047" lon="12.929464510617956"><ele>68.0</ele><time>2026-04-17T13:19:07Z</time></trkpt><trkpt lat="52.9994294908066" lon="12.929669034663446"><ele>68.0</ele><time>2026-04-17T13:19:08Z</time></trkpt><trkpt lat="52.99947182518356" lon="12.929869440338187"><ele>68.0</ele><time>2026-04-17T13:19:09Z</time></trkpt><trkpt lat="52.99951702695875" lon="12.930061277514511"><ele>68.0</ele><time>2026-04-17T13:19:10Z</time></trkpt><trkpt lat="52.999558683879165" lon="12.93025862657444"><ele>68.0</ele><time>2026-04-17T13:19:11Z</time></trkpt><trkpt lat="52.999597560539655" lon="12.930464787314378"><ele>68.0</ele><time>2026-04-17T13:19:12Z</time></trkpt><trkpt lat="52.999644472055216" lon="12.93067341457997"><ele>68.0</ele><time>2026-04-17T13:19:13Z</time></trkpt><trkpt lat="52.99969251294574" lon="12.93088686220391"><ele>68.0</ele><time>2026-04-17T13:19:14Z</time></trkpt><trkpt lat="52.99973686592663" lon="12.931113305623917"><ele>68.0</ele><time>2026-04-17T13:19:15Z</time></trkpt><trkpt lat="52.99978983289648" lon="12.93134142562383"><ele>67.75</ele><time>2026-04-17T13:19:16Z</time></trkpt><trkpt lat="52.999837353319656" lon="12.93156453386336"><ele>67.5</ele><time>2026-04-17T13:19:17Z</time></trkpt><trkpt lat="52.99989089289433" lon="12.931784917049276"><ele>67.25</ele><time>2026-04-17T13:19:18Z</time></trkpt><trkpt lat="52.99993528007342" lon="12.932007195110634"><ele>67.0</ele><time>2026-04-17T13:19:19Z</time></trkpt><trkpt lat="52.99998331543521" lon="12.932227105325275"><ele>67.25</ele><time>2026-04-17T13:19:20Z</time></trkpt><trkpt lat="53.00003359184134" lon="12.93244963063353"><ele>67.5</ele><time>2026-04-17T13:19:21Z</time></trkpt><trkpt lat="53.00007617921119" lon="12.932658479448392"><ele>67.75</ele><time>2026-04-17T13:19:21.999Z</time></trkpt><trkpt lat="53.000119870516556" lon="12.932877384447876"><ele>68.0</ele><time>2026-04-17T13:19:22.999Z</time></trkpt><trkpt lat="53.00016876172152" lon="12.933099228378984"><ele>68.0</ele><time>2026-04-17T13:19:23.999Z</time></trkpt><trkpt lat="53.00022258487291" lon="12.933329843807952"><ele>68.0</ele><time>2026-04-17T13:19:24.999Z</time></trkpt><trkpt lat="53.00026627255307" lon="12.933550798825914"><ele>68.0</ele><time>2026-04-17T13:19:25.999Z</time></trkpt><trkpt lat="53.000315646984106" lon="12.933765079821613"><ele>68.0</ele><time>2026-04-17T13:19:26.999Z</time></trkpt><trkpt lat="53.00035806023737" lon="12.93397464211608"><ele>67.75</ele><time>2026-04-17T13:19:27.999Z</time></trkpt><trkpt lat="53.00040148342373" lon="12.934171784801334"><ele>67.5</ele><time>2026-04-17T13:19:28.999Z</time></trkpt><trkpt lat="53.00044006429599" lon="12.934369038294582"><ele>67.25</ele><time>2026-04-17T13:19:29.999Z</time></trkpt><trkpt lat="53.00048333780953" lon="12.934575126897368"><ele>67.0</ele><time>2026-04-17T13:19:30.999Z</time></trkpt><trkpt lat="53.00052706292966" lon="12.934761469887997"><ele>67.0</ele><time>2026-04-17T13:19:31.999Z</time></trkpt><trkpt lat="53.00057458838094" lon="12.93497808016698"><ele>67.0</ele><time>2026-04-17T13:19:32.999Z</time></trkpt><trkpt lat="53.00061967539729" lon="12.935192516131906"><ele>67.0</ele><time>2026-04-17T13:19:33.999Z</time></trkpt><trkpt lat="53.00066290227513" lon="12.93540605573471"><ele>67.0</ele><time>2026-04-17T13:19:34.999Z</time></trkpt><trkpt lat="53.00070089355893" lon="12.935624380672833"><ele>67.0</ele><time>2026-04-17T13:19:35.999Z</time></trkpt><trkpt lat="53.000743771800295" lon="12.935834173826272"><ele>67.0</ele><time>2026-04-17T13:19:36.999Z</time></trkpt><trkpt lat="53.000786656356325" lon="12.936042193722294"><ele>67.0</ele><time>2026-04-17T13:19:37.999Z</time></trkpt><trkpt lat="53.00083327678554" lon="12.936264262131933"><ele>67.0</ele><time>2026-04-17T13:19:38.999Z</time></trkpt><trkpt lat="53.00088201592811" lon="12.936490947582106"><ele>67.0</ele><time>2026-04-17T13:19:39.999Z</time></trkpt><trkpt lat="53.00093096139834" lon="12.936713337951739"><ele>67.0</ele><time>2026-04-17T13:19:40.999Z</time></trkpt><trkpt lat="53.00097727939174" lon="12.936939221958225"><ele>67.0</ele><time>2026-04-17T13:19:41.999Z</time></trkpt><trkpt lat="53.00102252438301" lon="12.937157903448112"><ele>67.0</ele><time>2026-04-17T13:19:42.999Z</time></trkpt><trkpt lat="53.00106966168939" lon="12.937385612130464"><ele>67.0</ele><time>2026-04-17T13:19:43.999Z</time></trkpt><trkpt lat="53.00111592492297" lon="12.937606445457327"><ele>67.0</ele><time>2026-04-17T13:19:44.999Z</time></trkpt><trkpt lat="53.00116921002737" lon="12.937842213421552"><ele>67.0</ele><time>2026-04-17T13:19:45.999Z</time></trkpt><trkpt lat="53.001227870993226" lon="12.938087061601655"><ele>67.0</ele><time>2026-04-17T13:19:46.999Z</time></trkpt><trkpt lat="53.00130319629132" lon="12.938349251030113"><ele>67.0</ele><time>2026-04-17T13:19:47.999Z</time></trkpt><trkpt lat="53.00131843107001" lon="12.93850553054573"><ele>67.0</ele><time>2026-04-17T13:19:48.999Z</time></trkpt><trkpt lat="53.001361156606784" lon="12.938708989462143"><ele>67.0</ele><time>2026-04-17T13:19:49.999Z</time></trkpt><trkpt lat="53.001407363220395" lon="12.93892325216304"><ele>67.0</ele><time>2026-04-17T13:19:50.999Z</time></trkpt><trkpt lat="53.001449258632924" lon="12.939142973210862"><ele>67.0</ele><time>2026-04-17T13:19:51.999Z</time></trkpt><trkpt lat="53.00149665658458" lon="12.939362634583755"><ele>67.0</ele><time>2026-04-17T13:19:52.999Z</time></trkpt><trkpt lat="53.00154754903464" lon="12.939573951284657"><ele>67.0</ele><time>2026-04-17T13:19:53.999Z</time></trkpt><trkpt lat="53.001597204795964" lon="12.939785676196683"><ele>66.0</ele><time>2026-04-17T13:19:54.999Z</time></trkpt><trkpt lat="53.00164485455942" lon="12.94000502385753"><ele>65.0</ele><time>2026-04-17T13:19:55.999Z</time></trkpt><trkpt lat="53.00169168574786" lon="12.940217688355903"><ele>64.0</ele><time>2026-04-17T13:19:56.999Z</time></trkpt><trkpt lat="53.00174048500299" lon="12.940433721332418"><ele>63.0</ele><time>2026-04-17T13:19:57.999Z</time></trkpt><trkpt lat="53.001785492645226" lon="12.940653388345464"><ele>61.25</ele><time>2026-04-17T13:19:58.999Z</time></trkpt><trkpt lat="53.00183212328588" lon="12.940874787098714"><ele>59.5</ele><time>2026-04-17T13:19:59.999Z</time></trkpt><trkpt lat="53.0018852918525" lon="12.941113458416776"><ele>57.75</ele><time>2026-04-17T13:20:00.999Z</time></trkpt><trkpt lat="53.001939821915094" lon="12.941340290466368"><ele>56.0</ele><time>2026-04-17T13:20:01.999Z</time></trkpt><trkpt lat="53.001976762954726" lon="12.941565728338624"><ele>57.5</ele><time>2026-04-17T13:20:02.999Z</time></trkpt><trkpt lat="53.002018882817126" lon="12.941780508832501"><ele>59.0</ele><time>2026-04-17T13:20:03.999Z</time></trkpt><trkpt lat="53.00206933918798" lon="12.941990317096748"><ele>60.5</ele><time>2026-04-17T13:20:04.999Z</time></trkpt><trkpt lat="53.00211865842561" lon="12.942196911480336"><ele>62.0</ele><time>2026-04-17T13:20:05.999Z</time></trkpt><trkpt lat="53.0021621750278" lon="12.942399624020721"><ele>63.25</ele><time>2026-04-17T13:20:06.999Z</time></trkpt><trkpt lat="53.00219879008827" lon="12.942603681875607"><ele>64.5</ele><time>2026-04-17T13:20:07.998Z</time></trkpt><trkpt lat="53.00223974350655" lon="12.942785365340397"><ele>65.75</ele><time>2026-04-17T13:20:08.998Z</time></trkpt><trkpt lat="53.00228915598523" lon="12.942987198045559"><ele>67.0</ele><time>2026-04-17T13:20:09.998Z</time></trkpt><trkpt lat="53.00233258668865" lon="12.943181093527187"><ele>67.0</ele><time>2026-04-17T13:20:10.998Z</time></trkpt><trkpt lat="53.002376315975695" lon="12.943378937150708"><ele>67.0</ele><time>2026-04-17T13:20:11.998Z</time></trkpt><trkpt lat="53.00241955718362" lon="12.943570644657354"><ele>67.0</ele><time>2026-04-17T13:20:12.998Z</time></trkpt><trkpt lat="53.0024605502989" lon="12.943758602381658"><ele>67.0</ele><time>2026-04-17T13:20:13.998Z</time></trkpt><trkpt lat="53.00250049354359" lon="12.943958822327703"><ele>67.25</ele><time>2026-04-17T13:20:14.998Z</time></trkpt><trkpt lat="53.00254200653082" lon="12.9441579658748"><ele>67.5</ele><time>2026-04-17T13:20:15.998Z</time></trkpt><trkpt lat="53.00258266600764" lon="12.944363098868084"><ele>67.75</ele><time>2026-04-17T13:20:16.998Z</time></trkpt><trkpt lat="53.00262765783128" lon="12.944555148672904"><ele>68.0</ele><time>2026-04-17T13:20:17.998Z</time></trkpt><trkpt lat="53.002672154754364" lon="12.9447551724558"><ele>68.0</ele><time>2026-04-17T13:20:18.998Z</time></trkpt><trkpt lat="53.002721513934816" lon="12.944964740182337"><ele>68.0</ele><time>2026-04-17T13:20:19.998Z</time></trkpt><trkpt lat="53.002767129742054" lon="12.945171929633286"><ele>68.0</ele><time>2026-04-17T13:20:20.998Z</time></trkpt><trkpt lat="53.00281501511004" lon="12.945379526306786"><ele>68.0</ele><time>2026-04-17T13:20:21.998Z</time></trkpt><trkpt lat="53.00286099574983" lon="12.945593639935465"><ele>67.75</ele><time>2026-04-17T13:20:22.998Z</time></trkpt><trkpt lat="53.00290182114094" lon="12.94580374988192"><ele>67.5</ele><time>2026-04-17T13:20:23.998Z</time></trkpt><trkpt lat="53.00294850072243" lon="12.946021097284271"><ele>67.25</ele><time>2026-04-17T13:20:24.998Z</time></trkpt><trkpt lat="53.00299210714226" lon="12.946240442893131"><ele>67.0</ele><time>2026-04-17T13:20:25.998Z</time></trkpt><trkpt lat="53.003037103959784" lon="12.946454994037122"><ele>67.0</ele><time>2026-04-17T13:20:26.998Z</time></trkpt><trkpt lat="53.003083455205385" lon="12.946661836769595"><ele>67.0</ele><time>2026-04-17T13:20:27.998Z</time></trkpt><trkpt lat="53.00312242111999" lon="12.94685217298749"><ele>67.0</ele><time>2026-04-17T13:20:28.998Z</time></trkpt><trkpt lat="53.003160389596324" lon="12.947025707600535"><ele>67.0</ele><time>2026-04-17T13:20:29.998Z</time></trkpt><trkpt lat="53.00319795792516" lon="12.947192546572381"><ele>67.0</ele><time>2026-04-17T13:20:30.998Z</time></trkpt><trkpt lat="53.00323474167672" lon="12.947358921615386"><ele>67.0</ele><time>2026-04-17T13:20:31.998Z</time></trkpt><trkpt lat="53.003270181573676" lon="12.947504222662849"><ele>67.0</ele><time>2026-04-17T13:20:32.998Z</time></trkpt><trkpt lat="53.00330506220601" lon="12.947668266984893"><ele>67.0</ele><time>2026-04-17T13:20:33.998Z</time></trkpt><trkpt lat="53.00334525148085" lon="12.94784354754751"><ele>67.0</ele><time>2026-04-17T13:20:34.998Z</time></trkpt><trkpt lat="53.003385470795756" lon="12.948038068969275"><ele>67.5</ele><time>2026-04-17T13:20:35.998Z</time></trkpt><trkpt lat="53.00343661637785" lon="12.948230409426039"><ele>68.0</ele><time>2026-04-17T13:20:36.998Z</time></trkpt><trkpt lat="53.00348036238688" lon="12.948425282243058"><ele>68.5</ele><time>2026-04-17T13:20:37.998Z</time></trkpt><trkpt lat="53.00352254784319" lon="12.948628293641477"><ele>69.0</ele><time>2026-04-17T13:20:38.998Z</time></trkpt><trkpt lat="53.00356793512248" lon="12.94882893200519"><ele>69.0</ele><time>2026-04-17T13:20:39.998Z</time></trkpt><trkpt lat="53.0036163282047" lon="12.949036769012483"><ele>69.0</ele><time>2026-04-17T13:20:40.998Z</time></trkpt><trkpt lat="53.00366324927885" lon="12.94925613657537"><ele>69.0</ele><time>2026-04-17T13:20:41.998Z</time></trkpt><trkpt lat="53.00370838809567" lon="12.949474465466979"><ele>69.0</ele><time>2026-04-17T13:20:42.998Z</time></trkpt><trkpt lat="53.00375693256763" lon="12.949695050967712"><ele>69.0</ele><time>2026-04-17T13:20:43.998Z</time></trkpt><trkpt lat="53.00380212030448" lon="12.949914791361358"><ele>69.0</ele><time>2026-04-17T13:20:44.998Z</time></trkpt><trkpt lat="53.00385277414063" lon="12.950133366497214"><ele>69.0</ele><time>2026-04-17T13:20:45.998Z</time></trkpt><trkpt lat="53.00390031210077" lon="12.950351700518693"><ele>69.0</ele><time>2026-04-17T13:20:46.998Z</time></trkpt><trkpt lat="53.00393761542755" lon="12.950576063782707"><ele>69.0</ele><time>2026-04-17T13:20:47.998Z</time></trkpt><trkpt lat="53.00398539832528" lon="12.950774707301353"><ele>69.0</ele><time>2026-04-17T13:20:48.998Z</time></trkpt><trkpt lat="53.00403080108616" lon="12.950986682698561"><ele>69.0</ele><time>2026-04-17T13:20:49.998Z</time></trkpt><trkpt lat="53.00407744053914" lon="12.951194897284928"><ele>69.0</ele><time>2026-04-17T13:20:50.998Z</time></trkpt><trkpt lat="53.00412377248962" lon="12.951410273388461"><ele>69.0</ele><time>2026-04-17T13:20:51.998Z</time></trkpt><trkpt lat="53.004171649875225" lon="12.951625765252919"><ele>69.0</ele><time>2026-04-17T13:20:53Z</time></trkpt><trkpt lat="53.00422450658086" lon="12.951842017905294"><ele>69.0</ele><time>2026-04-17T13:20:54Z</time></trkpt><trkpt lat="53.00427486007724" lon="12.952059714108973"><ele>69.0</ele><time>2026-04-17T13:20:55Z</time></trkpt><trkpt lat="53.00432073660248" lon="12.952266631202326"><ele>69.0</ele><time>2026-04-17T13:20:56Z</time></trkpt><trkpt lat="53.004368582288635" lon="12.952478065688247"><ele>69.0</ele><time>2026-04-17T13:20:57Z</time></trkpt><trkpt lat="53.004416003563215" lon="12.95269166858719"><ele>69.0</ele><time>2026-04-17T13:20:58Z</time></trkpt><trkpt lat="53.00446381628918" lon="12.952920907725861"><ele>69.0</ele><time>2026-04-17T13:20:59Z</time></trkpt><trkpt lat="53.004514159276276" lon="12.953141317222725"><ele>69.0</ele><time>2026-04-17T13:21:00Z</time></trkpt><trkpt lat="53.00456620837713" lon="12.9533621534811"><ele>69.0</ele><time>2026-04-17T13:21:01Z</time></trkpt><trkpt lat="53.004612366639776" lon="12.953564385665253"><ele>69.0</ele><time>2026-04-17T13:21:02Z</time></trkpt><trkpt lat="53.004656115815294" lon="12.953770650651887"><ele>69.0</ele><time>2026-04-17T13:21:03Z</time></trkpt><trkpt lat="53.00469555580876" lon="12.953964595171247"><ele>68.75</ele><time>2026-04-17T13:21:04Z</time></trkpt><trkpt lat="53.00474050831884" lon="12.954163039695482"><ele>68.5</ele><time>2026-04-17T13:21:05Z</time></trkpt><trkpt lat="53.00478658296738" lon="12.954371833053335"><ele>68.25</ele><time>2026-04-17T13:21:06Z</time></trkpt><trkpt lat="53.00483081644596" lon="12.954576608529676"><ele>68.0</ele><time>2026-04-17T13:21:07Z</time></trkpt><trkpt lat="53.00487264351797" lon="12.95475440020697"><ele>68.0</ele><time>2026-04-17T13:21:08Z</time></trkpt><trkpt lat="53.00491121458189" lon="12.954952600834053"><ele>68.0</ele><time>2026-04-17T13:21:09Z</time></trkpt><trkpt lat="53.004949247266744" lon="12.955131369270948"><ele>68.0</ele><time>2026-04-17T13:21:10Z</time></trkpt><trkpt lat="53.00499422419279" lon="12.95529985132142"><ele>68.0</ele><time>2026-04-17T13:21:11Z</time></trkpt><trkpt lat="53.00503477966925" lon="12.955476455654066"><ele>67.75</ele><time>2026-04-17T13:21:12Z</time></trkpt><trkpt lat="53.00507732455677" lon="12.955673124093899"><ele>67.5</ele><time>2026-04-17T13:21:13Z</time></trkpt><trkpt lat="53.005120111337206" lon="12.955870720477835"><ele>67.25</ele><time>2026-04-17T13:21:14Z</time></trkpt><trkpt lat="53.0051634792592" lon="12.95607854413053"><ele>67.0</ele><time>2026-04-17T13:21:15Z</time></trkpt><trkpt lat="53.005216455307156" lon="12.956303729773595"><ele>67.0</ele><time>2026-04-17T13:21:16Z</time></trkpt><trkpt lat="53.00527212218282" lon="12.956552279052712"><ele>67.0</ele><time>2026-04-17T13:21:17Z</time></trkpt><trkpt lat="53.00532738770587" lon="12.956797664811825"><ele>67.0</ele><time>2026-04-17T13:21:18Z</time></trkpt><trkpt lat="53.0053831462481" lon="12.957054559082822"><ele>68.0</ele><time>2026-04-17T13:21:19Z</time></trkpt><trkpt lat="53.00543897941956" lon="12.957308725430423"><ele>69.0</ele><time>2026-04-17T13:21:20Z</time></trkpt><trkpt lat="53.00549588291573" lon="12.957571399839615"><ele>70.0</ele><time>2026-04-17T13:21:21Z</time></trkpt><trkpt lat="53.00554721392683" lon="12.9578081306817"><ele>70.0</ele><time>2026-04-17T13:21:22Z</time></trkpt><trkpt lat="53.005596449642084" lon="12.95803949391477"><ele>70.0</ele><time>2026-04-17T13:21:23Z</time></trkpt><trkpt lat="53.00564760329632" lon="12.958262120473654"><ele>70.0</ele><time>2026-04-17T13:21:24Z</time></trkpt><trkpt lat="53.00569475755243" lon="12.95849403896238"><ele>70.0</ele><time>2026-04-17T13:21:25Z</time></trkpt><trkpt lat="53.00574244874925" lon="12.958704067679163"><ele>70.0</ele><time>2026-04-17T13:21:26Z</time></trkpt><trkpt lat="53.005785039943035" lon="12.958906910636749"><ele>70.0</ele><time>2026-04-17T13:21:26.999Z</time></trkpt><trkpt lat="53.00583180915012" lon="12.959115233675327"><ele>70.0</ele><time>2026-04-17T13:21:27.999Z</time></trkpt><trkpt lat="53.005876690285" lon="12.959322181053171"><ele>70.0</ele><time>2026-04-17T13:21:28.999Z</time></trkpt><trkpt lat="53.00592099030388" lon="12.959530164504905"><ele>69.4</ele><time>2026-04-17T13:21:29.999Z</time></trkpt><trkpt lat="53.00596283147667" lon="12.959720317754343"><ele>68.8</ele><time>2026-04-17T13:21:30.999Z</time></trkpt><trkpt lat="53.00600152807041" lon="12.959889047633729"><ele>68.2</ele><time>2026-04-17T13:21:31.999Z</time></trkpt><trkpt lat="53.00603127716843" lon="12.960025517103544"><ele>67.6</ele><time>2026-04-17T13:21:32.999Z</time></trkpt><trkpt lat="53.006055006671225" lon="12.960136039858988"><ele>67.0</ele><time>2026-04-17T13:21:33.999Z</time></trkpt><trkpt lat="53.00608076833014" lon="12.960250190654724"><ele>67.0</ele><time>2026-04-17T13:21:35.999Z</time></trkpt><trkpt lat="53.00613036158893" lon="12.960321325964728"><ele>67.0</ele><time>2026-04-17T13:21:37.999Z</time></trkpt><trkpt lat="53.00621190357972" lon="12.960345228356497"><ele>67.0</ele><time>2026-04-17T13:21:39.999Z</time></trkpt><trkpt lat="53.006278255030516" lon="12.960371958969764"><ele>67.0</ele><time>2026-04-17T13:21:40.999Z</time></trkpt><trkpt lat="53.006411505398404" lon="12.96043479511283"><ele>67.0</ele><time>2026-04-17T13:21:42.999Z</time></trkpt><trkpt lat="53.00648111620488" lon="12.960473886106561"><ele>67.0</ele><time>2026-04-17T13:21:43.999Z</time></trkpt><trkpt lat="53.00655354749194" lon="12.960535031898418"><ele>67.0</ele><time>2026-04-17T13:21:44.999Z</time></trkpt><trkpt lat="53.006624516640855" lon="12.96057709952061"><ele>67.0</ele><time>2026-04-17T13:21:45.999Z</time></trkpt><trkpt lat="53.00670266861652" lon="12.960608218418065"><ele>67.0</ele><time>2026-04-17T13:21:46.999Z</time></trkpt><trkpt lat="53.00679434106159" lon="12.960654518059494"><ele>67.0</ele><time>2026-04-17T13:21:47.999Z</time></trkpt><trkpt lat="53.0068905620696" lon="12.960702408219092"><ele>67.0</ele><time>2026-04-17T13:21:48.999Z</time></trkpt><trkpt lat="53.0069849633632" lon="12.960735697446957"><ele>67.0</ele><time>2026-04-17T13:21:49.999Z</time></trkpt><trkpt lat="53.00706685362278" lon="12.96076244097019"><ele>67.16666666666666</ele><time>2026-04-17T13:21:50.999Z</time></trkpt><trkpt lat="53.00716135721958" lon="12.960794861231358"><ele>67.33333333333333</ele><time>2026-04-17T13:21:51.999Z</time></trkpt><trkpt lat="53.0072417213833" lon="12.960824410759333"><ele>67.5</ele><time>2026-04-17T13:21:52.999Z</time></trkpt><trkpt lat="53.00732583463527" lon="12.960850383757828"><ele>67.66666666666667</ele><time>2026-04-17T13:21:53.999Z</time></trkpt><trkpt lat="53.00741032009154" lon="12.9608811474939"><ele>67.83333333333334</ele><time>2026-04-17T13:21:54.999Z</time></trkpt><trkpt lat="53.00749722896066" lon="12.96089970076138"><ele>68.0</ele><time>2026-04-17T13:21:55.999Z</time></trkpt><trkpt lat="53.00756880846755" lon="12.960929266182386"><ele>68.0</ele><time>2026-04-17T13:21:56.999Z</time></trkpt><trkpt lat="53.007641862027505" lon="12.960959335294618"><ele>68.0</ele><time>2026-04-17T13:21:57.999Z</time></trkpt><trkpt lat="53.0077144533107" lon="12.96098870011737"><ele>68.0</ele><time>2026-04-17T13:21:58.999Z</time></trkpt><trkpt lat="53.00778012645663" lon="12.961013186630595"><ele>68.0</ele><time>2026-04-17T13:21:59.999Z</time></trkpt><trkpt lat="53.007889924617714" lon="12.961048793866942"><ele>68.0</ele><time>2026-04-17T13:22:01.999Z</time></trkpt><trkpt lat="53.00795581675462" lon="12.961073492248833"><ele>68.0</ele><time>2026-04-17T13:22:02.999Z</time></trkpt><trkpt lat="53.00802641943296" lon="12.96110904661309"><ele>68.0</ele><time>2026-04-17T13:22:03.999Z</time></trkpt><trkpt lat="53.008101523179405" lon="12.961137000969021"><ele>68.0</ele><time>2026-04-17T13:22:04.999Z</time></trkpt><trkpt lat="53.008180705869684" lon="12.961165950528237"><ele>68.0</ele><time>2026-04-17T13:22:05.999Z</time></trkpt><trkpt lat="53.00825806979511" lon="12.961195393779377"><ele>68.0</ele><time>2026-04-17T13:22:06.999Z</time></trkpt><trkpt lat="53.008339245202286" lon="12.961226884439894"><ele>68.0</ele><time>2026-04-17T13:22:07.999Z</time></trkpt><trkpt lat="53.00842859581688" lon="12.961265788700047"><ele>68.0</ele><time>2026-04-17T13:22:08.999Z</time></trkpt><trkpt lat="53.00851758038206" lon="12.961295837041371"><ele>67.0</ele><time>2026-04-17T13:22:09.999Z</time></trkpt><trkpt lat="53.00860396775094" lon="12.961333323407526"><ele>66.0</ele><time>2026-04-17T13:22:10.999Z</time></trkpt><trkpt lat="53.00869362932893" lon="12.96135892771841"><ele>65.0</ele><time>2026-04-17T13:22:11.998Z</time></trkpt><trkpt lat="53.00877580551128" lon="12.961380411652415"><ele>64.0</ele><time>2026-04-17T13:22:12.998Z</time></trkpt><trkpt lat="53.00884842047448" lon="12.96139906269705"><ele>63.00000000000001</ele><time>2026-04-17T13:22:13.998Z</time></trkpt><trkpt lat="53.00894958837965" lon="12.961397600104585"><ele>62.0</ele><time>2026-04-17T13:22:15.998Z</time></trkpt><trkpt lat="53.00901937117986" lon="12.961409312510078"><ele>62.00000000000001</ele><time>2026-04-17T13:22:18.998Z</time></trkpt><trkpt lat="53.00910341215192" lon="12.961493468999063"><ele>62.0</ele><time>2026-04-17T13:22:21.998Z</time></trkpt><trkpt lat="53.00921159725186" lon="12.961515716132128"><ele>62.0</ele><time>2026-04-17T13:22:23.998Z</time></trkpt><trkpt lat="53.009292713432245" lon="12.961544849377109"><ele>62.0</ele><time>2026-04-17T13:22:25.998Z</time></trkpt><trkpt lat="53.00935591672116" lon="12.961555607532755"><ele>62.00000000000001</ele><time>2026-04-17T13:22:27.998Z</time></trkpt><trkpt lat="53.00942625849277" lon="12.961581053111859"><ele>62.0</ele><time>2026-04-17T13:22:29.998Z</time></trkpt><trkpt lat="53.009533791219056" lon="12.96159637346648"><ele>61.16666666666667</ele><time>2026-04-17T13:22:31.998Z</time></trkpt><trkpt lat="53.00966532846747" lon="12.961634801231414"><ele>60.333333333333336</ele><time>2026-04-17T13:22:33.998Z</time></trkpt><trkpt lat="53.00974025177038" lon="12.961654468840717"><ele>59.5</ele><time>2026-04-17T13:22:34.998Z</time></trkpt><trkpt lat="53.00980602462465" lon="12.961678195617647"><ele>58.66666666666667</ele><time>2026-04-17T13:22:35.998Z</time></trkpt><trkpt lat="53.0098754649835" lon="12.96170135386546"><ele>57.833333333333336</ele><time>2026-04-17T13:22:36.998Z</time></trkpt><trkpt lat="53.00994848883065" lon="12.961731275060938"><ele>57.0</ele><time>2026-04-17T13:22:37.998Z</time></trkpt><trkpt lat="53.010020293587665" lon="12.961767026902564"><ele>56.666666666666664</ele><time>2026-04-17T13:22:38.998Z</time></trkpt><trkpt lat="53.01009220136911" lon="12.961800938699135"><ele>56.33333333333333</ele><time>2026-04-17T13:22:39.998Z</time></trkpt><trkpt lat="53.010164899909505" lon="12.96183690760854"><ele>56.0</ele><time>2026-04-17T13:22:41.998Z</time></trkpt><trkpt lat="53.010158435871446" lon="12.961951816709592"><ele>55.666666666666664</ele><time>2026-04-17T13:23:02Z</time></trkpt><trkpt lat="53.01012535441902" lon="12.962056564427867"><ele>55.33333333333333</ele><time>2026-04-17T13:23:03Z</time></trkpt><trkpt lat="53.010089400508505" lon="12.962191867618918"><ele>55.0</ele><time>2026-04-17T13:23:04Z</time></trkpt><trkpt lat="53.010075616476506" lon="12.962311909824798"><ele>54.99999999999999</ele><time>2026-04-17T13:23:05Z</time></trkpt><trkpt lat="53.01005845818911" lon="12.962422321502027"><ele>55.0</ele><time>2026-04-17T13:23:06Z</time></trkpt><trkpt lat="53.010016789986935" lon="12.962548233187638"><ele>55.0</ele><time>2026-04-17T13:23:07Z</time></trkpt><trkpt lat="53.009977155487846" lon="12.962646242393978"><ele>55.0</ele><time>2026-04-17T13:23:08Z</time></trkpt><trkpt lat="53.00995016884445" lon="12.962750447811281"><ele>55.0</ele><time>2026-04-17T13:23:09Z</time></trkpt><trkpt lat="53.009934757662776" lon="12.962856807309361"><ele>54.99999999999999</ele><time>2026-04-17T13:23:10Z</time></trkpt><trkpt lat="53.00990848477728" lon="12.962967754914203"><ele>55.0</ele><time>2026-04-17T13:23:11Z</time></trkpt><trkpt lat="53.00987890098189" lon="12.96306787673409"><ele>54.8</ele><time>2026-04-17T13:23:12Z</time></trkpt><trkpt lat="53.009797443475435" lon="12.963202917608116"><ele>54.6</ele><time>2026-04-17T13:23:14Z</time></trkpt><trkpt lat="53.00974670564051" lon="12.963265368754813"><ele>54.400000000000006</ele><time>2026-04-17T13:23:15Z</time></trkpt><trkpt lat="53.00964402103637" lon="12.963416190063707"><ele>54.2</ele><time>2026-04-17T13:23:17Z</time></trkpt><trkpt lat="53.00960333616625" lon="12.963517314871018"><ele>54.0</ele><time>2026-04-17T13:23:18Z</time></trkpt><trkpt lat="53.009561362549945" lon="12.96362241121782"><ele>53.833333333333336</ele><time>2026-04-17T13:23:19Z</time></trkpt><trkpt lat="53.009516884084924" lon="12.963725465381087"><ele>53.66666666666667</ele><time>2026-04-17T13:23:20Z</time></trkpt><trkpt lat="53.009476403006765" lon="12.963851205884588"><ele>53.5</ele><time>2026-04-17T13:23:21Z</time></trkpt><trkpt lat="53.00945152140424" lon="12.963947691097054"><ele>53.333333333333336</ele><time>2026-04-17T13:23:22Z</time></trkpt><trkpt lat="53.00941702491022" lon="12.964054801985714"><ele>53.16666666666667</ele><time>2026-04-17T13:23:23Z</time></trkpt><trkpt lat="53.00939665493772" lon="12.964162042774038"><ele>53.0</ele><time>2026-04-17T13:23:24Z</time></trkpt><trkpt lat="53.00935112416963" lon="12.964332511639492"><ele>53.0</ele><time>2026-04-17T13:23:26Z</time></trkpt><trkpt lat="53.00931072588553" lon="12.964493954657573"><ele>53.0</ele><time>2026-04-17T13:23:28Z</time></trkpt><trkpt lat="53.00930197074575" lon="12.964618878615148"><ele>53.0</ele><time>2026-04-17T13:23:29Z</time></trkpt><trkpt lat="53.00926402765306" lon="12.96481763284545"><ele>53.0</ele><time>2026-04-17T13:23:31Z</time></trkpt><trkpt lat="53.00924675192467" lon="12.965028727533037"><ele>53.0</ele><time>2026-04-17T13:23:33Z</time></trkpt><trkpt lat="53.009232855465534" lon="12.965225299629358"><ele>53.0</ele><time>2026-04-17T13:23:35Z</time></trkpt><trkpt lat="53.009228954641166" lon="12.965456898613464"><ele>53.0</ele><time>2026-04-17T13:23:36.999Z</time></trkpt><trkpt lat="53.00922157990231" lon="12.965570764617564"><ele>53.0</ele><time>2026-04-17T13:23:37.999Z</time></trkpt><trkpt lat="53.00922719281248" lon="12.965692716741147"><ele>53.0</ele><time>2026-04-17T13:23:38.999Z</time></trkpt><trkpt lat="53.009231133516636" lon="12.965800911501201"><ele>53.0</ele><time>2026-04-17T13:23:39.999Z</time></trkpt><trkpt lat="53.009213488805024" lon="12.965983966827961"><ele>53.333333333333336</ele><time>2026-04-17T13:23:41.999Z</time></trkpt><trkpt lat="53.00916662960143" lon="12.96608307367537"><ele>53.66666666666667</ele><time>2026-04-17T13:23:44.999Z</time></trkpt><trkpt lat="53.00905650576352" lon="12.96611169412201"><ele>54.0</ele><time>2026-04-17T13:23:46.999Z</time></trkpt><trkpt lat="53.008987866588065" lon="12.966145279574963"><ele>54.33333333333333</ele><time>2026-04-17T13:23:47.999Z</time></trkpt><trkpt lat="53.008921511046395" lon="12.96615744105171"><ele>54.666666666666664</ele><time>2026-04-17T13:23:48.999Z</time></trkpt><trkpt lat="53.00884712596998" lon="12.966196368392671"><ele>55.0</ele><time>2026-04-17T13:23:49.999Z</time></trkpt><trkpt lat="53.00873116978107" lon="12.966270451699454"><ele>55.0</ele><time>2026-04-17T13:23:51.999Z</time></trkpt><trkpt lat="53.00866116039038" lon="12.966308559496325"><ele>55.0</ele><time>2026-04-17T13:23:52.999Z</time></trkpt><trkpt lat="53.008557238482545" lon="12.96635585047499"><ele>55.0</ele><time>2026-04-17T13:23:54.999Z</time></trkpt><trkpt lat="53.00843394277521" lon="12.966431290346364"><ele>55.0</ele><time>2026-04-17T13:23:56.999Z</time></trkpt><trkpt lat="53.00836883580029" lon="12.966473424989674"><ele>55.0</ele><time>2026-04-17T13:23:57.999Z</time></trkpt><trkpt lat="53.00829930749075" lon="12.966500277016598"><ele>56.166666666666664</ele><time>2026-04-17T13:23:58.999Z</time></trkpt><trkpt lat="53.00823176729836" lon="12.966543743557883"><ele>57.33333333333333</ele><time>2026-04-17T13:23:59.999Z</time></trkpt><trkpt lat="53.00815345523208" lon="12.96658599904292"><ele>58.5</ele><time>2026-04-17T13:24:00.999Z</time></trkpt><trkpt lat="53.00807636487055" lon="12.966625995646424"><ele>59.66666666666667</ele><time>2026-04-17T13:24:01.999Z</time></trkpt><trkpt lat="53.00799558497939" lon="12.96666580057435"><ele>60.833333333333336</ele><time>2026-04-17T13:24:02.999Z</time></trkpt><trkpt lat="53.00792060126905" lon="12.966703706260395"><ele>62.0</ele><time>2026-04-17T13:24:03.999Z</time></trkpt><trkpt lat="53.0078523890704" lon="12.966744472329811"><ele>62.00000000000001</ele><time>2026-04-17T13:24:04.999Z</time></trkpt><trkpt lat="53.007778749616" lon="12.966781539091096"><ele>62.0</ele><time>2026-04-17T13:24:05.999Z</time></trkpt><trkpt lat="53.00770990422824" lon="12.966814020692798"><ele>62.0</ele><time>2026-04-17T13:24:06.999Z</time></trkpt><trkpt lat="53.00763918406325" lon="12.966860846989286"><ele>62.0</ele><time>2026-04-17T13:24:07.999Z</time></trkpt><trkpt lat="53.00756849327242" lon="12.96690581123978"><ele>62.00000000000001</ele><time>2026-04-17T13:24:08.999Z</time></trkpt><trkpt lat="53.007499506059865" lon="12.966944054426836"><ele>62.0</ele><time>2026-04-17T13:24:09.999Z</time></trkpt><trkpt lat="53.00739910227702" lon="12.967021348776143"><ele>62.66666666666667</ele><time>2026-04-17T13:24:11.999Z</time></trkpt><trkpt lat="53.007336074568926" lon="12.9670542889502"><ele>63.333333333333336</ele><time>2026-04-17T13:24:12.999Z</time></trkpt><trkpt lat="53.00723324289268" lon="12.967107416038429"><ele>64.0</ele><time>2026-04-17T13:24:14.999Z</time></trkpt><trkpt lat="53.00715419740257" lon="12.96714607005287"><ele>64.66666666666667</ele><time>2026-04-17T13:24:16.999Z</time></trkpt><trkpt lat="53.00707630296329" lon="12.967142638733206"><ele>65.33333333333333</ele><time>2026-04-17T13:24:18.999Z</time></trkpt><trkpt lat="53.006990308404795" lon="12.967159141716577"><ele>66.0</ele><time>2026-04-17T13:24:20.999Z</time></trkpt><trkpt lat="53.00689446232861" lon="12.967237267750932"><ele>66.0</ele><time>2026-04-17T13:24:22.998Z</time></trkpt><trkpt lat="53.00677806207243" lon="12.967316703554793"><ele>66.0</ele><time>2026-04-17T13:24:24.998Z</time></trkpt><trkpt lat="53.00670633542013" lon="12.96734394683431"><ele>66.0</ele><time>2026-04-17T13:24:25.998Z</time></trkpt><trkpt lat="53.00658418106263" lon="12.967390109403658"><ele>66.0</ele><time>2026-04-17T13:24:27.998Z</time></trkpt><trkpt lat="53.006473115835895" lon="12.96744985357397"><ele>66.0</ele><time>2026-04-17T13:24:29.998Z</time></trkpt><trkpt lat="53.006371375259285" lon="12.967510481811125"><ele>64.6</ele><time>2026-04-17T13:24:31.998Z</time></trkpt><trkpt lat="53.006299253775055" lon="12.967573460214142"><ele>63.199999999999996</ele><time>2026-04-17T13:24:33.998Z</time></trkpt><trkpt lat="53.00625838667291" lon="12.967675805183774"><ele>61.800000000000004</ele><time>2026-04-17T13:24:36.998Z</time></trkpt><trkpt lat="53.006273802393586" lon="12.967797829385637"><ele>60.400000000000006</ele><time>2026-04-17T13:24:38.998Z</time></trkpt><trkpt lat="53.00631969408474" lon="12.96797205714832"><ele>59.0</ele><time>2026-04-17T13:24:40.998Z</time></trkpt><trkpt lat="53.006376676569396" lon="12.968152307779539"><ele>59.00000000000001</ele><time>2026-04-17T13:24:42.998Z</time></trkpt><trkpt lat="53.00641054255171" lon="12.96824919575088"><ele>59.0</ele><time>2026-04-17T13:24:43.998Z</time></trkpt><trkpt lat="53.006444342605434" lon="12.968364021909732"><ele>59.0</ele><time>2026-04-17T13:24:44.998Z</time></trkpt><trkpt lat="53.0064627838167" lon="12.968465392603319"><ele>59.0</ele><time>2026-04-17T13:24:45.998Z</time></trkpt><trkpt lat="53.006491727033854" lon="12.968559691667494"><ele>59.00000000000001</ele><time>2026-04-17T13:24:46.998Z</time></trkpt><trkpt lat="53.00651913743798" lon="12.968656043619324"><ele>59.0</ele><time>2026-04-17T13:24:47.998Z</time></trkpt><trkpt lat="53.00657236315835" lon="12.968835145064176"><ele>58.400000000000006</ele><time>2026-04-17T13:24:49.998Z</time></trkpt><trkpt lat="53.00660978220763" lon="12.969002863365478"><ele>57.800000000000004</ele><time>2026-04-17T13:24:51.998Z</time></trkpt><trkpt lat="53.00664816884723" lon="12.969200302084912"><ele>57.199999999999996</ele><time>2026-04-17T13:24:53.998Z</time></trkpt><trkpt lat="53.006685305589116" lon="12.969364494957134"><ele>56.599999999999994</ele><time>2026-04-17T13:24:55.998Z</time></trkpt><trkpt lat="53.00671490754399" lon="12.969476382183132"><ele>56.0</ele><time>2026-04-17T13:24:57.998Z</time></trkpt><trkpt lat="53.00675152035581" lon="12.969617330298062"><ele>56.00000000000001</ele><time>2026-04-17T13:25:00.998Z</time></trkpt><trkpt lat="53.00679714066022" lon="12.969716994830591"><ele>56.0</ele><time>2026-04-17T13:25:02.998Z</time></trkpt><trkpt lat="53.006839943782026" lon="12.969831088512453"><ele>56.0</ele><time>2026-04-17T13:25:05Z</time></trkpt><trkpt lat="53.00686574046113" lon="12.96999350156578"><ele>56.0</ele><time>2026-04-17T13:25:07Z</time></trkpt><trkpt lat="53.00687580066217" lon="12.970117008062878"><ele>56.00000000000001</ele><time>2026-04-17T13:25:09Z</time></trkpt><trkpt lat="53.00689892575744" lon="12.970262339400618"><ele>56.0</ele><time>2026-04-17T13:25:11Z</time></trkpt><trkpt lat="53.00692575173327" lon="12.970423541522335"><ele>55.50000000000001</ele><time>2026-04-17T13:25:13Z</time></trkpt><trkpt lat="53.00694647205842" lon="12.970522813129602"><ele>55.0</ele><time>2026-04-17T13:25:14Z</time></trkpt><trkpt lat="53.00696113832736" lon="12.970629616609463"><ele>54.5</ele><time>2026-04-17T13:25:15Z</time></trkpt><trkpt lat="53.00698006158159" lon="12.97073176775636"><ele>54.0</ele><time>2026-04-17T13:25:16Z</time></trkpt><trkpt lat="53.006997117441784" lon="12.9709397385072"><ele>53.50000000000001</ele><time>2026-04-17T13:25:18Z</time></trkpt><trkpt lat="53.00701367917674" lon="12.971046874670252"><ele>53.0</ele><time>2026-04-17T13:25:19Z</time></trkpt><trkpt lat="53.007050994171045" lon="12.97124790055811"><ele>52.599999999999994</ele><time>2026-04-17T13:25:21Z</time></trkpt><trkpt lat="53.00707771114213" lon="12.971343218906283"><ele>52.199999999999996</ele><time>2026-04-17T13:25:22Z</time></trkpt><trkpt lat="53.007103102053776" lon="12.97152810651578"><ele>51.8</ele><time>2026-04-17T13:25:24Z</time></trkpt><trkpt lat="53.00713118536875" lon="12.971704909021597"><ele>51.4</ele><time>2026-04-17T13:25:26Z</time></trkpt><trkpt lat="53.00717260988302" lon="12.971885517984092"><ele>51.0</ele><time>2026-04-17T13:25:28Z</time></trkpt><trkpt lat="53.0072240295561" lon="12.972072879004033"><ele>51.0</ele><time>2026-04-17T13:25:30Z</time></trkpt><trkpt lat="53.00727154679629" lon="12.972255467279075"><ele>51.0</ele><time>2026-04-17T13:25:32Z</time></trkpt><trkpt lat="53.00729764915547" lon="12.972457328657866"><ele>51.0</ele><time>2026-04-17T13:25:34Z</time></trkpt><trkpt lat="53.00731261966917" lon="12.972560907040368"><ele>51.0</ele><time>2026-04-17T13:25:35Z</time></trkpt><trkpt lat="53.00732389512482" lon="12.972670030293347"><ele>51.0</ele><time>2026-04-17T13:25:36Z</time></trkpt><trkpt lat="53.00735931761252" lon="12.972868595860414"><ele>51.199999999999996</ele><time>2026-04-17T13:25:38Z</time></trkpt><trkpt lat="53.00738426433358" lon="12.97306676405958"><ele>51.4</ele><time>2026-04-17T13:25:40Z</time></trkpt><trkpt lat="53.00740814652053" lon="12.973248086323744"><ele>51.6</ele><time>2026-04-17T13:25:42Z</time></trkpt><trkpt lat="53.00744454010936" lon="12.973438654285923"><ele>51.8</ele><time>2026-04-17T13:25:43.999Z</time></trkpt><trkpt lat="53.00746608718453" lon="12.973547292511222"><ele>52.0</ele><time>2026-04-17T13:25:44.999Z</time></trkpt><trkpt lat="53.00748331196972" lon="12.973659823639588"><ele>52.0</ele><time>2026-04-17T13:25:45.999Z</time></trkpt><trkpt lat="53.00750250253213" lon="12.973779910099276"><ele>52.0</ele><time>2026-04-17T13:25:46.999Z</time></trkpt><trkpt lat="53.00751806032384" lon="12.973939193974056"><ele>52.0</ele><time>2026-04-17T13:25:48.999Z</time></trkpt><trkpt lat="53.00753583618853" lon="12.974075702974298"><ele>52.0</ele><time>2026-04-17T13:25:50.999Z</time></trkpt><trkpt lat="53.00758107266074" lon="12.974265129144644"><ele>52.0</ele><time>2026-04-17T13:25:52.999Z</time></trkpt><trkpt lat="53.00760149016755" lon="12.97443992425008"><ele>51.99999999999999</ele><time>2026-04-17T13:25:54.999Z</time></trkpt><trkpt lat="53.0076450772029" lon="12.974569576322011"><ele>52.0</ele><time>2026-04-17T13:25:56.999Z</time></trkpt><trkpt lat="53.00765832496802" lon="12.974692619417489"><ele>52.0</ele><time>2026-04-17T13:25:57.999Z</time></trkpt><trkpt lat="53.00765094735374" lon="12.9748087025923"><ele>52.0</ele><time>2026-04-17T13:25:58.999Z</time></trkpt><trkpt lat="53.007665406260735" lon="12.974921479837441"><ele>51.99999999999999</ele><time>2026-04-17T13:25:59.999Z</time></trkpt><trkpt lat="53.00771426312912" lon="12.97506947957921"><ele>52.0</ele><time>2026-04-17T13:26:00.999Z</time></trkpt><trkpt lat="53.00772835802782" lon="12.975203626076334"><ele>51.99999999999999</ele><time>2026-04-17T13:26:01.999Z</time></trkpt><trkpt lat="53.007749233544295" lon="12.975341729559041"><ele>52.0</ele><time>2026-04-17T13:26:02.999Z</time></trkpt><trkpt lat="53.0077687007768" lon="12.975471318032307"><ele>52.0</ele><time>2026-04-17T13:26:03.999Z</time></trkpt><trkpt lat="53.00778194436453" lon="12.975580051057877"><ele>52.0</ele><time>2026-04-17T13:26:04.999Z</time></trkpt><trkpt lat="53.007799885017654" lon="12.975701102118613"><ele>51.99999999999999</ele><time>2026-04-17T13:26:05.999Z</time></trkpt><trkpt lat="53.007818591404785" lon="12.975827346233045"><ele>52.0</ele><time>2026-04-17T13:26:06.999Z</time></trkpt><trkpt lat="53.007838688767855" lon="12.97594265462738"><ele>52.0</ele><time>2026-04-17T13:26:07.999Z</time></trkpt><trkpt lat="53.007864820658604" lon="12.97607572709678"><ele>52.0</ele><time>2026-04-17T13:26:08.999Z</time></trkpt><trkpt lat="53.00788587022859" lon="12.976208346766095"><ele>52.0</ele><time>2026-04-17T13:26:09.999Z</time></trkpt><trkpt lat="53.00791154967008" lon="12.976349417196184"><ele>52.0</ele><time>2026-04-17T13:26:10.999Z</time></trkpt><trkpt lat="53.007951595156044" lon="12.976549858604304"><ele>52.0</ele><time>2026-04-17T13:26:12.999Z</time></trkpt><trkpt lat="53.00800163968427" lon="12.976736370947748"><ele>51.83333333333333</ele><time>2026-04-17T13:26:14.999Z</time></trkpt><trkpt lat="53.008026679922736" lon="12.976850237136533"><ele>51.666666666666664</ele><time>2026-04-17T13:26:15.999Z</time></trkpt><trkpt lat="53.00803823231038" lon="12.976959557263598"><ele>51.5</ele><time>2026-04-17T13:26:16.999Z</time></trkpt><trkpt lat="53.00803896764006" lon="12.977077964619534"><ele>51.33333333333333</ele><time>2026-04-17T13:26:17.999Z</time></trkpt><trkpt lat="53.00804293500048" lon="12.977194900832073"><ele>51.166666666666664</ele><time>2026-04-17T13:26:18.999Z</time></trkpt><trkpt lat="53.008056865512174" lon="12.977302469788688"><ele>51.0</ele><time>2026-04-17T13:26:19.999Z</time></trkpt><trkpt lat="53.00809387889243" lon="12.977491807594994"><ele>51.714285714285715</ele><time>2026-04-17T13:26:21.999Z</time></trkpt><trkpt lat="53.00810972341966" lon="12.97759972538356"><ele>52.42857142857143</ele><time>2026-04-17T13:26:22.999Z</time></trkpt><trkpt lat="53.00813108186552" lon="12.977714731443381"><ele>53.14285714285714</ele><time>2026-04-17T13:26:23.999Z</time></trkpt><trkpt lat="53.008151023228585" lon="12.977825868346972"><ele>53.85714285714286</ele><time>2026-04-17T13:26:24.999Z</time></trkpt><trkpt lat="53.00817087576466" lon="12.977946445615029"><ele>54.57142857142857</ele><time>2026-04-17T13:26:25.999Z</time></trkpt><trkpt lat="53.008193276517005" lon="12.978073796115575"><ele>55.285714285714285</ele><time>2026-04-17T13:26:26.998Z</time></trkpt><trkpt lat="53.0082133378739" lon="12.978203737053676"><ele>56.0</ele><time>2026-04-17T13:26:27.998Z</time></trkpt><trkpt lat="53.008234276311065" lon="12.978336729294792"><ele>56.00000000000001</ele><time>2026-04-17T13:26:28.998Z</time></trkpt><trkpt lat="53.0082585950439" lon="12.978464030529171"><ele>56.0</ele><time>2026-04-17T13:26:29.998Z</time></trkpt><trkpt lat="53.00828720110841" lon="12.97858945737136"><ele>56.0</ele><time>2026-04-17T13:26:30.998Z</time></trkpt><trkpt lat="53.00830351639496" lon="12.97877092406079"><ele>56.0</ele><time>2026-04-17T13:26:32.998Z</time></trkpt><trkpt lat="53.00831126543462" lon="12.97889386903601"><ele>56.00000000000001</ele><time>2026-04-17T13:26:35.998Z</time></trkpt><trkpt lat="53.00832881119665" lon="12.979045664974876"><ele>56.0</ele><time>2026-04-17T13:26:45.998Z</time></trkpt><trkpt lat="53.00834879375441" lon="12.979245585533262"><ele>55.599999999999994</ele><time>2026-04-17T13:26:47.998Z</time></trkpt><trkpt lat="53.00838335508841" lon="12.979377596403065"><ele>55.199999999999996</ele><time>2026-04-17T13:26:48.998Z</time></trkpt><trkpt lat="53.00840195791271" lon="12.979510967745028"><ele>54.800000000000004</ele><time>2026-04-17T13:26:49.998Z</time></trkpt><trkpt lat="53.00842561386321" lon="12.979655942728096"><ele>54.400000000000006</ele><time>2026-04-17T13:26:50.998Z</time></trkpt><trkpt lat="53.00844865235553" lon="12.979823447429354"><ele>54.0</ele><time>2026-04-17T13:26:51.998Z</time></trkpt><trkpt lat="53.008485166423206" lon="12.980011871737423"><ele>54.25</ele><time>2026-04-17T13:26:52.998Z</time></trkpt><trkpt lat="53.008515804212095" lon="12.980210914256297"><ele>54.5</ele><time>2026-04-17T13:26:53.998Z</time></trkpt><trkpt lat="53.008543281816785" lon="12.980409141502324"><ele>54.75</ele><time>2026-04-17T13:26:54.998Z</time></trkpt><trkpt lat="53.008578403370514" lon="12.980622967782487"><ele>55.0</ele><time>2026-04-17T13:26:55.998Z</time></trkpt><trkpt lat="53.00861111057086" lon="12.980845348104177"><ele>55.33333333333333</ele><time>2026-04-17T13:26:56.998Z</time></trkpt><trkpt lat="53.0086531752681" lon="12.981081604724247"><ele>55.66666666666667</ele><time>2026-04-17T13:26:57.998Z</time></trkpt><trkpt lat="53.00869543005474" lon="12.981333265900343"><ele>56.0</ele><time>2026-04-17T13:26:58.998Z</time></trkpt><trkpt lat="53.0087399247639" lon="12.981600618751013"><ele>56.333333333333336</ele><time>2026-04-17T13:26:59.998Z</time></trkpt><trkpt lat="53.008780208843774" lon="12.981859438050467"><ele>56.66666666666667</ele><time>2026-04-17T13:27:00.998Z</time></trkpt><trkpt lat="53.00881823077936" lon="12.98212410618544"><ele>57.0</ele><time>2026-04-17T13:27:01.998Z</time></trkpt><trkpt lat="53.0088599704498" lon="12.982389309948001"><ele>58.33333333333333</ele><time>2026-04-17T13:27:02.998Z</time></trkpt><trkpt lat="53.0089060836775" lon="12.982657837699614"><ele>59.666666666666664</ele><time>2026-04-17T13:27:03.998Z</time></trkpt><trkpt lat="53.008951803374195" lon="12.982928380363113"><ele>61.0</ele><time>2026-04-17T13:27:04.998Z</time></trkpt><trkpt lat="53.00899747664454" lon="12.983207524357864"><ele>62.0</ele><time>2026-04-17T13:27:05.998Z</time></trkpt><trkpt lat="53.00904638841142" lon="12.983488818038904"><ele>63.0</ele><time>2026-04-17T13:27:06.998Z</time></trkpt><trkpt lat="53.00909303130892" lon="12.983798952080464"><ele>64.0</ele><time>2026-04-17T13:27:07.998Z</time></trkpt><trkpt lat="53.009143009229064" lon="12.984117185285559"><ele>63.666666666666664</ele><time>2026-04-17T13:27:08.998Z</time></trkpt><trkpt lat="53.009194935458424" lon="12.984456044947853"><ele>63.33333333333333</ele><time>2026-04-17T13:27:09.998Z</time></trkpt><trkpt lat="53.009228960214124" lon="12.98464292363824"><ele>63.0</ele><time>2026-04-17T13:27:11Z</time></trkpt><trkpt lat="53.00928089305357" lon="12.984941194193642"><ele>62.0</ele><time>2026-04-17T13:27:12Z</time></trkpt><trkpt lat="53.009330544294414" lon="12.985243128394064"><ele>61.0</ele><time>2026-04-17T13:27:13Z</time></trkpt><trkpt lat="53.00938153889541" lon="12.985551213634112"><ele>60.0</ele><time>2026-04-17T13:27:14Z</time></trkpt><trkpt lat="53.009431322783755" lon="12.985862523209699"><ele>58.33333333333333</ele><time>2026-04-17T13:27:15Z</time></trkpt><trkpt lat="53.00948032800649" lon="12.986173734114068"><ele>56.666666666666664</ele><time>2026-04-17T13:27:16Z</time></trkpt><trkpt lat="53.009532507264574" lon="12.986488425200783"><ele>55.0</ele><time>2026-04-17T13:27:17Z</time></trkpt><trkpt lat="53.009583301805954" lon="12.986806161605617"><ele>54.666666666666664</ele><time>2026-04-17T13:27:18Z</time></trkpt><trkpt lat="53.00963411767042" lon="12.987123253434662"><ele>54.33333333333333</ele><time>2026-04-17T13:27:19Z</time></trkpt><trkpt lat="53.00968270594317" lon="12.987444357690507"><ele>54.0</ele><time>2026-04-17T13:27:20Z</time></trkpt><trkpt lat="53.00973744007227" lon="12.987758388134344"><ele>54.0</ele><time>2026-04-17T13:27:21Z</time></trkpt><trkpt lat="53.00978949826737" lon="12.988077625983092"><ele>54.0</ele><time>2026-04-17T13:27:22Z</time></trkpt><trkpt lat="53.00984384898656" lon="12.988395281067248"><ele>54.0</ele><time>2026-04-17T13:27:23Z</time></trkpt><trkpt lat="53.00989437157668" lon="12.988715570398993"><ele>54.33333333333333</ele><time>2026-04-17T13:27:24Z</time></trkpt><trkpt lat="53.00994553193054" lon="12.9890334922296"><ele>54.666666666666664</ele><time>2026-04-17T13:27:25Z</time></trkpt><trkpt lat="53.009993963968036" lon="12.989351642212286"><ele>55.0</ele><time>2026-04-17T13:27:26Z</time></trkpt><trkpt lat="53.01004245177068" lon="12.989667485308175"><ele>56.0</ele><time>2026-04-17T13:27:27Z</time></trkpt><trkpt lat="53.0100876092854" lon="12.989971826838518"><ele>57.0</ele><time>2026-04-17T13:27:28Z</time></trkpt><trkpt lat="53.01013644445355" lon="12.990265670234463"><ele>58.0</ele><time>2026-04-17T13:27:29Z</time></trkpt><trkpt lat="53.010182019961704" lon="12.99054147391713"><ele>58.0</ele><time>2026-04-17T13:27:30Z</time></trkpt><trkpt lat="53.01022342003293" lon="12.99081410600791"><ele>58.0</ele><time>2026-04-17T13:27:31Z</time></trkpt><trkpt lat="53.01026424053955" lon="12.991067899731949"><ele>58.0</ele><time>2026-04-17T13:27:32Z</time></trkpt><trkpt lat="53.0103056287454" lon="12.99129392615204"><ele>57.0</ele><time>2026-04-17T13:27:33Z</time></trkpt><trkpt lat="53.01034550074066" lon="12.991535568969303"><ele>56.0</ele><time>2026-04-17T13:27:34Z</time></trkpt><trkpt lat="53.01038485118515" lon="12.991761644065168"><ele>55.0</ele><time>2026-04-17T13:27:35Z</time></trkpt><trkpt lat="53.0104076875748" lon="12.991979762105732"><ele>54.0</ele><time>2026-04-17T13:27:36Z</time></trkpt><trkpt lat="53.0104406070987" lon="12.992183058586837"><ele>53.800000000000004</ele><time>2026-04-17T13:27:37Z</time></trkpt><trkpt lat="53.0104671754907" lon="12.992356358032673"><ele>53.60000000000001</ele><time>2026-04-17T13:27:38Z</time></trkpt><trkpt lat="53.0105078175355" lon="12.992516712082217"><ele>53.4</ele><time>2026-04-17T13:27:39Z</time></trkpt><trkpt lat="53.010519148603706" lon="12.99267655312732"><ele>53.2</ele><time>2026-04-17T13:27:40Z</time></trkpt><trkpt lat="53.01054345605177" lon="12.992828920632189"><ele>53.0</ele><time>2026-04-17T13:27:41Z</time></trkpt><trkpt lat="53.01059383933962" lon="12.992970826319022"><ele>53.0</ele><time>2026-04-17T13:27:42Z</time></trkpt><trkpt lat="53.01066671499284" lon="12.993102196394105"><ele>53.0</ele><time>2026-04-17T13:27:43Z</time></trkpt><trkpt lat="53.01075765702694" lon="12.993224794530393"><ele>53.0</ele><time>2026-04-17T13:27:44Z</time></trkpt><trkpt lat="53.010853155759676" lon="12.993345986985931"><ele>53.0</ele><time>2026-04-17T13:27:45Z</time></trkpt><trkpt lat="53.01094977073469" lon="12.993475805900793"><ele>53.25</ele><time>2026-04-17T13:27:46Z</time></trkpt><trkpt lat="53.01104693874277" lon="12.993621336042608"><ele>53.5</ele><time>2026-04-17T13:27:47Z</time></trkpt><trkpt lat="53.01115082247155" lon="12.99376065751992"><ele>53.75</ele><time>2026-04-17T13:27:47.999Z</time></trkpt><trkpt lat="53.011251982619726" lon="12.993905296732136"><ele>54.0</ele><time>2026-04-17T13:27:48.999Z</time></trkpt><trkpt lat="53.011353060174024" lon="12.994051709743445"><ele>53.75</ele><time>2026-04-17T13:27:49.999Z</time></trkpt><trkpt lat="53.01145496893565" lon="12.994198701306495"><ele>53.5</ele><time>2026-04-17T13:27:50.999Z</time></trkpt><trkpt lat="53.01155722444061" lon="12.99434063381759"><ele>53.25</ele><time>2026-04-17T13:27:51.999Z</time></trkpt><trkpt lat="53.01166130286808" lon="12.994484245830753"><ele>53.0</ele><time>2026-04-17T13:27:52.999Z</time></trkpt><trkpt lat="53.011765634839826" lon="12.99462413344335"><ele>53.0</ele><time>2026-04-17T13:27:53.999Z</time></trkpt><trkpt lat="53.01187138130198" lon="12.994770721878858"><ele>53.0</ele><time>2026-04-17T13:27:54.999Z</time></trkpt><trkpt lat="53.01197654244729" lon="12.994916947057536"><ele>53.0</ele><time>2026-04-17T13:27:55.999Z</time></trkpt><trkpt lat="53.01208122948015" lon="12.995062124343923"><ele>53.0</ele><time>2026-04-17T13:27:56.999Z</time></trkpt><trkpt lat="53.01218681399799" lon="12.995215853819303"><ele>52.75</ele><time>2026-04-17T13:27:57.999Z</time></trkpt><trkpt lat="53.01229057169725" lon="12.995365051363086"><ele>52.5</ele><time>2026-04-17T13:27:58.999Z</time></trkpt><trkpt lat="53.01240037049196" lon="12.995508482277108"><ele>52.25</ele><time>2026-04-17T13:27:59.999Z</time></trkpt><trkpt lat="53.01250819200334" lon="12.995655509385163"><ele>52.0</ele><time>2026-04-17T13:28:00.999Z</time></trkpt><trkpt lat="53.012615141309105" lon="12.995801185716331"><ele>53.5</ele><time>2026-04-17T13:28:01.999Z</time></trkpt><trkpt lat="53.01271930317503" lon="12.995947371629185"><ele>55.0</ele><time>2026-04-17T13:28:02.999Z</time></trkpt><trkpt lat="53.01282707773657" lon="12.996092038391103"><ele>56.5</ele><time>2026-04-17T13:28:03.999Z</time></trkpt><trkpt lat="53.01293192266068" lon="12.99623670592227"><ele>58.0</ele><time>2026-04-17T13:28:04.999Z</time></trkpt><trkpt lat="53.01303282554861" lon="12.99638427807789"><ele>58.0</ele><time>2026-04-17T13:28:05.999Z</time></trkpt><trkpt lat="53.01312042417691" lon="12.996508927961031"><ele>58.0</ele><time>2026-04-17T13:28:06.999Z</time></trkpt><trkpt lat="53.013206172312294" lon="12.996624764883736"><ele>58.0</ele><time>2026-04-17T13:28:07.999Z</time></trkpt><trkpt lat="53.01327804690517" lon="12.996726350635493"><ele>58.0</ele><time>2026-04-17T13:28:08.999Z</time></trkpt><trkpt lat="53.01332688145075" lon="12.996798122560314"><ele>58.0</ele><time>2026-04-17T13:28:09.999Z</time></trkpt><trkpt lat="53.01325947139136" lon="12.997008818008862"><ele>57.8</ele><time>2026-04-17T13:28:13.999Z</time></trkpt><trkpt lat="53.01314940768365" lon="12.997047023645175"><ele>57.599999999999994</ele><time>2026-04-17T13:28:15.999Z</time></trkpt><trkpt lat="53.01305115351072" lon="12.99711750671345"><ele>57.400000000000006</ele><time>2026-04-17T13:28:17.999Z</time></trkpt><trkpt lat="53.01303690017774" lon="12.997257819223332"><ele>57.2</ele><time>2026-04-17T13:28:19.999Z</time></trkpt><trkpt lat="53.01300295303449" lon="12.997436048224717"><ele>57.0</ele><time>2026-04-17T13:28:21.999Z</time></trkpt><trkpt lat="53.01298428333815" lon="12.997542408481387"><ele>56.666666666666664</ele><time>2026-04-17T13:28:22.999Z</time></trkpt><trkpt lat="53.01291275261025" lon="12.997534313618633"><ele>56.33333333333333</ele><time>2026-04-17T13:28:23.999Z</time></trkpt><trkpt lat="53.01286640763408" lon="12.997629036986405"><ele>56.0</ele><time>2026-04-17T13:28:24.999Z</time></trkpt><trkpt lat="53.012815912847664" lon="12.997732241857497"><ele>55.666666666666664</ele><time>2026-04-17T13:28:25.999Z</time></trkpt><trkpt lat="53.0127585896056" lon="12.997849403208754"><ele>55.33333333333333</ele><time>2026-04-17T13:28:26.999Z</time></trkpt><trkpt lat="53.012697675774156" lon="12.99797390306086"><ele>55.0</ele><time>2026-04-17T13:28:27.999Z</time></trkpt><trkpt lat="53.01265533253881" lon="12.998065804757282"><ele>55.0</ele><time>2026-04-17T13:28:28.999Z</time></trkpt><trkpt lat="53.012604273877926" lon="12.998184609434357"><ele>55.0</ele><time>2026-04-17T13:28:29.999Z</time></trkpt><trkpt lat="53.012556742475105" lon="12.998302667987772"><ele>55.0</ele><time>2026-04-17T13:28:30.999Z</time></trkpt><trkpt lat="53.01251850454066" lon="12.998408191487401"><ele>55.0</ele><time>2026-04-17T13:28:31.998Z</time></trkpt><trkpt lat="53.01282838350326" lon="12.998996316539397"><ele>55.4</ele><time>2026-04-17T13:28:32.998Z</time></trkpt><trkpt lat="53.01287754401534" lon="12.999097069258527"><ele>55.8</ele><time>2026-04-17T13:28:35.998Z</time></trkpt><trkpt lat="53.01297327080691" lon="12.999157846763453"><ele>56.2</ele><time>2026-04-17T13:28:37.998Z</time></trkpt><trkpt lat="53.013090696404205" lon="12.999251170443653"><ele>56.6</ele><time>2026-04-17T13:28:39.998Z</time></trkpt><trkpt lat="53.01315756939914" lon="12.999301354315207"><ele>57.0</ele><time>2026-04-17T13:28:40.998Z</time></trkpt><trkpt lat="53.013224296274416" lon="12.999352672138343"><ele>57.333333333333336</ele><time>2026-04-17T13:28:41.998Z</time></trkpt><trkpt lat="53.01328952376491" lon="12.999411793158208"><ele>57.66666666666667</ele><time>2026-04-17T13:28:42.998Z</time></trkpt><trkpt lat="53.01335469822682" lon="12.999468152581771"><ele>58.0</ele><time>2026-04-17T13:28:43.998Z</time></trkpt><trkpt lat="53.013419017440725" lon="12.999516391751106"><ele>58.333333333333336</ele><time>2026-04-17T13:28:44.998Z</time></trkpt><trkpt lat="53.01353151629008" lon="12.999613925283478"><ele>58.66666666666667</ele><time>2026-04-17T13:28:46.998Z</time></trkpt><trkpt lat="53.01359420566259" lon="12.999671224531099"><ele>59.0</ele><time>2026-04-17T13:28:47.998Z</time></trkpt><trkpt lat="53.0136618970612" lon="12.99972157895237"><ele>58.333333333333336</ele><time>2026-04-17T13:28:48.998Z</time></trkpt><trkpt lat="53.01373065374683" lon="12.999769382965411"><ele>57.66666666666667</ele><time>2026-04-17T13:28:49.998Z</time></trkpt><trkpt lat="53.01380325842093" lon="12.999822295185606"><ele>57.0</ele><time>2026-04-17T13:28:50.998Z</time></trkpt><trkpt lat="53.01386671445409" lon="12.999878368616626"><ele>56.33333333333333</ele><time>2026-04-17T13:28:51.998Z</time></trkpt><trkpt lat="53.01393663574362" lon="12.99993255485262"><ele>55.666666666666664</ele><time>2026-04-17T13:28:52.998Z</time></trkpt><trkpt lat="53.01400579789924" lon="12.9999861261495"><ele>55.0</ele><time>2026-04-17T13:28:53.998Z</time></trkpt><trkpt lat="53.014076493421435" lon="13.000038192168478"><ele>54.99999999999999</ele><time>2026-04-17T13:28:54.998Z</time></trkpt><trkpt lat="53.01414499234835" lon="13.000091244904546"><ele>55.0</ele><time>2026-04-17T13:28:55.998Z</time></trkpt><trkpt lat="53.01420920557415" lon="13.000141418516852"><ele>55.0</ele><time>2026-04-17T13:28:56.998Z</time></trkpt><trkpt lat="53.01427685404019" lon="13.00018650635082"><ele>55.0</ele><time>2026-04-17T13:28:57.998Z</time></trkpt><trkpt lat="53.01434579075123" lon="13.00022944600335"><ele>55.0</ele><time>2026-04-17T13:28:58.998Z</time></trkpt><trkpt lat="53.01441238898217" lon="13.000268332478312"><ele>54.99999999999999</ele><time>2026-04-17T13:28:59.998Z</time></trkpt><trkpt lat="53.014480040947305" lon="13.000304608256561"><ele>55.0</ele><time>2026-04-17T13:29:00.998Z</time></trkpt><trkpt lat="53.01455043285034" lon="13.000348854939004"><ele>54.857142857142854</ele><time>2026-04-17T13:29:01.998Z</time></trkpt><trkpt lat="53.01461031999101" lon="13.000396180633741"><ele>54.714285714285715</ele><time>2026-04-17T13:29:02.998Z</time></trkpt><trkpt lat="53.014672854435894" lon="13.000443636971164"><ele>54.57142857142857</ele><time>2026-04-17T13:29:03.998Z</time></trkpt><trkpt lat="53.01474012704966" lon="13.000503932522932"><ele>54.42857142857143</ele><time>2026-04-17T13:29:04.998Z</time></trkpt><trkpt lat="53.014805677481505" lon="13.000568786257968"><ele>54.285714285714285</ele><time>2026-04-17T13:29:05.998Z</time></trkpt><trkpt lat="53.01487024118789" lon="13.000627437048797"><ele>54.14285714285714</ele><time>2026-04-17T13:29:06.998Z</time></trkpt><trkpt lat="53.01493136906129" lon="13.000683450159386"><ele>54.0</ele><time>2026-04-17T13:29:07.998Z</time></trkpt><trkpt lat="53.01499035153325" lon="13.000740326326165"><ele>54.0</ele><time>2026-04-17T13:29:08.998Z</time></trkpt><trkpt lat="53.0150491213933" lon="13.000796026300858"><ele>54.0</ele><time>2026-04-17T13:29:09.998Z</time></trkpt><trkpt lat="53.01511412230627" lon="13.000850129042245"><ele>54.0</ele><time>2026-04-17T13:29:10.998Z</time></trkpt><trkpt lat="53.01517873058836" lon="13.000910532186225"><ele>54.0</ele><time>2026-04-17T13:29:11.998Z</time></trkpt><trkpt lat="53.01524113519214" lon="13.000975936134479"><ele>54.0</ele><time>2026-04-17T13:29:12.998Z</time></trkpt><trkpt lat="53.015306893469145" lon="13.001048839524236"><ele>54.0</ele><time>2026-04-17T13:29:13.998Z</time></trkpt><trkpt lat="53.015362802387514" lon="13.001125149374479"><ele>54.0</ele><time>2026-04-17T13:29:14.998Z</time></trkpt><trkpt lat="53.01541929859111" lon="13.001193435342365"><ele>54.0</ele><time>2026-04-17T13:29:15.997Z</time></trkpt><trkpt lat="53.01548162940659" lon="13.001251092519208"><ele>54.0</ele><time>2026-04-17T13:29:17Z</time></trkpt><trkpt lat="53.01553815018875" lon="13.001305698454324"><ele>54.0</ele><time>2026-04-17T13:29:18Z</time></trkpt><trkpt lat="53.01559863096079" lon="13.001363206510915"><ele>54.0</ele><time>2026-04-17T13:29:19Z</time></trkpt><trkpt lat="53.015656027728014" lon="13.001421951017354"><ele>54.0</ele><time>2026-04-17T13:29:20Z</time></trkpt><trkpt lat="53.01571618794865" lon="13.001485415310905"><ele>54.0</ele><time>2026-04-17T13:29:21Z</time></trkpt><trkpt lat="53.015774086326466" lon="13.00154980569306"><ele>54.0</ele><time>2026-04-17T13:29:22Z</time></trkpt><trkpt lat="53.01583154930701" lon="13.001612442060377"><ele>54.333333333333336</ele><time>2026-04-17T13:29:23Z</time></trkpt><trkpt lat="53.01589326496695" lon="13.001671850503012"><ele>54.66666666666667</ele><time>2026-04-17T13:29:24Z</time></trkpt><trkpt lat="53.01596346037057" lon="13.00173250200726"><ele>55.0</ele><time>2026-04-17T13:29:25Z</time></trkpt><trkpt lat="53.01604250953086" lon="13.001795799021805"><ele>55.333333333333336</ele><time>2026-04-17T13:29:26Z</time></trkpt><trkpt lat="53.01612424081096" lon="13.001864620474533"><ele>55.66666666666667</ele><time>2026-04-17T13:29:27Z</time></trkpt><trkpt lat="53.01619910757258" lon="13.001930496632408"><ele>56.0</ele><time>2026-04-17T13:29:28Z</time></trkpt><trkpt lat="53.01627969716897" lon="13.00199964624486"><ele>56.0</ele><time>2026-04-17T13:29:29Z</time></trkpt><trkpt lat="53.01636184075803" lon="13.002067799741324"><ele>55.99999999999999</ele><time>2026-04-17T13:29:30Z</time></trkpt><trkpt lat="53.01644269131014" lon="13.002134559304256"><ele>55.99999999999999</ele><time>2026-04-17T13:29:31Z</time></trkpt><trkpt lat="53.016525250778365" lon="13.002201962535763"><ele>56.0</ele><time>2026-04-17T13:29:32Z</time></trkpt><trkpt lat="53.016610790738966" lon="13.002266260446271"><ele>56.0</ele><time>2026-04-17T13:29:33Z</time></trkpt><trkpt lat="53.01669384000559" lon="13.002331120438894"><ele>56.00000000000001</ele><time>2026-04-17T13:29:34Z</time></trkpt><trkpt lat="53.01677340289854" lon="13.002389415190283"><ele>56.0</ele><time>2026-04-17T13:29:35Z</time></trkpt><trkpt lat="53.0168547151154" lon="13.002450517789912"><ele>56.0</ele><time>2026-04-17T13:29:36Z</time></trkpt><trkpt lat="53.01693261381673" lon="13.0025071668974"><ele>56.0</ele><time>2026-04-17T13:29:37Z</time></trkpt><trkpt lat="53.01701926269077" lon="13.002568939222154"><ele>56.00000000000001</ele><time>2026-04-17T13:29:38Z</time></trkpt><trkpt lat="53.017102606193035" lon="13.002632197979295"><ele>56.0</ele><time>2026-04-17T13:29:39Z</time></trkpt><trkpt lat="53.01718198117426" lon="13.002689169975662"><ele>56.16666666666667</ele><time>2026-04-17T13:29:40Z</time></trkpt><trkpt lat="53.01725899851977" lon="13.002737954714826"><ele>56.333333333333336</ele><time>2026-04-17T13:29:41Z</time></trkpt><trkpt lat="53.01732902675025" lon="13.002779170699727"><ele>56.5</ele><time>2026-04-17T13:29:42Z</time></trkpt><trkpt lat="53.01739100424068" lon="13.00281959969355"><ele>56.66666666666667</ele><time>2026-04-17T13:29:43Z</time></trkpt><trkpt lat="53.01745635161624" lon="13.002861815128927"><ele>56.833333333333336</ele><time>2026-04-17T13:29:45Z</time></trkpt><trkpt lat="53.01748845386988" lon="13.002987711035182"><ele>57.0</ele><time>2026-04-17T13:29:48Z</time></trkpt><trkpt lat="53.01748070029441" lon="13.003174694729239"><ele>57.0</ele><time>2026-04-17T13:29:50Z</time></trkpt><trkpt lat="53.017490191208026" lon="13.003284623998685"><ele>57.0</ele><time>2026-04-17T13:29:51Z</time></trkpt><trkpt lat="53.017502687547804" lon="13.003411895540838"><ele>57.0</ele><time>2026-04-17T13:29:52Z</time></trkpt><trkpt lat="53.01752292829412" lon="13.003543599791827"><ele>57.0</ele><time>2026-04-17T13:29:53Z</time></trkpt><trkpt lat="53.017549551293264" lon="13.003674291229185"><ele>57.0</ele><time>2026-04-17T13:29:54Z</time></trkpt><trkpt lat="53.01758178322689" lon="13.003805521691481"><ele>57.0</ele><time>2026-04-17T13:29:54.999Z</time></trkpt><trkpt lat="53.0176117333053" lon="13.003952562812557"><ele>56.833333333333336</ele><time>2026-04-17T13:29:55.999Z</time></trkpt><trkpt lat="53.01763988179924" lon="13.004098385193839"><ele>56.66666666666667</ele><time>2026-04-17T13:29:56.999Z</time></trkpt><trkpt lat="53.01766924219261" lon="13.00423584196102"><ele>56.5</ele><time>2026-04-17T13:29:57.999Z</time></trkpt><trkpt lat="53.017697948609374" lon="13.004381426493698"><ele>56.333333333333336</ele><time>2026-04-17T13:29:58.999Z</time></trkpt><trkpt lat="53.01772100756436" lon="13.004503804480825"><ele>56.16666666666667</ele><time>2026-04-17T13:29:59.999Z</time></trkpt><trkpt lat="53.01774670424669" lon="13.004629333881736"><ele>56.0</ele><time>2026-04-17T13:30:00.999Z</time></trkpt><trkpt lat="53.01777416343543" lon="13.004761795713012"><ele>55.833333333333336</ele><time>2026-04-17T13:30:01.999Z</time></trkpt><trkpt lat="53.01779677811899" lon="13.004889439313152"><ele>55.66666666666667</ele><time>2026-04-17T13:30:02.999Z</time></trkpt><trkpt lat="53.01781945256485" lon="13.005015403946212"><ele>55.5</ele><time>2026-04-17T13:30:03.999Z</time></trkpt><trkpt lat="53.01783983216942" lon="13.005127087765048"><ele>55.33333333333333</ele><time>2026-04-17T13:30:04.999Z</time></trkpt><trkpt lat="53.01786537564433" lon="13.005252967172945"><ele>55.166666666666664</ele><time>2026-04-17T13:30:05.999Z</time></trkpt><trkpt lat="53.01789117032826" lon="13.005388189542556"><ele>55.0</ele><time>2026-04-17T13:30:06.999Z</time></trkpt><trkpt lat="53.017917795567506" lon="13.005512671945946"><ele>54.99999999999999</ele><time>2026-04-17T13:30:07.999Z</time></trkpt><trkpt lat="53.017945310432665" lon="13.005640571583788"><ele>55.0</ele><time>2026-04-17T13:30:08.999Z</time></trkpt><trkpt lat="53.01797045460614" lon="13.005768037412084"><ele>55.0</ele><time>2026-04-17T13:30:09.999Z</time></trkpt><trkpt lat="53.01799191923625" lon="13.00589442915256"><ele>55.0</ele><time>2026-04-17T13:30:10.999Z</time></trkpt><trkpt lat="53.01801177713086" lon="13.006011660638013"><ele>54.99999999999999</ele><time>2026-04-17T13:30:11.999Z</time></trkpt><trkpt lat="53.01802016689757" lon="13.00618674667804"><ele>55.0</ele><time>2026-04-17T13:30:13.999Z</time></trkpt><trkpt lat="53.0179365929223" lon="13.006401847252294"><ele>55.0</ele><time>2026-04-17T13:30:16.999Z</time></trkpt><trkpt lat="53.01789349030729" lon="13.006511911894698"><ele>55.0</ele><time>2026-04-17T13:30:17.999Z</time></trkpt><trkpt lat="53.01784022373787" lon="13.006641194112065"><ele>55.0</ele><time>2026-04-17T13:30:18.999Z</time></trkpt><trkpt lat="53.01777540626318" lon="13.006771485065379"><ele>55.0</ele><time>2026-04-17T13:30:19.999Z</time></trkpt><trkpt lat="53.017702351101384" lon="13.006910960572181"><ele>55.0</ele><time>2026-04-17T13:30:20.999Z</time></trkpt><trkpt lat="53.01762719847002" lon="13.007064162651327"><ele>55.0</ele><time>2026-04-17T13:30:21.999Z</time></trkpt><trkpt lat="53.01755662308842" lon="13.007224378098437"><ele>55.0</ele><time>2026-04-17T13:30:22.999Z</time></trkpt><trkpt lat="53.01749004606369" lon="13.007378977565029"><ele>55.0</ele><time>2026-04-17T13:30:23.999Z</time></trkpt><trkpt lat="53.01741901972045" lon="13.007542663557567"><ele>55.0</ele><time>2026-04-17T13:30:24.999Z</time></trkpt><trkpt lat="53.01735468365517" lon="13.007691414236929"><ele>55.2</ele><time>2026-04-17T13:30:25.999Z</time></trkpt><trkpt lat="53.01728725475052" lon="13.007834935270907"><ele>55.4</ele><time>2026-04-17T13:30:26.999Z</time></trkpt><trkpt lat="53.0172266575812" lon="13.007966172737415"><ele>55.599999999999994</ele><time>2026-04-17T13:30:27.999Z</time></trkpt><trkpt lat="53.01716632299548" lon="13.008091188480174"><ele>55.8</ele><time>2026-04-17T13:30:28.999Z</time></trkpt><trkpt lat="53.01710775691178" lon="13.008225988685439"><ele>56.0</ele><time>2026-04-17T13:30:29.999Z</time></trkpt><trkpt lat="53.01704342911749" lon="13.008370511393897"><ele>56.75</ele><time>2026-04-17T13:30:30.999Z</time></trkpt><trkpt lat="53.0169770148471" lon="13.008516173825859"><ele>57.5</ele><time>2026-04-17T13:30:31.999Z</time></trkpt><trkpt lat="53.01690444518238" lon="13.008681242390569"><ele>58.25</ele><time>2026-04-17T13:30:32.999Z</time></trkpt><trkpt lat="53.01682874223279" lon="13.008844010480454"><ele>59.0</ele><time>2026-04-17T13:30:33.999Z</time></trkpt><trkpt lat="53.0167510917363" lon="13.009005515016744"><ele>59.0</ele><time>2026-04-17T13:30:34.999Z</time></trkpt><trkpt lat="53.016683763508816" lon="13.009160139760638"><ele>59.00000000000001</ele><time>2026-04-17T13:30:35.999Z</time></trkpt><trkpt lat="53.01661391509817" lon="13.009310457211217"><ele>59.00000000000001</ele><time>2026-04-17T13:30:36.999Z</time></trkpt><trkpt lat="53.01654886845973" lon="13.009451090538526"><ele>59.0</ele><time>2026-04-17T13:30:37.999Z</time></trkpt><trkpt lat="53.016487233585295" lon="13.009591936225817"><ele>59.0</ele><time>2026-04-17T13:30:38.998Z</time></trkpt><trkpt lat="53.016428816293114" lon="13.009723211946714"><ele>58.6</ele><time>2026-04-17T13:30:39.998Z</time></trkpt><trkpt lat="53.01636973992531" lon="13.00986062563304"><ele>58.2</ele><time>2026-04-17T13:30:40.998Z</time></trkpt><trkpt lat="53.016310618433" lon="13.010002181074828"><ele>57.800000000000004</ele><time>2026-04-17T13:30:41.998Z</time></trkpt><trkpt lat="53.01624655480879" lon="13.010138014497135"><ele>57.400000000000006</ele><time>2026-04-17T13:30:42.998Z</time></trkpt><trkpt lat="53.016182366652835" lon="13.010275545927083"><ele>57.0</ele><time>2026-04-17T13:30:43.998Z</time></trkpt><trkpt lat="53.01611688239394" lon="13.010415161045612"><ele>57.0</ele><time>2026-04-17T13:30:44.998Z</time></trkpt><trkpt lat="53.01605119491309" lon="13.010558609275733"><ele>57.0</ele><time>2026-04-17T13:30:45.998Z</time></trkpt><trkpt lat="53.01597890992799" lon="13.010706286454374"><ele>57.0</ele><time>2026-04-17T13:30:46.998Z</time></trkpt><trkpt lat="53.01590792641146" lon="13.010864974614346"><ele>57.0</ele><time>2026-04-17T13:30:47.998Z</time></trkpt><trkpt lat="53.0158426303708" lon="13.011014013617508"><ele>57.0</ele><time>2026-04-17T13:30:48.998Z</time></trkpt><trkpt lat="53.015776191560015" lon="13.011160104579387"><ele>57.0</ele><time>2026-04-17T13:30:49.998Z</time></trkpt><trkpt lat="53.015715126031104" lon="13.011304117695406"><ele>57.0</ele><time>2026-04-17T13:30:50.998Z</time></trkpt><trkpt lat="53.015648003440376" lon="13.011452241175109"><ele>57.0</ele><time>2026-04-17T13:30:51.998Z</time></trkpt><trkpt lat="53.01558607401758" lon="13.011595900958763"><ele>57.0</ele><time>2026-04-17T13:30:52.998Z</time></trkpt><trkpt lat="53.01551966339027" lon="13.01174024178577"><ele>57.0</ele><time>2026-04-17T13:30:53.998Z</time></trkpt><trkpt lat="53.01545647527058" lon="13.011884831675243"><ele>57.0</ele><time>2026-04-17T13:30:54.998Z</time></trkpt><trkpt lat="53.01539934477408" lon="13.012017777126418"><ele>57.0</ele><time>2026-04-17T13:30:55.998Z</time></trkpt><trkpt lat="53.015335984194316" lon="13.012151424686163"><ele>57.0</ele><time>2026-04-17T13:30:56.998Z</time></trkpt><trkpt lat="53.015273293132246" lon="13.012292168059355"><ele>57.0</ele><time>2026-04-17T13:30:57.998Z</time></trkpt><trkpt lat="53.01520704660374" lon="13.012430883876428"><ele>57.0</ele><time>2026-04-17T13:30:58.998Z</time></trkpt><trkpt lat="53.015137019137065" lon="13.012581496519987"><ele>57.0</ele><time>2026-04-17T13:30:59.998Z</time></trkpt><trkpt lat="53.01506484491025" lon="13.0127377494187"><ele>57.0</ele><time>2026-04-17T13:31:00.998Z</time></trkpt><trkpt lat="53.01499961952417" lon="13.012881006417295"><ele>57.0</ele><time>2026-04-17T13:31:01.998Z</time></trkpt><trkpt lat="53.0149403397437" lon="13.013011981771891"><ele>57.0</ele><time>2026-04-17T13:31:02.998Z</time></trkpt><trkpt lat="53.014878273809686" lon="13.013152592503264"><ele>57.0</ele><time>2026-04-17T13:31:03.998Z</time></trkpt><trkpt lat="53.01481657672728" lon="13.013293624536889"><ele>57.0</ele><time>2026-04-17T13:31:04.998Z</time></trkpt><trkpt lat="53.01475562714634" lon="13.01342849843139"><ele>57.0</ele><time>2026-04-17T13:31:05.998Z</time></trkpt><trkpt lat="53.014693011953526" lon="13.013572095740074"><ele>57.0</ele><time>2026-04-17T13:31:06.998Z</time></trkpt><trkpt lat="53.014616762319534" lon="13.013732953317822"><ele>57.0</ele><time>2026-04-17T13:31:07.998Z</time></trkpt><trkpt lat="53.014558684538265" lon="13.013866001688045"><ele>57.0</ele><time>2026-04-17T13:31:08.998Z</time></trkpt><trkpt lat="53.01449383529372" lon="13.014005858846197"><ele>57.0</ele><time>2026-04-17T13:31:09.998Z</time></trkpt><trkpt lat="53.01442512946685" lon="13.014153225214116"><ele>57.0</ele><time>2026-04-17T13:31:10.998Z</time></trkpt><trkpt lat="53.01435942371198" lon="13.014295744508871"><ele>57.0</ele><time>2026-04-17T13:31:11.998Z</time></trkpt><trkpt lat="53.01429820513707" lon="13.014437839380076"><ele>57.0</ele><time>2026-04-17T13:31:12.998Z</time></trkpt><trkpt lat="53.014241551563735" lon="13.014572356896716"><ele>57.0</ele><time>2026-04-17T13:31:13.998Z</time></trkpt><trkpt lat="53.01418352193479" lon="13.014706482462119"><ele>57.0</ele><time>2026-04-17T13:31:14.998Z</time></trkpt><trkpt lat="53.014119894478156" lon="13.014831021973274"><ele>57.0</ele><time>2026-04-17T13:31:15.998Z</time></trkpt><trkpt lat="53.014056648586966" lon="13.01496573422907"><ele>57.0</ele><time>2026-04-17T13:31:16.998Z</time></trkpt><trkpt lat="53.0139975363197" lon="13.015102194887746"><ele>57.0</ele><time>2026-04-17T13:31:17.998Z</time></trkpt><trkpt lat="53.01393883876018" lon="13.015232181483192"><ele>57.0</ele><time>2026-04-17T13:31:18.998Z</time></trkpt><trkpt lat="53.01388352650854" lon="13.015351400302311"><ele>57.0</ele><time>2026-04-17T13:31:19.998Z</time></trkpt><trkpt lat="53.01382325349865" lon="13.015470658907137"><ele>57.0</ele><time>2026-04-17T13:31:20.998Z</time></trkpt><trkpt lat="53.01375957252192" lon="13.01560036887269"><ele>57.0</ele><time>2026-04-17T13:31:21.998Z</time></trkpt><trkpt lat="53.01369947529346" lon="13.015737446741385"><ele>57.0</ele><time>2026-04-17T13:31:23Z</time></trkpt><trkpt lat="53.013639438281494" lon="13.015887128719193"><ele>57.25</ele><time>2026-04-17T13:31:24Z</time></trkpt><trkpt lat="53.013576668956304" lon="13.016041706319433"><ele>57.5</ele><time>2026-04-17T13:31:25Z</time></trkpt><trkpt lat="53.01350126443461" lon="13.01619226453454"><ele>57.75</ele><time>2026-04-17T13:31:26Z</time></trkpt><trkpt lat="53.0134326071566" lon="13.016355429213686"><ele>58.0</ele><time>2026-04-17T13:31:27Z</time></trkpt><trkpt lat="53.013351370256906" lon="13.01651957356518"><ele>57.75</ele><time>2026-04-17T13:31:28Z</time></trkpt><trkpt lat="53.013270157098226" lon="13.016698757460446"><ele>57.5</ele><time>2026-04-17T13:31:29Z</time></trkpt><trkpt lat="53.01319705155471" lon="13.01687311462809"><ele>57.25</ele><time>2026-04-17T13:31:30Z</time></trkpt><trkpt lat="53.013123250347036" lon="13.017029506414929"><ele>57.0</ele><time>2026-04-17T13:31:31Z</time></trkpt><trkpt lat="53.01304843881345" lon="13.017176091725"><ele>57.0</ele><time>2026-04-17T13:31:32Z</time></trkpt><trkpt lat="53.01298038691881" lon="13.01732494574312"><ele>57.0</ele><time>2026-04-17T13:31:33Z</time></trkpt><trkpt lat="53.01290508940226" lon="13.017484579834825"><ele>57.0</ele><time>2026-04-17T13:31:34Z</time></trkpt><trkpt lat="53.012830089130944" lon="13.017653080134963"><ele>57.0</ele><time>2026-04-17T13:31:35Z</time></trkpt><trkpt lat="53.012749919011945" lon="13.01782139850192"><ele>57.25</ele><time>2026-04-17T13:31:36Z</time></trkpt><trkpt lat="53.01267333014826" lon="13.017987194422261"><ele>57.5</ele><time>2026-04-17T13:31:37Z</time></trkpt><trkpt lat="53.012597750936884" lon="13.01814745317535"><ele>57.75</ele><time>2026-04-17T13:31:38Z</time></trkpt><trkpt lat="53.01252807997304" lon="13.01830620923899"><ele>58.0</ele><time>2026-04-17T13:31:39Z</time></trkpt><trkpt lat="53.01245869057097" lon="13.018468440556141"><ele>58.75</ele><time>2026-04-17T13:31:40Z</time></trkpt><trkpt lat="53.01239037800094" lon="13.018643290009491"><ele>59.5</ele><time>2026-04-17T13:31:41Z</time></trkpt><trkpt lat="53.01231292201719" lon="13.018826907830109"><ele>60.25</ele><time>2026-04-17T13:31:42Z</time></trkpt><trkpt lat="53.01223073592955" lon="13.019021143662478"><ele>61.0</ele><time>2026-04-17T13:31:43Z</time></trkpt><trkpt lat="53.012141415154424" lon="13.01922426352035"><ele>61.25</ele><time>2026-04-17T13:31:44Z</time></trkpt><trkpt lat="53.01205219516092" lon="13.019418588555357"><ele>61.5</ele><time>2026-04-17T13:31:45Z</time></trkpt><trkpt lat="53.01196682274476" lon="13.019589623794488"><ele>61.75</ele><time>2026-04-17T13:31:46Z</time></trkpt><trkpt lat="53.01189136812068" lon="13.019754949592961"><ele>62.0</ele><time>2026-04-17T13:31:47Z</time></trkpt><trkpt lat="53.011821314178526" lon="13.019920843629789"><ele>62.25</ele><time>2026-04-17T13:31:48Z</time></trkpt><trkpt lat="53.01175210341576" lon="13.020086511667552"><ele>62.5</ele><time>2026-04-17T13:31:49Z</time></trkpt><trkpt lat="53.01167600731725" lon="13.020252586679815"><ele>62.75</ele><time>2026-04-17T13:31:50Z</time></trkpt><trkpt lat="53.01159424521319" lon="13.020421700736986"><ele>63.0</ele><time>2026-04-17T13:31:51Z</time></trkpt><trkpt lat="53.01151086300155" lon="13.020596352147269"><ele>62.5</ele><time>2026-04-17T13:31:52Z</time></trkpt><trkpt lat="53.01143217165931" lon="13.020773161563032"><ele>62.0</ele><time>2026-04-17T13:31:53Z</time></trkpt><trkpt lat="53.01135339223886" lon="13.020943163667638"><ele>61.5</ele><time>2026-04-17T13:31:54Z</time></trkpt><trkpt lat="53.0112718140704" lon="13.021106238541796"><ele>61.0</ele><time>2026-04-17T13:31:55Z</time></trkpt><trkpt lat="53.01119532198566" lon="13.021261534250037"><ele>61.0</ele><time>2026-04-17T13:31:56Z</time></trkpt><trkpt lat="53.01111842575145" lon="13.021422710798422"><ele>61.0</ele><time>2026-04-17T13:31:57Z</time></trkpt><trkpt lat="53.011048551495456" lon="13.021580400273605"><ele>61.0</ele><time>2026-04-17T13:31:58Z</time></trkpt><trkpt lat="53.01098115568001" lon="13.021731355670653"><ele>61.0</ele><time>2026-04-17T13:31:59Z</time></trkpt><trkpt lat="53.01091763018372" lon="13.021875912709229"><ele>60.99999999999999</ele><time>2026-04-17T13:31:59.999Z</time></trkpt><trkpt lat="53.01085097533933" lon="13.02202045443713"><ele>61.0</ele><time>2026-04-17T13:32:00.999Z</time></trkpt><trkpt lat="53.01079060170152" lon="13.022142922353053"><ele>61.0</ele><time>2026-04-17T13:32:01.999Z</time></trkpt><trkpt lat="53.01073815347109" lon="13.022260453293436"><ele>61.0</ele><time>2026-04-17T13:32:02.999Z</time></trkpt><trkpt lat="53.010690961944654" lon="13.02235172275638"><ele>60.99999999999999</ele><time>2026-04-17T13:32:03.999Z</time></trkpt><trkpt lat="53.01064832078714" lon="13.022461290319473"><ele>61.0</ele><time>2026-04-17T13:32:05.999Z</time></trkpt><trkpt lat="53.01060960788115" lon="13.02256554764577"><ele>61.0</ele><time>2026-04-17T13:32:09.999Z</time></trkpt><trkpt lat="53.010680977001606" lon="13.022763199202233"><ele>60.99999999999999</ele><time>2026-04-17T13:32:10.999Z</time></trkpt><trkpt lat="53.01077241270034" lon="13.022930993268545"><ele>60.99999999999999</ele><time>2026-04-17T13:32:12.999Z</time></trkpt><trkpt lat="53.01083210806412" lon="13.023013325279193"><ele>61.0</ele><time>2026-04-17T13:32:13.999Z</time></trkpt><trkpt lat="53.01089002753941" lon="13.023097641564966"><ele>61.0</ele><time>2026-04-17T13:32:14.999Z</time></trkpt><trkpt lat="53.01094848330554" lon="13.023185861414497"><ele>61.0</ele><time>2026-04-17T13:32:15.999Z</time></trkpt><trkpt lat="53.011020810363014" lon="13.023295015385752"><ele>60.99999999999999</ele><time>2026-04-17T13:32:16.999Z</time></trkpt><trkpt lat="53.01109694518417" lon="13.02340991598151"><ele>60.99999999999999</ele><time>2026-04-17T13:32:17.999Z</time></trkpt><trkpt lat="53.011174271884066" lon="13.023529696118983"><ele>61.0</ele><time>2026-04-17T13:32:18.999Z</time></trkpt><trkpt lat="53.01124519883314" lon="13.023643526768296"><ele>61.0</ele><time>2026-04-17T13:32:19.999Z</time></trkpt><trkpt lat="53.01131028081286" lon="13.023757907826083"><ele>60.83333333333333</ele><time>2026-04-17T13:32:20.999Z</time></trkpt><trkpt lat="53.01137397401055" lon="13.023877379983288"><ele>60.666666666666664</ele><time>2026-04-17T13:32:21.999Z</time></trkpt><trkpt lat="53.01144233736223" lon="13.023981151267547"><ele>60.5</ele><time>2026-04-17T13:32:22.999Z</time></trkpt><trkpt lat="53.01150219791982" lon="13.024082358405241"><ele>60.33333333333333</ele><time>2026-04-17T13:32:23.999Z</time></trkpt><trkpt lat="53.011554801453755" lon="13.024188656582604"><ele>60.166666666666664</ele><time>2026-04-17T13:32:24.999Z</time></trkpt><trkpt lat="53.01161160786354" lon="13.02430517993434"><ele>60.0</ele><time>2026-04-17T13:32:25.999Z</time></trkpt><trkpt lat="53.01167379286527" lon="13.024393236792351"><ele>60.333333333333336</ele><time>2026-04-17T13:32:26.999Z</time></trkpt><trkpt lat="53.01172659384728" lon="13.02449312724156"><ele>60.66666666666667</ele><time>2026-04-17T13:32:27.999Z</time></trkpt><trkpt lat="53.011778828061715" lon="13.024578566336482"><ele>61.0</ele><time>2026-04-17T13:32:28.999Z</time></trkpt><trkpt lat="53.01184446947722" lon="13.024665588226108"><ele>61.333333333333336</ele><time>2026-04-17T13:32:29.999Z</time></trkpt><trkpt lat="53.01192095886756" lon="13.024748106051641"><ele>61.66666666666667</ele><time>2026-04-17T13:32:30.999Z</time></trkpt><trkpt lat="53.01199659495526" lon="13.024842129151086"><ele>62.0</ele><time>2026-04-17T13:32:31.999Z</time></trkpt><trkpt lat="53.012069255370626" lon="13.024941776375492"><ele>62.0</ele><time>2026-04-17T13:32:32.999Z</time></trkpt><trkpt lat="53.012144438462116" lon="13.025028890686562"><ele>62.0</ele><time>2026-04-17T13:32:33.999Z</time></trkpt><trkpt lat="53.012215053623606" lon="13.025134429518792"><ele>62.0</ele><time>2026-04-17T13:32:34.999Z</time></trkpt><trkpt lat="53.012292516154595" lon="13.02522767900171"><ele>62.0</ele><time>2026-04-17T13:32:35.999Z</time></trkpt><trkpt lat="53.012359001487525" lon="13.025350827022267"><ele>62.0</ele><time>2026-04-17T13:32:36.999Z</time></trkpt><trkpt lat="53.012443023931866" lon="13.025438673831978"><ele>62.400000000000006</ele><time>2026-04-17T13:32:37.999Z</time></trkpt><trkpt lat="53.0125128759486" lon="13.025545528908665"><ele>62.800000000000004</ele><time>2026-04-17T13:32:38.999Z</time></trkpt><trkpt lat="53.012579678912964" lon="13.025659569245056"><ele>63.2</ele><time>2026-04-17T13:32:39.999Z</time></trkpt><trkpt lat="53.012647783230136" lon="13.025775989736063"><ele>63.6</ele><time>2026-04-17T13:32:40.999Z</time></trkpt><trkpt lat="53.012707048014555" lon="13.025908137481629"><ele>64.0</ele><time>2026-04-17T13:32:41.999Z</time></trkpt><trkpt lat="53.0127789854744" lon="13.026034534623943"><ele>64.0</ele><time>2026-04-17T13:32:42.999Z</time></trkpt><trkpt lat="53.012858471973345" lon="13.026144497070897"><ele>64.0</ele><time>2026-04-17T13:32:43.999Z</time></trkpt><trkpt lat="53.012925577506344" lon="13.026271866843688"><ele>64.0</ele><time>2026-04-17T13:32:44.998Z</time></trkpt><trkpt lat="53.01300159337801" lon="13.026388966057"><ele>64.0</ele><time>2026-04-17T13:32:45.998Z</time></trkpt><trkpt lat="53.01307366916617" lon="13.026508286496933"><ele>64.0</ele><time>2026-04-17T13:32:46.998Z</time></trkpt><trkpt lat="53.01314366418808" lon="13.026627855878285"><ele>64.0</ele><time>2026-04-17T13:32:47.998Z</time></trkpt><trkpt lat="53.01321996485532" lon="13.026748544843414"><ele>64.0</ele><time>2026-04-17T13:32:48.998Z</time></trkpt><trkpt lat="53.01329066078812" lon="13.026862144388385"><ele>64.0</ele><time>2026-04-17T13:32:49.998Z</time></trkpt><trkpt lat="53.01334909996714" lon="13.026992257845578"><ele>64.0</ele><time>2026-04-17T13:32:50.998Z</time></trkpt><trkpt lat="53.01342200288359" lon="13.027117781242923"><ele>64.0</ele><time>2026-04-17T13:32:51.998Z</time></trkpt><trkpt lat="53.013500152355995" lon="13.027252338265303"><ele>64.25</ele><time>2026-04-17T13:32:52.998Z</time></trkpt><trkpt lat="53.01358291059381" lon="13.027380926953647"><ele>64.5</ele><time>2026-04-17T13:32:53.998Z</time></trkpt><trkpt lat="53.01366260347168" lon="13.027516592306847"><ele>64.75</ele><time>2026-04-17T13:32:54.998Z</time></trkpt><trkpt lat="53.01374300544099" lon="13.027641331740247"><ele>65.0</ele><time>2026-04-17T13:32:55.998Z</time></trkpt><trkpt lat="53.01381643366437" lon="13.027784596507411"><ele>65.2</ele><time>2026-04-17T13:32:56.998Z</time></trkpt><trkpt lat="53.01389756216066" lon="13.027908024497911"><ele>65.4</ele><time>2026-04-17T13:32:57.998Z</time></trkpt><trkpt lat="53.013977329653905" lon="13.02803448131646"><ele>65.6</ele><time>2026-04-17T13:32:58.998Z</time></trkpt><trkpt lat="53.01405581935923" lon="13.02816383978616"><ele>65.8</ele><time>2026-04-17T13:32:59.998Z</time></trkpt><trkpt lat="53.01413550486455" lon="13.028299392939191"><ele>66.0</ele><time>2026-04-17T13:33:00.998Z</time></trkpt><trkpt lat="53.014217367597155" lon="13.028435314197"><ele>65.25</ele><time>2026-04-17T13:33:01.998Z</time></trkpt><trkpt lat="53.014298699507506" lon="13.028568432992166"><ele>64.5</ele><time>2026-04-17T13:33:02.998Z</time></trkpt><trkpt lat="53.01437845890981" lon="13.028699755555422"><ele>63.75</ele><time>2026-04-17T13:33:03.998Z</time></trkpt><trkpt lat="53.01445600282641" lon="13.028840145402782"><ele>63.0</ele><time>2026-04-17T13:33:04.998Z</time></trkpt><trkpt lat="53.01454047234831" lon="13.028972216614212"><ele>63.0</ele><time>2026-04-17T13:33:05.998Z</time></trkpt><trkpt lat="53.01461534154893" lon="13.029111037459478"><ele>63.0</ele><time>2026-04-17T13:33:06.998Z</time></trkpt><trkpt lat="53.014699644121855" lon="13.029241255254027"><ele>63.0</ele><time>2026-04-17T13:33:07.998Z</time></trkpt><trkpt lat="53.01477712641999" lon="13.029369793016686"><ele>63.0</ele><time>2026-04-17T13:33:08.998Z</time></trkpt><trkpt lat="53.01484784267488" lon="13.029490202440547"><ele>63.0</ele><time>2026-04-17T13:33:09.998Z</time></trkpt><trkpt lat="53.01492000419244" lon="13.02961309317831"><ele>62.8</ele><time>2026-04-17T13:33:10.998Z</time></trkpt><trkpt lat="53.01499225873905" lon="13.029732721699183"><ele>62.599999999999994</ele><time>2026-04-17T13:33:11.998Z</time></trkpt><trkpt lat="53.015064566685986" lon="13.029864830189966"><ele>62.400000000000006</ele><time>2026-04-17T13:33:12.998Z</time></trkpt><trkpt lat="53.01514220531397" lon="13.029986230239649"><ele>62.2</ele><time>2026-04-17T13:33:13.998Z</time></trkpt><trkpt lat="53.015216949776935" lon="13.030110084352845"><ele>62.0</ele><time>2026-04-17T13:33:14.998Z</time></trkpt><trkpt lat="53.015291503162345" lon="13.03023245069129"><ele>62.0</ele><time>2026-04-17T13:33:15.998Z</time></trkpt><trkpt lat="53.015369086987114" lon="13.030356642273064"><ele>62.0</ele><time>2026-04-17T13:33:16.998Z</time></trkpt><trkpt lat="53.01543700038988" lon="13.030484524405486"><ele>62.0</ele><time>2026-04-17T13:33:17.998Z</time></trkpt><trkpt lat="53.01550516304955" lon="13.0305864710905"><ele>62.0</ele><time>2026-04-17T13:33:18.998Z</time></trkpt><trkpt lat="53.01556381930005" lon="13.030687238649765"><ele>62.0</ele><time>2026-04-17T13:33:19.998Z</time></trkpt><trkpt lat="53.01561222200258" lon="13.030775681499447"><ele>62.00000000000001</ele><time>2026-04-17T13:33:20.998Z</time></trkpt><trkpt lat="53.01564260244819" lon="13.030876733196386"><ele>62.0</ele><time>2026-04-17T13:33:21.998Z</time></trkpt><trkpt lat="53.015691213879265" lon="13.030948508641657"><ele>62.0</ele><time>2026-04-17T13:33:22.998Z</time></trkpt><trkpt lat="53.01576736016484" lon="13.031054095136891"><ele>62.0</ele><time>2026-04-17T13:33:24.998Z</time></trkpt><trkpt lat="53.01584851311745" lon="13.031129200557327"><ele>62.00000000000001</ele><time>2026-04-17T13:33:26.998Z</time></trkpt><trkpt lat="53.01590216940607" lon="13.03130941177779"><ele>62.0</ele><time>2026-04-17T13:33:29Z</time></trkpt><trkpt lat="53.01599767926823" lon="13.031459125723778"><ele>62.0</ele><time>2026-04-17T13:33:31Z</time></trkpt><trkpt lat="53.01604740804101" lon="13.031534995527455"><ele>62.00000000000001</ele><time>2026-04-17T13:33:32Z</time></trkpt><trkpt lat="53.016094633462956" lon="13.031609896380544"><ele>62.0</ele><time>2026-04-17T13:33:33Z</time></trkpt><trkpt lat="53.01614616315238" lon="13.03167785406334"><ele>62.0</ele><time>2026-04-17T13:33:34Z</time></trkpt><trkpt lat="53.01619815229772" lon="13.031754430980362"><ele>62.00000000000001</ele><time>2026-04-17T13:33:35Z</time></trkpt><trkpt lat="53.016249842050875" lon="13.031839085634273"><ele>62.0</ele><time>2026-04-17T13:33:36Z</time></trkpt><trkpt lat="53.01630271926311" lon="13.031937257067804"><ele>62.0</ele><time>2026-04-17T13:33:37Z</time></trkpt><trkpt lat="53.016355044714985" lon="13.032028842435036"><ele>62.00000000000001</ele><time>2026-04-17T13:33:38Z</time></trkpt><trkpt lat="53.01640765372851" lon="13.032123981875463"><ele>62.0</ele><time>2026-04-17T13:33:39Z</time></trkpt><trkpt lat="53.01646429525414" lon="13.032219862289598"><ele>62.0</ele><time>2026-04-17T13:33:40Z</time></trkpt><trkpt lat="53.016522444087435" lon="13.032304162827039"><ele>62.0</ele><time>2026-04-17T13:33:41Z</time></trkpt><trkpt lat="53.01657435752089" lon="13.032386615850863"><ele>62.00000000000001</ele><time>2026-04-17T13:33:42Z</time></trkpt><trkpt lat="53.016627928092774" lon="13.032472891467473"><ele>62.0</ele><time>2026-04-17T13:33:43Z</time></trkpt><trkpt lat="53.016680182408436" lon="13.032564285915516"><ele>61.50000000000001</ele><time>2026-04-17T13:33:44Z</time></trkpt><trkpt lat="53.016738485377424" lon="13.03265952190449"><ele>61.0</ele><time>2026-04-17T13:33:45Z</time></trkpt><trkpt lat="53.01679374497758" lon="13.03275735874569"><ele>60.5</ele><time>2026-04-17T13:33:46Z</time></trkpt><trkpt lat="53.01685103598291" lon="13.032857723397132"><ele>60.0</ele><time>2026-04-17T13:33:47Z</time></trkpt><trkpt lat="53.01691424455071" lon="13.032959236837078"><ele>59.50000000000001</ele><time>2026-04-17T13:33:48Z</time></trkpt><trkpt lat="53.01697745120908" lon="13.033063214786935"><ele>59.0</ele><time>2026-04-17T13:33:49Z</time></trkpt><trkpt lat="53.01703539414827" lon="13.033164558784515"><ele>59.00000000000001</ele><time>2026-04-17T13:33:50Z</time></trkpt><trkpt lat="53.01708593065327" lon="13.033256862412603"><ele>59.0</ele><time>2026-04-17T13:33:51Z</time></trkpt><trkpt lat="53.01714276335331" lon="13.033360420082369"><ele>59.0</ele><time>2026-04-17T13:33:52Z</time></trkpt><trkpt lat="53.01720179332276" lon="13.033461646488604"><ele>59.0</ele><time>2026-04-17T13:33:53Z</time></trkpt><trkpt lat="53.01726016162465" lon="13.033549314795046"><ele>59.00000000000001</ele><time>2026-04-17T13:33:54Z</time></trkpt><trkpt lat="53.01730798302551" lon="13.033629849573593"><ele>59.0</ele><time>2026-04-17T13:33:55Z</time></trkpt><trkpt lat="53.01736522296784" lon="13.033724253654379"><ele>59.00000000000001</ele><time>2026-04-17T13:33:57Z</time></trkpt><trkpt lat="53.01741679281863" lon="13.033805446650037"><ele>59.0</ele><time>2026-04-17T13:34:00Z</time></trkpt><trkpt lat="53.01747649467498" lon="13.033907537988805"><ele>59.0</ele><time>2026-04-17T13:34:02Z</time></trkpt><trkpt lat="53.01756292751196" lon="13.034065073416782"><ele>59.0</ele><time>2026-04-17T13:34:03.999Z</time></trkpt><trkpt lat="53.0176121813773" lon="13.034142938792861"><ele>59.00000000000001</ele><time>2026-04-17T13:34:04.999Z</time></trkpt><trkpt lat="53.017660385076326" lon="13.0342176263977"><ele>59.0</ele><time>2026-04-17T13:34:05.999Z</time></trkpt><trkpt lat="53.01774856565636" lon="13.034359767923283"><ele>59.00000000000001</ele><time>2026-04-17T13:34:07.999Z</time></trkpt><trkpt lat="53.01779209281259" lon="13.034443195329555"><ele>59.0</ele><time>2026-04-17T13:34:08.999Z</time></trkpt><trkpt lat="53.017865849925315" lon="13.034592145109196"><ele>59.0</ele><time>2026-04-17T13:34:10.999Z</time></trkpt><trkpt lat="53.017961066207" lon="13.034721524496208"><ele>59.0</ele><time>2026-04-17T13:34:12.999Z</time></trkpt><trkpt lat="53.01801101309188" lon="13.034792646771015"><ele>59.00000000000001</ele><time>2026-04-17T13:34:13.999Z</time></trkpt><trkpt lat="53.01806209564974" lon="13.034876321541947"><ele>59.0</ele><time>2026-04-17T13:34:14.999Z</time></trkpt><trkpt lat="53.01811205726997" lon="13.034968569728742"><ele>59.0</ele><time>2026-04-17T13:34:15.999Z</time></trkpt><trkpt lat="53.018159706882535" lon="13.03505495973217"><ele>59.0</ele><time>2026-04-17T13:34:16.999Z</time></trkpt><trkpt lat="53.018208709031775" lon="13.035138972973238"><ele>59.0</ele><time>2026-04-17T13:34:17.999Z</time></trkpt><trkpt lat="53.01825619115709" lon="13.035218967247937"><ele>59.0</ele><time>2026-04-17T13:34:18.999Z</time></trkpt><trkpt lat="53.01830288543667" lon="13.035296969339553"><ele>59.0</ele><time>2026-04-17T13:34:19.999Z</time></trkpt><trkpt lat="53.0183539847509" lon="13.035381380963832"><ele>59.0</ele><time>2026-04-17T13:34:20.999Z</time></trkpt><trkpt lat="53.01840769044095" lon="13.035468335065886"><ele>59.0</ele><time>2026-04-17T13:34:21.999Z</time></trkpt><trkpt lat="53.01845956003481" lon="13.03555673859801"><ele>59.0</ele><time>2026-04-17T13:34:22.999Z</time></trkpt><trkpt lat="53.018507804802596" lon="13.035643387212906"><ele>59.00000000000001</ele><time>2026-04-17T13:34:23.999Z</time></trkpt><trkpt lat="53.0185528682303" lon="13.035721142804354"><ele>59.00000000000001</ele><time>2026-04-17T13:34:24.999Z</time></trkpt><trkpt lat="53.01863010092587" lon="13.035854242127506"><ele>59.0</ele><time>2026-04-17T13:34:26.999Z</time></trkpt><trkpt lat="53.01871133968708" lon="13.035985953636292"><ele>59.0</ele><time>2026-04-17T13:34:28.999Z</time></trkpt><trkpt lat="53.01879589827673" lon="13.03611413557825"><ele>59.00000000000001</ele><time>2026-04-17T13:34:30.999Z</time></trkpt><trkpt lat="53.01887624895478" lon="13.036252091461005"><ele>59.0</ele><time>2026-04-17T13:34:32.999Z</time></trkpt><trkpt lat="53.018921569745096" lon="13.036338746800116"><ele>59.0</ele><time>2026-04-17T13:34:33.999Z</time></trkpt><trkpt lat="53.01897887856991" lon="13.0364267457453"><ele>59.0</ele><time>2026-04-17T13:34:34.999Z</time></trkpt><trkpt lat="53.0190287852353" lon="13.036512891664445"><ele>59.00000000000001</ele><time>2026-04-17T13:34:35.999Z</time></trkpt><trkpt lat="53.01907478073932" lon="13.036588063042608"><ele>59.0</ele><time>2026-04-17T13:34:36.999Z</time></trkpt><trkpt lat="53.01912209153737" lon="13.036659877752317"><ele>59.2</ele><time>2026-04-17T13:34:37.999Z</time></trkpt><trkpt lat="53.01917383789628" lon="13.03674023854899"><ele>59.400000000000006</ele><time>2026-04-17T13:34:38.999Z</time></trkpt><trkpt lat="53.01926012759724" lon="13.03686762778801"><ele>59.6</ele><time>2026-04-17T13:34:40.999Z</time></trkpt><trkpt lat="53.019339088656004" lon="13.037012346422134"><ele>59.8</ele><time>2026-04-17T13:34:42.999Z</time></trkpt><trkpt lat="53.01938544814857" lon="13.037095033892335"><ele>60.0</ele><time>2026-04-17T13:34:43.999Z</time></trkpt><trkpt lat="53.01947408178208" lon="13.037245108634231"><ele>60.0</ele><time>2026-04-17T13:34:45.999Z</time></trkpt><trkpt lat="53.01955262380906" lon="13.037389448684"><ele>60.0</ele><time>2026-04-17T13:34:47.998Z</time></trkpt><trkpt lat="53.01963558931355" lon="13.03752522481148"><ele>60.0</ele><time>2026-04-17T13:34:49.998Z</time></trkpt><trkpt lat="53.01968758032073" lon="13.037592168532829"><ele>60.0</ele><time>2026-04-17T13:34:50.998Z</time></trkpt><trkpt lat="53.019772016509485" lon="13.037736937622423"><ele>60.0</ele><time>2026-04-17T13:34:52.998Z</time></trkpt><trkpt lat="53.01981817070944" lon="13.03781806895936"><ele>60.0</ele><time>2026-04-17T13:34:53.998Z</time></trkpt><trkpt lat="53.01987193723385" lon="13.03790659417083"><ele>60.0</ele><time>2026-04-17T13:34:54.998Z</time></trkpt><trkpt lat="53.019924024164965" lon="13.037999456430867"><ele>60.0</ele><time>2026-04-17T13:34:55.998Z</time></trkpt><trkpt lat="53.01997875089778" lon="13.038087765767006"><ele>60.0</ele><time>2026-04-17T13:34:56.998Z</time></trkpt><trkpt lat="53.02003097988147" lon="13.038178429894444"><ele>60.0</ele><time>2026-04-17T13:34:57.998Z</time></trkpt><trkpt lat="53.020077345313794" lon="13.038265819368121"><ele>60.0</ele><time>2026-04-17T13:34:58.998Z</time></trkpt><trkpt lat="53.020128011973796" lon="13.038346570927645"><ele>60.0</ele><time>2026-04-17T13:34:59.998Z</time></trkpt><trkpt lat="53.02018177390533" lon="13.038429384984193"><ele>60.0</ele><time>2026-04-17T13:35:00.998Z</time></trkpt><trkpt lat="53.02023140237819" lon="13.038513841601514"><ele>60.0</ele><time>2026-04-17T13:35:01.998Z</time></trkpt><trkpt lat="53.02028072209335" lon="13.038596289521518"><ele>60.0</ele><time>2026-04-17T13:35:02.998Z</time></trkpt><trkpt lat="53.02033254902341" lon="13.03868315139867"><ele>60.0</ele><time>2026-04-17T13:35:03.998Z</time></trkpt><trkpt lat="53.02037818024207" lon="13.038767747473523"><ele>60.0</ele><time>2026-04-17T13:35:04.998Z</time></trkpt><trkpt lat="53.02041839180939" lon="13.03885119886666"><ele>60.0</ele><time>2026-04-17T13:35:05.998Z</time></trkpt><trkpt lat="53.02046744848537" lon="13.038936731710198"><ele>60.0</ele><time>2026-04-17T13:35:06.998Z</time></trkpt><trkpt lat="53.02051957617554" lon="13.039020768632252"><ele>60.0</ele><time>2026-04-17T13:35:07.998Z</time></trkpt><trkpt lat="53.020571325240255" lon="13.039105956303743"><ele>60.0</ele><time>2026-04-17T13:35:08.998Z</time></trkpt><trkpt lat="53.020620794779276" lon="13.03918568596763"><ele>60.0</ele><time>2026-04-17T13:35:09.998Z</time></trkpt><trkpt lat="53.02067249093222" lon="13.039270795195703"><ele>60.0</ele><time>2026-04-17T13:35:10.998Z</time></trkpt><trkpt lat="53.02072286894548" lon="13.039352274597627"><ele>60.0</ele><time>2026-04-17T13:35:11.998Z</time></trkpt><trkpt lat="53.02077018634104" lon="13.039425985399907"><ele>60.0</ele><time>2026-04-17T13:35:12.998Z</time></trkpt><trkpt lat="53.020857673808145" lon="13.039587346577218"><ele>60.28571428571429</ele><time>2026-04-17T13:35:14.998Z</time></trkpt><trkpt lat="53.020903014241" lon="13.039660696796318"><ele>60.57142857142857</ele><time>2026-04-17T13:35:15.998Z</time></trkpt><trkpt lat="53.02095529240737" lon="13.03973954874594"><ele>60.85714285714286</ele><time>2026-04-17T13:35:16.998Z</time></trkpt><trkpt lat="53.0210085817411" lon="13.0398184030243"><ele>61.142857142857146</ele><time>2026-04-17T13:35:17.998Z</time></trkpt><trkpt lat="53.02105637605478" lon="13.039906533468809"><ele>61.42857142857143</ele><time>2026-04-17T13:35:18.998Z</time></trkpt><trkpt lat="53.0211075779381" lon="13.0399795660092"><ele>61.714285714285715</ele><time>2026-04-17T13:35:19.998Z</time></trkpt><trkpt lat="53.02115611718235" lon="13.040071726600358"><ele>62.0</ele><time>2026-04-17T13:35:20.998Z</time></trkpt><trkpt lat="53.021207598488395" lon="13.040159985347863"><ele>62.142857142857146</ele><time>2026-04-17T13:35:21.998Z</time></trkpt><trkpt lat="53.02125763400997" lon="13.04023804587673"><ele>62.28571428571429</ele><time>2026-04-17T13:35:22.998Z</time></trkpt><trkpt lat="53.02131025955253" lon="13.040316117878795"><ele>62.42857142857143</ele><time>2026-04-17T13:35:23.998Z</time></trkpt><trkpt lat="53.02135825372275" lon="13.040396435462622"><ele>62.57142857142857</ele><time>2026-04-17T13:35:24.998Z</time></trkpt><trkpt lat="53.021410708782625" lon="13.040493199922299"><ele>62.714285714285715</ele><time>2026-04-17T13:35:25.998Z</time></trkpt><trkpt lat="53.021461316717094" lon="13.040595714424565"><ele>62.85714285714286</ele><time>2026-04-17T13:35:26.998Z</time></trkpt><trkpt lat="53.021511686583686" lon="13.040702028042235"><ele>63.0</ele><time>2026-04-17T13:35:27.998Z</time></trkpt><trkpt lat="53.02156477672448" lon="13.040806546395157"><ele>62.666666666666664</ele><time>2026-04-17T13:35:28.998Z</time></trkpt><trkpt lat="53.02161924049402" lon="13.040902881558385"><ele>62.33333333333333</ele><time>2026-04-17T13:35:29.998Z</time></trkpt><trkpt lat="53.02167422918087" lon="13.040982846340201"><ele>62.0</ele><time>2026-04-17T13:35:30.998Z</time></trkpt><trkpt lat="53.021728178903714" lon="13.041056727135224"><ele>61.666666666666664</ele><time>2026-04-17T13:35:31.998Z</time></trkpt><trkpt lat="53.021787723053244" lon="13.04114449404081"><ele>61.33333333333333</ele><time>2026-04-17T13:35:32.997Z</time></trkpt><trkpt lat="53.021847674628226" lon="13.041248082221458"><ele>61.0</ele><time>2026-04-17T13:35:33.997Z</time></trkpt><trkpt lat="53.02190988100978" lon="13.041361265318743"><ele>60.99999999999999</ele><time>2026-04-17T13:35:35Z</time></trkpt><trkpt lat="53.021971287655724" lon="13.041463264658066"><ele>61.0</ele><time>2026-04-17T13:35:36Z</time></trkpt><trkpt lat="53.02203233136527" lon="13.041565354281222"><ele>61.0</ele><time>2026-04-17T13:35:37Z</time></trkpt><trkpt lat="53.02209011569992" lon="13.041666147203362"><ele>61.0</ele><time>2026-04-17T13:35:38Z</time></trkpt><trkpt lat="53.02214918925111" lon="13.041764868987046"><ele>60.99999999999999</ele><time>2026-04-17T13:35:39Z</time></trkpt><trkpt lat="53.02221306134846" lon="13.04187246177236"><ele>61.0</ele><time>2026-04-17T13:35:40Z</time></trkpt><trkpt lat="53.02227395054766" lon="13.041970516703586"><ele>60.83333333333333</ele><time>2026-04-17T13:35:41Z</time></trkpt><trkpt lat="53.02233263305046" lon="13.042079740315902"><ele>60.666666666666664</ele><time>2026-04-17T13:35:42Z</time></trkpt><trkpt lat="53.02238789694506" lon="13.042180497142171"><ele>60.5</ele><time>2026-04-17T13:35:43Z</time></trkpt><trkpt lat="53.022441491504956" lon="13.042274416114218"><ele>60.33333333333333</ele><time>2026-04-17T13:35:44Z</time></trkpt><trkpt lat="53.022501055294796" lon="13.042367015068402"><ele>60.166666666666664</ele><time>2026-04-17T13:35:45Z</time></trkpt><trkpt lat="53.02255918278995" lon="13.042452836491448"><ele>60.0</ele><time>2026-04-17T13:35:46Z</time></trkpt><trkpt lat="53.02261760596111" lon="13.042541055734365"><ele>60.0</ele><time>2026-04-17T13:35:47Z</time></trkpt><trkpt lat="53.02268577450802" lon="13.042633872942973"><ele>60.0</ele><time>2026-04-17T13:35:48Z</time></trkpt><trkpt lat="53.0227468549815" lon="13.042737119262283"><ele>60.0</ele><time>2026-04-17T13:35:49Z</time></trkpt><trkpt lat="53.02280931037991" lon="13.042845374484846"><ele>60.0</ele><time>2026-04-17T13:35:50Z</time></trkpt><trkpt lat="53.02286544396981" lon="13.042966584430525"><ele>60.0</ele><time>2026-04-17T13:35:51Z</time></trkpt><trkpt lat="53.02292667171221" lon="13.043079001528946"><ele>60.0</ele><time>2026-04-17T13:35:52Z</time></trkpt><trkpt lat="53.02298805640079" lon="13.043186077472209"><ele>60.0</ele><time>2026-04-17T13:35:53Z</time></trkpt><trkpt lat="53.02305151491048" lon="13.043280037896798"><ele>60.0</ele><time>2026-04-17T13:35:54Z</time></trkpt><trkpt lat="53.023117094450306" lon="13.043378176195489"><ele>60.0</ele><time>2026-04-17T13:35:55Z</time></trkpt><trkpt lat="53.023175994909174" lon="13.043476042906939"><ele>60.0</ele><time>2026-04-17T13:35:56Z</time></trkpt><trkpt lat="53.023235688814786" lon="13.043580711534474"><ele>60.0</ele><time>2026-04-17T13:35:57Z</time></trkpt><trkpt lat="53.02329326041557" lon="13.043690839646194"><ele>60.0</ele><time>2026-04-17T13:35:58Z</time></trkpt><trkpt lat="53.023361562819915" lon="13.04380428420902"><ele>60.0</ele><time>2026-04-17T13:35:59Z</time></trkpt><trkpt lat="53.02343503224816" lon="13.043916536721662"><ele>60.0</ele><time>2026-04-17T13:36:00Z</time></trkpt><trkpt lat="53.02350629656308" lon="13.044023539395427"><ele>60.0</ele><time>2026-04-17T13:36:01Z</time></trkpt><trkpt lat="53.02357382575615" lon="13.044129894204143"><ele>60.0</ele><time>2026-04-17T13:36:02Z</time></trkpt><trkpt lat="53.02364309555296" lon="13.044241797936362"><ele>60.0</ele><time>2026-04-17T13:36:03Z</time></trkpt><trkpt lat="53.02371066944595" lon="13.044358029036543"><ele>59.8</ele><time>2026-04-17T13:36:04Z</time></trkpt><trkpt lat="53.0237749543777" lon="13.04447274321503"><ele>59.6</ele><time>2026-04-17T13:36:05Z</time></trkpt><trkpt lat="53.02383858684505" lon="13.044580335257384"><ele>59.400000000000006</ele><time>2026-04-17T13:36:06Z</time></trkpt><trkpt lat="53.02390141237513" lon="13.044696605304573"><ele>59.2</ele><time>2026-04-17T13:36:07Z</time></trkpt><trkpt lat="53.02397397135888" lon="13.044811812122603"><ele>59.0</ele><time>2026-04-17T13:36:08Z</time></trkpt><trkpt lat="53.02404710959801" lon="13.044923530767004"><ele>59.00000000000001</ele><time>2026-04-17T13:36:08.999Z</time></trkpt><trkpt lat="53.02411560906391" lon="13.045033754758276"><ele>59.0</ele><time>2026-04-17T13:36:09.999Z</time></trkpt><trkpt lat="53.024174586967035" lon="13.045147077414843"><ele>59.0</ele><time>2026-04-17T13:36:10.999Z</time></trkpt><trkpt lat="53.024232764291106" lon="13.045247938033283"><ele>59.0</ele><time>2026-04-17T13:36:11.999Z</time></trkpt><trkpt lat="53.02429560502576" lon="13.045343935122041"><ele>59.00000000000001</ele><time>2026-04-17T13:36:12.999Z</time></trkpt><trkpt lat="53.02435831277524" lon="13.045436079706501"><ele>59.0</ele><time>2026-04-17T13:36:13.999Z</time></trkpt><trkpt lat="53.02441602066931" lon="13.045533166958414"><ele>59.16666666666667</ele><time>2026-04-17T13:36:14.999Z</time></trkpt><trkpt lat="53.024477617809" lon="13.045637210932503"><ele>59.333333333333336</ele><time>2026-04-17T13:36:15.999Z</time></trkpt><trkpt lat="53.024540060695564" lon="13.045735551286578"><ele>59.5</ele><time>2026-04-17T13:36:16.999Z</time></trkpt><trkpt lat="53.02460475823207" lon="13.045834961580907"><ele>59.66666666666667</ele><time>2026-04-17T13:36:17.999Z</time></trkpt><trkpt lat="53.02466880035155" lon="13.04593297875303"><ele>59.833333333333336</ele><time>2026-04-17T13:36:18.999Z</time></trkpt><trkpt lat="53.024730847629925" lon="13.046033642965122"><ele>60.0</ele><time>2026-04-17T13:36:19.999Z</time></trkpt><trkpt lat="53.02479030707478" lon="13.046134012090144"><ele>60.0</ele><time>2026-04-17T13:36:20.999Z</time></trkpt><trkpt lat="53.02485082653506" lon="13.046241381052502"><ele>60.0</ele><time>2026-04-17T13:36:21.999Z</time></trkpt><trkpt lat="53.02490938912401" lon="13.04635198667019"><ele>60.0</ele><time>2026-04-17T13:36:22.999Z</time></trkpt><trkpt lat="53.02496839163136" lon="13.046468971597076"><ele>60.0</ele><time>2026-04-17T13:36:23.999Z</time></trkpt><trkpt lat="53.02503389413692" lon="13.046588497911756"><ele>60.0</ele><time>2026-04-17T13:36:24.999Z</time></trkpt><trkpt lat="53.02510100508994" lon="13.046691261448382"><ele>60.4</ele><time>2026-04-17T13:36:25.999Z</time></trkpt><trkpt lat="53.02517058840178" lon="13.046798383289552"><ele>60.8</ele><time>2026-04-17T13:36:26.999Z</time></trkpt><trkpt lat="53.02523825399841" lon="13.04691493249601"><ele>61.2</ele><time>2026-04-17T13:36:27.999Z</time></trkpt><trkpt lat="53.025301749297164" lon="13.047027335560648"><ele>61.6</ele><time>2026-04-17T13:36:28.999Z</time></trkpt><trkpt lat="53.02537331765908" lon="13.047135936168115"><ele>62.0</ele><time>2026-04-17T13:36:29.999Z</time></trkpt><trkpt lat="53.02543677815889" lon="13.04725191684431"><ele>62.00000000000001</ele><time>2026-04-17T13:36:30.999Z</time></trkpt><trkpt lat="53.02550459511392" lon="13.047349547206446"><ele>62.0</ele><time>2026-04-17T13:36:31.999Z</time></trkpt><trkpt lat="53.025559811630956" lon="13.047436651528331"><ele>62.0</ele><time>2026-04-17T13:36:32.999Z</time></trkpt><trkpt lat="53.025615924098275" lon="13.04752960496441"><ele>62.0</ele><time>2026-04-17T13:36:33.999Z</time></trkpt><trkpt lat="53.025670425977346" lon="13.047633121089767"><ele>62.00000000000001</ele><time>2026-04-17T13:36:34.999Z</time></trkpt><trkpt lat="53.025727079704964" lon="13.047740621840418"><ele>62.0</ele><time>2026-04-17T13:36:35.999Z</time></trkpt><trkpt lat="53.02578698649455" lon="13.047845359570138"><ele>62.00000000000001</ele><time>2026-04-17T13:36:36.999Z</time></trkpt><trkpt lat="53.0258491313665" lon="13.047938616567743"><ele>62.0</ele><time>2026-04-17T13:36:37.999Z</time></trkpt><trkpt lat="53.02591271889974" lon="13.048038837325393"><ele>62.0</ele><time>2026-04-17T13:36:38.999Z</time></trkpt><trkpt lat="53.02597166151544" lon="13.048146329608276"><ele>62.0</ele><time>2026-04-17T13:36:39.999Z</time></trkpt><trkpt lat="53.026031615816905" lon="13.048251852577105"><ele>62.00000000000001</ele><time>2026-04-17T13:36:40.999Z</time></trkpt><trkpt lat="53.02609524693123" lon="13.048346871542428"><ele>62.0</ele><time>2026-04-17T13:36:41.999Z</time></trkpt><trkpt lat="53.026160173231666" lon="13.048450682098478"><ele>62.0</ele><time>2026-04-17T13:36:42.999Z</time></trkpt><trkpt lat="53.02622198149924" lon="13.048567754133902"><ele>62.0</ele><time>2026-04-17T13:36:43.999Z</time></trkpt><trkpt lat="53.026285774823606" lon="13.048674182998296"><ele>62.0</ele><time>2026-04-17T13:36:44.999Z</time></trkpt><trkpt lat="53.02635146279605" lon="13.04878434144785"><ele>62.0</ele><time>2026-04-17T13:36:45.999Z</time></trkpt><trkpt lat="53.02642178807823" lon="13.048904734087275"><ele>62.0</ele><time>2026-04-17T13:36:46.999Z</time></trkpt><trkpt lat="53.02648667010895" lon="13.04902641593382"><ele>62.00000000000001</ele><time>2026-04-17T13:36:47.999Z</time></trkpt><trkpt lat="53.026551720720484" lon="13.049132719167636"><ele>62.0</ele><time>2026-04-17T13:36:48.999Z</time></trkpt><trkpt lat="53.026613872332504" lon="13.049239341187343"><ele>62.0</ele><time>2026-04-17T13:36:49.999Z</time></trkpt><trkpt lat="53.02667742487182" lon="13.049351585474854"><ele>62.0</ele><time>2026-04-17T13:36:50.999Z</time></trkpt><trkpt lat="53.02674052027339" lon="13.049458192324948"><ele>62.00000000000001</ele><time>2026-04-17T13:36:51.999Z</time></trkpt><trkpt lat="53.02679573973269" lon="13.049558239828958"><ele>62.0</ele><time>2026-04-17T13:36:52.999Z</time></trkpt><trkpt lat="53.02685408625215" lon="13.049630854234193"><ele>62.333333333333336</ele><time>2026-04-17T13:36:53.998Z</time></trkpt><trkpt lat="53.0269155365936" lon="13.049721227015645"><ele>62.66666666666667</ele><time>2026-04-17T13:36:54.998Z</time></trkpt><trkpt lat="53.02698107620634" lon="13.049820169684015"><ele>63.0</ele><time>2026-04-17T13:36:55.998Z</time></trkpt><trkpt lat="53.027038321964326" lon="13.049915396818935"><ele>63.33333333333333</ele><time>2026-04-17T13:36:56.998Z</time></trkpt><trkpt lat="53.02708846428667" lon="13.050007921417428"><ele>63.666666666666664</ele><time>2026-04-17T13:36:57.998Z</time></trkpt><trkpt lat="53.02713942814573" lon="13.050097196592114"><ele>64.0</ele><time>2026-04-17T13:36:58.998Z</time></trkpt><trkpt lat="53.027184975626746" lon="13.050186966952989"><ele>64.16666666666666</ele><time>2026-04-17T13:36:59.998Z</time></trkpt><trkpt lat="53.02722994066441" lon="13.050269521837954"><ele>64.33333333333333</ele><time>2026-04-17T13:37:00.998Z</time></trkpt><trkpt lat="53.02727905238171" lon="13.050357630440955"><ele>64.5</ele><time>2026-04-17T13:37:02.998Z</time></trkpt><trkpt lat="53.02734556480326" lon="13.050447519549229"><ele>64.66666666666667</ele><time>2026-04-17T13:37:05.998Z</time></trkpt><trkpt lat="53.02741969076493" lon="13.050583911799054"><ele>64.83333333333334</ele><time>2026-04-17T13:37:07.998Z</time></trkpt><trkpt lat="53.02748893114683" lon="13.050705604098122"><ele>65.0</ele><time>2026-04-17T13:37:09.998Z</time></trkpt><trkpt lat="53.02753165708093" lon="13.050787989222849"><ele>65.2</ele><time>2026-04-17T13:37:10.998Z</time></trkpt><trkpt lat="53.02761972386326" lon="13.050913167534821"><ele>65.4</ele><time>2026-04-17T13:37:12.998Z</time></trkpt><trkpt lat="53.02769381377024" lon="13.051033978259435"><ele>65.6</ele><time>2026-04-17T13:37:14.998Z</time></trkpt><trkpt lat="53.02777843287289" lon="13.051170710192704"><ele>65.8</ele><time>2026-04-17T13:37:16.998Z</time></trkpt><trkpt lat="53.02782589461255" lon="13.051241200576266"><ele>66.0</ele><time>2026-04-17T13:37:17.998Z</time></trkpt><trkpt lat="53.02790986562317" lon="13.051378229819651"><ele>66.0</ele><time>2026-04-17T13:37:19.998Z</time></trkpt><trkpt lat="53.027954216760165" lon="13.051463193586278"><ele>66.0</ele><time>2026-04-17T13:37:20.998Z</time></trkpt><trkpt lat="53.028034941227844" lon="13.051620397129458"><ele>66.0</ele><time>2026-04-17T13:37:22.998Z</time></trkpt><trkpt lat="53.028106648788864" lon="13.051733810881753"><ele>66.0</ele><time>2026-04-17T13:37:24.998Z</time></trkpt><trkpt lat="53.02816335739807" lon="13.051821873259511"><ele>66.0</ele><time>2026-04-17T13:37:26.998Z</time></trkpt><trkpt lat="53.02823501509007" lon="13.051956610862854"><ele>66.0</ele><time>2026-04-17T13:37:28.998Z</time></trkpt><trkpt lat="53.028291161891275" lon="13.052036232365628"><ele>66.0</ele><time>2026-04-17T13:37:29.998Z</time></trkpt><trkpt lat="53.02834876650632" lon="13.052129239220713"><ele>66.0</ele><time>2026-04-17T13:37:30.998Z</time></trkpt><trkpt lat="53.02839612693565" lon="13.052212611633102"><ele>66.0</ele><time>2026-04-17T13:37:31.998Z</time></trkpt><trkpt lat="53.02843749154954" lon="13.052292743775656"><ele>66.0</ele><time>2026-04-17T13:37:32.998Z</time></trkpt><trkpt lat="53.02852092000247" lon="13.052427573226487"><ele>66.0</ele><time>2026-04-17T13:37:34.998Z</time></trkpt><trkpt lat="53.028568307516636" lon="13.0525050941053"><ele>66.39999999999999</ele><time>2026-04-17T13:37:35.998Z</time></trkpt><trkpt lat="53.0286567701279" lon="13.052657984885638"><ele>66.8</ele><time>2026-04-17T13:37:37.997Z</time></trkpt><trkpt lat="53.028710189033944" lon="13.052749604654633"><ele>67.19999999999999</ele><time>2026-04-17T13:37:38.997Z</time></trkpt><trkpt lat="53.02876180988021" lon="13.052829602078509"><ele>67.6</ele><time>2026-04-17T13:37:39.997Z</time></trkpt><trkpt lat="53.02881059120221" lon="13.052909611088136"><ele>68.0</ele><time>2026-04-17T13:37:41Z</time></trkpt><trkpt lat="53.02890048651177" lon="13.053070942791035"><ele>68.0</ele><time>2026-04-17T13:37:43Z</time></trkpt><trkpt lat="53.028985179632805" lon="13.053204280113619"><ele>68.0</ele><time>2026-04-17T13:37:45Z</time></trkpt><trkpt lat="53.02906619322177" lon="13.053341858751335"><ele>68.0</ele><time>2026-04-17T13:37:47Z</time></trkpt><trkpt lat="53.02911824048374" lon="13.053433130878743"><ele>68.0</ele><time>2026-04-17T13:37:48Z</time></trkpt><trkpt lat="53.02916487135821" lon="13.053509283178409"><ele>68.0</ele><time>2026-04-17T13:37:49Z</time></trkpt><trkpt lat="53.02920830254789" lon="13.053593814927872"><ele>68.0</ele><time>2026-04-17T13:37:50Z</time></trkpt><trkpt lat="53.02929157720663" lon="13.053735208582998"><ele>67.83333333333334</ele><time>2026-04-17T13:37:52Z</time></trkpt><trkpt lat="53.02938596970718" lon="13.053879025970167"><ele>67.66666666666667</ele><time>2026-04-17T13:37:54Z</time></trkpt><trkpt lat="53.02943169543259" lon="13.053953661410235"><ele>67.5</ele><time>2026-04-17T13:37:55Z</time></trkpt><trkpt lat="53.02947469476252" lon="13.054038629558502"><ele>67.33333333333333</ele><time>2026-04-17T13:37:56Z</time></trkpt><trkpt lat="53.02952823442348" lon="13.054131373809327"><ele>67.16666666666666</ele><time>2026-04-17T13:37:58Z</time></trkpt><trkpt lat="53.02959809623399" lon="13.054228646202489"><ele>67.0</ele><time>2026-04-17T13:38:00Z</time></trkpt><trkpt lat="53.029679848054904" lon="13.054344091184197"><ele>66.5</ele><time>2026-04-17T13:38:02Z</time></trkpt><trkpt lat="53.02975372334735" lon="13.054446069196835"><ele>66.0</ele><time>2026-04-17T13:38:04Z</time></trkpt><trkpt lat="53.029828346252" lon="13.054564333810138"><ele>65.5</ele><time>2026-04-17T13:38:07Z</time></trkpt><trkpt lat="53.029885910036796" lon="13.054655666821306"><ele>65.0</ele><time>2026-04-17T13:38:09Z</time></trkpt><trkpt lat="53.02993874798425" lon="13.054730312158714"><ele>64.5</ele><time>2026-04-17T13:38:11Z</time></trkpt><trkpt lat="53.03000226574533" lon="13.05479735116451"><ele>64.0</ele><time>2026-04-17T13:38:14Z</time></trkpt><trkpt lat="53.03005574338984" lon="13.05486838360978"><ele>63.6</ele><time>2026-04-17T13:38:15.999Z</time></trkpt><trkpt lat="53.030110861399685" lon="13.05492987092612"><ele>63.2</ele><time>2026-04-17T13:38:17.999Z</time></trkpt><trkpt lat="53.03021027721731" lon="13.055025796042191"><ele>62.800000000000004</ele><time>2026-04-17T13:38:19.999Z</time></trkpt><trkpt lat="53.030311240391335" lon="13.055129435599678"><ele>62.400000000000006</ele><time>2026-04-17T13:38:21.999Z</time></trkpt><trkpt lat="53.03041660332085" lon="13.055247482873982"><ele>62.0</ele><time>2026-04-17T13:38:23.999Z</time></trkpt><trkpt lat="53.03050736159972" lon="13.055327553927334"><ele>62.00000000000001</ele><time>2026-04-17T13:38:25.999Z</time></trkpt><trkpt lat="53.03058217603323" lon="13.055386110781964"><ele>62.0</ele><time>2026-04-17T13:38:30.999Z</time></trkpt><trkpt lat="53.03065557491829" lon="13.055458578489995"><ele>62.0</ele><time>2026-04-17T13:38:32.999Z</time></trkpt><trkpt lat="53.03076708836667" lon="13.05555197274913"><ele>62.0</ele><time>2026-04-17T13:38:34.999Z</time></trkpt><trkpt lat="53.030829748745354" lon="13.055595706189896"><ele>62.00000000000001</ele><time>2026-04-17T13:38:35.999Z</time></trkpt><trkpt lat="53.03088974543099" lon="13.055643534864613"><ele>62.0</ele><time>2026-04-17T13:38:36.999Z</time></trkpt><trkpt lat="53.03095354412251" lon="13.055692998425183"><ele>62.16666666666667</ele><time>2026-04-17T13:38:37.999Z</time></trkpt><trkpt lat="53.031016509148266" lon="13.055731744358722"><ele>62.333333333333336</ele><time>2026-04-17T13:38:38.999Z</time></trkpt><trkpt lat="53.0310783701614" lon="13.055776284840906"><ele>62.5</ele><time>2026-04-17T13:38:39.999Z</time></trkpt><trkpt lat="53.03114657235422" lon="13.05581590472692"><ele>62.66666666666667</ele><time>2026-04-17T13:38:40.999Z</time></trkpt><trkpt lat="53.031257126917914" lon="13.055882305355134"><ele>62.833333333333336</ele><time>2026-04-17T13:38:42.999Z</time></trkpt><trkpt lat="53.031367150876164" lon="13.055948117230844"><ele>63.0</ele><time>2026-04-17T13:38:44.999Z</time></trkpt><trkpt lat="53.0314687232894" lon="13.05602156348422"><ele>63.2</ele><time>2026-04-17T13:38:46.999Z</time></trkpt><trkpt lat="53.031552950758254" lon="13.056090323789096"><ele>63.4</ele><time>2026-04-17T13:38:48.999Z</time></trkpt><trkpt lat="53.031665984676884" lon="13.056153511712338"><ele>63.60000000000001</ele><time>2026-04-17T13:38:50.999Z</time></trkpt><trkpt lat="53.03175976129056" lon="13.056206277979166"><ele>63.800000000000004</ele><time>2026-04-17T13:38:52.999Z</time></trkpt><trkpt lat="53.031853280289575" lon="13.056253381387206"><ele>64.0</ele><time>2026-04-17T13:38:54.999Z</time></trkpt><trkpt lat="53.031942809313705" lon="13.056327647769095"><ele>64.4</ele><time>2026-04-17T13:38:56.999Z</time></trkpt><trkpt lat="53.032015801103846" lon="13.056386092162422"><ele>64.80000000000001</ele><time>2026-04-17T13:38:58.999Z</time></trkpt><trkpt lat="53.03213556376128" lon="13.056453678733398"><ele>65.19999999999999</ele><time>2026-04-17T13:39:00.998Z</time></trkpt><trkpt lat="53.032200407829045" lon="13.056503013865056"><ele>65.6</ele><time>2026-04-17T13:39:01.998Z</time></trkpt><trkpt lat="53.03232470185828" lon="13.056582120610713"><ele>66.0</ele><time>2026-04-17T13:39:03.998Z</time></trkpt><trkpt lat="53.03239429256167" lon="13.056622515743307"><ele>66.0</ele><time>2026-04-17T13:39:04.998Z</time></trkpt><trkpt lat="53.03246439230144" lon="13.056671849255833"><ele>66.0</ele><time>2026-04-17T13:39:05.998Z</time></trkpt><trkpt lat="53.03253387682134" lon="13.056723300664645"><ele>66.0</ele><time>2026-04-17T13:39:06.998Z</time></trkpt><trkpt lat="53.03259695826708" lon="13.056770862463969"><ele>66.0</ele><time>2026-04-17T13:39:07.998Z</time></trkpt><trkpt lat="53.032658142796976" lon="13.056813089003509"><ele>66.0</ele><time>2026-04-17T13:39:08.998Z</time></trkpt><trkpt lat="53.03277729108896" lon="13.056884431980292"><ele>66.0</ele><time>2026-04-17T13:39:10.998Z</time></trkpt><trkpt lat="53.032836061218745" lon="13.056932180071982"><ele>65.83333333333333</ele><time>2026-04-17T13:39:11.998Z</time></trkpt><trkpt lat="53.032903864962364" lon="13.056988474834796"><ele>65.66666666666667</ele><time>2026-04-17T13:39:12.998Z</time></trkpt><trkpt lat="53.03298211394767" lon="13.057035611250946"><ele>65.5</ele><time>2026-04-17T13:39:13.998Z</time></trkpt><trkpt lat="53.03304920529273" lon="13.057079450964608"><ele>65.33333333333334</ele><time>2026-04-17T13:39:14.998Z</time></trkpt><trkpt lat="53.033118631370726" lon="13.057123150866856"><ele>65.16666666666667</ele><time>2026-04-17T13:39:15.998Z</time></trkpt><trkpt lat="53.03325307161594" lon="13.057207319122087"><ele>65.0</ele><time>2026-04-17T13:39:17.998Z</time></trkpt><trkpt lat="53.033329802541566" lon="13.057258232811126"><ele>65.0</ele><time>2026-04-17T13:39:18.998Z</time></trkpt><trkpt lat="53.033404007930535" lon="13.057306052202852"><ele>65.0</ele><time>2026-04-17T13:39:19.998Z</time></trkpt><trkpt lat="53.03347503244276" lon="13.057351496653597"><ele>65.0</ele><time>2026-04-17T13:39:20.998Z</time></trkpt><trkpt lat="53.033543269033025" lon="13.057396126472272"><ele>65.0</ele><time>2026-04-17T13:39:21.998Z</time></trkpt><trkpt lat="53.033604572115905" lon="13.057442615013882"><ele>65.0</ele><time>2026-04-17T13:39:22.998Z</time></trkpt><trkpt lat="53.033689743771035" lon="13.057484532841018"><ele>65.0</ele><time>2026-04-17T13:39:23.998Z</time></trkpt><trkpt lat="53.03376402941001" lon="13.057540533434024"><ele>65.16666666666667</ele><time>2026-04-17T13:39:25.998Z</time></trkpt><trkpt lat="53.033798321788595" lon="13.057695679365736"><ele>65.33333333333334</ele><time>2026-04-17T13:39:29.998Z</time></trkpt><trkpt lat="53.0338193295384" lon="13.057799039654226"><ele>65.5</ele><time>2026-04-17T13:39:30.998Z</time></trkpt><trkpt lat="53.03384517065442" lon="13.05790517353418"><ele>65.66666666666667</ele><time>2026-04-17T13:39:31.998Z</time></trkpt><trkpt lat="53.033872453875595" lon="13.058017362475873"><ele>65.83333333333333</ele><time>2026-04-17T13:39:32.998Z</time></trkpt><trkpt lat="53.03389211190124" lon="13.058129615185777"><ele>66.0</ele><time>2026-04-17T13:39:33.998Z</time></trkpt><trkpt lat="53.03391581811653" lon="13.058245311025335"><ele>66.0</ele><time>2026-04-17T13:39:34.998Z</time></trkpt><trkpt lat="53.03394030967125" lon="13.05835746008803"><ele>66.0</ele><time>2026-04-17T13:39:35.998Z</time></trkpt><trkpt lat="53.0339639846916" lon="13.05847829926527"><ele>66.0</ele><time>2026-04-17T13:39:36.998Z</time></trkpt><trkpt lat="53.03398782557074" lon="13.058601867281741"><ele>66.0</ele><time>2026-04-17T13:39:37.998Z</time></trkpt><trkpt lat="53.03401190571595" lon="13.058725082730842"><ele>66.0</ele><time>2026-04-17T13:39:38.998Z</time></trkpt><trkpt lat="53.03403493502187" lon="13.05884919047961"><ele>66.0</ele><time>2026-04-17T13:39:39.998Z</time></trkpt><trkpt lat="53.03405672625478" lon="13.05896992606765"><ele>66.0</ele><time>2026-04-17T13:39:40.998Z</time></trkpt><trkpt lat="53.034078540865785" lon="13.059087094580553"><ele>66.0</ele><time>2026-04-17T13:39:41.998Z</time></trkpt><trkpt lat="53.03410070666719" lon="13.059211902869027"><ele>66.0</ele><time>2026-04-17T13:39:42.998Z</time></trkpt><trkpt lat="53.03412150850931" lon="13.059333293367077"><ele>66.0</ele><time>2026-04-17T13:39:43.997Z</time></trkpt><trkpt lat="53.034142585395784" lon="13.059448749853344"><ele>66.0</ele><time>2026-04-17T13:39:44.997Z</time></trkpt><trkpt lat="53.03416143705842" lon="13.059557601625833"><ele>66.0</ele><time>2026-04-17T13:39:45.997Z</time></trkpt><trkpt lat="53.034178700709674" lon="13.05966547215869"><ele>66.0</ele><time>2026-04-17T13:39:47Z</time></trkpt><trkpt lat="53.034193474509" lon="13.059779819825202"><ele>65.6</ele><time>2026-04-17T13:39:48Z</time></trkpt><trkpt lat="53.0342094054769" lon="13.059887342153052"><ele>65.19999999999999</ele><time>2026-04-17T13:39:49Z</time></trkpt><trkpt lat="53.03422848570375" lon="13.059988456643994"><ele>64.80000000000001</ele><time>2026-04-17T13:39:50Z</time></trkpt><trkpt lat="53.03425432129926" lon="13.06015091958623"><ele>64.4</ele><time>2026-04-17T13:39:52Z</time></trkpt><trkpt lat="53.0342812464579" lon="13.060302429816643"><ele>64.0</ele><time>2026-04-17T13:39:54Z</time></trkpt><trkpt lat="53.034320808406164" lon="13.060514859398054"><ele>63.83333333333333</ele><time>2026-04-17T13:39:56Z</time></trkpt><trkpt lat="53.03434391652939" lon="13.06067940996808"><ele>63.666666666666664</ele><time>2026-04-17T13:39:58Z</time></trkpt><trkpt lat="53.0344276431681" lon="13.06071640645042"><ele>63.5</ele><time>2026-04-17T13:40:02Z</time></trkpt><trkpt lat="53.03450631631525" lon="13.06066521731483"><ele>63.33333333333333</ele><time>2026-04-17T13:40:04Z</time></trkpt><trkpt lat="53.034577631489626" lon="13.06068147796792"><ele>63.166666666666664</ele><time>2026-04-17T13:40:13Z</time></trkpt><trkpt lat="53.0346540052459" lon="13.06067904547529"><ele>63.0</ele><time>2026-04-17T13:40:14Z</time></trkpt><trkpt lat="53.034728043891306" lon="13.060685043474736"><ele>63.0</ele><time>2026-04-17T13:40:15Z</time></trkpt><trkpt lat="53.03483881271831" lon="13.060704620375057"><ele>63.0</ele><time>2026-04-17T13:40:16Z</time></trkpt><trkpt lat="53.03494938571217" lon="13.060724252771825"><ele>63.0</ele><time>2026-04-17T13:40:17Z</time></trkpt><trkpt lat="53.03504700005244" lon="13.060743331112997"><ele>63.0</ele><time>2026-04-17T13:40:18Z</time></trkpt><trkpt lat="53.03514300352325" lon="13.060759556678665"><ele>63.0</ele><time>2026-04-17T13:40:19Z</time></trkpt><trkpt lat="53.03522426032939" lon="13.060780989086254"><ele>63.0</ele><time>2026-04-17T13:40:19.999Z</time></trkpt><trkpt lat="53.03532276914175" lon="13.060822972901413"><ele>63.0</ele><time>2026-04-17T13:40:21.999Z</time></trkpt><trkpt lat="53.03539030419471" lon="13.06080924461457"><ele>63.0</ele><time>2026-04-17T13:40:24.999Z</time></trkpt><trkpt lat="53.035480568328616" lon="13.060691627906689"><ele>63.0</ele><time>2026-04-17T13:40:26.999Z</time></trkpt><trkpt lat="53.0355564437051" lon="13.06061508382785"><ele>63.0</ele><time>2026-04-17T13:40:27.999Z</time></trkpt><trkpt lat="53.03563272289409" lon="13.060546184102687"><ele>63.0</ele><time>2026-04-17T13:40:28.999Z</time></trkpt><trkpt lat="53.03571146689824" lon="13.06048618054417"><ele>63.0</ele><time>2026-04-17T13:40:29.999Z</time></trkpt><trkpt lat="53.03580246298472" lon="13.060418399744432"><ele>63.0</ele><time>2026-04-17T13:40:30.999Z</time></trkpt><trkpt lat="53.03590121553869" lon="13.060352702404673"><ele>63.0</ele><time>2026-04-17T13:40:31.999Z</time></trkpt><trkpt lat="53.03600389586946" lon="13.06028935450062"><ele>63.0</ele><time>2026-04-17T13:40:32.999Z</time></trkpt><trkpt lat="53.03610780056806" lon="13.06024071064381"><ele>63.0</ele><time>2026-04-17T13:40:33.999Z</time></trkpt><trkpt lat="53.03620772071138" lon="13.060197840744493"><ele>63.0</ele><time>2026-04-17T13:40:34.999Z</time></trkpt><trkpt lat="53.03630914783462" lon="13.060155228041863"><ele>63.0</ele><time>2026-04-17T13:40:35.999Z</time></trkpt><trkpt lat="53.03641487677037" lon="13.060129223484758"><ele>63.0</ele><time>2026-04-17T13:40:36.999Z</time></trkpt><trkpt lat="53.03653311452313" lon="13.06009183534138"><ele>63.0</ele><time>2026-04-17T13:40:37.999Z</time></trkpt><trkpt lat="53.036643682748306" lon="13.060097609080564"><ele>63.0</ele><time>2026-04-17T13:40:38.999Z</time></trkpt><trkpt lat="53.036748834671876" lon="13.060086869073977"><ele>63.0</ele><time>2026-04-17T13:40:39.999Z</time></trkpt><trkpt lat="53.03684380522298" lon="13.060085680818778"><ele>63.0</ele><time>2026-04-17T13:40:40.999Z</time></trkpt><trkpt lat="53.03693323206512" lon="13.060089450558799"><ele>63.0</ele><time>2026-04-17T13:40:41.999Z</time></trkpt><trkpt lat="53.03701544649693" lon="13.060095859809005"><ele>63.0</ele><time>2026-04-17T13:40:42.999Z</time></trkpt><trkpt lat="53.037089298912754" lon="13.060076652244508"><ele>63.0</ele><time>2026-04-17T13:40:43.999Z</time></trkpt><trkpt lat="53.037164362471444" lon="13.060088001283228"><ele>63.0</ele><time>2026-04-17T13:40:44.999Z</time></trkpt><trkpt lat="53.03724493577099" lon="13.060101876902108"><ele>63.0</ele><time>2026-04-17T13:40:45.999Z</time></trkpt><trkpt lat="53.03732589965184" lon="13.060149126836732"><ele>63.0</ele><time>2026-04-17T13:40:46.999Z</time></trkpt><trkpt lat="53.037415743006136" lon="13.06017864234687"><ele>63.0</ele><time>2026-04-17T13:40:47.999Z</time></trkpt><trkpt lat="53.03751280861204" lon="13.06021271512207"><ele>63.0</ele><time>2026-04-17T13:40:48.999Z</time></trkpt><trkpt lat="53.03761651138179" lon="13.060252538970314"><ele>62.8</ele><time>2026-04-17T13:40:49.999Z</time></trkpt><trkpt lat="53.03772319207892" lon="13.060299638375227"><ele>62.599999999999994</ele><time>2026-04-17T13:40:50.999Z</time></trkpt><trkpt lat="53.03780459901654" lon="13.060323492211259"><ele>62.400000000000006</ele><time>2026-04-17T13:40:51.999Z</time></trkpt><trkpt lat="53.03789414091235" lon="13.060346075498007"><ele>62.2</ele><time>2026-04-17T13:40:53.999Z</time></trkpt><trkpt lat="53.037954506149575" lon="13.06028160864812"><ele>62.0</ele><time>2026-04-17T13:40:58.999Z</time></trkpt><trkpt lat="53.03801740505337" lon="13.060400022941524"><ele>62.00000000000001</ele><time>2026-04-17T13:41:00.999Z</time></trkpt><trkpt lat="53.03806885212094" lon="13.060472237827435"><ele>62.0</ele><time>2026-04-17T13:41:01.999Z</time></trkpt><trkpt lat="53.03817396404655" lon="13.060519431067325"><ele>62.0</ele><time>2026-04-17T13:41:03.999Z</time></trkpt><trkpt lat="53.038245776752404" lon="13.060558703828516"><ele>62.0</ele><time>2026-04-17T13:41:04.998Z</time></trkpt><trkpt lat="53.03832387754888" lon="13.060604102914676"><ele>62.00000000000001</ele><time>2026-04-17T13:41:05.998Z</time></trkpt><trkpt lat="53.03839927427896" lon="13.060657704979624"><ele>62.0</ele><time>2026-04-17T13:41:06.998Z</time></trkpt><trkpt lat="53.03847542143103" lon="13.060706875421786"><ele>62.0</ele><time>2026-04-17T13:41:07.998Z</time></trkpt><trkpt lat="53.038544045216895" lon="13.060743719298587"><ele>62.00000000000001</ele><time>2026-04-17T13:41:08.998Z</time></trkpt><trkpt lat="53.038602637341164" lon="13.060812486853324"><ele>62.0</ele><time>2026-04-17T13:41:09.998Z</time></trkpt><trkpt lat="53.03867079116861" lon="13.060850573285146"><ele>62.0</ele><time>2026-04-17T13:41:10.998Z</time></trkpt><trkpt lat="53.03871634368677" lon="13.060927189126742"><ele>62.00000000000001</ele><time>2026-04-17T13:41:11.998Z</time></trkpt><trkpt lat="53.03878161128997" lon="13.060983426557096"><ele>62.0</ele><time>2026-04-17T13:41:12.998Z</time></trkpt><trkpt lat="53.03885870389517" lon="13.061043508263024"><ele>62.0</ele><time>2026-04-17T13:41:13.998Z</time></trkpt><trkpt lat="53.03894508513387" lon="13.061084749840724"><ele>62.00000000000001</ele><time>2026-04-17T13:41:14.998Z</time></trkpt><trkpt lat="53.039026747173196" lon="13.061145772833461"><ele>62.0</ele><time>2026-04-17T13:41:15.998Z</time></trkpt><trkpt lat="53.039103650617506" lon="13.061199355080507"><ele>62.0</ele><time>2026-04-17T13:41:16.998Z</time></trkpt><trkpt lat="53.03917384603354" lon="13.061249222973606"><ele>62.0</ele><time>2026-04-17T13:41:17.998Z</time></trkpt><trkpt lat="53.03924053223945" lon="13.06128495663485"><ele>62.00000000000001</ele><time>2026-04-17T13:41:18.998Z</time></trkpt><trkpt lat="53.039305195265364" lon="13.061311029379011"><ele>62.0</ele><time>2026-04-17T13:41:19.998Z</time></trkpt><trkpt lat="53.03939632995636" lon="13.061383555508424"><ele>62.16666666666667</ele><time>2026-04-17T13:41:21.998Z</time></trkpt><trkpt lat="53.039487165878725" lon="13.061449709117587"><ele>62.333333333333336</ele><time>2026-04-17T13:41:23.998Z</time></trkpt><trkpt lat="53.03955114822113" lon="13.06146723693161"><ele>62.5</ele><time>2026-04-17T13:41:24.998Z</time></trkpt><trkpt lat="53.03962021613528" lon="13.061498930861557"><ele>62.66666666666667</ele><time>2026-04-17T13:41:25.998Z</time></trkpt><trkpt lat="53.03968497890171" lon="13.061534362095522"><ele>62.833333333333336</ele><time>2026-04-17T13:41:26.998Z</time></trkpt><trkpt lat="53.03974772020159" lon="13.061591765014933"><ele>63.0</ele><time>2026-04-17T13:41:27.998Z</time></trkpt><trkpt lat="53.03981866942282" lon="13.061652349105827"><ele>63.0</ele><time>2026-04-17T13:41:28.998Z</time></trkpt><trkpt lat="53.039890489061136" lon="13.061687585592177"><ele>63.0</ele><time>2026-04-17T13:41:29.998Z</time></trkpt><trkpt lat="53.039959871971774" lon="13.06174883866095"><ele>63.0</ele><time>2026-04-17T13:41:30.998Z</time></trkpt><trkpt lat="53.04003802951077" lon="13.061777569595248"><ele>63.0</ele><time>2026-04-17T13:41:31.998Z</time></trkpt><trkpt lat="53.04011131063056" lon="13.061827359433208"><ele>63.0</ele><time>2026-04-17T13:41:32.998Z</time></trkpt><trkpt lat="53.04018580585025" lon="13.061865520270125"><ele>63.0</ele><time>2026-04-17T13:41:33.998Z</time></trkpt><trkpt lat="53.04026336261219" lon="13.06191775084727"><ele>63.166666666666664</ele><time>2026-04-17T13:41:34.998Z</time></trkpt><trkpt lat="53.040336504524376" lon="13.061965876670747"><ele>63.33333333333333</ele><time>2026-04-17T13:41:35.998Z</time></trkpt><trkpt lat="53.04040913859864" lon="13.062048701685324"><ele>63.5</ele><time>2026-04-17T13:41:36.998Z</time></trkpt><trkpt lat="53.04048806003507" lon="13.062117445479455"><ele>63.666666666666664</ele><time>2026-04-17T13:41:37.998Z</time></trkpt><trkpt lat="53.040561180739225" lon="13.062166350431616"><ele>63.83333333333333</ele><time>2026-04-17T13:41:38.998Z</time></trkpt><trkpt lat="53.04062962822663" lon="13.062213679137345"><ele>64.0</ele><time>2026-04-17T13:41:39.998Z</time></trkpt><trkpt lat="53.04069748749918" lon="13.062252023109856"><ele>63.99999999999999</ele><time>2026-04-17T13:41:40.998Z</time></trkpt><trkpt lat="53.04076414387995" lon="13.062314668276535"><ele>64.0</ele><time>2026-04-17T13:41:41.998Z</time></trkpt><trkpt lat="53.04083386623797" lon="13.062362095125646"><ele>64.0</ele><time>2026-04-17T13:41:42.998Z</time></trkpt><trkpt lat="53.04090811688935" lon="13.06241388036004"><ele>64.0</ele><time>2026-04-17T13:41:43.998Z</time></trkpt><trkpt lat="53.04098304990024" lon="13.062466141579659"><ele>63.99999999999999</ele><time>2026-04-17T13:41:44.998Z</time></trkpt><trkpt lat="53.041063378062425" lon="13.062492694160946"><ele>64.0</ele><time>2026-04-17T13:41:45.998Z</time></trkpt><trkpt lat="53.04112493547281" lon="13.062543358686055"><ele>63.800000000000004</ele><time>2026-04-17T13:41:46.998Z</time></trkpt><trkpt lat="53.04123991157409" lon="13.062645087815467"><ele>63.60000000000001</ele><time>2026-04-17T13:41:48.998Z</time></trkpt><trkpt lat="53.04130999317103" lon="13.062693546963459"><ele>63.4</ele><time>2026-04-17T13:41:49.997Z</time></trkpt><trkpt lat="53.04139398745532" lon="13.0627303366475"><ele>63.2</ele><time>2026-04-17T13:41:50.997Z</time></trkpt><trkpt lat="53.04147034016562" lon="13.062786843398046"><ele>63.0</ele><time>2026-04-17T13:41:51.997Z</time></trkpt><trkpt lat="53.041542237716904" lon="13.062830459200748"><ele>63.0</ele><time>2026-04-17T13:41:53Z</time></trkpt><trkpt lat="53.041611676574135" lon="13.062872994337724"><ele>63.0</ele><time>2026-04-17T13:41:54Z</time></trkpt><trkpt lat="53.04167542672424" lon="13.062914292664074"><ele>63.0</ele><time>2026-04-17T13:41:55Z</time></trkpt><trkpt lat="53.04173808861138" lon="13.062957688634222"><ele>63.0</ele><time>2026-04-17T13:41:56Z</time></trkpt><trkpt lat="53.04180105554396" lon="13.063029844981182"><ele>63.0</ele><time>2026-04-17T13:41:57Z</time></trkpt><trkpt lat="53.04187328940301" lon="13.063080113007809"><ele>63.0</ele><time>2026-04-17T13:41:58Z</time></trkpt><trkpt lat="53.041943134724754" lon="13.06312782384219"><ele>63.0</ele><time>2026-04-17T13:41:59Z</time></trkpt><trkpt lat="53.042018553457325" lon="13.06317738931434"><ele>62.833333333333336</ele><time>2026-04-17T13:42:00Z</time></trkpt><trkpt lat="53.04209389434201" lon="13.06322629893887"><ele>62.66666666666667</ele><time>2026-04-17T13:42:01Z</time></trkpt><trkpt lat="53.042167775630105" lon="13.063273297768362"><ele>62.5</ele><time>2026-04-17T13:42:02Z</time></trkpt><trkpt lat="53.042234970483214" lon="13.063316043158183"><ele>62.333333333333336</ele><time>2026-04-17T13:42:03Z</time></trkpt><trkpt lat="53.04230362906395" lon="13.063359719719159"><ele>62.16666666666667</ele><time>2026-04-17T13:42:04Z</time></trkpt><trkpt lat="53.042368971888706" lon="13.063401286923124"><ele>62.0</ele><time>2026-04-17T13:42:05Z</time></trkpt><trkpt lat="53.04244712746503" lon="13.063451004863683"><ele>62.0</ele><time>2026-04-17T13:42:06Z</time></trkpt><trkpt lat="53.042534120781085" lon="13.06348059091637"><ele>62.00000000000001</ele><time>2026-04-17T13:42:07Z</time></trkpt><trkpt lat="53.0426044361378" lon="13.063531700576117"><ele>62.0</ele><time>2026-04-17T13:42:08Z</time></trkpt><trkpt lat="53.042667978190295" lon="13.063576829514263"><ele>62.0</ele><time>2026-04-17T13:42:09Z</time></trkpt><trkpt lat="53.04273308009957" lon="13.06361762574433"><ele>62.00000000000001</ele><time>2026-04-17T13:42:10Z</time></trkpt><trkpt lat="53.0427928562307" lon="13.06365418413204"><ele>62.0</ele><time>2026-04-17T13:42:11Z</time></trkpt><trkpt lat="53.04284656182558" lon="13.063717132585156"><ele>62.0</ele><time>2026-04-17T13:42:12Z</time></trkpt><trkpt lat="53.042959759906154" lon="13.063771186512966"><ele>62.0</ele><time>2026-04-17T13:42:14Z</time></trkpt><trkpt lat="53.04302811887235" lon="13.06380707647359"><ele>62.00000000000001</ele><time>2026-04-17T13:42:15Z</time></trkpt><trkpt lat="53.04308804000522" lon="13.063871987106843"><ele>62.0</ele><time>2026-04-17T13:42:16Z</time></trkpt><trkpt lat="53.04315587999711" lon="13.063915490776546"><ele>62.0</ele><time>2026-04-17T13:42:17Z</time></trkpt><trkpt lat="53.04322276576902" lon="13.063958382312752"><ele>62.00000000000001</ele><time>2026-04-17T13:42:18Z</time></trkpt><trkpt lat="53.04330038291332" lon="13.063984375611193"><ele>62.0</ele><time>2026-04-17T13:42:19Z</time></trkpt><trkpt lat="53.043370672147" lon="13.064040412607437"><ele>62.0</ele><time>2026-04-17T13:42:20Z</time></trkpt><trkpt lat="53.04344320558244" lon="13.064085298141892"><ele>61.833333333333336</ele><time>2026-04-17T13:42:21Z</time></trkpt><trkpt lat="53.04351610068843" lon="13.064129137641158"><ele>61.66666666666667</ele><time>2026-04-17T13:42:22Z</time></trkpt><trkpt lat="53.043576345308324" lon="13.06416962967503"><ele>61.5</ele><time>2026-04-17T13:42:23Z</time></trkpt><trkpt lat="53.043678726169794" lon="13.064242541137522"><ele>61.33333333333333</ele><time>2026-04-17T13:42:25Z</time></trkpt><trkpt lat="53.043781734704154" lon="13.06433488934387"><ele>61.166666666666664</ele><time>2026-04-17T13:42:26.999Z</time></trkpt><trkpt lat="53.043845661068566" lon="13.06438054023522"><ele>61.0</ele><time>2026-04-17T13:42:27.999Z</time></trkpt><trkpt lat="53.04392099229339" lon="13.0644222987515"><ele>60.99999999999999</ele><time>2026-04-17T13:42:28.999Z</time></trkpt><trkpt lat="53.04400388887019" lon="13.064472288265447"><ele>61.0</ele><time>2026-04-17T13:42:29.999Z</time></trkpt><trkpt lat="53.04408426320373" lon="13.064526256560946"><ele>61.0</ele><time>2026-04-17T13:42:30.999Z</time></trkpt><trkpt lat="53.04415953065829" lon="13.064579862557666"><ele>61.0</ele><time>2026-04-17T13:42:31.999Z</time></trkpt><trkpt lat="53.04422872646006" lon="13.064630932743148"><ele>60.99999999999999</ele><time>2026-04-17T13:42:32.999Z</time></trkpt><trkpt lat="53.04430211274995" lon="13.06468007990676"><ele>61.0</ele><time>2026-04-17T13:42:33.999Z</time></trkpt><trkpt lat="53.04436261157628" lon="13.064731198918034"><ele>61.33333333333333</ele><time>2026-04-17T13:42:34.999Z</time></trkpt><trkpt lat="53.044426451408235" lon="13.064796335703114"><ele>61.666666666666664</ele><time>2026-04-17T13:42:35.999Z</time></trkpt><trkpt lat="53.044502101894345" lon="13.064823536710445"><ele>62.0</ele><time>2026-04-17T13:42:36.999Z</time></trkpt><trkpt lat="53.04457158787736" lon="13.064885814095915"><ele>62.33333333333333</ele><time>2026-04-17T13:42:37.999Z</time></trkpt><trkpt lat="53.04463501922316" lon="13.064918533585733"><ele>62.666666666666664</ele><time>2026-04-17T13:42:38.999Z</time></trkpt><trkpt lat="53.04470504568641" lon="13.064975918696033"><ele>63.0</ele><time>2026-04-17T13:42:39.999Z</time></trkpt><trkpt lat="53.04478613271407" lon="13.06502270654451"><ele>63.0</ele><time>2026-04-17T13:42:40.999Z</time></trkpt><trkpt lat="53.04485880211487" lon="13.065068501884825"><ele>63.0</ele><time>2026-04-17T13:42:41.999Z</time></trkpt><trkpt lat="53.044924692643654" lon="13.065110329044987"><ele>63.0</ele><time>2026-04-17T13:42:42.999Z</time></trkpt><trkpt lat="53.044985696118076" lon="13.065149875274528"><ele>63.0</ele><time>2026-04-17T13:42:43.999Z</time></trkpt><trkpt lat="53.04505338695269" lon="13.06517768889184"><ele>63.0</ele><time>2026-04-17T13:42:44.999Z</time></trkpt><trkpt lat="53.0451194560771" lon="13.065217748264457"><ele>63.0</ele><time>2026-04-17T13:42:45.999Z</time></trkpt><trkpt lat="53.04517856021553" lon="13.065261046971793"><ele>63.0</ele><time>2026-04-17T13:42:46.999Z</time></trkpt><trkpt lat="53.04527978387569" lon="13.06535495506631"><ele>63.0</ele><time>2026-04-17T13:42:48.999Z</time></trkpt><trkpt lat="53.04534084022711" lon="13.065400318039558"><ele>63.0</ele><time>2026-04-17T13:42:49.999Z</time></trkpt><trkpt lat="53.045401467695335" lon="13.065445362397359"><ele>63.0</ele><time>2026-04-17T13:42:50.999Z</time></trkpt><trkpt lat="53.04546772356314" lon="13.065494588495438"><ele>63.0</ele><time>2026-04-17T13:42:51.999Z</time></trkpt><trkpt lat="53.04552828375578" lon="13.065539582902742"><ele>63.0</ele><time>2026-04-17T13:42:52.999Z</time></trkpt><trkpt lat="53.04560160197193" lon="13.065593204204973"><ele>63.0</ele><time>2026-04-17T13:42:53.999Z</time></trkpt><trkpt lat="53.04567423753664" lon="13.065644033655616"><ele>63.0</ele><time>2026-04-17T13:42:54.999Z</time></trkpt><trkpt lat="53.04575403400374" lon="13.065674042072255"><ele>63.0</ele><time>2026-04-17T13:42:55.999Z</time></trkpt><trkpt lat="53.04581504915398" lon="13.06573657317366"><ele>63.0</ele><time>2026-04-17T13:42:56.999Z</time></trkpt><trkpt lat="53.045965690549835" lon="13.065801777258262"><ele>63.0</ele><time>2026-04-17T13:42:58.999Z</time></trkpt><trkpt lat="53.046038825622176" lon="13.065850265029088"><ele>63.0</ele><time>2026-04-17T13:42:59.999Z</time></trkpt><trkpt lat="53.04610876672584" lon="13.065879169711067"><ele>63.0</ele><time>2026-04-17T13:43:00.999Z</time></trkpt><trkpt lat="53.046177271737136" lon="13.06593727569119"><ele>63.0</ele><time>2026-04-17T13:43:01.999Z</time></trkpt><trkpt lat="53.046259804597305" lon="13.065976162135273"><ele>63.0</ele><time>2026-04-17T13:43:02.999Z</time></trkpt><trkpt lat="53.04634963730413" lon="13.066035410959579"><ele>63.0</ele><time>2026-04-17T13:43:03.999Z</time></trkpt><trkpt lat="53.04643898138784" lon="13.066091810147388"><ele>63.0</ele><time>2026-04-17T13:43:04.999Z</time></trkpt><trkpt lat="53.04651672193055" lon="13.066143003969902"><ele>63.0</ele><time>2026-04-17T13:43:05.999Z</time></trkpt><trkpt lat="53.046599438824316" lon="13.066193423651411"><ele>62.666666666666664</ele><time>2026-04-17T13:43:06.999Z</time></trkpt><trkpt lat="53.04667702002972" lon="13.06624716554315"><ele>62.33333333333333</ele><time>2026-04-17T13:43:07.999Z</time></trkpt><trkpt lat="53.04675566580968" lon="13.066299945702443"><ele>62.0</ele><time>2026-04-17T13:43:08.999Z</time></trkpt><trkpt lat="53.0468273029297" lon="13.066356782910562"><ele>61.666666666666664</ele><time>2026-04-17T13:43:09.999Z</time></trkpt><trkpt lat="53.04690011528382" lon="13.066404340463444"><ele>61.33333333333333</ele><time>2026-04-17T13:43:10.999Z</time></trkpt><trkpt lat="53.04697700006866" lon="13.066451311714694"><ele>61.0</ele><time>2026-04-17T13:43:11.999Z</time></trkpt><trkpt lat="53.047046906694916" lon="13.066502989769987"><ele>60.99999999999999</ele><time>2026-04-17T13:43:12.999Z</time></trkpt><trkpt lat="53.047113996435506" lon="13.066573217173541"><ele>61.0</ele><time>2026-04-17T13:43:13.998Z</time></trkpt><trkpt lat="53.04719150587775" lon="13.066597948914456"><ele>61.0</ele><time>2026-04-17T13:43:14.998Z</time></trkpt><trkpt lat="53.04726629402558" lon="13.066645619097779"><ele>61.0</ele><time>2026-04-17T13:43:15.998Z</time></trkpt><trkpt lat="53.04734472243457" lon="13.066695975305619"><ele>60.99999999999999</ele><time>2026-04-17T13:43:16.998Z</time></trkpt><trkpt lat="53.04742083541307" lon="13.066745176152772"><ele>61.0</ele><time>2026-04-17T13:43:17.998Z</time></trkpt><trkpt lat="53.04749585361466" lon="13.066793808583123"><ele>61.57142857142856</ele><time>2026-04-17T13:43:18.998Z</time></trkpt><trkpt lat="53.04756499127845" lon="13.066846600194935"><ele>62.14285714285714</ele><time>2026-04-17T13:43:19.998Z</time></trkpt><trkpt lat="53.047640356429646" lon="13.066890360604258"><ele>62.714285714285715</ele><time>2026-04-17T13:43:20.998Z</time></trkpt><trkpt lat="53.04772102589359" lon="13.066942166300038"><ele>63.285714285714285</ele><time>2026-04-17T13:43:21.998Z</time></trkpt><trkpt lat="53.04778680105939" lon="13.066987924609455"><ele>63.85714285714286</ele><time>2026-04-17T13:43:22.998Z</time></trkpt><trkpt lat="53.04784912665537" lon="13.067024145811931"><ele>64.42857142857143</ele><time>2026-04-17T13:43:23.998Z</time></trkpt><trkpt lat="53.047914669455395" lon="13.06706414155115"><ele>65.0</ele><time>2026-04-17T13:43:24.998Z</time></trkpt><trkpt lat="53.047977747593926" lon="13.067100557242725"><ele>65.0</ele><time>2026-04-17T13:43:25.998Z</time></trkpt><trkpt lat="53.048040891663646" lon="13.067147434285367"><ele>65.0</ele><time>2026-04-17T13:43:26.998Z</time></trkpt><trkpt lat="53.048105443125074" lon="13.067205526506243"><ele>65.0</ele><time>2026-04-17T13:43:27.998Z</time></trkpt><trkpt lat="53.04818518482807" lon="13.067229329184803"><ele>65.0</ele><time>2026-04-17T13:43:28.998Z</time></trkpt><trkpt lat="53.0482520060753" lon="13.067275790675442"><ele>65.0</ele><time>2026-04-17T13:43:29.998Z</time></trkpt><trkpt lat="53.04832097009564" lon="13.067327681925933"><ele>65.0</ele><time>2026-04-17T13:43:30.998Z</time></trkpt><trkpt lat="53.04839843490302" lon="13.067375622125343"><ele>65.33333333333334</ele><time>2026-04-17T13:43:31.998Z</time></trkpt><trkpt lat="53.048480739926546" lon="13.067431284032558"><ele>65.66666666666667</ele><time>2026-04-17T13:43:32.998Z</time></trkpt><trkpt lat="53.048559586613756" lon="13.06748049721853"><ele>66.0</ele><time>2026-04-17T13:43:33.998Z</time></trkpt><trkpt lat="53.04862587390987" lon="13.06752297202143"><ele>66.33333333333333</ele><time>2026-04-17T13:43:34.998Z</time></trkpt><trkpt lat="53.04868602197654" lon="13.067561616808293"><ele>66.66666666666666</ele><time>2026-04-17T13:43:35.998Z</time></trkpt><trkpt lat="53.04874668327677" lon="13.06759803661041"><ele>67.0</ele><time>2026-04-17T13:43:36.998Z</time></trkpt><trkpt lat="53.04886916386574" lon="13.067680414653022"><ele>67.0</ele><time>2026-04-17T13:43:38.998Z</time></trkpt><trkpt lat="53.048939673032315" lon="13.067621670393363"><ele>67.0</ele><time>2026-04-17T13:43:39.998Z</time></trkpt><trkpt lat="53.048972149127" lon="13.06752304470952"><ele>67.0</ele><time>2026-04-17T13:43:40.998Z</time></trkpt><trkpt lat="53.04917054620825" lon="13.067731837367532"><ele>67.0</ele><time>2026-04-17T13:43:41.998Z</time></trkpt><trkpt lat="53.049209444158514" lon="13.067822668710901"><ele>67.0</ele><time>2026-04-17T13:43:42.998Z</time></trkpt><trkpt lat="53.04926513066894" lon="13.067963696767741"><ele>67.33333333333333</ele><time>2026-04-17T13:43:44.998Z</time></trkpt><trkpt lat="53.04932060926279" lon="13.068038658831169"><ele>67.66666666666666</ele><time>2026-04-17T13:43:48.998Z</time></trkpt><trkpt lat="53.04937038464944" lon="13.068162675173909"><ele>68.0</ele><time>2026-04-17T13:43:50.998Z</time></trkpt><trkpt lat="53.04942516487816" lon="13.068298224332969"><ele>68.33333333333333</ele><time>2026-04-17T13:43:52.998Z</time></trkpt><trkpt lat="53.04946117064096" lon="13.068387317543738"><ele>68.66666666666667</ele><time>2026-04-17T13:43:53.998Z</time></trkpt><trkpt lat="53.04950292105422" lon="13.068490625722552"><ele>69.0</ele><time>2026-04-17T13:43:54.998Z</time></trkpt><trkpt lat="53.04955461610607" lon="13.068595079876896"><ele>69.0</ele><time>2026-04-17T13:43:55.998Z</time></trkpt><trkpt lat="53.04960430457563" lon="13.068687787529397"><ele>69.0</ele><time>2026-04-17T13:43:56.998Z</time></trkpt><trkpt lat="53.049652028290765" lon="13.068768687995815"><ele>69.0</ele><time>2026-04-17T13:43:57.998Z</time></trkpt><trkpt lat="53.05004314069128" lon="13.068476347627763"><ele>69.16666666666667</ele><time>2026-04-17T13:43:59Z</time></trkpt><trkpt lat="53.0501197881764" lon="13.068525464472474"><ele>69.33333333333333</ele><time>2026-04-17T13:44:00Z</time></trkpt><trkpt lat="53.05019039692164" lon="13.068567478128468"><ele>69.5</ele><time>2026-04-17T13:44:01Z</time></trkpt><trkpt lat="53.05025467291616" lon="13.068610128194484"><ele>69.66666666666666</ele><time>2026-04-17T13:44:02Z</time></trkpt><trkpt lat="53.05032281080373" lon="13.068663787945676"><ele>69.83333333333333</ele><time>2026-04-17T13:44:03Z</time></trkpt><trkpt lat="53.050400591306115" lon="13.068714681040628"><ele>70.0</ele><time>2026-04-17T13:44:04Z</time></trkpt><trkpt lat="53.05047979338803" lon="13.068764066742826"><ele>70.0</ele><time>2026-04-17T13:44:05Z</time></trkpt><trkpt lat="53.05056612431195" lon="13.068819344234964"><ele>70.0</ele><time>2026-04-17T13:44:06Z</time></trkpt><trkpt lat="53.050655842072324" lon="13.068887930609225"><ele>70.0</ele><time>2026-04-17T13:44:07Z</time></trkpt><trkpt lat="53.050733485547774" lon="13.068941276915217"><ele>70.0</ele><time>2026-04-17T13:44:08Z</time></trkpt><trkpt lat="53.050812470729895" lon="13.068991921923756"><ele>70.0</ele><time>2026-04-17T13:44:09Z</time></trkpt><trkpt lat="53.050889546315354" lon="13.069043821134393"><ele>70.0</ele><time>2026-04-17T13:44:10Z</time></trkpt><trkpt lat="53.05097271537122" lon="13.069097648537324"><ele>70.16666666666666</ele><time>2026-04-17T13:44:11Z</time></trkpt><trkpt lat="53.05104651077372" lon="13.06914381366137"><ele>70.33333333333333</ele><time>2026-04-17T13:44:12Z</time></trkpt><trkpt lat="53.05116997811056" lon="13.069231419935562"><ele>70.5</ele><time>2026-04-17T13:44:14Z</time></trkpt><trkpt lat="53.05124110932659" lon="13.069274535926958"><ele>70.66666666666667</ele><time>2026-04-17T13:44:15Z</time></trkpt><trkpt lat="53.051314625247535" lon="13.069322191401229"><ele>70.83333333333334</ele><time>2026-04-17T13:44:16Z</time></trkpt><trkpt lat="53.051388642893365" lon="13.06936898329481"><ele>71.0</ele><time>2026-04-17T13:44:17Z</time></trkpt><trkpt lat="53.05146336713637" lon="13.069421347684564"><ele>71.0</ele><time>2026-04-17T13:44:18Z</time></trkpt><trkpt lat="53.05153508677048" lon="13.069471682383066"><ele>71.0</ele><time>2026-04-17T13:44:19Z</time></trkpt><trkpt lat="53.05161228137589" lon="13.0695168123651"><ele>71.0</ele><time>2026-04-17T13:44:20Z</time></trkpt><trkpt lat="53.05169205262172" lon="13.06956085492962"><ele>71.0</ele><time>2026-04-17T13:44:21Z</time></trkpt><trkpt lat="53.051781937005565" lon="13.069627318315987"><ele>71.0</ele><time>2026-04-17T13:44:22Z</time></trkpt><trkpt lat="53.0518604968682" lon="13.069668811978554"><ele>71.0</ele><time>2026-04-17T13:44:23Z</time></trkpt><trkpt lat="53.05192439164632" lon="13.069709721502736"><ele>70.71428571428571</ele><time>2026-04-17T13:44:24Z</time></trkpt><trkpt lat="53.051991095186736" lon="13.069754466511116"><ele>70.42857142857142</ele><time>2026-04-17T13:44:25Z</time></trkpt><trkpt lat="53.05207138638841" lon="13.06980900036139"><ele>70.14285714285714</ele><time>2026-04-17T13:44:26Z</time></trkpt><trkpt lat="53.05214054741824" lon="13.069859634870308"><ele>69.85714285714286</ele><time>2026-04-17T13:44:27Z</time></trkpt><trkpt lat="53.052205519203426" lon="13.069901919000499"><ele>69.57142857142858</ele><time>2026-04-17T13:44:28Z</time></trkpt><trkpt lat="53.052268478599764" lon="13.069947812959198"><ele>69.28571428571429</ele><time>2026-04-17T13:44:29Z</time></trkpt><trkpt lat="53.05232760040703" lon="13.069994848808237"><ele>69.0</ele><time>2026-04-17T13:44:30Z</time></trkpt><trkpt lat="53.05240079097546" lon="13.070037664434702"><ele>69.0</ele><time>2026-04-17T13:44:31Z</time></trkpt><trkpt lat="53.05247104534527" lon="13.070085797498846"><ele>69.0</ele><time>2026-04-17T13:44:31.999Z</time></trkpt><trkpt lat="53.052540318030786" lon="13.07012820717222"><ele>69.0</ele><time>2026-04-17T13:44:32.999Z</time></trkpt><trkpt lat="53.052605199375535" lon="13.070180805409597"><ele>69.0</ele><time>2026-04-17T13:44:33.999Z</time></trkpt><trkpt lat="53.05271402576134" lon="13.070259801463685"><ele>69.0</ele><time>2026-04-17T13:44:35.999Z</time></trkpt><trkpt lat="53.052832430687516" lon="13.070328033721866"><ele>69.0</ele><time>2026-04-17T13:44:37.999Z</time></trkpt><trkpt lat="53.05294673322398" lon="13.070409179171698"><ele>69.0</ele><time>2026-04-17T13:44:39.999Z</time></trkpt><trkpt lat="53.05301681209342" lon="13.070447137036014"><ele>69.0</ele><time>2026-04-17T13:44:40.999Z</time></trkpt><trkpt lat="53.05308999478416" lon="13.070489472228067"><ele>69.0</ele><time>2026-04-17T13:44:41.999Z</time></trkpt><trkpt lat="53.053167536479165" lon="13.070543014776375"><ele>69.0</ele><time>2026-04-17T13:44:42.999Z</time></trkpt><trkpt lat="53.053236023702276" lon="13.07058704692584"><ele>69.0</ele><time>2026-04-17T13:44:43.999Z</time></trkpt><trkpt lat="53.05331208589424" lon="13.070642076216222"><ele>69.16666666666667</ele><time>2026-04-17T13:44:44.999Z</time></trkpt><trkpt lat="53.05338446358724" lon="13.070691353508272"><ele>69.33333333333333</ele><time>2026-04-17T13:44:45.999Z</time></trkpt><trkpt lat="53.05346097778284" lon="13.070741805632256"><ele>69.5</ele><time>2026-04-17T13:44:46.999Z</time></trkpt><trkpt lat="53.05354167338429" lon="13.07078912098197"><ele>69.66666666666666</ele><time>2026-04-17T13:44:47.999Z</time></trkpt><trkpt lat="53.05361925258142" lon="13.070839709992493"><ele>69.83333333333333</ele><time>2026-04-17T13:44:48.999Z</time></trkpt><trkpt lat="53.05368796924293" lon="13.070885174413764"><ele>70.0</ele><time>2026-04-17T13:44:49.999Z</time></trkpt><trkpt lat="53.05376893449571" lon="13.07094489674289"><ele>70.2</ele><time>2026-04-17T13:44:50.999Z</time></trkpt><trkpt lat="53.053841529522664" lon="13.070992420077465"><ele>70.4</ele><time>2026-04-17T13:44:51.999Z</time></trkpt><trkpt lat="53.05391112276452" lon="13.071031352179403"><ele>70.6</ele><time>2026-04-17T13:44:52.999Z</time></trkpt><trkpt lat="53.05402385808588" lon="13.071086282473368"><ele>70.8</ele><time>2026-04-17T13:44:54.999Z</time></trkpt><trkpt lat="53.05412368241687" lon="13.071079528284544"><ele>71.0</ele><time>2026-04-17T13:44:56.999Z</time></trkpt><trkpt lat="53.05425014648006" lon="13.071108531820006"><ele>71.0</ele><time>2026-04-17T13:44:58.999Z</time></trkpt><trkpt lat="53.054312426988716" lon="13.071166020497605"><ele>71.0</ele><time>2026-04-17T13:44:59.999Z</time></trkpt><trkpt lat="53.05438863828742" lon="13.071222294333285"><ele>71.0</ele><time>2026-04-17T13:45:00.999Z</time></trkpt><trkpt lat="53.0544706845184" lon="13.071268354666946"><ele>71.0</ele><time>2026-04-17T13:45:01.999Z</time></trkpt><trkpt lat="53.05454688389202" lon="13.071303343699963"><ele>71.0</ele><time>2026-04-17T13:45:02.999Z</time></trkpt><trkpt lat="53.05461801684832" lon="13.071349379062042"><ele>71.0</ele><time>2026-04-17T13:45:03.999Z</time></trkpt><trkpt lat="53.05468962976897" lon="13.071404349427187"><ele>71.0</ele><time>2026-04-17T13:45:04.999Z</time></trkpt><trkpt lat="53.054759707272915" lon="13.071468453439762"><ele>71.0</ele><time>2026-04-17T13:45:05.999Z</time></trkpt><trkpt lat="53.05483283654408" lon="13.071530657354156"><ele>71.0</ele><time>2026-04-17T13:45:06.999Z</time></trkpt><trkpt lat="53.05491088946233" lon="13.071579880632429"><ele>71.0</ele><time>2026-04-17T13:45:07.999Z</time></trkpt><trkpt lat="53.05497705676863" lon="13.07161883552811"><ele>71.0</ele><time>2026-04-17T13:45:08.999Z</time></trkpt><trkpt lat="53.05503874570654" lon="13.071652424967581"><ele>71.0</ele><time>2026-04-17T13:45:09.999Z</time></trkpt><trkpt lat="53.05510372887847" lon="13.071698167676056"><ele>71.5</ele><time>2026-04-17T13:45:10.999Z</time></trkpt><trkpt lat="53.05516493445947" lon="13.071745974230033"><ele>72.0</ele><time>2026-04-17T13:45:11.999Z</time></trkpt><trkpt lat="53.055225787375086" lon="13.071803532035"><ele>72.5</ele><time>2026-04-17T13:45:12.999Z</time></trkpt><trkpt lat="53.055317867907256" lon="13.07187327731198"><ele>73.0</ele><time>2026-04-17T13:45:14.999Z</time></trkpt><trkpt lat="53.05542203850694" lon="13.07198726697225"><ele>73.5</ele><time>2026-04-17T13:45:16.999Z</time></trkpt><trkpt lat="53.055493122187904" lon="13.072049783465825"><ele>74.0</ele><time>2026-04-17T13:45:17.999Z</time></trkpt><trkpt lat="53.05556165162635" lon="13.072097167582077"><ele>74.0</ele><time>2026-04-17T13:45:18.998Z</time></trkpt><trkpt lat="53.055632786065736" lon="13.072154182954643"><ele>74.0</ele><time>2026-04-17T13:45:19.998Z</time></trkpt><trkpt lat="53.0557016838101" lon="13.072214071989155"><ele>74.0</ele><time>2026-04-17T13:45:20.998Z</time></trkpt><trkpt lat="53.05576383253254" lon="13.07228462617686"><ele>74.0</ele><time>2026-04-17T13:45:21.998Z</time></trkpt><trkpt lat="53.05584028873076" lon="13.072352266417884"><ele>74.0</ele><time>2026-04-17T13:45:22.998Z</time></trkpt><trkpt lat="53.05591060021885" lon="13.072424214023219"><ele>74.0</ele><time>2026-04-17T13:45:23.998Z</time></trkpt><trkpt lat="53.05597592304542" lon="13.072494559372668"><ele>73.83333333333334</ele><time>2026-04-17T13:45:24.998Z</time></trkpt><trkpt lat="53.05604168661121" lon="13.07257583204881"><ele>73.66666666666667</ele><time>2026-04-17T13:45:25.998Z</time></trkpt><trkpt lat="53.05610369413503" lon="13.0726660936549"><ele>73.5</ele><time>2026-04-17T13:45:26.998Z</time></trkpt><trkpt lat="53.056166945624376" lon="13.072756205627886"><ele>73.33333333333333</ele><time>2026-04-17T13:45:27.998Z</time></trkpt><trkpt lat="53.0562317375726" lon="13.07283873209568"><ele>73.16666666666666</ele><time>2026-04-17T13:45:28.998Z</time></trkpt><trkpt lat="53.05630209529863" lon="13.072922785055065"><ele>73.0</ele><time>2026-04-17T13:45:29.998Z</time></trkpt><trkpt lat="53.05637942518214" lon="13.07301618228796"><ele>73.0</ele><time>2026-04-17T13:45:30.998Z</time></trkpt><trkpt lat="53.05646372535758" lon="13.073105575873269"><ele>73.0</ele><time>2026-04-17T13:45:31.998Z</time></trkpt><trkpt lat="53.05653060564371" lon="13.07319723151989"><ele>73.0</ele><time>2026-04-17T13:45:32.998Z</time></trkpt><trkpt lat="53.05660353236013" lon="13.073297155279555"><ele>73.0</ele><time>2026-04-17T13:45:33.998Z</time></trkpt><trkpt lat="53.05666812717754" lon="13.07339145279735"><ele>73.0</ele><time>2026-04-17T13:45:34.998Z</time></trkpt><trkpt lat="53.056722641137334" lon="13.073487529626897"><ele>73.0</ele><time>2026-04-17T13:45:35.998Z</time></trkpt><trkpt lat="53.05677847955524" lon="13.07357105668455"><ele>73.0</ele><time>2026-04-17T13:45:36.998Z</time></trkpt><trkpt lat="53.05682937805859" lon="13.073644761717944"><ele>73.0</ele><time>2026-04-17T13:45:37.998Z</time></trkpt><trkpt lat="53.056890610704485" lon="13.073780098471502"><ele>73.0</ele><time>2026-04-17T13:45:39.998Z</time></trkpt><trkpt lat="53.0569641247924" lon="13.073852327007994"><ele>73.0</ele><time>2026-04-17T13:45:48.998Z</time></trkpt><trkpt lat="53.05706885851764" lon="13.073955238519735"><ele>73.0</ele><time>2026-04-17T13:45:50.998Z</time></trkpt><trkpt lat="53.05712521735346" lon="13.07401061659497"><ele>73.0</ele><time>2026-04-17T13:45:51.998Z</time></trkpt><trkpt lat="53.05719159906456" lon="13.074078262607632"><ele>73.0</ele><time>2026-04-17T13:45:52.998Z</time></trkpt><trkpt lat="53.057247089177" lon="13.07413689273011"><ele>73.0</ele><time>2026-04-17T13:45:53.998Z</time></trkpt><trkpt lat="53.057306597975156" lon="13.07419976889579"><ele>73.0</ele><time>2026-04-17T13:45:54.998Z</time></trkpt><trkpt lat="53.05737517885338" lon="13.074272230606553"><ele>73.0</ele><time>2026-04-17T13:45:55.998Z</time></trkpt><trkpt lat="53.05745216331046" lon="13.074321689375292"><ele>73.0</ele><time>2026-04-17T13:45:56.998Z</time></trkpt><trkpt lat="53.057535537682114" lon="13.074400693960404"><ele>73.0</ele><time>2026-04-17T13:45:57.998Z</time></trkpt><trkpt lat="53.05761343001034" lon="13.074467142454974"><ele>73.0</ele><time>2026-04-17T13:45:58.998Z</time></trkpt><trkpt lat="53.05769238555196" lon="13.074527837892768"><ele>73.0</ele><time>2026-04-17T13:45:59.998Z</time></trkpt><trkpt lat="53.05777714413512" lon="13.074588353185634"><ele>73.0</ele><time>2026-04-17T13:46:00.998Z</time></trkpt><trkpt lat="53.05785976145332" lon="13.074652156259676"><ele>73.0</ele><time>2026-04-17T13:46:01.998Z</time></trkpt><trkpt lat="53.0579363623148" lon="13.074715949538888"><ele>73.0</ele><time>2026-04-17T13:46:02.998Z</time></trkpt><trkpt lat="53.05800695017897" lon="13.074769884044777"><ele>73.0</ele><time>2026-04-17T13:46:03.998Z</time></trkpt><trkpt lat="53.05808827121396" lon="13.074832340786969"><ele>73.0</ele><time>2026-04-17T13:46:05Z</time></trkpt><trkpt lat="53.058175298213655" lon="13.074904078099122"><ele>73.0</ele><time>2026-04-17T13:46:06Z</time></trkpt><trkpt lat="53.05826001256214" lon="13.074969798535921"><ele>73.0</ele><time>2026-04-17T13:46:07Z</time></trkpt><trkpt lat="53.05834938214705" lon="13.07504194163324"><ele>73.0</ele><time>2026-04-17T13:46:08Z</time></trkpt><trkpt lat="53.058439757617414" lon="13.075118783271302"><ele>73.0</ele><time>2026-04-17T13:46:09Z</time></trkpt><trkpt lat="53.05853593486411" lon="13.075206108539838"><ele>73.4</ele><time>2026-04-17T13:46:10Z</time></trkpt><trkpt lat="53.058630931814996" lon="13.075289337058551"><ele>73.8</ele><time>2026-04-17T13:46:11Z</time></trkpt><trkpt lat="53.05871876681952" lon="13.075396908488246"><ele>74.2</ele><time>2026-04-17T13:46:12Z</time></trkpt><trkpt lat="53.05882048968268" lon="13.07549091830605"><ele>74.6</ele><time>2026-04-17T13:46:13Z</time></trkpt><trkpt lat="53.05892468989474" lon="13.075563052904759"><ele>75.0</ele><time>2026-04-17T13:46:14Z</time></trkpt><trkpt lat="53.05900454633181" lon="13.07563071971037"><ele>75.0</ele><time>2026-04-17T13:46:15Z</time></trkpt><trkpt lat="53.05908432467149" lon="13.075708951818521"><ele>75.0</ele><time>2026-04-17T13:46:16Z</time></trkpt><trkpt lat="53.059165837326894" lon="13.075791426667012"><ele>75.0</ele><time>2026-04-17T13:46:17Z</time></trkpt><trkpt lat="53.05925512459502" lon="13.075860729121217"><ele>75.0</ele><time>2026-04-17T13:46:18Z</time></trkpt><trkpt lat="53.059351327567505" lon="13.075944882753744"><ele>75.0</ele><time>2026-04-17T13:46:19Z</time></trkpt><trkpt lat="53.05943751476868" lon="13.076033859229995"><ele>75.2</ele><time>2026-04-17T13:46:20Z</time></trkpt><trkpt lat="53.05960997214736" lon="13.076173187719805"><ele>75.4</ele><time>2026-04-17T13:46:22Z</time></trkpt><trkpt lat="53.059683957368996" lon="13.076236444882143"><ele>75.6</ele><time>2026-04-17T13:46:23Z</time></trkpt><trkpt lat="53.05974431956276" lon="13.07629087713329"><ele>75.8</ele><time>2026-04-17T13:46:24Z</time></trkpt><trkpt lat="53.05983433455915" lon="13.076371700718203"><ele>76.0</ele><time>2026-04-17T13:46:26Z</time></trkpt><trkpt lat="53.05989919033102" lon="13.076426266298816"><ele>75.8</ele><time>2026-04-17T13:46:30Z</time></trkpt><trkpt lat="53.06000977555765" lon="13.076192338413986"><ele>75.6</ele><time>2026-04-17T13:46:32Z</time></trkpt><trkpt lat="53.060058671818965" lon="13.076086362218755"><ele>75.4</ele><time>2026-04-17T13:46:33Z</time></trkpt><trkpt lat="53.06010795133486" lon="13.075979555898439"><ele>75.2</ele><time>2026-04-17T13:46:34Z</time></trkpt><trkpt lat="53.060155614612796" lon="13.07587625230413"><ele>75.0</ele><time>2026-04-17T13:46:35Z</time></trkpt><trkpt lat="53.06021078092807" lon="13.075756686981006"><ele>74.6</ele><time>2026-04-17T13:46:36Z</time></trkpt><trkpt lat="53.06027395617647" lon="13.075618238950563"><ele>74.2</ele><time>2026-04-17T13:46:37Z</time></trkpt><trkpt lat="53.060339680807324" lon="13.075473882439375"><ele>73.8</ele><time>2026-04-17T13:46:38Z</time></trkpt><trkpt lat="53.060403371552454" lon="13.075333993119989"><ele>73.4</ele><time>2026-04-17T13:46:39Z</time></trkpt><trkpt lat="53.060475342841656" lon="13.075178208578585"><ele>73.0</ele><time>2026-04-17T13:46:40Z</time></trkpt><trkpt lat="53.06055286370787" lon="13.07501118366492"><ele>73.0</ele><time>2026-04-17T13:46:40.999Z</time></trkpt><trkpt lat="53.06063185520008" lon="13.074840990361768"><ele>73.0</ele><time>2026-04-17T13:46:41.999Z</time></trkpt><trkpt lat="53.06071429818842" lon="13.07466336034406"><ele>73.0</ele><time>2026-04-17T13:46:42.999Z</time></trkpt><trkpt lat="53.06079650347286" lon="13.07448624267858"><ele>73.0</ele><time>2026-04-17T13:46:43.999Z</time></trkpt><trkpt lat="53.06087742507024" lon="13.074311890684818"><ele>73.0</ele><time>2026-04-17T13:46:44.999Z</time></trkpt><trkpt lat="53.06095188192098" lon="13.074150240574498"><ele>73.0</ele><time>2026-04-17T13:46:45.999Z</time></trkpt><trkpt lat="53.061039124602495" lon="13.073960721726454"><ele>73.0</ele><time>2026-04-17T13:46:46.999Z</time></trkpt><trkpt lat="53.06111083570808" lon="13.073759021973371"><ele>73.0</ele><time>2026-04-17T13:46:47.999Z</time></trkpt><trkpt lat="53.06119910190213" lon="13.073572948329032"><ele>73.0</ele><time>2026-04-17T13:46:48.999Z</time></trkpt><trkpt lat="53.06128623873344" lon="13.073388253765975"><ele>73.0</ele><time>2026-04-17T13:46:49.999Z</time></trkpt><trkpt lat="53.06136985167673" lon="13.07319599023093"><ele>73.0</ele><time>2026-04-17T13:46:50.999Z</time></trkpt><trkpt lat="53.06145882606545" lon="13.073004229983757"><ele>73.0</ele><time>2026-04-17T13:46:51.999Z</time></trkpt><trkpt lat="53.061547702577116" lon="13.072815940507144"><ele>73.33333333333333</ele><time>2026-04-17T13:46:52.999Z</time></trkpt><trkpt lat="53.06164057328917" lon="13.072611351968417"><ele>73.66666666666667</ele><time>2026-04-17T13:46:53.999Z</time></trkpt><trkpt lat="53.06173494985775" lon="13.072412766837017"><ele>74.0</ele><time>2026-04-17T13:46:54.999Z</time></trkpt><trkpt lat="53.061821893263385" lon="13.072221417077328"><ele>74.0</ele><time>2026-04-17T13:46:55.999Z</time></trkpt><trkpt lat="53.061908278393304" lon="13.07203038861051"><ele>74.0</ele><time>2026-04-17T13:46:56.999Z</time></trkpt><trkpt lat="53.061995485197436" lon="13.071838286817325"><ele>74.0</ele><time>2026-04-17T13:46:57.999Z</time></trkpt><trkpt lat="53.06209052329684" lon="13.071644812490545"><ele>74.0</ele><time>2026-04-17T13:46:58.999Z</time></trkpt><trkpt lat="53.062176419059085" lon="13.071451646253324"><ele>74.0</ele><time>2026-04-17T13:46:59.999Z</time></trkpt><trkpt lat="53.06226528524834" lon="13.071259036330307"><ele>74.0</ele><time>2026-04-17T13:47:00.999Z</time></trkpt><trkpt lat="53.06234956409777" lon="13.071069704486247"><ele>74.0</ele><time>2026-04-17T13:47:01.999Z</time></trkpt><trkpt lat="53.06243968131705" lon="13.070883744805887"><ele>74.0</ele><time>2026-04-17T13:47:02.999Z</time></trkpt><trkpt lat="53.0625251122553" lon="13.070699223740815"><ele>74.75</ele><time>2026-04-17T13:47:03.999Z</time></trkpt><trkpt lat="53.06260306619045" lon="13.07052006946297"><ele>75.5</ele><time>2026-04-17T13:47:04.999Z</time></trkpt><trkpt lat="53.0626920902643" lon="13.070367591213905"><ele>76.25</ele><time>2026-04-17T13:47:05.999Z</time></trkpt><trkpt lat="53.0627590379502" lon="13.070197695870224"><ele>77.0</ele><time>2026-04-17T13:47:06.999Z</time></trkpt><trkpt lat="53.06282400023327" lon="13.070038655252185"><ele>76.8</ele><time>2026-04-17T13:47:07.999Z</time></trkpt><trkpt lat="53.06289261551858" lon="13.06989581826439"><ele>76.6</ele><time>2026-04-17T13:47:08.999Z</time></trkpt><trkpt lat="53.06297142482505" lon="13.069775061349517"><ele>76.39999999999999</ele><time>2026-04-17T13:47:09.999Z</time></trkpt><trkpt lat="53.063023794133" lon="13.069630517445297"><ele>76.2</ele><time>2026-04-17T13:47:10.999Z</time></trkpt><trkpt lat="53.063086072374965" lon="13.069514877700222"><ele>76.0</ele><time>2026-04-17T13:47:11.999Z</time></trkpt><trkpt lat="53.06312972265136" lon="13.069405714952266"><ele>76.0</ele><time>2026-04-17T13:47:12.999Z</time></trkpt><trkpt lat="53.06318852476684" lon="13.06928681279785"><ele>76.0</ele><time>2026-04-17T13:47:14.999Z</time></trkpt><trkpt lat="53.06334621755374" lon="13.069363172461859"><ele>76.0</ele><time>2026-04-17T13:47:17.999Z</time></trkpt><trkpt lat="53.063402008682026" lon="13.069422627265157"><ele>76.0</ele><time>2026-04-17T13:47:18.999Z</time></trkpt><trkpt lat="53.06347610524846" lon="13.069481155077789"><ele>76.0</ele><time>2026-04-17T13:47:19.999Z</time></trkpt><trkpt lat="53.063547176154636" lon="13.069543008357195"><ele>76.5</ele><time>2026-04-17T13:47:20.999Z</time></trkpt><trkpt lat="53.06362455204505" lon="13.069604664003686"><ele>77.0</ele><time>2026-04-17T13:47:21.999Z</time></trkpt><trkpt lat="53.063693765924185" lon="13.069657929400016"><ele>77.5</ele><time>2026-04-17T13:47:22.999Z</time></trkpt><trkpt lat="53.063761977444855" lon="13.06971274630853"><ele>78.0</ele><time>2026-04-17T13:47:23.999Z</time></trkpt><trkpt lat="53.06382094779763" lon="13.06975200112298"><ele>78.5</ele><time>2026-04-17T13:47:24.999Z</time></trkpt><trkpt lat="53.06390762962577" lon="13.069768349931017"><ele>79.0</ele><time>2026-04-17T13:47:26.999Z</time></trkpt><trkpt lat="53.063985380995454" lon="13.069735737257817"><ele>79.0</ele><time>2026-04-17T13:47:29.998Z</time></trkpt><trkpt lat="53.06405557629559" lon="13.069788322112531"><ele>79.0</ele><time>2026-04-17T13:47:31.998Z</time></trkpt><trkpt lat="53.06411840402073" lon="13.069818797746125"><ele>79.0</ele><time>2026-04-17T13:47:33.998Z</time></trkpt><trkpt lat="53.064180244154635" lon="13.0696891893318"><ele>79.0</ele><time>2026-04-17T13:47:37.998Z</time></trkpt><trkpt lat="53.06422107626683" lon="13.069503529369163"><ele>79.0</ele><time>2026-04-17T13:47:39.998Z</time></trkpt><trkpt lat="53.0642555268881" lon="13.069403633505232"><ele>79.0</ele><time>2026-04-17T13:47:40.998Z</time></trkpt><trkpt lat="53.0642928737309" lon="13.069314172030692"><ele>79.0</ele><time>2026-04-17T13:47:41.998Z</time></trkpt><trkpt lat="53.06433587577155" lon="13.069219881112446"><ele>79.0</ele><time>2026-04-17T13:47:42.998Z</time></trkpt><trkpt lat="53.06438902487745" lon="13.06912993859919"><ele>79.0</ele><time>2026-04-17T13:47:43.998Z</time></trkpt><trkpt lat="53.06443917230642" lon="13.069036001679795"><ele>79.0</ele><time>2026-04-17T13:47:44.998Z</time></trkpt><trkpt lat="53.06448711755037" lon="13.068934854939206"><ele>79.0</ele><time>2026-04-17T13:47:45.998Z</time></trkpt><trkpt lat="53.06453094085722" lon="13.068831275815745"><ele>79.0</ele><time>2026-04-17T13:47:46.998Z</time></trkpt><trkpt lat="53.06458402310753" lon="13.068717771446973"><ele>79.0</ele><time>2026-04-17T13:47:47.998Z</time></trkpt><trkpt lat="53.06463150657237" lon="13.068609220268604"><ele>79.0</ele><time>2026-04-17T13:47:48.998Z</time></trkpt><trkpt lat="53.06467589263425" lon="13.068496513569752"><ele>79.0</ele><time>2026-04-17T13:47:49.998Z</time></trkpt><trkpt lat="53.06471824536736" lon="13.068395756229071"><ele>79.0</ele><time>2026-04-17T13:47:50.998Z</time></trkpt><trkpt lat="53.064759903261546" lon="13.068288204295317"><ele>79.0</ele><time>2026-04-17T13:47:51.998Z</time></trkpt><trkpt lat="53.064792863046186" lon="13.068187018133749"><ele>79.0</ele><time>2026-04-17T13:47:52.998Z</time></trkpt><trkpt lat="53.064873846679184" lon="13.06802480492156"><ele>78.83333333333333</ele><time>2026-04-17T13:47:54.998Z</time></trkpt><trkpt lat="53.064919485596754" lon="13.067927592648754"><ele>78.66666666666666</ele><time>2026-04-17T13:47:55.998Z</time></trkpt><trkpt lat="53.06499330890798" lon="13.067761423528932"><ele>78.5</ele><time>2026-04-17T13:47:57.998Z</time></trkpt><trkpt lat="53.06503176641775" lon="13.067665754404691"><ele>78.33333333333333</ele><time>2026-04-17T13:47:58.998Z</time></trkpt><trkpt lat="53.06507245437193" lon="13.067570630672405"><ele>78.16666666666667</ele><time>2026-04-17T13:47:59.998Z</time></trkpt><trkpt lat="53.06510890788258" lon="13.067478523737307"><ele>78.0</ele><time>2026-04-17T13:48:00.998Z</time></trkpt><trkpt lat="53.0651500127148" lon="13.067387775842015"><ele>78.0</ele><time>2026-04-17T13:48:01.998Z</time></trkpt><trkpt lat="53.06518772387683" lon="13.067301926670572"><ele>78.0</ele><time>2026-04-17T13:48:02.998Z</time></trkpt><trkpt lat="53.06525564597513" lon="13.067142356930086"><ele>78.0</ele><time>2026-04-17T13:48:04.998Z</time></trkpt><trkpt lat="53.065326994249205" lon="13.066994380589767"><ele>78.0</ele><time>2026-04-17T13:48:06.998Z</time></trkpt><trkpt lat="53.06537377460065" lon="13.066859434855951"><ele>78.0</ele><time>2026-04-17T13:48:08.998Z</time></trkpt><trkpt lat="53.06544710213573" lon="13.066773244954161"><ele>78.0</ele><time>2026-04-17T13:48:11Z</time></trkpt><trkpt lat="53.06550990410644" lon="13.066686185013767"><ele>78.0</ele><time>2026-04-17T13:48:13Z</time></trkpt><trkpt lat="53.065581397480855" lon="13.066621912560024"><ele>78.0</ele><time>2026-04-17T13:48:22Z</time></trkpt><trkpt lat="53.0656636704297" lon="13.066562225361134"><ele>78.0</ele><time>2026-04-17T13:48:24Z</time></trkpt><trkpt lat="53.06575684669649" lon="13.06652681590422"><ele>78.0</ele><time>2026-04-17T13:48:26Z</time></trkpt><trkpt lat="53.065843982253675" lon="13.066512258707425"><ele>78.0</ele><time>2026-04-17T13:48:28Z</time></trkpt><trkpt lat="53.06592559948108" lon="13.066490717243386"><ele>78.4</ele><time>2026-04-17T13:48:30Z</time></trkpt><trkpt lat="53.06600010448946" lon="13.066483328731687"><ele>78.8</ele><time>2026-04-17T13:48:32Z</time></trkpt><trkpt lat="53.066127053000955" lon="13.066472368351778"><ele>79.2</ele><time>2026-04-17T13:48:34Z</time></trkpt><trkpt lat="53.06620975463659" lon="13.066487134676892"><ele>79.6</ele><time>2026-04-17T13:48:36Z</time></trkpt><trkpt lat="53.066191239033756" lon="13.066589465013262"><ele>80.0</ele><time>2026-04-17T13:48:48.999Z</time></trkpt><trkpt lat="53.066156497049505" lon="13.066797019661996"><ele>80.16666666666667</ele><time>2026-04-17T13:48:50.999Z</time></trkpt><trkpt lat="53.06613721260585" lon="13.066911393268303"><ele>80.33333333333334</ele><time>2026-04-17T13:48:51.999Z</time></trkpt><trkpt lat="53.066054653068036" lon="13.066925316153508"><ele>80.5</ele><time>2026-04-17T13:48:56.999Z</time></trkpt><trkpt lat="53.065944329340404" lon="13.06687145494545"><ele>80.66666666666667</ele><time>2026-04-17T13:48:58.999Z</time></trkpt><trkpt lat="53.0658374708795" lon="13.06683988153922"><ele>80.83333333333333</ele><time>2026-04-17T13:49:00.999Z</time></trkpt><trkpt lat="53.065782272401606" lon="13.066772713636391"><ele>81.0</ele><time>2026-04-17T13:49:02.999Z</time></trkpt><trkpt lat="53.06576643424529" lon="13.066622825867901"><ele>78.0</ele><time>2026-04-17T13:49:05.999Z</time></trkpt><trkpt lat="53.065794720920785" lon="13.066513171555279"><ele>80.0</ele><time>2026-04-17T13:49:07.999Z</time></trkpt><trkpt lat="53.06585720758493" lon="13.066464414193506"><ele>80.0</ele><time>2026-04-17T13:49:09.999Z</time></trkpt><trkpt lat="53.065916747430656" lon="13.066411202703692"><ele>80.0</ele><time>2026-04-17T13:51:25.999Z</time></trkpt></trkseg></trk></gpx>